<?xml version="1.0" encoding="UTF-8"?>
<gpx xmlns="http://www.topografix.com/GPX/1/1" xmlns:dkl="http://www.gpsware.de/DKL/1/1" xmlns:rtx="http://www.bike-gps.de/RTX/1/1" version="1.1" creator="KOMPASS Digital Map" xmlns:xsi="http://www.w3.org/2001/XMLSchema-instance" xsi:schemaLocation="http://www.topografix.com/GPX/1/1 http://www.topografix.com/GPX/1/1/gpx.xsd">
 <metadata>
 <name>KOMPASS Digital Map Track</name>
 <desc> </desc>
 <time>2011-10-23T15:23:53Z</time>
 <bounds minlat="47.421867" minlon="12.983808" maxlat="47.727306" maxlon="13.219392"/>
 </metadata>
 <trk>
 <name>2011_Königsee</name>
 <cmt>Urstein-Königsee-Dürnberg-Bo mi Schwaiger Ernst</cmt>
 <extensions>
 <dkl:dkl>
 <dkl:format_version>1.1</dkl:format_version>
 <dkl:format>
 <dkl:color>FF0000</dkl:color>
 <dkl:style>00000000</dkl:style>
 <dkl:strength>3</dkl:strength>
 <dkl:transparent>0</dkl:transparent>
 </dkl:format>
 <dkl:profile>
 <dkl:mode>0</dkl:mode>
 <dkl:smooth>1</dkl:smooth>
 </dkl:profile>
 </dkl:dkl>
 </extensions>
 <trkseg>
 <trkpt lat="47.724438" lon="13.088266">
 <ele>452.21</ele>
 <time>2011-10-23T08:21:45Z</time>
 </trkpt>
 <trkpt lat="47.724438" lon="13.088267">
 <ele>452.21</ele>
 <time>2011-10-23T08:21:46Z</time>
 </trkpt>
 <trkpt lat="47.724442" lon="13.088266">
 <ele>451.03</ele>
 <time>2011-10-23T08:22:02Z</time>
 </trkpt>
 <trkpt lat="47.724480" lon="13.088253">
 <ele>452.98</ele>
 <time>2011-10-23T08:22:19Z</time>
 </trkpt>
 <trkpt lat="47.724541" lon="13.088245">
 <ele>452.12</ele>
 <time>2011-10-23T08:22:22Z</time>
 </trkpt>
 <trkpt lat="47.724567" lon="13.088244">
 <ele>451.84</ele>
 <time>2011-10-23T08:22:23Z</time>
 </trkpt>
 <trkpt lat="47.724621" lon="13.088243">
 <ele>451.92</ele>
 <time>2011-10-23T08:22:25Z</time>
 </trkpt>
 <trkpt lat="47.724667" lon="13.088241">
 <ele>452.29</ele>
 <time>2011-10-23T08:22:27Z</time>
 </trkpt>
 <trkpt lat="47.724682" lon="13.088274">
 <ele>452.95</ele>
 <time>2011-10-23T08:22:30Z</time>
 </trkpt>
 <trkpt lat="47.724667" lon="13.088278">
 <ele>452.95</ele>
 <time>2011-10-23T08:22:31Z</time>
 </trkpt>
 <trkpt lat="47.724529" lon="13.088313">
 <ele>453.53</ele>
 <time>2011-10-23T08:22:37Z</time>
 </trkpt>
 <trkpt lat="47.724419" lon="13.088345">
 <ele>453.99</ele>
 <time>2011-10-23T08:22:42Z</time>
 </trkpt>
 <trkpt lat="47.724426" lon="13.088488">
 <ele>454.77</ele>
 <time>2011-10-23T08:22:48Z</time>
 </trkpt>
 <trkpt lat="47.724407" lon="13.088490">
 <ele>455.05</ele>
 <time>2011-10-23T08:22:52Z</time>
 </trkpt>
 <trkpt lat="47.724384" lon="13.088400">
 <ele>455.20</ele>
 <time>2011-10-23T08:22:56Z</time>
 </trkpt>
 <trkpt lat="47.724319" lon="13.088378">
 <ele>455.42</ele>
 <time>2011-10-23T08:23:00Z</time>
 </trkpt>
 <trkpt lat="47.724274" lon="13.088401">
 <ele>455.59</ele>
 <time>2011-10-23T08:23:02Z</time>
 </trkpt>
 <trkpt lat="47.724201" lon="13.088444">
 <ele>455.91</ele>
 <time>2011-10-23T08:23:05Z</time>
 </trkpt>
 <trkpt lat="47.724152" lon="13.088475">
 <ele>456.36</ele>
 <time>2011-10-23T08:23:07Z</time>
 </trkpt>
 <trkpt lat="47.724056" lon="13.088532">
 <ele>457.02</ele>
 <time>2011-10-23T08:23:11Z</time>
 </trkpt>
 <trkpt lat="47.723984" lon="13.088582">
 <ele>457.34</ele>
 <time>2011-10-23T08:23:14Z</time>
 </trkpt>
 <trkpt lat="47.723946" lon="13.088633">
 <ele>457.74</ele>
 <time>2011-10-23T08:23:16Z</time>
 </trkpt>
 <trkpt lat="47.723873" lon="13.088670">
 <ele>458.26</ele>
 <time>2011-10-23T08:23:19Z</time>
 </trkpt>
 <trkpt lat="47.723824" lon="13.088439">
 <ele>459.00</ele>
 <time>2011-10-23T08:23:25Z</time>
 </trkpt>
 <trkpt lat="47.723789" lon="13.088081">
 <ele>459.24</ele>
 <time>2011-10-23T08:23:32Z</time>
 </trkpt>
 <trkpt lat="47.723782" lon="13.087972">
 <ele>459.24</ele>
 <time>2011-10-23T08:23:34Z</time>
 </trkpt>
 <trkpt lat="47.723835" lon="13.087717">
 <ele>459.03</ele>
 <time>2011-10-23T08:23:39Z</time>
 </trkpt>
 <trkpt lat="47.723942" lon="13.087642">
 <ele>458.54</ele>
 <time>2011-10-23T08:23:42Z</time>
 </trkpt>
 <trkpt lat="47.724113" lon="13.087718">
 <ele>457.61</ele>
 <time>2011-10-23T08:23:46Z</time>
 </trkpt>
 <trkpt lat="47.724510" lon="13.087805">
 <ele>455.51</ele>
 <time>2011-10-23T08:23:53Z</time>
 </trkpt>
 <trkpt lat="47.724747" lon="13.087795">
 <ele>454.27</ele>
 <time>2011-10-23T08:23:57Z</time>
 </trkpt>
 <trkpt lat="47.725193" lon="13.087713">
 <ele>451.79</ele>
 <time>2011-10-23T08:24:05Z</time>
 </trkpt>
 <trkpt lat="47.725300" lon="13.087646">
 <ele>451.07</ele>
 <time>2011-10-23T08:24:08Z</time>
 </trkpt>
 <trkpt lat="47.725323" lon="13.087481">
 <ele>450.53</ele>
 <time>2011-10-23T08:24:12Z</time>
 </trkpt>
 <trkpt lat="47.725246" lon="13.087116">
 <ele>450.00</ele>
 <time>2011-10-23T08:24:19Z</time>
 </trkpt>
 <trkpt lat="47.725189" lon="13.086715">
 <ele>450.20</ele>
 <time>2011-10-23T08:24:27Z</time>
 </trkpt>
 <trkpt lat="47.725143" lon="13.086409">
 <ele>450.43</ele>
 <time>2011-10-23T08:24:34Z</time>
 </trkpt>
 <trkpt lat="47.725101" lon="13.086211">
 <ele>450.83</ele>
 <time>2011-10-23T08:24:40Z</time>
 </trkpt>
 <trkpt lat="47.725063" lon="13.086085">
 <ele>450.80</ele>
 <time>2011-10-23T08:24:43Z</time>
 </trkpt>
 <trkpt lat="47.724998" lon="13.085795">
 <ele>450.89</ele>
 <time>2011-10-23T08:24:49Z</time>
 </trkpt>
 <trkpt lat="47.724960" lon="13.085682">
 <ele>450.90</ele>
 <time>2011-10-23T08:24:52Z</time>
 </trkpt>
 <trkpt lat="47.724873" lon="13.085347">
 <ele>451.23</ele>
 <time>2011-10-23T08:24:59Z</time>
 </trkpt>
 <trkpt lat="47.724930" lon="13.085182">
 <ele>451.53</ele>
 <time>2011-10-23T08:25:04Z</time>
 </trkpt>
 <trkpt lat="47.725018" lon="13.084928">
 <ele>451.27</ele>
 <time>2011-10-23T08:25:10Z</time>
 </trkpt>
 <trkpt lat="47.725060" lon="13.084751">
 <ele>450.51</ele>
 <time>2011-10-23T08:25:13Z</time>
 </trkpt>
 <trkpt lat="47.725109" lon="13.084573">
 <ele>449.21</ele>
 <time>2011-10-23T08:25:16Z</time>
 </trkpt>
 <trkpt lat="47.725208" lon="13.084240">
 <ele>447.01</ele>
 <time>2011-10-23T08:25:22Z</time>
 </trkpt>
 <trkpt lat="47.725269" lon="13.084058">
 <ele>445.73</ele>
 <time>2011-10-23T08:25:27Z</time>
 </trkpt>
 <trkpt lat="47.725281" lon="13.084034">
 <ele>445.48</ele>
 <time>2011-10-23T08:25:28Z</time>
 </trkpt>
 <trkpt lat="47.725246" lon="13.083854">
 <ele>444.75</ele>
 <time>2011-10-23T08:25:33Z</time>
 </trkpt>
 <trkpt lat="47.725163" lon="13.083746">
 <ele>444.79</ele>
 <time>2011-10-23T08:25:37Z</time>
 </trkpt>
 <trkpt lat="47.725151" lon="13.083717">
 <ele>444.98</ele>
 <time>2011-10-23T08:25:38Z</time>
 </trkpt>
 <trkpt lat="47.725143" lon="13.083595">
 <ele>445.49</ele>
 <time>2011-10-23T08:25:41Z</time>
 </trkpt>
 <trkpt lat="47.725147" lon="13.083509">
 <ele>445.71</ele>
 <time>2011-10-23T08:25:43Z</time>
 </trkpt>
 <trkpt lat="47.725155" lon="13.083382">
 <ele>445.80</ele>
 <time>2011-10-23T08:25:46Z</time>
 </trkpt>
 <trkpt lat="47.725155" lon="13.083246">
 <ele>446.08</ele>
 <time>2011-10-23T08:25:49Z</time>
 </trkpt>
 <trkpt lat="47.725155" lon="13.083156">
 <ele>446.30</ele>
 <time>2011-10-23T08:25:51Z</time>
 </trkpt>
 <trkpt lat="47.725147" lon="13.082923">
 <ele>446.71</ele>
 <time>2011-10-23T08:25:56Z</time>
 </trkpt>
 <trkpt lat="47.725136" lon="13.082504">
 <ele>446.11</ele>
 <time>2011-10-23T08:26:03Z</time>
 </trkpt>
 <trkpt lat="47.725143" lon="13.082368">
 <ele>445.76</ele>
 <time>2011-10-23T08:26:06Z</time>
 </trkpt>
 <trkpt lat="47.725235" lon="13.082323">
 <ele>445.40</ele>
 <time>2011-10-23T08:26:10Z</time>
 </trkpt>
 <trkpt lat="47.725304" lon="13.082359">
 <ele>445.10</ele>
 <time>2011-10-23T08:26:12Z</time>
 </trkpt>
 <trkpt lat="47.725643" lon="13.082369">
 <ele>444.03</ele>
 <time>2011-10-23T08:26:20Z</time>
 </trkpt>
 <trkpt lat="47.725803" lon="13.082361">
 <ele>443.72</ele>
 <time>2011-10-23T08:26:24Z</time>
 </trkpt>
 <trkpt lat="47.726105" lon="13.082354">
 <ele>443.98</ele>
 <time>2011-10-23T08:26:32Z</time>
 </trkpt>
 <trkpt lat="47.726273" lon="13.082344">
 <ele>444.06</ele>
 <time>2011-10-23T08:26:37Z</time>
 </trkpt>
 <trkpt lat="47.726334" lon="13.082211">
 <ele>444.18</ele>
 <time>2011-10-23T08:26:41Z</time>
 </trkpt>
 <trkpt lat="47.726326" lon="13.081782">
 <ele>443.38</ele>
 <time>2011-10-23T08:26:48Z</time>
 </trkpt>
 <trkpt lat="47.726299" lon="13.081273">
 <ele>441.93</ele>
 <time>2011-10-23T08:26:56Z</time>
 </trkpt>
 <trkpt lat="47.726295" lon="13.081234">
 <ele>441.94</ele>
 <time>2011-10-23T08:26:57Z</time>
 </trkpt>
 <trkpt lat="47.726284" lon="13.081078">
 <ele>442.53</ele>
 <time>2011-10-23T08:27:03Z</time>
 </trkpt>
 <trkpt lat="47.726288" lon="13.080909">
 <ele>442.50</ele>
 <time>2011-10-23T08:27:07Z</time>
 </trkpt>
 <trkpt lat="47.726276" lon="13.080709">
 <ele>442.43</ele>
 <time>2011-10-23T08:27:11Z</time>
 </trkpt>
 <trkpt lat="47.726257" lon="13.080317">
 <ele>442.14</ele>
 <time>2011-10-23T08:27:18Z</time>
 </trkpt>
 <trkpt lat="47.726227" lon="13.079816">
 <ele>441.90</ele>
 <time>2011-10-23T08:27:26Z</time>
 </trkpt>
 <trkpt lat="47.726192" lon="13.079383">
 <ele>442.18</ele>
 <time>2011-10-23T08:27:33Z</time>
 </trkpt>
 <trkpt lat="47.726173" lon="13.078954">
 <ele>442.37</ele>
 <time>2011-10-23T08:27:40Z</time>
 </trkpt>
 <trkpt lat="47.726177" lon="13.078868">
 <ele>442.48</ele>
 <time>2011-10-23T08:27:42Z</time>
 </trkpt>
 <trkpt lat="47.726231" lon="13.078785">
 <ele>442.75</ele>
 <time>2011-10-23T08:27:45Z</time>
 </trkpt>
 <trkpt lat="47.726429" lon="13.078716">
 <ele>442.89</ele>
 <time>2011-10-23T08:27:50Z</time>
 </trkpt>
 <trkpt lat="47.726521" lon="13.078675">
 <ele>442.83</ele>
 <time>2011-10-23T08:27:52Z</time>
 </trkpt>
 <trkpt lat="47.726753" lon="13.078559">
 <ele>443.11</ele>
 <time>2011-10-23T08:27:57Z</time>
 </trkpt>
 <trkpt lat="47.726791" lon="13.078521">
 <ele>443.12</ele>
 <time>2011-10-23T08:27:58Z</time>
 </trkpt>
 <trkpt lat="47.726883" lon="13.078360">
 <ele>443.22</ele>
 <time>2011-10-23T08:28:01Z</time>
 </trkpt>
 <trkpt lat="47.727036" lon="13.077903">
 <ele>442.99</ele>
 <time>2011-10-23T08:28:08Z</time>
 </trkpt>
 <trkpt lat="47.727177" lon="13.077344">
 <ele>442.80</ele>
 <time>2011-10-23T08:28:16Z</time>
 </trkpt>
 <trkpt lat="47.727203" lon="13.077206">
 <ele>442.98</ele>
 <time>2011-10-23T08:28:18Z</time>
 </trkpt>
 <trkpt lat="47.727306" lon="13.076728">
 <ele>443.39</ele>
 <time>2011-10-23T08:28:25Z</time>
 </trkpt>
 <trkpt lat="47.727291" lon="13.076324">
 <ele>443.73</ele>
 <time>2011-10-23T08:28:31Z</time>
 </trkpt>
 <trkpt lat="47.727257" lon="13.076184">
 <ele>443.74</ele>
 <time>2011-10-23T08:28:33Z</time>
 </trkpt>
 <trkpt lat="47.727112" lon="13.075638">
 <ele>443.19</ele>
 <time>2011-10-23T08:28:41Z</time>
 </trkpt>
 <trkpt lat="47.727077" lon="13.075501">
 <ele>443.31</ele>
 <time>2011-10-23T08:28:43Z</time>
 </trkpt>
 <trkpt lat="47.727016" lon="13.075224">
 <ele>443.48</ele>
 <time>2011-10-23T08:28:47Z</time>
 </trkpt>
 <trkpt lat="47.726955" lon="13.074954">
 <ele>443.68</ele>
 <time>2011-10-23T08:28:51Z</time>
 </trkpt>
 <trkpt lat="47.726871" lon="13.074599">
 <ele>443.70</ele>
 <time>2011-10-23T08:28:56Z</time>
 </trkpt>
 <trkpt lat="47.726734" lon="13.073965">
 <ele>443.93</ele>
 <time>2011-10-23T08:29:05Z</time>
 </trkpt>
 <trkpt lat="47.726543" lon="13.073125">
 <ele>444.29</ele>
 <time>2011-10-23T08:29:17Z</time>
 </trkpt>
 <trkpt lat="47.726467" lon="13.072707">
 <ele>444.70</ele>
 <time>2011-10-23T08:29:23Z</time>
 </trkpt>
 <trkpt lat="47.726471" lon="13.072269">
 <ele>445.26</ele>
 <time>2011-10-23T08:29:29Z</time>
 </trkpt>
 <trkpt lat="47.726486" lon="13.072127">
 <ele>445.33</ele>
 <time>2011-10-23T08:29:31Z</time>
 </trkpt>
 <trkpt lat="47.726524" lon="13.071828">
 <ele>445.23</ele>
 <time>2011-10-23T08:29:35Z</time>
 </trkpt>
 <trkpt lat="47.726616" lon="13.071097">
 <ele>445.37</ele>
 <time>2011-10-23T08:29:44Z</time>
 </trkpt>
 <trkpt lat="47.726639" lon="13.070936">
 <ele>445.36</ele>
 <time>2011-10-23T08:29:46Z</time>
 </trkpt>
 <trkpt lat="47.726673" lon="13.070701">
 <ele>445.45</ele>
 <time>2011-10-23T08:29:49Z</time>
 </trkpt>
 <trkpt lat="47.726692" lon="13.070402">
 <ele>445.64</ele>
 <time>2011-10-23T08:29:53Z</time>
 </trkpt>
 <trkpt lat="47.726700" lon="13.070322">
 <ele>445.64</ele>
 <time>2011-10-23T08:29:54Z</time>
 </trkpt>
 <trkpt lat="47.726723" lon="13.069994">
 <ele>445.63</ele>
 <time>2011-10-23T08:29:58Z</time>
 </trkpt>
 <trkpt lat="47.726620" lon="13.069579">
 <ele>446.07</ele>
 <time>2011-10-23T08:30:04Z</time>
 </trkpt>
 <trkpt lat="47.726593" lon="13.069521">
 <ele>446.23</ele>
 <time>2011-10-23T08:30:05Z</time>
 </trkpt>
 <trkpt lat="47.726463" lon="13.069298">
 <ele>446.46</ele>
 <time>2011-10-23T08:30:09Z</time>
 </trkpt>
 <trkpt lat="47.726254" lon="13.069002">
 <ele>446.64</ele>
 <time>2011-10-23T08:30:15Z</time>
 </trkpt>
 <trkpt lat="47.726044" lon="13.068703">
 <ele>446.94</ele>
 <time>2011-10-23T08:30:21Z</time>
 </trkpt>
 <trkpt lat="47.725735" lon="13.068225">
 <ele>447.46</ele>
 <time>2011-10-23T08:30:30Z</time>
 </trkpt>
 <trkpt lat="47.725460" lon="13.067621">
 <ele>448.04</ele>
 <time>2011-10-23T08:30:40Z</time>
 </trkpt>
 <trkpt lat="47.725262" lon="13.067026">
 <ele>448.96</ele>
 <time>2011-10-23T08:30:49Z</time>
 </trkpt>
 <trkpt lat="47.725185" lon="13.066820">
 <ele>449.22</ele>
 <time>2011-10-23T08:30:52Z</time>
 </trkpt>
 <trkpt lat="47.725136" lon="13.066596">
 <ele>449.56</ele>
 <time>2011-10-23T08:30:55Z</time>
 </trkpt>
 <trkpt lat="47.725044" lon="13.066308">
 <ele>449.70</ele>
 <time>2011-10-23T08:30:59Z</time>
 </trkpt>
 <trkpt lat="47.724819" lon="13.065724">
 <ele>449.95</ele>
 <time>2011-10-23T08:31:07Z</time>
 </trkpt>
 <trkpt lat="47.724472" lon="13.065042">
 <ele>450.72</ele>
 <time>2011-10-23T08:31:17Z</time>
 </trkpt>
 <trkpt lat="47.724079" lon="13.064319">
 <ele>450.76</ele>
 <time>2011-10-23T08:31:28Z</time>
 </trkpt>
 <trkpt lat="47.723801" lon="13.063824">
 <ele>451.61</ele>
 <time>2011-10-23T08:31:36Z</time>
 </trkpt>
 <trkpt lat="47.723736" lon="13.063700">
 <ele>451.74</ele>
 <time>2011-10-23T08:31:38Z</time>
 </trkpt>
 <trkpt lat="47.723579" lon="13.063414">
 <ele>452.60</ele>
 <time>2011-10-23T08:31:43Z</time>
 </trkpt>
 <trkpt lat="47.723293" lon="13.062985">
 <ele>453.30</ele>
 <time>2011-10-23T08:31:51Z</time>
 </trkpt>
 <trkpt lat="47.723167" lon="13.062855">
 <ele>453.26</ele>
 <time>2011-10-23T08:31:54Z</time>
 </trkpt>
 <trkpt lat="47.722973" lon="13.062724">
 <ele>453.28</ele>
 <time>2011-10-23T08:31:58Z</time>
 </trkpt>
 <trkpt lat="47.722603" lon="13.062543">
 <ele>453.34</ele>
 <time>2011-10-23T08:32:05Z</time>
 </trkpt>
 <trkpt lat="47.722305" lon="13.062294">
 <ele>453.03</ele>
 <time>2011-10-23T08:32:11Z</time>
 </trkpt>
 <trkpt lat="47.722126" lon="13.061978">
 <ele>453.41</ele>
 <time>2011-10-23T08:32:16Z</time>
 </trkpt>
 <trkpt lat="47.722073" lon="13.061839">
 <ele>453.60</ele>
 <time>2011-10-23T08:32:18Z</time>
 </trkpt>
 <trkpt lat="47.721989" lon="13.061564">
 <ele>453.79</ele>
 <time>2011-10-23T08:32:22Z</time>
 </trkpt>
 <trkpt lat="47.721977" lon="13.061423">
 <ele>453.92</ele>
 <time>2011-10-23T08:32:24Z</time>
 </trkpt>
 <trkpt lat="47.722073" lon="13.061162">
 <ele>453.90</ele>
 <time>2011-10-23T08:32:28Z</time>
 </trkpt>
 <trkpt lat="47.722221" lon="13.061032">
 <ele>453.77</ele>
 <time>2011-10-23T08:32:31Z</time>
 </trkpt>
 <trkpt lat="47.722450" lon="13.060914">
 <ele>453.22</ele>
 <time>2011-10-23T08:32:35Z</time>
 </trkpt>
 <trkpt lat="47.722565" lon="13.060842">
 <ele>453.00</ele>
 <time>2011-10-23T08:32:37Z</time>
 </trkpt>
 <trkpt lat="47.722778" lon="13.060706">
 <ele>453.00</ele>
 <time>2011-10-23T08:32:41Z</time>
 </trkpt>
 <trkpt lat="47.722878" lon="13.060533">
 <ele>453.15</ele>
 <time>2011-10-23T08:32:45Z</time>
 </trkpt>
 <trkpt lat="47.722809" lon="13.060426">
 <ele>453.38</ele>
 <time>2011-10-23T08:32:48Z</time>
 </trkpt>
 <trkpt lat="47.722778" lon="13.060410">
 <ele>453.39</ele>
 <time>2011-10-23T08:32:49Z</time>
 </trkpt>
 <trkpt lat="47.722553" lon="13.060295">
 <ele>453.45</ele>
 <time>2011-10-23T08:32:55Z</time>
 </trkpt>
 <trkpt lat="47.722458" lon="13.060261">
 <ele>453.34</ele>
 <time>2011-10-23T08:32:57Z</time>
 </trkpt>
 <trkpt lat="47.722168" lon="13.060184">
 <ele>453.75</ele>
 <time>2011-10-23T08:33:03Z</time>
 </trkpt>
 <trkpt lat="47.721924" lon="13.060087">
 <ele>454.07</ele>
 <time>2011-10-23T08:33:08Z</time>
 </trkpt>
 <trkpt lat="47.721752" lon="13.059922">
 <ele>453.72</ele>
 <time>2011-10-23T08:33:12Z</time>
 </trkpt>
 <trkpt lat="47.721466" lon="13.059507">
 <ele>454.35</ele>
 <time>2011-10-23T08:33:20Z</time>
 </trkpt>
 <trkpt lat="47.721268" lon="13.059051">
 <ele>454.14</ele>
 <time>2011-10-23T08:33:27Z</time>
 </trkpt>
 <trkpt lat="47.721180" lon="13.058790">
 <ele>454.36</ele>
 <time>2011-10-23T08:33:31Z</time>
 </trkpt>
 <trkpt lat="47.720970" lon="13.058298">
 <ele>455.49</ele>
 <time>2011-10-23T08:33:39Z</time>
 </trkpt>
 <trkpt lat="47.720913" lon="13.058187">
 <ele>455.78</ele>
 <time>2011-10-23T08:33:41Z</time>
 </trkpt>
 <trkpt lat="47.720863" lon="13.058084">
 <ele>455.88</ele>
 <time>2011-10-23T08:33:43Z</time>
 </trkpt>
 <trkpt lat="47.720840" lon="13.057863">
 <ele>456.27</ele>
 <time>2011-10-23T08:33:47Z</time>
 </trkpt>
 <trkpt lat="47.720863" lon="13.057807">
 <ele>456.34</ele>
 <time>2011-10-23T08:33:48Z</time>
 </trkpt>
 <trkpt lat="47.721184" lon="13.057152">
 <ele>456.32</ele>
 <time>2011-10-23T08:33:59Z</time>
 </trkpt>
 <trkpt lat="47.721252" lon="13.056791">
 <ele>456.46</ele>
 <time>2011-10-23T08:34:04Z</time>
 </trkpt>
 <trkpt lat="47.721256" lon="13.056641">
 <ele>456.34</ele>
 <time>2011-10-23T08:34:06Z</time>
 </trkpt>
 <trkpt lat="47.721264" lon="13.056329">
 <ele>455.88</ele>
 <time>2011-10-23T08:34:10Z</time>
 </trkpt>
 <trkpt lat="47.721287" lon="13.056176">
 <ele>455.47</ele>
 <time>2011-10-23T08:34:12Z</time>
 </trkpt>
 <trkpt lat="47.721447" lon="13.055842">
 <ele>454.73</ele>
 <time>2011-10-23T08:34:16Z</time>
 </trkpt>
 <trkpt lat="47.721554" lon="13.055723">
 <ele>454.28</ele>
 <time>2011-10-23T08:34:18Z</time>
 </trkpt>
 <trkpt lat="47.721790" lon="13.055559">
 <ele>453.68</ele>
 <time>2011-10-23T08:34:22Z</time>
 </trkpt>
 <trkpt lat="47.721909" lon="13.055477">
 <ele>453.26</ele>
 <time>2011-10-23T08:34:24Z</time>
 </trkpt>
 <trkpt lat="47.722183" lon="13.055289">
 <ele>452.98</ele>
 <time>2011-10-23T08:34:29Z</time>
 </trkpt>
 <trkpt lat="47.722389" lon="13.055163">
 <ele>453.56</ele>
 <time>2011-10-23T08:34:33Z</time>
 </trkpt>
 <trkpt lat="47.722839" lon="13.054877">
 <ele>454.05</ele>
 <time>2011-10-23T08:34:42Z</time>
 </trkpt>
 <trkpt lat="47.722931" lon="13.054796">
 <ele>454.04</ele>
 <time>2011-10-23T08:34:44Z</time>
 </trkpt>
 <trkpt lat="47.722977" lon="13.054748">
 <ele>454.11</ele>
 <time>2011-10-23T08:34:45Z</time>
 </trkpt>
 <trkpt lat="47.723133" lon="13.054416">
 <ele>454.03</ele>
 <time>2011-10-23T08:34:50Z</time>
 </trkpt>
 <trkpt lat="47.723179" lon="13.054256">
 <ele>454.03</ele>
 <time>2011-10-23T08:34:52Z</time>
 </trkpt>
 <trkpt lat="47.723389" lon="13.053527">
 <ele>454.01</ele>
 <time>2011-10-23T08:35:01Z</time>
 </trkpt>
 <trkpt lat="47.723515" lon="13.053138">
 <ele>454.27</ele>
 <time>2011-10-23T08:35:06Z</time>
 </trkpt>
 <trkpt lat="47.723663" lon="13.052582">
 <ele>454.58</ele>
 <time>2011-10-23T08:35:13Z</time>
 </trkpt>
 <trkpt lat="47.723694" lon="13.052428">
 <ele>454.59</ele>
 <time>2011-10-23T08:35:15Z</time>
 </trkpt>
 <trkpt lat="47.723846" lon="13.051798">
 <ele>455.45</ele>
 <time>2011-10-23T08:35:23Z</time>
 </trkpt>
 <trkpt lat="47.724003" lon="13.051236">
 <ele>455.48</ele>
 <time>2011-10-23T08:35:30Z</time>
 </trkpt>
 <trkpt lat="47.724171" lon="13.050606">
 <ele>455.64</ele>
 <time>2011-10-23T08:35:38Z</time>
 </trkpt>
 <trkpt lat="47.724274" lon="13.050210">
 <ele>455.75</ele>
 <time>2011-10-23T08:35:43Z</time>
 </trkpt>
 <trkpt lat="47.724400" lon="13.049672">
 <ele>456.35</ele>
 <time>2011-10-23T08:35:50Z</time>
 </trkpt>
 <trkpt lat="47.724461" lon="13.049437">
 <ele>456.41</ele>
 <time>2011-10-23T08:35:53Z</time>
 </trkpt>
 <trkpt lat="47.724640" lon="13.048746">
 <ele>456.54</ele>
 <time>2011-10-23T08:36:02Z</time>
 </trkpt>
 <trkpt lat="47.724827" lon="13.048064">
 <ele>457.30</ele>
 <time>2011-10-23T08:36:11Z</time>
 </trkpt>
 <trkpt lat="47.724918" lon="13.047629">
 <ele>457.55</ele>
 <time>2011-10-23T08:36:17Z</time>
 </trkpt>
 <trkpt lat="47.724979" lon="13.047239">
 <ele>457.37</ele>
 <time>2011-10-23T08:36:22Z</time>
 </trkpt>
 <trkpt lat="47.725109" lon="13.046546">
 <ele>457.79</ele>
 <time>2011-10-23T08:36:31Z</time>
 </trkpt>
 <trkpt lat="47.725189" lon="13.046066">
 <ele>458.14</ele>
 <time>2011-10-23T08:36:37Z</time>
 </trkpt>
 <trkpt lat="47.725163" lon="13.045815">
 <ele>459.07</ele>
 <time>2011-10-23T08:36:41Z</time>
 </trkpt>
 <trkpt lat="47.725128" lon="13.045157">
 <ele>459.80</ele>
 <time>2011-10-23T08:36:50Z</time>
 </trkpt>
 <trkpt lat="47.725124" lon="13.044980">
 <ele>459.51</ele>
 <time>2011-10-23T08:36:52Z</time>
 </trkpt>
 <trkpt lat="47.725052" lon="13.044331">
 <ele>458.56</ele>
 <time>2011-10-23T08:36:59Z</time>
 </trkpt>
 <trkpt lat="47.724957" lon="13.043630">
 <ele>459.33</ele>
 <time>2011-10-23T08:37:07Z</time>
 </trkpt>
 <trkpt lat="47.724983" lon="13.043299">
 <ele>460.07</ele>
 <time>2011-10-23T08:37:11Z</time>
 </trkpt>
 <trkpt lat="47.725040" lon="13.043092">
 <ele>460.37</ele>
 <time>2011-10-23T08:37:14Z</time>
 </trkpt>
 <trkpt lat="47.725121" lon="13.042901">
 <ele>460.60</ele>
 <time>2011-10-23T08:37:19Z</time>
 </trkpt>
 <trkpt lat="47.725132" lon="13.042872">
 <ele>460.66</ele>
 <time>2011-10-23T08:37:20Z</time>
 </trkpt>
 <trkpt lat="47.725109" lon="13.042756">
 <ele>460.58</ele>
 <time>2011-10-23T08:37:23Z</time>
 </trkpt>
 <trkpt lat="47.724869" lon="13.042573">
 <ele>460.93</ele>
 <time>2011-10-23T08:37:29Z</time>
 </trkpt>
 <trkpt lat="47.724537" lon="13.042384">
 <ele>461.32</ele>
 <time>2011-10-23T08:37:36Z</time>
 </trkpt>
 <trkpt lat="47.724434" lon="13.042330">
 <ele>461.36</ele>
 <time>2011-10-23T08:37:38Z</time>
 </trkpt>
 <trkpt lat="47.724327" lon="13.042275">
 <ele>461.37</ele>
 <time>2011-10-23T08:37:40Z</time>
 </trkpt>
 <trkpt lat="47.723835" lon="13.042071">
 <ele>461.54</ele>
 <time>2011-10-23T08:37:49Z</time>
 </trkpt>
 <trkpt lat="47.723717" lon="13.042039">
 <ele>461.67</ele>
 <time>2011-10-23T08:37:51Z</time>
 </trkpt>
 <trkpt lat="47.723423" lon="13.041973">
 <ele>461.86</ele>
 <time>2011-10-23T08:37:56Z</time>
 </trkpt>
 <trkpt lat="47.723305" lon="13.041953">
 <ele>462.08</ele>
 <time>2011-10-23T08:37:58Z</time>
 </trkpt>
 <trkpt lat="47.723064" lon="13.041932">
 <ele>462.88</ele>
 <time>2011-10-23T08:38:02Z</time>
 </trkpt>
 <trkpt lat="47.722675" lon="13.041943">
 <ele>463.22</ele>
 <time>2011-10-23T08:38:08Z</time>
 </trkpt>
 <trkpt lat="47.722546" lon="13.041958">
 <ele>463.19</ele>
 <time>2011-10-23T08:38:10Z</time>
 </trkpt>
 <trkpt lat="47.722042" lon="13.042080">
 <ele>463.33</ele>
 <time>2011-10-23T08:38:18Z</time>
 </trkpt>
 <trkpt lat="47.721920" lon="13.042120">
 <ele>463.22</ele>
 <time>2011-10-23T08:38:20Z</time>
 </trkpt>
 <trkpt lat="47.721367" lon="13.042327">
 <ele>463.46</ele>
 <time>2011-10-23T08:38:29Z</time>
 </trkpt>
 <trkpt lat="47.720829" lon="13.042538">
 <ele>463.49</ele>
 <time>2011-10-23T08:38:38Z</time>
 </trkpt>
 <trkpt lat="47.720112" lon="13.042828">
 <ele>463.68</ele>
 <time>2011-10-23T08:38:50Z</time>
 </trkpt>
 <trkpt lat="47.719872" lon="13.042923">
 <ele>464.05</ele>
 <time>2011-10-23T08:38:54Z</time>
 </trkpt>
 <trkpt lat="47.719589" lon="13.043041">
 <ele>464.86</ele>
 <time>2011-10-23T08:38:59Z</time>
 </trkpt>
 <trkpt lat="47.719307" lon="13.043159">
 <ele>465.19</ele>
 <time>2011-10-23T08:39:04Z</time>
 </trkpt>
 <trkpt lat="47.719028" lon="13.043282">
 <ele>465.67</ele>
 <time>2011-10-23T08:39:09Z</time>
 </trkpt>
 <trkpt lat="47.718582" lon="13.043478">
 <ele>466.15</ele>
 <time>2011-10-23T08:39:17Z</time>
 </trkpt>
 <trkpt lat="47.717857" lon="13.043799">
 <ele>467.20</ele>
 <time>2011-10-23T08:39:30Z</time>
 </trkpt>
 <trkpt lat="47.717354" lon="13.044029">
 <ele>468.07</ele>
 <time>2011-10-23T08:39:39Z</time>
 </trkpt>
 <trkpt lat="47.716858" lon="13.044238">
 <ele>469.00</ele>
 <time>2011-10-23T08:39:48Z</time>
 </trkpt>
 <trkpt lat="47.716747" lon="13.044275">
 <ele>469.24</ele>
 <time>2011-10-23T08:39:50Z</time>
 </trkpt>
 <trkpt lat="47.716408" lon="13.044351">
 <ele>469.55</ele>
 <time>2011-10-23T08:39:56Z</time>
 </trkpt>
 <trkpt lat="47.715942" lon="13.044342">
 <ele>469.99</ele>
 <time>2011-10-23T08:40:04Z</time>
 </trkpt>
 <trkpt lat="47.715530" lon="13.044191">
 <ele>469.69</ele>
 <time>2011-10-23T08:40:11Z</time>
 </trkpt>
 <trkpt lat="47.715359" lon="13.044092">
 <ele>469.71</ele>
 <time>2011-10-23T08:40:14Z</time>
 </trkpt>
 <trkpt lat="47.714924" lon="13.043745">
 <ele>469.78</ele>
 <time>2011-10-23T08:40:22Z</time>
 </trkpt>
 <trkpt lat="47.714710" lon="13.043549">
 <ele>469.36</ele>
 <time>2011-10-23T08:40:26Z</time>
 </trkpt>
 <trkpt lat="47.714397" lon="13.043242">
 <ele>470.07</ele>
 <time>2011-10-23T08:40:32Z</time>
 </trkpt>
 <trkpt lat="47.714291" lon="13.043140">
 <ele>470.35</ele>
 <time>2011-10-23T08:40:34Z</time>
 </trkpt>
 <trkpt lat="47.714069" lon="13.042963">
 <ele>470.55</ele>
 <time>2011-10-23T08:40:38Z</time>
 </trkpt>
 <trkpt lat="47.713856" lon="13.042792">
 <ele>470.74</ele>
 <time>2011-10-23T08:40:42Z</time>
 </trkpt>
 <trkpt lat="47.713699" lon="13.042658">
 <ele>470.54</ele>
 <time>2011-10-23T08:40:45Z</time>
 </trkpt>
 <trkpt lat="47.713318" lon="13.042378">
 <ele>470.61</ele>
 <time>2011-10-23T08:40:52Z</time>
 </trkpt>
 <trkpt lat="47.713097" lon="13.042244">
 <ele>470.78</ele>
 <time>2011-10-23T08:40:56Z</time>
 </trkpt>
 <trkpt lat="47.712990" lon="13.042180">
 <ele>470.59</ele>
 <time>2011-10-23T08:40:58Z</time>
 </trkpt>
 <trkpt lat="47.712513" lon="13.041907">
 <ele>470.68</ele>
 <time>2011-10-23T08:41:06Z</time>
 </trkpt>
 <trkpt lat="47.712292" lon="13.041752">
 <ele>470.64</ele>
 <time>2011-10-23T08:41:10Z</time>
 </trkpt>
 <trkpt lat="47.712135" lon="13.041606">
 <ele>470.78</ele>
 <time>2011-10-23T08:41:13Z</time>
 </trkpt>
 <trkpt lat="47.711826" lon="13.041293">
 <ele>470.90</ele>
 <time>2011-10-23T08:41:19Z</time>
 </trkpt>
 <trkpt lat="47.711731" lon="13.041176">
 <ele>471.07</ele>
 <time>2011-10-23T08:41:21Z</time>
 </trkpt>
 <trkpt lat="47.711445" lon="13.040799">
 <ele>471.32</ele>
 <time>2011-10-23T08:41:27Z</time>
 </trkpt>
 <trkpt lat="47.711018" lon="13.040220">
 <ele>472.09</ele>
 <time>2011-10-23T08:41:36Z</time>
 </trkpt>
 <trkpt lat="47.710709" lon="13.039761">
 <ele>472.37</ele>
 <time>2011-10-23T08:41:43Z</time>
 </trkpt>
 <trkpt lat="47.710430" lon="13.039388">
 <ele>472.81</ele>
 <time>2011-10-23T08:41:49Z</time>
 </trkpt>
 <trkpt lat="47.710140" lon="13.039075">
 <ele>473.66</ele>
 <time>2011-10-23T08:41:55Z</time>
 </trkpt>
 <trkpt lat="47.709763" lon="13.038809">
 <ele>474.02</ele>
 <time>2011-10-23T08:42:02Z</time>
 </trkpt>
 <trkpt lat="47.709312" lon="13.038623">
 <ele>474.67</ele>
 <time>2011-10-23T08:42:10Z</time>
 </trkpt>
 <trkpt lat="47.708836" lon="13.038582">
 <ele>475.07</ele>
 <time>2011-10-23T08:42:18Z</time>
 </trkpt>
 <trkpt lat="47.708302" lon="13.038691">
 <ele>475.49</ele>
 <time>2011-10-23T08:42:27Z</time>
 </trkpt>
 <trkpt lat="47.708000" lon="13.038774">
 <ele>475.48</ele>
 <time>2011-10-23T08:42:32Z</time>
 </trkpt>
 <trkpt lat="47.707439" lon="13.038902">
 <ele>475.40</ele>
 <time>2011-10-23T08:42:41Z</time>
 </trkpt>
 <trkpt lat="47.706844" lon="13.038948">
 <ele>475.17</ele>
 <time>2011-10-23T08:42:50Z</time>
 </trkpt>
 <trkpt lat="47.706310" lon="13.038890">
 <ele>475.13</ele>
 <time>2011-10-23T08:42:58Z</time>
 </trkpt>
 <trkpt lat="47.705692" lon="13.038730">
 <ele>474.39</ele>
 <time>2011-10-23T08:43:07Z</time>
 </trkpt>
 <trkpt lat="47.704967" lon="13.038510">
 <ele>473.63</ele>
 <time>2011-10-23T08:43:18Z</time>
 </trkpt>
 <trkpt lat="47.704338" lon="13.038387">
 <ele>474.30</ele>
 <time>2011-10-23T08:43:28Z</time>
 </trkpt>
 <trkpt lat="47.703926" lon="13.038385">
 <ele>474.89</ele>
 <time>2011-10-23T08:43:35Z</time>
 </trkpt>
 <trkpt lat="47.703529" lon="13.038449">
 <ele>475.90</ele>
 <time>2011-10-23T08:43:42Z</time>
 </trkpt>
 <trkpt lat="47.703091" lon="13.038525">
 <ele>477.67</ele>
 <time>2011-10-23T08:43:50Z</time>
 </trkpt>
 <trkpt lat="47.702976" lon="13.038544">
 <ele>477.70</ele>
 <time>2011-10-23T08:43:52Z</time>
 </trkpt>
 <trkpt lat="47.702866" lon="13.038560">
 <ele>477.76</ele>
 <time>2011-10-23T08:43:54Z</time>
 </trkpt>
 <trkpt lat="47.702595" lon="13.038653">
 <ele>477.24</ele>
 <time>2011-10-23T08:43:59Z</time>
 </trkpt>
 <trkpt lat="47.702347" lon="13.038871">
 <ele>477.44</ele>
 <time>2011-10-23T08:44:04Z</time>
 </trkpt>
 <trkpt lat="47.702263" lon="13.038998">
 <ele>477.82</ele>
 <time>2011-10-23T08:44:06Z</time>
 </trkpt>
 <trkpt lat="47.702190" lon="13.039145">
 <ele>478.32</ele>
 <time>2011-10-23T08:44:08Z</time>
 </trkpt>
 <trkpt lat="47.702019" lon="13.039530">
 <ele>478.81</ele>
 <time>2011-10-23T08:44:13Z</time>
 </trkpt>
 <trkpt lat="47.701950" lon="13.039678">
 <ele>478.94</ele>
 <time>2011-10-23T08:44:15Z</time>
 </trkpt>
 <trkpt lat="47.701591" lon="13.040519">
 <ele>479.44</ele>
 <time>2011-10-23T08:44:26Z</time>
 </trkpt>
 <trkpt lat="47.701488" lon="13.040853">
 <ele>479.62</ele>
 <time>2011-10-23T08:44:30Z</time>
 </trkpt>
 <trkpt lat="47.701454" lon="13.041025">
 <ele>479.70</ele>
 <time>2011-10-23T08:44:32Z</time>
 </trkpt>
 <trkpt lat="47.701321" lon="13.041615">
 <ele>480.30</ele>
 <time>2011-10-23T08:44:39Z</time>
 </trkpt>
 <trkpt lat="47.701256" lon="13.041764">
 <ele>480.43</ele>
 <time>2011-10-23T08:44:41Z</time>
 </trkpt>
 <trkpt lat="47.701103" lon="13.042032">
 <ele>480.98</ele>
 <time>2011-10-23T08:44:45Z</time>
 </trkpt>
 <trkpt lat="47.701023" lon="13.042162">
 <ele>481.13</ele>
 <time>2011-10-23T08:44:47Z</time>
 </trkpt>
 <trkpt lat="47.700874" lon="13.042422">
 <ele>481.85</ele>
 <time>2011-10-23T08:44:51Z</time>
 </trkpt>
 <trkpt lat="47.700699" lon="13.042701">
 <ele>482.80</ele>
 <time>2011-10-23T08:44:56Z</time>
 </trkpt>
 <trkpt lat="47.700420" lon="13.043037">
 <ele>484.04</ele>
 <time>2011-10-23T08:45:03Z</time>
 </trkpt>
 <trkpt lat="47.700157" lon="13.043167">
 <ele>484.67</ele>
 <time>2011-10-23T08:45:08Z</time>
 </trkpt>
 <trkpt lat="47.699867" lon="13.043194">
 <ele>485.11</ele>
 <time>2011-10-23T08:45:13Z</time>
 </trkpt>
 <trkpt lat="47.699615" lon="13.043176">
 <ele>485.31</ele>
 <time>2011-10-23T08:45:17Z</time>
 </trkpt>
 <trkpt lat="47.699123" lon="13.043094">
 <ele>485.00</ele>
 <time>2011-10-23T08:45:25Z</time>
 </trkpt>
 <trkpt lat="47.698872" lon="13.043103">
 <ele>484.81</ele>
 <time>2011-10-23T08:45:29Z</time>
 </trkpt>
 <trkpt lat="47.698738" lon="13.043145">
 <ele>484.45</ele>
 <time>2011-10-23T08:45:31Z</time>
 </trkpt>
 <trkpt lat="47.698418" lon="13.043355">
 <ele>483.63</ele>
 <time>2011-10-23T08:45:36Z</time>
 </trkpt>
 <trkpt lat="47.698147" lon="13.043711">
 <ele>483.56</ele>
 <time>2011-10-23T08:45:41Z</time>
 </trkpt>
 <trkpt lat="47.697968" lon="13.044197">
 <ele>483.27</ele>
 <time>2011-10-23T08:45:46Z</time>
 </trkpt>
 <trkpt lat="47.697826" lon="13.044819">
 <ele>483.14</ele>
 <time>2011-10-23T08:45:52Z</time>
 </trkpt>
 <trkpt lat="47.697704" lon="13.045331">
 <ele>482.93</ele>
 <time>2011-10-23T08:45:57Z</time>
 </trkpt>
 <trkpt lat="47.697643" lon="13.045514">
 <ele>482.96</ele>
 <time>2011-10-23T08:45:59Z</time>
 </trkpt>
 <trkpt lat="47.697414" lon="13.046009">
 <ele>483.32</ele>
 <time>2011-10-23T08:46:05Z</time>
 </trkpt>
 <trkpt lat="47.697109" lon="13.046390">
 <ele>483.99</ele>
 <time>2011-10-23T08:46:11Z</time>
 </trkpt>
 <trkpt lat="47.696693" lon="13.046703">
 <ele>484.67</ele>
 <time>2011-10-23T08:46:18Z</time>
 </trkpt>
 <trkpt lat="47.696384" lon="13.046883">
 <ele>485.14</ele>
 <time>2011-10-23T08:46:23Z</time>
 </trkpt>
 <trkpt lat="47.696167" lon="13.046933">
 <ele>485.41</ele>
 <time>2011-10-23T08:46:26Z</time>
 </trkpt>
 <trkpt lat="47.695831" lon="13.046954">
 <ele>486.02</ele>
 <time>2011-10-23T08:46:31Z</time>
 </trkpt>
 <trkpt lat="47.695583" lon="13.046885">
 <ele>486.19</ele>
 <time>2011-10-23T08:46:35Z</time>
 </trkpt>
 <trkpt lat="47.695457" lon="13.046822">
 <ele>486.26</ele>
 <time>2011-10-23T08:46:37Z</time>
 </trkpt>
 <trkpt lat="47.695087" lon="13.046515">
 <ele>486.77</ele>
 <time>2011-10-23T08:46:44Z</time>
 </trkpt>
 <trkpt lat="47.694977" lon="13.046427">
 <ele>487.05</ele>
 <time>2011-10-23T08:46:46Z</time>
 </trkpt>
 <trkpt lat="47.694695" lon="13.046264">
 <ele>487.46</ele>
 <time>2011-10-23T08:46:51Z</time>
 </trkpt>
 <trkpt lat="47.694572" lon="13.046226">
 <ele>487.69</ele>
 <time>2011-10-23T08:46:53Z</time>
 </trkpt>
 <trkpt lat="47.694389" lon="13.046205">
 <ele>487.69</ele>
 <time>2011-10-23T08:46:56Z</time>
 </trkpt>
 <trkpt lat="47.694263" lon="13.046209">
 <ele>487.65</ele>
 <time>2011-10-23T08:46:58Z</time>
 </trkpt>
 <trkpt lat="47.693810" lon="13.046323">
 <ele>488.00</ele>
 <time>2011-10-23T08:47:05Z</time>
 </trkpt>
 <trkpt lat="47.693485" lon="13.046461">
 <ele>488.01</ele>
 <time>2011-10-23T08:47:10Z</time>
 </trkpt>
 <trkpt lat="47.693218" lon="13.046507">
 <ele>487.95</ele>
 <time>2011-10-23T08:47:14Z</time>
 </trkpt>
 <trkpt lat="47.692760" lon="13.046404">
 <ele>487.86</ele>
 <time>2011-10-23T08:47:21Z</time>
 </trkpt>
 <trkpt lat="47.692188" lon="13.046202">
 <ele>488.94</ele>
 <time>2011-10-23T08:47:30Z</time>
 </trkpt>
 <trkpt lat="47.691696" lon="13.046125">
 <ele>489.35</ele>
 <time>2011-10-23T08:47:38Z</time>
 </trkpt>
 <trkpt lat="47.691235" lon="13.046194">
 <ele>489.55</ele>
 <time>2011-10-23T08:47:46Z</time>
 </trkpt>
 <trkpt lat="47.691124" lon="13.046232">
 <ele>489.50</ele>
 <time>2011-10-23T08:47:48Z</time>
 </trkpt>
 <trkpt lat="47.690685" lon="13.046459">
 <ele>490.21</ele>
 <time>2011-10-23T08:47:56Z</time>
 </trkpt>
 <trkpt lat="47.690247" lon="13.046709">
 <ele>489.59</ele>
 <time>2011-10-23T08:48:03Z</time>
 </trkpt>
 <trkpt lat="47.689785" lon="13.046922">
 <ele>489.19</ele>
 <time>2011-10-23T08:48:10Z</time>
 </trkpt>
 <trkpt lat="47.689335" lon="13.047035">
 <ele>489.74</ele>
 <time>2011-10-23T08:48:17Z</time>
 </trkpt>
 <trkpt lat="47.689201" lon="13.047042">
 <ele>489.83</ele>
 <time>2011-10-23T08:48:19Z</time>
 </trkpt>
 <trkpt lat="47.688744" lon="13.046984">
 <ele>490.10</ele>
 <time>2011-10-23T08:48:26Z</time>
 </trkpt>
 <trkpt lat="47.688572" lon="13.046925">
 <ele>490.11</ele>
 <time>2011-10-23T08:48:29Z</time>
 </trkpt>
 <trkpt lat="47.688217" lon="13.046729">
 <ele>490.58</ele>
 <time>2011-10-23T08:48:35Z</time>
 </trkpt>
 <trkpt lat="47.688087" lon="13.046646">
 <ele>490.85</ele>
 <time>2011-10-23T08:48:37Z</time>
 </trkpt>
 <trkpt lat="47.687592" lon="13.046320">
 <ele>491.18</ele>
 <time>2011-10-23T08:48:45Z</time>
 </trkpt>
 <trkpt lat="47.687447" lon="13.046242">
 <ele>491.39</ele>
 <time>2011-10-23T08:48:47Z</time>
 </trkpt>
 <trkpt lat="47.687027" lon="13.046040">
 <ele>492.02</ele>
 <time>2011-10-23T08:48:53Z</time>
 </trkpt>
 <trkpt lat="47.686611" lon="13.045891">
 <ele>492.03</ele>
 <time>2011-10-23T08:48:59Z</time>
 </trkpt>
 <trkpt lat="47.686077" lon="13.045807">
 <ele>492.08</ele>
 <time>2011-10-23T08:49:06Z</time>
 </trkpt>
 <trkpt lat="47.685863" lon="13.045795">
 <ele>492.14</ele>
 <time>2011-10-23T08:49:09Z</time>
 </trkpt>
 <trkpt lat="47.685650" lon="13.045817">
 <ele>492.19</ele>
 <time>2011-10-23T08:49:12Z</time>
 </trkpt>
 <trkpt lat="47.685253" lon="13.045910">
 <ele>492.56</ele>
 <time>2011-10-23T08:49:18Z</time>
 </trkpt>
 <trkpt lat="47.685123" lon="13.045957">
 <ele>492.52</ele>
 <time>2011-10-23T08:49:20Z</time>
 </trkpt>
 <trkpt lat="47.684784" lon="13.046076">
 <ele>492.55</ele>
 <time>2011-10-23T08:49:25Z</time>
 </trkpt>
 <trkpt lat="47.684231" lon="13.046178">
 <ele>492.54</ele>
 <time>2011-10-23T08:49:33Z</time>
 </trkpt>
 <trkpt lat="47.683968" lon="13.046168">
 <ele>492.47</ele>
 <time>2011-10-23T08:49:37Z</time>
 </trkpt>
 <trkpt lat="47.683846" lon="13.046148">
 <ele>492.58</ele>
 <time>2011-10-23T08:49:39Z</time>
 </trkpt>
 <trkpt lat="47.683533" lon="13.046026">
 <ele>492.99</ele>
 <time>2011-10-23T08:49:44Z</time>
 </trkpt>
 <trkpt lat="47.683414" lon="13.045957">
 <ele>493.05</ele>
 <time>2011-10-23T08:49:46Z</time>
 </trkpt>
 <trkpt lat="47.683128" lon="13.045733">
 <ele>492.80</ele>
 <time>2011-10-23T08:49:51Z</time>
 </trkpt>
 <trkpt lat="47.683022" lon="13.045614">
 <ele>492.92</ele>
 <time>2011-10-23T08:49:53Z</time>
 </trkpt>
 <trkpt lat="47.682739" lon="13.045307">
 <ele>493.18</ele>
 <time>2011-10-23T08:49:58Z</time>
 </trkpt>
 <trkpt lat="47.682632" lon="13.045182">
 <ele>493.05</ele>
 <time>2011-10-23T08:50:00Z</time>
 </trkpt>
 <trkpt lat="47.682411" lon="13.044939">
 <ele>493.03</ele>
 <time>2011-10-23T08:50:04Z</time>
 </trkpt>
 <trkpt lat="47.681965" lon="13.044497">
 <ele>493.64</ele>
 <time>2011-10-23T08:50:11Z</time>
 </trkpt>
 <trkpt lat="47.681854" lon="13.044369">
 <ele>493.65</ele>
 <time>2011-10-23T08:50:13Z</time>
 </trkpt>
 <trkpt lat="47.681427" lon="13.043899">
 <ele>493.70</ele>
 <time>2011-10-23T08:50:21Z</time>
 </trkpt>
 <trkpt lat="47.681072" lon="13.043496">
 <ele>494.26</ele>
 <time>2011-10-23T08:50:28Z</time>
 </trkpt>
 <trkpt lat="47.680885" lon="13.043313">
 <ele>494.35</ele>
 <time>2011-10-23T08:50:31Z</time>
 </trkpt>
 <trkpt lat="47.680313" lon="13.042706">
 <ele>494.74</ele>
 <time>2011-10-23T08:50:41Z</time>
 </trkpt>
 <trkpt lat="47.680202" lon="13.042584">
 <ele>494.63</ele>
 <time>2011-10-23T08:50:43Z</time>
 </trkpt>
 <trkpt lat="47.679764" lon="13.042097">
 <ele>495.08</ele>
 <time>2011-10-23T08:50:51Z</time>
 </trkpt>
 <trkpt lat="47.679661" lon="13.041982">
 <ele>495.17</ele>
 <time>2011-10-23T08:50:53Z</time>
 </trkpt>
 <trkpt lat="47.679325" lon="13.041595">
 <ele>495.23</ele>
 <time>2011-10-23T08:51:00Z</time>
 </trkpt>
 <trkpt lat="47.678867" lon="13.041076">
 <ele>495.32</ele>
 <time>2011-10-23T08:51:09Z</time>
 </trkpt>
 <trkpt lat="47.678303" lon="13.040436">
 <ele>495.66</ele>
 <time>2011-10-23T08:51:20Z</time>
 </trkpt>
 <trkpt lat="47.678097" lon="13.040205">
 <ele>495.66</ele>
 <time>2011-10-23T08:51:24Z</time>
 </trkpt>
 <trkpt lat="47.677986" lon="13.040088">
 <ele>495.83</ele>
 <time>2011-10-23T08:51:26Z</time>
 </trkpt>
 <trkpt lat="47.677753" lon="13.039850">
 <ele>496.16</ele>
 <time>2011-10-23T08:51:30Z</time>
 </trkpt>
 <trkpt lat="47.677460" lon="13.039531">
 <ele>496.51</ele>
 <time>2011-10-23T08:51:36Z</time>
 </trkpt>
 <trkpt lat="47.677364" lon="13.039430">
 <ele>496.71</ele>
 <time>2011-10-23T08:51:38Z</time>
 </trkpt>
 <trkpt lat="47.677147" lon="13.039219">
 <ele>497.73</ele>
 <time>2011-10-23T08:51:42Z</time>
 </trkpt>
 <trkpt lat="47.676769" lon="13.038885">
 <ele>498.07</ele>
 <time>2011-10-23T08:51:49Z</time>
 </trkpt>
 <trkpt lat="47.676285" lon="13.038531">
 <ele>498.70</ele>
 <time>2011-10-23T08:51:58Z</time>
 </trkpt>
 <trkpt lat="47.675907" lon="13.038311">
 <ele>498.74</ele>
 <time>2011-10-23T08:52:05Z</time>
 </trkpt>
 <trkpt lat="47.675575" lon="13.038135">
 <ele>498.45</ele>
 <time>2011-10-23T08:52:11Z</time>
 </trkpt>
 <trkpt lat="47.675465" lon="13.038077">
 <ele>498.46</ele>
 <time>2011-10-23T08:52:13Z</time>
 </trkpt>
 <trkpt lat="47.675297" lon="13.037985">
 <ele>498.48</ele>
 <time>2011-10-23T08:52:16Z</time>
 </trkpt>
 <trkpt lat="47.675182" lon="13.037928">
 <ele>498.38</ele>
 <time>2011-10-23T08:52:18Z</time>
 </trkpt>
 <trkpt lat="47.674782" lon="13.037732">
 <ele>498.29</ele>
 <time>2011-10-23T08:52:25Z</time>
 </trkpt>
 <trkpt lat="47.674335" lon="13.037502">
 <ele>499.45</ele>
 <time>2011-10-23T08:52:33Z</time>
 </trkpt>
 <trkpt lat="47.674118" lon="13.037383">
 <ele>499.92</ele>
 <time>2011-10-23T08:52:37Z</time>
 </trkpt>
 <trkpt lat="47.673889" lon="13.037272">
 <ele>500.07</ele>
 <time>2011-10-23T08:52:41Z</time>
 </trkpt>
 <trkpt lat="47.673656" lon="13.037171">
 <ele>500.05</ele>
 <time>2011-10-23T08:52:45Z</time>
 </trkpt>
 <trkpt lat="47.673431" lon="13.037049">
 <ele>500.61</ele>
 <time>2011-10-23T08:52:49Z</time>
 </trkpt>
 <trkpt lat="47.672916" lon="13.036780">
 <ele>501.31</ele>
 <time>2011-10-23T08:52:58Z</time>
 </trkpt>
 <trkpt lat="47.672508" lon="13.036544">
 <ele>501.41</ele>
 <time>2011-10-23T08:53:05Z</time>
 </trkpt>
 <trkpt lat="47.671947" lon="13.036216">
 <ele>501.85</ele>
 <time>2011-10-23T08:53:15Z</time>
 </trkpt>
 <trkpt lat="47.671738" lon="13.036086">
 <ele>502.95</ele>
 <time>2011-10-23T08:53:19Z</time>
 </trkpt>
 <trkpt lat="47.671642" lon="13.036019">
 <ele>503.30</ele>
 <time>2011-10-23T08:53:21Z</time>
 </trkpt>
 <trkpt lat="47.671345" lon="13.035839">
 <ele>503.97</ele>
 <time>2011-10-23T08:53:27Z</time>
 </trkpt>
 <trkpt lat="47.671242" lon="13.035773">
 <ele>504.48</ele>
 <time>2011-10-23T08:53:29Z</time>
 </trkpt>
 <trkpt lat="47.670872" lon="13.035571">
 <ele>505.93</ele>
 <time>2011-10-23T08:53:36Z</time>
 </trkpt>
 <trkpt lat="47.670586" lon="13.035441">
 <ele>507.09</ele>
 <time>2011-10-23T08:53:41Z</time>
 </trkpt>
 <trkpt lat="47.670483" lon="13.035398">
 <ele>507.50</ele>
 <time>2011-10-23T08:53:43Z</time>
 </trkpt>
 <trkpt lat="47.670143" lon="13.035303">
 <ele>508.76</ele>
 <time>2011-10-23T08:53:50Z</time>
 </trkpt>
 <trkpt lat="47.670036" lon="13.035284">
 <ele>509.07</ele>
 <time>2011-10-23T08:53:52Z</time>
 </trkpt>
 <trkpt lat="47.669819" lon="13.035236">
 <ele>509.60</ele>
 <time>2011-10-23T08:53:57Z</time>
 </trkpt>
 <trkpt lat="47.669548" lon="13.035186">
 <ele>509.97</ele>
 <time>2011-10-23T08:54:03Z</time>
 </trkpt>
 <trkpt lat="47.669315" lon="13.035133">
 <ele>510.53</ele>
 <time>2011-10-23T08:54:07Z</time>
 </trkpt>
 <trkpt lat="47.669128" lon="13.035103">
 <ele>510.76</ele>
 <time>2011-10-23T08:54:11Z</time>
 </trkpt>
 <trkpt lat="47.668884" lon="13.035084">
 <ele>510.76</ele>
 <time>2011-10-23T08:54:15Z</time>
 </trkpt>
 <trkpt lat="47.668465" lon="13.035050">
 <ele>510.90</ele>
 <time>2011-10-23T08:54:20Z</time>
 </trkpt>
 <trkpt lat="47.668312" lon="13.035032">
 <ele>510.63</ele>
 <time>2011-10-23T08:54:22Z</time>
 </trkpt>
 <trkpt lat="47.667763" lon="13.034976">
 <ele>510.79</ele>
 <time>2011-10-23T08:54:30Z</time>
 </trkpt>
 <trkpt lat="47.667225" lon="13.034923">
 <ele>511.51</ele>
 <time>2011-10-23T08:54:38Z</time>
 </trkpt>
 <trkpt lat="47.666557" lon="13.034836">
 <ele>511.55</ele>
 <time>2011-10-23T08:54:48Z</time>
 </trkpt>
 <trkpt lat="47.665913" lon="13.034743">
 <ele>511.85</ele>
 <time>2011-10-23T08:54:58Z</time>
 </trkpt>
 <trkpt lat="47.665482" lon="13.034718">
 <ele>512.38</ele>
 <time>2011-10-23T08:55:05Z</time>
 </trkpt>
 <trkpt lat="47.664989" lon="13.034778">
 <ele>512.99</ele>
 <time>2011-10-23T08:55:13Z</time>
 </trkpt>
 <trkpt lat="47.664593" lon="13.034945">
 <ele>513.09</ele>
 <time>2011-10-23T08:55:19Z</time>
 </trkpt>
 <trkpt lat="47.664398" lon="13.035065">
 <ele>513.25</ele>
 <time>2011-10-23T08:55:22Z</time>
 </trkpt>
 <trkpt lat="47.663906" lon="13.035436">
 <ele>512.55</ele>
 <time>2011-10-23T08:55:30Z</time>
 </trkpt>
 <trkpt lat="47.663570" lon="13.035739">
 <ele>512.22</ele>
 <time>2011-10-23T08:55:36Z</time>
 </trkpt>
 <trkpt lat="47.663460" lon="13.035836">
 <ele>512.20</ele>
 <time>2011-10-23T08:55:38Z</time>
 </trkpt>
 <trkpt lat="47.663216" lon="13.036080">
 <ele>512.00</ele>
 <time>2011-10-23T08:55:43Z</time>
 </trkpt>
 <trkpt lat="47.662853" lon="13.036357">
 <ele>512.48</ele>
 <time>2011-10-23T08:55:49Z</time>
 </trkpt>
 <trkpt lat="47.662483" lon="13.036571">
 <ele>513.21</ele>
 <time>2011-10-23T08:55:55Z</time>
 </trkpt>
 <trkpt lat="47.662338" lon="13.036623">
 <ele>513.33</ele>
 <time>2011-10-23T08:55:57Z</time>
 </trkpt>
 <trkpt lat="47.661953" lon="13.036699">
 <ele>513.34</ele>
 <time>2011-10-23T08:56:02Z</time>
 </trkpt>
 <trkpt lat="47.661636" lon="13.036768">
 <ele>513.47</ele>
 <time>2011-10-23T08:56:07Z</time>
 </trkpt>
 <trkpt lat="47.661179" lon="13.036854">
 <ele>513.15</ele>
 <time>2011-10-23T08:56:14Z</time>
 </trkpt>
 <trkpt lat="47.660725" lon="13.036961">
 <ele>514.01</ele>
 <time>2011-10-23T08:56:22Z</time>
 </trkpt>
 <trkpt lat="47.660255" lon="13.037106">
 <ele>514.78</ele>
 <time>2011-10-23T08:56:31Z</time>
 </trkpt>
 <trkpt lat="47.659676" lon="13.037232">
 <ele>515.88</ele>
 <time>2011-10-23T08:56:41Z</time>
 </trkpt>
 <trkpt lat="47.659508" lon="13.037288">
 <ele>516.06</ele>
 <time>2011-10-23T08:56:44Z</time>
 </trkpt>
 <trkpt lat="47.659290" lon="13.037385">
 <ele>516.41</ele>
 <time>2011-10-23T08:56:48Z</time>
 </trkpt>
 <trkpt lat="47.658909" lon="13.037615">
 <ele>516.59</ele>
 <time>2011-10-23T08:56:55Z</time>
 </trkpt>
 <trkpt lat="47.658539" lon="13.037912">
 <ele>516.96</ele>
 <time>2011-10-23T08:57:02Z</time>
 </trkpt>
 <trkpt lat="47.658443" lon="13.038014">
 <ele>517.02</ele>
 <time>2011-10-23T08:57:04Z</time>
 </trkpt>
 <trkpt lat="47.658298" lon="13.038183">
 <ele>517.13</ele>
 <time>2011-10-23T08:57:07Z</time>
 </trkpt>
 <trkpt lat="47.658115" lon="13.038443">
 <ele>517.60</ele>
 <time>2011-10-23T08:57:11Z</time>
 </trkpt>
 <trkpt lat="47.657883" lon="13.038854">
 <ele>518.02</ele>
 <time>2011-10-23T08:57:17Z</time>
 </trkpt>
 <trkpt lat="47.657818" lon="13.038992">
 <ele>517.99</ele>
 <time>2011-10-23T08:57:19Z</time>
 </trkpt>
 <trkpt lat="47.657459" lon="13.039634">
 <ele>518.29</ele>
 <time>2011-10-23T08:57:27Z</time>
 </trkpt>
 <trkpt lat="47.657036" lon="13.040388">
 <ele>518.10</ele>
 <time>2011-10-23T08:57:37Z</time>
 </trkpt>
 <trkpt lat="47.656750" lon="13.040988">
 <ele>518.99</ele>
 <time>2011-10-23T08:57:46Z</time>
 </trkpt>
 <trkpt lat="47.656445" lon="13.041410">
 <ele>520.13</ele>
 <time>2011-10-23T08:57:54Z</time>
 </trkpt>
 <trkpt lat="47.656162" lon="13.041635">
 <ele>520.70</ele>
 <time>2011-10-23T08:58:00Z</time>
 </trkpt>
 <trkpt lat="47.655853" lon="13.041777">
 <ele>521.41</ele>
 <time>2011-10-23T08:58:06Z</time>
 </trkpt>
 <trkpt lat="47.655647" lon="13.041826">
 <ele>521.61</ele>
 <time>2011-10-23T08:58:10Z</time>
 </trkpt>
 <trkpt lat="47.655308" lon="13.041802">
 <ele>522.65</ele>
 <time>2011-10-23T08:58:16Z</time>
 </trkpt>
 <trkpt lat="47.654942" lon="13.041648">
 <ele>523.00</ele>
 <time>2011-10-23T08:58:23Z</time>
 </trkpt>
 <trkpt lat="47.654602" lon="13.041357">
 <ele>522.60</ele>
 <time>2011-10-23T08:58:29Z</time>
 </trkpt>
 <trkpt lat="47.654324" lon="13.041030">
 <ele>522.13</ele>
 <time>2011-10-23T08:58:34Z</time>
 </trkpt>
 <trkpt lat="47.653965" lon="13.040398">
 <ele>523.02</ele>
 <time>2011-10-23T08:58:43Z</time>
 </trkpt>
 <trkpt lat="47.653660" lon="13.039860">
 <ele>523.58</ele>
 <time>2011-10-23T08:58:51Z</time>
 </trkpt>
 <trkpt lat="47.653236" lon="13.039131">
 <ele>524.68</ele>
 <time>2011-10-23T08:59:02Z</time>
 </trkpt>
 <trkpt lat="47.653034" lon="13.038814">
 <ele>524.89</ele>
 <time>2011-10-23T08:59:07Z</time>
 </trkpt>
 <trkpt lat="47.652752" lon="13.038388">
 <ele>525.61</ele>
 <time>2011-10-23T08:59:14Z</time>
 </trkpt>
 <trkpt lat="47.652668" lon="13.038274">
 <ele>525.76</ele>
 <time>2011-10-23T08:59:16Z</time>
 </trkpt>
 <trkpt lat="47.652367" lon="13.037900">
 <ele>526.64</ele>
 <time>2011-10-23T08:59:23Z</time>
 </trkpt>
 <trkpt lat="47.651997" lon="13.037474">
 <ele>527.76</ele>
 <time>2011-10-23T08:59:30Z</time>
 </trkpt>
 <trkpt lat="47.651920" lon="13.037380">
 <ele>528.04</ele>
 <time>2011-10-23T08:59:32Z</time>
 </trkpt>
 <trkpt lat="47.651699" lon="13.037154">
 <ele>528.51</ele>
 <time>2011-10-23T08:59:37Z</time>
 </trkpt>
 <trkpt lat="47.651611" lon="13.037066">
 <ele>528.56</ele>
 <time>2011-10-23T08:59:39Z</time>
 </trkpt>
 <trkpt lat="47.651428" lon="13.036880">
 <ele>528.81</ele>
 <time>2011-10-23T08:59:43Z</time>
 </trkpt>
 <trkpt lat="47.651066" lon="13.036558">
 <ele>529.19</ele>
 <time>2011-10-23T08:59:50Z</time>
 </trkpt>
 <trkpt lat="47.650635" lon="13.036205">
 <ele>529.59</ele>
 <time>2011-10-23T08:59:58Z</time>
 </trkpt>
 <trkpt lat="47.650520" lon="13.036106">
 <ele>529.57</ele>
 <time>2011-10-23T09:00:00Z</time>
 </trkpt>
 <trkpt lat="47.650352" lon="13.035957">
 <ele>529.37</ele>
 <time>2011-10-23T09:00:03Z</time>
 </trkpt>
 <trkpt lat="47.649883" lon="13.035488">
 <ele>529.05</ele>
 <time>2011-10-23T09:00:12Z</time>
 </trkpt>
 <trkpt lat="47.649788" lon="13.035371">
 <ele>529.04</ele>
 <time>2011-10-23T09:00:14Z</time>
 </trkpt>
 <trkpt lat="47.649418" lon="13.034840">
 <ele>529.02</ele>
 <time>2011-10-23T09:00:22Z</time>
 </trkpt>
 <trkpt lat="47.649254" lon="13.034541">
 <ele>528.79</ele>
 <time>2011-10-23T09:00:26Z</time>
 </trkpt>
 <trkpt lat="47.648899" lon="13.033853">
 <ele>528.77</ele>
 <time>2011-10-23T09:00:35Z</time>
 </trkpt>
 <trkpt lat="47.648674" lon="13.033392">
 <ele>528.71</ele>
 <time>2011-10-23T09:00:41Z</time>
 </trkpt>
 <trkpt lat="47.648277" lon="13.032657">
 <ele>529.05</ele>
 <time>2011-10-23T09:00:51Z</time>
 </trkpt>
 <trkpt lat="47.647945" lon="13.032115">
 <ele>528.68</ele>
 <time>2011-10-23T09:00:59Z</time>
 </trkpt>
 <trkpt lat="47.647728" lon="13.031797">
 <ele>529.85</ele>
 <time>2011-10-23T09:01:04Z</time>
 </trkpt>
 <trkpt lat="47.647594" lon="13.031606">
 <ele>530.50</ele>
 <time>2011-10-23T09:01:07Z</time>
 </trkpt>
 <trkpt lat="47.647171" lon="13.031070">
 <ele>530.82</ele>
 <time>2011-10-23T09:01:16Z</time>
 </trkpt>
 <trkpt lat="47.646721" lon="13.030560">
 <ele>530.86</ele>
 <time>2011-10-23T09:01:25Z</time>
 </trkpt>
 <trkpt lat="47.646194" lon="13.030031">
 <ele>530.23</ele>
 <time>2011-10-23T09:01:35Z</time>
 </trkpt>
 <trkpt lat="47.645718" lon="13.029493">
 <ele>529.82</ele>
 <time>2011-10-23T09:01:44Z</time>
 </trkpt>
 <trkpt lat="47.645473" lon="13.029144">
 <ele>529.34</ele>
 <time>2011-10-23T09:01:49Z</time>
 </trkpt>
 <trkpt lat="47.645386" lon="13.028992">
 <ele>529.19</ele>
 <time>2011-10-23T09:01:51Z</time>
 </trkpt>
 <trkpt lat="47.645046" lon="13.028256">
 <ele>529.13</ele>
 <time>2011-10-23T09:02:00Z</time>
 </trkpt>
 <trkpt lat="47.644985" lon="13.028077">
 <ele>529.28</ele>
 <time>2011-10-23T09:02:02Z</time>
 </trkpt>
 <trkpt lat="47.644794" lon="13.027333">
 <ele>529.21</ele>
 <time>2011-10-23T09:02:10Z</time>
 </trkpt>
 <trkpt lat="47.644756" lon="13.027144">
 <ele>529.39</ele>
 <time>2011-10-23T09:02:12Z</time>
 </trkpt>
 <trkpt lat="47.644665" lon="13.026464">
 <ele>530.75</ele>
 <time>2011-10-23T09:02:19Z</time>
 </trkpt>
 <trkpt lat="47.644501" lon="13.025511">
 <ele>531.79</ele>
 <time>2011-10-23T09:02:29Z</time>
 </trkpt>
 <trkpt lat="47.644375" lon="13.024983">
 <ele>531.62</ele>
 <time>2011-10-23T09:02:35Z</time>
 </trkpt>
 <trkpt lat="47.644321" lon="13.024815">
 <ele>531.67</ele>
 <time>2011-10-23T09:02:37Z</time>
 </trkpt>
 <trkpt lat="47.644100" lon="13.024255">
 <ele>532.57</ele>
 <time>2011-10-23T09:02:44Z</time>
 </trkpt>
 <trkpt lat="47.643852" lon="13.023753">
 <ele>532.85</ele>
 <time>2011-10-23T09:02:51Z</time>
 </trkpt>
 <trkpt lat="47.643570" lon="13.023284">
 <ele>533.28</ele>
 <time>2011-10-23T09:02:58Z</time>
 </trkpt>
 <trkpt lat="47.643486" lon="13.023150">
 <ele>533.71</ele>
 <time>2011-10-23T09:03:00Z</time>
 </trkpt>
 <trkpt lat="47.643230" lon="13.022707">
 <ele>534.74</ele>
 <time>2011-10-23T09:03:06Z</time>
 </trkpt>
 <trkpt lat="47.643112" lon="13.022473">
 <ele>534.72</ele>
 <time>2011-10-23T09:03:09Z</time>
 </trkpt>
 <trkpt lat="47.642944" lon="13.022047">
 <ele>534.76</ele>
 <time>2011-10-23T09:03:14Z</time>
 </trkpt>
 <trkpt lat="47.642742" lon="13.021337">
 <ele>534.08</ele>
 <time>2011-10-23T09:03:22Z</time>
 </trkpt>
 <trkpt lat="47.642578" lon="13.020632">
 <ele>534.36</ele>
 <time>2011-10-23T09:03:30Z</time>
 </trkpt>
 <trkpt lat="47.642464" lon="13.020168">
 <ele>534.92</ele>
 <time>2011-10-23T09:03:36Z</time>
 </trkpt>
 <trkpt lat="47.642342" lon="13.019669">
 <ele>535.32</ele>
 <time>2011-10-23T09:03:43Z</time>
 </trkpt>
 <trkpt lat="47.642303" lon="13.019523">
 <ele>535.41</ele>
 <time>2011-10-23T09:03:45Z</time>
 </trkpt>
 <trkpt lat="47.642159" lon="13.018864">
 <ele>535.42</ele>
 <time>2011-10-23T09:03:54Z</time>
 </trkpt>
 <trkpt lat="47.642128" lon="13.018719">
 <ele>535.26</ele>
 <time>2011-10-23T09:03:56Z</time>
 </trkpt>
 <trkpt lat="47.642101" lon="13.018578">
 <ele>535.28</ele>
 <time>2011-10-23T09:03:58Z</time>
 </trkpt>
 <trkpt lat="47.642025" lon="13.018214">
 <ele>535.59</ele>
 <time>2011-10-23T09:04:04Z</time>
 </trkpt>
 <trkpt lat="47.641968" lon="13.017963">
 <ele>536.40</ele>
 <time>2011-10-23T09:04:10Z</time>
 </trkpt>
 <trkpt lat="47.641968" lon="13.017953">
 <ele>536.65</ele>
 <time>2011-10-23T09:04:12Z</time>
 </trkpt>
 <trkpt lat="47.641972" lon="13.017958">
 <ele>536.97</ele>
 <time>2011-10-23T09:04:20Z</time>
 </trkpt>
 <trkpt lat="47.641926" lon="13.017887">
 <ele>537.39</ele>
 <time>2011-10-23T09:05:36Z</time>
 </trkpt>
 <trkpt lat="47.641918" lon="13.017856">
 <ele>537.33</ele>
 <time>2011-10-23T09:05:37Z</time>
 </trkpt>
 <trkpt lat="47.641888" lon="13.017742">
 <ele>537.24</ele>
 <time>2011-10-23T09:05:40Z</time>
 </trkpt>
 <trkpt lat="47.641842" lon="13.017571">
 <ele>537.09</ele>
 <time>2011-10-23T09:05:43Z</time>
 </trkpt>
 <trkpt lat="47.641716" lon="13.017203">
 <ele>536.20</ele>
 <time>2011-10-23T09:05:48Z</time>
 </trkpt>
 <trkpt lat="47.641582" lon="13.016867">
 <ele>536.89</ele>
 <time>2011-10-23T09:05:54Z</time>
 </trkpt>
 <trkpt lat="47.641479" lon="13.016691">
 <ele>537.76</ele>
 <time>2011-10-23T09:05:58Z</time>
 </trkpt>
 <trkpt lat="47.641273" lon="13.016405">
 <ele>537.92</ele>
 <time>2011-10-23T09:06:04Z</time>
 </trkpt>
 <trkpt lat="47.641190" lon="13.016319">
 <ele>537.95</ele>
 <time>2011-10-23T09:06:06Z</time>
 </trkpt>
 <trkpt lat="47.640938" lon="13.016132">
 <ele>538.53</ele>
 <time>2011-10-23T09:06:11Z</time>
 </trkpt>
 <trkpt lat="47.640827" lon="13.016067">
 <ele>538.83</ele>
 <time>2011-10-23T09:06:13Z</time>
 </trkpt>
 <trkpt lat="47.640499" lon="13.015968">
 <ele>538.38</ele>
 <time>2011-10-23T09:06:19Z</time>
 </trkpt>
 <trkpt lat="47.640171" lon="13.015943">
 <ele>539.39</ele>
 <time>2011-10-23T09:06:25Z</time>
 </trkpt>
 <trkpt lat="47.639736" lon="13.015998">
 <ele>539.22</ele>
 <time>2011-10-23T09:06:33Z</time>
 </trkpt>
 <trkpt lat="47.639221" lon="13.016120">
 <ele>540.35</ele>
 <time>2011-10-23T09:06:42Z</time>
 </trkpt>
 <trkpt lat="47.638607" lon="13.016217">
 <ele>541.15</ele>
 <time>2011-10-23T09:06:52Z</time>
 </trkpt>
 <trkpt lat="47.638165" lon="13.016172">
 <ele>541.12</ele>
 <time>2011-10-23T09:06:59Z</time>
 </trkpt>
 <trkpt lat="47.637741" lon="13.015964">
 <ele>540.65</ele>
 <time>2011-10-23T09:07:06Z</time>
 </trkpt>
 <trkpt lat="47.637360" lon="13.015630">
 <ele>540.73</ele>
 <time>2011-10-23T09:07:11Z</time>
 </trkpt>
 <trkpt lat="47.637165" lon="13.015286">
 <ele>540.78</ele>
 <time>2011-10-23T09:07:17Z</time>
 </trkpt>
 <trkpt lat="47.637001" lon="13.014868">
 <ele>540.75</ele>
 <time>2011-10-23T09:07:22Z</time>
 </trkpt>
 <trkpt lat="47.636848" lon="13.014281">
 <ele>540.96</ele>
 <time>2011-10-23T09:07:28Z</time>
 </trkpt>
 <trkpt lat="47.636841" lon="13.013994">
 <ele>541.17</ele>
 <time>2011-10-23T09:07:31Z</time>
 </trkpt>
 <trkpt lat="47.636833" lon="13.013501">
 <ele>541.49</ele>
 <time>2011-10-23T09:07:36Z</time>
 </trkpt>
 <trkpt lat="47.636833" lon="13.013300">
 <ele>541.81</ele>
 <time>2011-10-23T09:07:38Z</time>
 </trkpt>
 <trkpt lat="47.636879" lon="13.012613">
 <ele>542.27</ele>
 <time>2011-10-23T09:07:45Z</time>
 </trkpt>
 <trkpt lat="47.636883" lon="13.012418">
 <ele>542.23</ele>
 <time>2011-10-23T09:07:47Z</time>
 </trkpt>
 <trkpt lat="47.636841" lon="13.011530">
 <ele>542.21</ele>
 <time>2011-10-23T09:07:56Z</time>
 </trkpt>
 <trkpt lat="47.636723" lon="13.010968">
 <ele>541.84</ele>
 <time>2011-10-23T09:08:02Z</time>
 </trkpt>
 <trkpt lat="47.636665" lon="13.010799">
 <ele>541.92</ele>
 <time>2011-10-23T09:08:04Z</time>
 </trkpt>
 <trkpt lat="47.636421" lon="13.010222">
 <ele>542.59</ele>
 <time>2011-10-23T09:08:11Z</time>
 </trkpt>
 <trkpt lat="47.636288" lon="13.009989">
 <ele>542.66</ele>
 <time>2011-10-23T09:08:14Z</time>
 </trkpt>
 <trkpt lat="47.636059" lon="13.009628">
 <ele>542.89</ele>
 <time>2011-10-23T09:08:19Z</time>
 </trkpt>
 <trkpt lat="47.635719" lon="13.009185">
 <ele>542.65</ele>
 <time>2011-10-23T09:08:26Z</time>
 </trkpt>
 <trkpt lat="47.635513" lon="13.008955">
 <ele>542.34</ele>
 <time>2011-10-23T09:08:30Z</time>
 </trkpt>
 <trkpt lat="47.635078" lon="13.008516">
 <ele>542.57</ele>
 <time>2011-10-23T09:08:38Z</time>
 </trkpt>
 <trkpt lat="47.634739" lon="13.008168">
 <ele>542.33</ele>
 <time>2011-10-23T09:08:44Z</time>
 </trkpt>
 <trkpt lat="47.634628" lon="13.008060">
 <ele>542.08</ele>
 <time>2011-10-23T09:08:46Z</time>
 </trkpt>
 <trkpt lat="47.634163" lon="13.007683">
 <ele>542.26</ele>
 <time>2011-10-23T09:08:54Z</time>
 </trkpt>
 <trkpt lat="47.633793" lon="13.007467">
 <ele>542.87</ele>
 <time>2011-10-23T09:09:00Z</time>
 </trkpt>
 <trkpt lat="47.633671" lon="13.007415">
 <ele>542.95</ele>
 <time>2011-10-23T09:09:02Z</time>
 </trkpt>
 <trkpt lat="47.633366" lon="13.007292">
 <ele>543.35</ele>
 <time>2011-10-23T09:09:07Z</time>
 </trkpt>
 <trkpt lat="47.633244" lon="13.007256">
 <ele>543.51</ele>
 <time>2011-10-23T09:09:09Z</time>
 </trkpt>
 <trkpt lat="47.632671" lon="13.007116">
 <ele>544.27</ele>
 <time>2011-10-23T09:09:18Z</time>
 </trkpt>
 <trkpt lat="47.631973" lon="13.007013">
 <ele>544.95</ele>
 <time>2011-10-23T09:09:29Z</time>
 </trkpt>
 <trkpt lat="47.631519" lon="13.006891">
 <ele>544.84</ele>
 <time>2011-10-23T09:09:36Z</time>
 </trkpt>
 <trkpt lat="47.631142" lon="13.006649">
 <ele>544.91</ele>
 <time>2011-10-23T09:09:42Z</time>
 </trkpt>
 <trkpt lat="47.630760" lon="13.006241">
 <ele>545.69</ele>
 <time>2011-10-23T09:09:49Z</time>
 </trkpt>
 <trkpt lat="47.630665" lon="13.006115">
 <ele>545.87</ele>
 <time>2011-10-23T09:09:51Z</time>
 </trkpt>
 <trkpt lat="47.630203" lon="13.005488">
 <ele>546.88</ele>
 <time>2011-10-23T09:10:01Z</time>
 </trkpt>
 <trkpt lat="47.629795" lon="13.004880">
 <ele>546.56</ele>
 <time>2011-10-23T09:10:10Z</time>
 </trkpt>
 <trkpt lat="47.629478" lon="13.004385">
 <ele>546.47</ele>
 <time>2011-10-23T09:10:17Z</time>
 </trkpt>
 <trkpt lat="47.629089" lon="13.003835">
 <ele>546.62</ele>
 <time>2011-10-23T09:10:26Z</time>
 </trkpt>
 <trkpt lat="47.628994" lon="13.003671">
 <ele>547.38</ele>
 <time>2011-10-23T09:10:30Z</time>
 </trkpt>
 <trkpt lat="47.628880" lon="13.003486">
 <ele>548.08</ele>
 <time>2011-10-23T09:10:38Z</time>
 </trkpt>
 <trkpt lat="47.628780" lon="13.003313">
 <ele>548.56</ele>
 <time>2011-10-23T09:10:45Z</time>
 </trkpt>
 <trkpt lat="47.628738" lon="13.003238">
 <ele>548.68</ele>
 <time>2011-10-23T09:10:47Z</time>
 </trkpt>
 <trkpt lat="47.628693" lon="13.003154">
 <ele>548.79</ele>
 <time>2011-10-23T09:10:49Z</time>
 </trkpt>
 <trkpt lat="47.628662" lon="13.003053">
 <ele>548.97</ele>
 <time>2011-10-23T09:10:51Z</time>
 </trkpt>
 <trkpt lat="47.628647" lon="13.002872">
 <ele>549.21</ele>
 <time>2011-10-23T09:10:54Z</time>
 </trkpt>
 <trkpt lat="47.628628" lon="13.002742">
 <ele>549.49</ele>
 <time>2011-10-23T09:10:56Z</time>
 </trkpt>
 <trkpt lat="47.628555" lon="13.002421">
 <ele>550.32</ele>
 <time>2011-10-23T09:11:01Z</time>
 </trkpt>
 <trkpt lat="47.628368" lon="13.002188">
 <ele>550.72</ele>
 <time>2011-10-23T09:11:06Z</time>
 </trkpt>
 <trkpt lat="47.628281" lon="13.002111">
 <ele>550.74</ele>
 <time>2011-10-23T09:11:08Z</time>
 </trkpt>
 <trkpt lat="47.627823" lon="13.001735">
 <ele>551.25</ele>
 <time>2011-10-23T09:11:18Z</time>
 </trkpt>
 <trkpt lat="47.627338" lon="13.001315">
 <ele>550.69</ele>
 <time>2011-10-23T09:11:28Z</time>
 </trkpt>
 <trkpt lat="47.627003" lon="13.001017">
 <ele>550.83</ele>
 <time>2011-10-23T09:11:35Z</time>
 </trkpt>
 <trkpt lat="47.626904" lon="13.000937">
 <ele>550.97</ele>
 <time>2011-10-23T09:11:37Z</time>
 </trkpt>
 <trkpt lat="47.626507" lon="13.000492">
 <ele>551.21</ele>
 <time>2011-10-23T09:11:46Z</time>
 </trkpt>
 <trkpt lat="47.626186" lon="13.000115">
 <ele>552.24</ele>
 <time>2011-10-23T09:11:54Z</time>
 </trkpt>
 <trkpt lat="47.626110" lon="13.000044">
 <ele>552.64</ele>
 <time>2011-10-23T09:11:56Z</time>
 </trkpt>
 <trkpt lat="47.625988" lon="12.999818">
 <ele>553.07</ele>
 <time>2011-10-23T09:12:00Z</time>
 </trkpt>
 <trkpt lat="47.625931" lon="12.999682">
 <ele>553.21</ele>
 <time>2011-10-23T09:12:02Z</time>
 </trkpt>
 <trkpt lat="47.625893" lon="12.999624">
 <ele>553.21</ele>
 <time>2011-10-23T09:12:03Z</time>
 </trkpt>
 <trkpt lat="47.625645" lon="12.999502">
 <ele>553.28</ele>
 <time>2011-10-23T09:12:08Z</time>
 </trkpt>
 <trkpt lat="47.625473" lon="12.999577">
 <ele>553.45</ele>
 <time>2011-10-23T09:12:12Z</time>
 </trkpt>
 <trkpt lat="47.625340" lon="12.999800">
 <ele>553.81</ele>
 <time>2011-10-23T09:12:17Z</time>
 </trkpt>
 <trkpt lat="47.625313" lon="12.999893">
 <ele>553.89</ele>
 <time>2011-10-23T09:12:19Z</time>
 </trkpt>
 <trkpt lat="47.625298" lon="13.000097">
 <ele>554.15</ele>
 <time>2011-10-23T09:12:23Z</time>
 </trkpt>
 <trkpt lat="47.625416" lon="13.000441">
 <ele>553.93</ele>
 <time>2011-10-23T09:12:29Z</time>
 </trkpt>
 <trkpt lat="47.625553" lon="13.000690">
 <ele>553.57</ele>
 <time>2011-10-23T09:12:34Z</time>
 </trkpt>
 <trkpt lat="47.625519" lon="13.000864">
 <ele>553.41</ele>
 <time>2011-10-23T09:12:37Z</time>
 </trkpt>
 <trkpt lat="47.625488" lon="13.000907">
 <ele>553.45</ele>
 <time>2011-10-23T09:12:38Z</time>
 </trkpt>
 <trkpt lat="47.625271" lon="13.001096">
 <ele>554.88</ele>
 <time>2011-10-23T09:12:45Z</time>
 </trkpt>
 <trkpt lat="47.625206" lon="13.001124">
 <ele>555.12</ele>
 <time>2011-10-23T09:12:47Z</time>
 </trkpt>
 <trkpt lat="47.624931" lon="13.001160">
 <ele>556.97</ele>
 <time>2011-10-23T09:12:54Z</time>
 </trkpt>
 <trkpt lat="47.624763" lon="13.001149">
 <ele>558.22</ele>
 <time>2011-10-23T09:12:58Z</time>
 </trkpt>
 <trkpt lat="47.624519" lon="13.001146">
 <ele>559.90</ele>
 <time>2011-10-23T09:13:04Z</time>
 </trkpt>
 <trkpt lat="47.624474" lon="13.001143">
 <ele>560.17</ele>
 <time>2011-10-23T09:13:05Z</time>
 </trkpt>
 <trkpt lat="47.624111" lon="13.001107">
 <ele>561.10</ele>
 <time>2011-10-23T09:13:13Z</time>
 </trkpt>
 <trkpt lat="47.624008" lon="13.001095">
 <ele>561.25</ele>
 <time>2011-10-23T09:13:15Z</time>
 </trkpt>
 <trkpt lat="47.623905" lon="13.001082">
 <ele>561.41</ele>
 <time>2011-10-23T09:13:17Z</time>
 </trkpt>
 <trkpt lat="47.623653" lon="13.001060">
 <ele>562.03</ele>
 <time>2011-10-23T09:13:22Z</time>
 </trkpt>
 <trkpt lat="47.623245" lon="13.001010">
 <ele>562.67</ele>
 <time>2011-10-23T09:13:30Z</time>
 </trkpt>
 <trkpt lat="47.622799" lon="13.000924">
 <ele>563.57</ele>
 <time>2011-10-23T09:13:39Z</time>
 </trkpt>
 <trkpt lat="47.622704" lon="13.000904">
 <ele>563.99</ele>
 <time>2011-10-23T09:13:41Z</time>
 </trkpt>
 <trkpt lat="47.622314" lon="13.000830">
 <ele>566.57</ele>
 <time>2011-10-23T09:13:50Z</time>
 </trkpt>
 <trkpt lat="47.622044" lon="13.000775">
 <ele>568.21</ele>
 <time>2011-10-23T09:13:57Z</time>
 </trkpt>
 <trkpt lat="47.621784" lon="13.000724">
 <ele>569.43</ele>
 <time>2011-10-23T09:14:04Z</time>
 </trkpt>
 <trkpt lat="47.621712" lon="13.000711">
 <ele>569.94</ele>
 <time>2011-10-23T09:14:06Z</time>
 </trkpt>
 <trkpt lat="47.621643" lon="13.000695">
 <ele>570.43</ele>
 <time>2011-10-23T09:14:08Z</time>
 </trkpt>
 <trkpt lat="47.621338" lon="13.000626">
 <ele>572.22</ele>
 <time>2011-10-23T09:14:17Z</time>
 </trkpt>
 <trkpt lat="47.621067" lon="13.000567">
 <ele>573.90</ele>
 <time>2011-10-23T09:14:25Z</time>
 </trkpt>
 <trkpt lat="47.620998" lon="13.000555">
 <ele>574.04</ele>
 <time>2011-10-23T09:14:27Z</time>
 </trkpt>
 <trkpt lat="47.620731" lon="13.000486">
 <ele>575.38</ele>
 <time>2011-10-23T09:14:35Z</time>
 </trkpt>
 <trkpt lat="47.620399" lon="13.000398">
 <ele>577.24</ele>
 <time>2011-10-23T09:14:45Z</time>
 </trkpt>
 <trkpt lat="47.620136" lon="13.000277">
 <ele>578.41</ele>
 <time>2011-10-23T09:14:53Z</time>
 </trkpt>
 <trkpt lat="47.619881" lon="13.000137">
 <ele>579.84</ele>
 <time>2011-10-23T09:15:01Z</time>
 </trkpt>
 <trkpt lat="47.619587" lon="12.999952">
 <ele>580.92</ele>
 <time>2011-10-23T09:15:10Z</time>
 </trkpt>
 <trkpt lat="47.619263" lon="12.999772">
 <ele>582.50</ele>
 <time>2011-10-23T09:15:20Z</time>
 </trkpt>
 <trkpt lat="47.619026" lon="12.999700">
 <ele>583.29</ele>
 <time>2011-10-23T09:15:27Z</time>
 </trkpt>
 <trkpt lat="47.618698" lon="12.999648">
 <ele>584.14</ele>
 <time>2011-10-23T09:15:36Z</time>
 </trkpt>
 <trkpt lat="47.618332" lon="12.999638">
 <ele>584.67</ele>
 <time>2011-10-23T09:15:46Z</time>
 </trkpt>
 <trkpt lat="47.618221" lon="12.999654">
 <ele>585.06</ele>
 <time>2011-10-23T09:15:49Z</time>
 </trkpt>
 <trkpt lat="47.617954" lon="12.999725">
 <ele>585.59</ele>
 <time>2011-10-23T09:15:56Z</time>
 </trkpt>
 <trkpt lat="47.617630" lon="12.999875">
 <ele>585.47</ele>
 <time>2011-10-23T09:16:03Z</time>
 </trkpt>
 <trkpt lat="47.617168" lon="13.000094">
 <ele>585.43</ele>
 <time>2011-10-23T09:16:12Z</time>
 </trkpt>
 <trkpt lat="47.616737" lon="13.000197">
 <ele>585.21</ele>
 <time>2011-10-23T09:16:20Z</time>
 </trkpt>
 <trkpt lat="47.616577" lon="13.000197">
 <ele>585.53</ele>
 <time>2011-10-23T09:16:23Z</time>
 </trkpt>
 <trkpt lat="47.616096" lon="13.000251">
 <ele>586.06</ele>
 <time>2011-10-23T09:16:32Z</time>
 </trkpt>
 <trkpt lat="47.615883" lon="13.000308">
 <ele>586.18</ele>
 <time>2011-10-23T09:16:36Z</time>
 </trkpt>
 <trkpt lat="47.615356" lon="13.000465">
 <ele>587.09</ele>
 <time>2011-10-23T09:16:46Z</time>
 </trkpt>
 <trkpt lat="47.614960" lon="13.000469">
 <ele>587.67</ele>
 <time>2011-10-23T09:16:54Z</time>
 </trkpt>
 <trkpt lat="47.614635" lon="13.000361">
 <ele>589.24</ele>
 <time>2011-10-23T09:17:01Z</time>
 </trkpt>
 <trkpt lat="47.614548" lon="13.000317">
 <ele>589.63</ele>
 <time>2011-10-23T09:17:03Z</time>
 </trkpt>
 <trkpt lat="47.614376" lon="13.000219">
 <ele>590.33</ele>
 <time>2011-10-23T09:17:07Z</time>
 </trkpt>
 <trkpt lat="47.614048" lon="12.999979">
 <ele>591.89</ele>
 <time>2011-10-23T09:17:15Z</time>
 </trkpt>
 <trkpt lat="47.613968" lon="12.999915">
 <ele>592.27</ele>
 <time>2011-10-23T09:17:17Z</time>
 </trkpt>
 <trkpt lat="47.613861" lon="12.999825">
 <ele>593.00</ele>
 <time>2011-10-23T09:17:20Z</time>
 </trkpt>
 <trkpt lat="47.613785" lon="12.999765">
 <ele>593.45</ele>
 <time>2011-10-23T09:17:22Z</time>
 </trkpt>
 <trkpt lat="47.613636" lon="12.999655">
 <ele>594.37</ele>
 <time>2011-10-23T09:17:26Z</time>
 </trkpt>
 <trkpt lat="47.613567" lon="12.999607">
 <ele>594.60</ele>
 <time>2011-10-23T09:17:28Z</time>
 </trkpt>
 <trkpt lat="47.613338" lon="12.999462">
 <ele>596.09</ele>
 <time>2011-10-23T09:17:34Z</time>
 </trkpt>
 <trkpt lat="47.613106" lon="12.999333">
 <ele>597.58</ele>
 <time>2011-10-23T09:17:40Z</time>
 </trkpt>
 <trkpt lat="47.612846" lon="12.999230">
 <ele>599.01</ele>
 <time>2011-10-23T09:17:47Z</time>
 </trkpt>
 <trkpt lat="47.612656" lon="12.999161">
 <ele>599.46</ele>
 <time>2011-10-23T09:17:52Z</time>
 </trkpt>
 <trkpt lat="47.612309" lon="12.999033">
 <ele>600.79</ele>
 <time>2011-10-23T09:18:01Z</time>
 </trkpt>
 <trkpt lat="47.611893" lon="12.998842">
 <ele>602.29</ele>
 <time>2011-10-23T09:18:12Z</time>
 </trkpt>
 <trkpt lat="47.611504" lon="12.998637">
 <ele>603.23</ele>
 <time>2011-10-23T09:18:22Z</time>
 </trkpt>
 <trkpt lat="47.611191" lon="12.998456">
 <ele>603.45</ele>
 <time>2011-10-23T09:18:29Z</time>
 </trkpt>
 <trkpt lat="47.611099" lon="12.998395">
 <ele>603.57</ele>
 <time>2011-10-23T09:18:31Z</time>
 </trkpt>
 <trkpt lat="47.610668" lon="12.998111">
 <ele>604.23</ele>
 <time>2011-10-23T09:18:40Z</time>
 </trkpt>
 <trkpt lat="47.610161" lon="12.997723">
 <ele>604.64</ele>
 <time>2011-10-23T09:18:50Z</time>
 </trkpt>
 <trkpt lat="47.609676" lon="12.997317">
 <ele>604.99</ele>
 <time>2011-10-23T09:18:59Z</time>
 </trkpt>
 <trkpt lat="47.609337" lon="12.997023">
 <ele>605.00</ele>
 <time>2011-10-23T09:19:05Z</time>
 </trkpt>
 <trkpt lat="47.609222" lon="12.996921">
 <ele>605.10</ele>
 <time>2011-10-23T09:19:07Z</time>
 </trkpt>
 <trkpt lat="47.608521" lon="12.996293">
 <ele>604.69</ele>
 <time>2011-10-23T09:19:19Z</time>
 </trkpt>
 <trkpt lat="47.607944" lon="12.995736">
 <ele>603.74</ele>
 <time>2011-10-23T09:19:29Z</time>
 </trkpt>
 <trkpt lat="47.607246" lon="12.995037">
 <ele>604.48</ele>
 <time>2011-10-23T09:19:41Z</time>
 </trkpt>
 <trkpt lat="47.606915" lon="12.994679">
 <ele>604.27</ele>
 <time>2011-10-23T09:19:47Z</time>
 </trkpt>
 <trkpt lat="47.606434" lon="12.994147">
 <ele>604.74</ele>
 <time>2011-10-23T09:19:56Z</time>
 </trkpt>
 <trkpt lat="47.605919" lon="12.993562">
 <ele>605.79</ele>
 <time>2011-10-23T09:20:06Z</time>
 </trkpt>
 <trkpt lat="47.605820" lon="12.993445">
 <ele>605.95</ele>
 <time>2011-10-23T09:20:08Z</time>
 </trkpt>
 <trkpt lat="47.605522" lon="12.993090">
 <ele>606.45</ele>
 <time>2011-10-23T09:20:14Z</time>
 </trkpt>
 <trkpt lat="47.605423" lon="12.992971">
 <ele>606.40</ele>
 <time>2011-10-23T09:20:16Z</time>
 </trkpt>
 <trkpt lat="47.604961" lon="12.992457">
 <ele>607.04</ele>
 <time>2011-10-23T09:20:25Z</time>
 </trkpt>
 <trkpt lat="47.604858" lon="12.992340">
 <ele>607.08</ele>
 <time>2011-10-23T09:20:27Z</time>
 </trkpt>
 <trkpt lat="47.604378" lon="12.991836">
 <ele>607.22</ele>
 <time>2011-10-23T09:20:36Z</time>
 </trkpt>
 <trkpt lat="47.603802" lon="12.991296">
 <ele>606.60</ele>
 <time>2011-10-23T09:20:46Z</time>
 </trkpt>
 <trkpt lat="47.603188" lon="12.990802">
 <ele>605.88</ele>
 <time>2011-10-23T09:20:56Z</time>
 </trkpt>
 <trkpt lat="47.602531" lon="12.990379">
 <ele>605.49</ele>
 <time>2011-10-23T09:21:06Z</time>
 </trkpt>
 <trkpt lat="47.601974" lon="12.990090">
 <ele>606.00</ele>
 <time>2011-10-23T09:21:14Z</time>
 </trkpt>
 <trkpt lat="47.601631" lon="12.989942">
 <ele>606.65</ele>
 <time>2011-10-23T09:21:19Z</time>
 </trkpt>
 <trkpt lat="47.601494" lon="12.989881">
 <ele>606.94</ele>
 <time>2011-10-23T09:21:21Z</time>
 </trkpt>
 <trkpt lat="47.601009" lon="12.989700">
 <ele>607.91</ele>
 <time>2011-10-23T09:21:29Z</time>
 </trkpt>
 <trkpt lat="47.600784" lon="12.989627">
 <ele>608.43</ele>
 <time>2011-10-23T09:21:33Z</time>
 </trkpt>
 <trkpt lat="47.600399" lon="12.989515">
 <ele>609.70</ele>
 <time>2011-10-23T09:21:40Z</time>
 </trkpt>
 <trkpt lat="47.599995" lon="12.989447">
 <ele>610.87</ele>
 <time>2011-10-23T09:21:47Z</time>
 </trkpt>
 <trkpt lat="47.599880" lon="12.989438">
 <ele>610.94</ele>
 <time>2011-10-23T09:21:49Z</time>
 </trkpt>
 <trkpt lat="47.599411" lon="12.989467">
 <ele>610.84</ele>
 <time>2011-10-23T09:21:57Z</time>
 </trkpt>
 <trkpt lat="47.599239" lon="12.989488">
 <ele>610.93</ele>
 <time>2011-10-23T09:22:00Z</time>
 </trkpt>
 <trkpt lat="47.598850" lon="12.989476">
 <ele>611.07</ele>
 <time>2011-10-23T09:22:06Z</time>
 </trkpt>
 <trkpt lat="47.598515" lon="12.989401">
 <ele>611.13</ele>
 <time>2011-10-23T09:22:11Z</time>
 </trkpt>
 <trkpt lat="47.598034" lon="12.989234">
 <ele>611.78</ele>
 <time>2011-10-23T09:22:19Z</time>
 </trkpt>
 <trkpt lat="47.597626" lon="12.989126">
 <ele>612.69</ele>
 <time>2011-10-23T09:22:26Z</time>
 </trkpt>
 <trkpt lat="47.597317" lon="12.989112">
 <ele>613.44</ele>
 <time>2011-10-23T09:22:31Z</time>
 </trkpt>
 <trkpt lat="47.596821" lon="12.989206">
 <ele>612.97</ele>
 <time>2011-10-23T09:22:39Z</time>
 </trkpt>
 <trkpt lat="47.596699" lon="12.989244">
 <ele>612.80</ele>
 <time>2011-10-23T09:22:41Z</time>
 </trkpt>
 <trkpt lat="47.596127" lon="12.989356">
 <ele>613.02</ele>
 <time>2011-10-23T09:22:50Z</time>
 </trkpt>
 <trkpt lat="47.595676" lon="12.989344">
 <ele>612.53</ele>
 <time>2011-10-23T09:22:57Z</time>
 </trkpt>
 <trkpt lat="47.595482" lon="12.989304">
 <ele>612.36</ele>
 <time>2011-10-23T09:23:00Z</time>
 </trkpt>
 <trkpt lat="47.595348" lon="12.989262">
 <ele>611.88</ele>
 <time>2011-10-23T09:23:02Z</time>
 </trkpt>
 <trkpt lat="47.594887" lon="12.989033">
 <ele>611.01</ele>
 <time>2011-10-23T09:23:09Z</time>
 </trkpt>
 <trkpt lat="47.594646" lon="12.988853">
 <ele>611.49</ele>
 <time>2011-10-23T09:23:13Z</time>
 </trkpt>
 <trkpt lat="47.594540" lon="12.988757">
 <ele>611.53</ele>
 <time>2011-10-23T09:23:15Z</time>
 </trkpt>
 <trkpt lat="47.594170" lon="12.988359">
 <ele>611.94</ele>
 <time>2011-10-23T09:23:22Z</time>
 </trkpt>
 <trkpt lat="47.594021" lon="12.988180">
 <ele>612.37</ele>
 <time>2011-10-23T09:23:25Z</time>
 </trkpt>
 <trkpt lat="47.593838" lon="12.987947">
 <ele>612.88</ele>
 <time>2011-10-23T09:23:29Z</time>
 </trkpt>
 <trkpt lat="47.593746" lon="12.987836">
 <ele>613.32</ele>
 <time>2011-10-23T09:23:31Z</time>
 </trkpt>
 <trkpt lat="47.593361" lon="12.987410">
 <ele>614.95</ele>
 <time>2011-10-23T09:23:40Z</time>
 </trkpt>
 <trkpt lat="47.593048" lon="12.987175">
 <ele>615.42</ele>
 <time>2011-10-23T09:23:47Z</time>
 </trkpt>
 <trkpt lat="47.592960" lon="12.987135">
 <ele>615.56</ele>
 <time>2011-10-23T09:23:49Z</time>
 </trkpt>
 <trkpt lat="47.592651" lon="12.987036">
 <ele>616.95</ele>
 <time>2011-10-23T09:23:56Z</time>
 </trkpt>
 <trkpt lat="47.592560" lon="12.987023">
 <ele>617.22</ele>
 <time>2011-10-23T09:23:58Z</time>
 </trkpt>
 <trkpt lat="47.592518" lon="12.987027">
 <ele>617.36</ele>
 <time>2011-10-23T09:23:59Z</time>
 </trkpt>
 <trkpt lat="47.592392" lon="12.987091">
 <ele>617.54</ele>
 <time>2011-10-23T09:24:02Z</time>
 </trkpt>
 <trkpt lat="47.592251" lon="12.987261">
 <ele>617.89</ele>
 <time>2011-10-23T09:24:06Z</time>
 </trkpt>
 <trkpt lat="47.592106" lon="12.987419">
 <ele>618.48</ele>
 <time>2011-10-23T09:24:10Z</time>
 </trkpt>
 <trkpt lat="47.591980" lon="12.987501">
 <ele>618.71</ele>
 <time>2011-10-23T09:24:13Z</time>
 </trkpt>
 <trkpt lat="47.591801" lon="12.987611">
 <ele>619.07</ele>
 <time>2011-10-23T09:24:17Z</time>
 </trkpt>
 <trkpt lat="47.591671" lon="12.987707">
 <ele>619.49</ele>
 <time>2011-10-23T09:24:20Z</time>
 </trkpt>
 <trkpt lat="47.591633" lon="12.987743">
 <ele>619.62</ele>
 <time>2011-10-23T09:24:21Z</time>
 </trkpt>
 <trkpt lat="47.591496" lon="12.988016">
 <ele>620.26</ele>
 <time>2011-10-23T09:24:26Z</time>
 </trkpt>
 <trkpt lat="47.591484" lon="12.988076">
 <ele>620.35</ele>
 <time>2011-10-23T09:24:27Z</time>
 </trkpt>
 <trkpt lat="47.591450" lon="12.988225">
 <ele>621.10</ele>
 <time>2011-10-23T09:24:31Z</time>
 </trkpt>
 <trkpt lat="47.591370" lon="12.988207">
 <ele>621.72</ele>
 <time>2011-10-23T09:24:35Z</time>
 </trkpt>
 <trkpt lat="47.591255" lon="12.988062">
 <ele>621.55</ele>
 <time>2011-10-23T09:24:39Z</time>
 </trkpt>
 <trkpt lat="47.591049" lon="12.987922">
 <ele>621.19</ele>
 <time>2011-10-23T09:24:45Z</time>
 </trkpt>
 <trkpt lat="47.590958" lon="12.987879">
 <ele>621.22</ele>
 <time>2011-10-23T09:24:49Z</time>
 </trkpt>
 <trkpt lat="47.590858" lon="12.987945">
 <ele>621.48</ele>
 <time>2011-10-23T09:24:53Z</time>
 </trkpt>
 <trkpt lat="47.590725" lon="12.988107">
 <ele>621.87</ele>
 <time>2011-10-23T09:24:59Z</time>
 </trkpt>
 <trkpt lat="47.590614" lon="12.988239">
 <ele>622.47</ele>
 <time>2011-10-23T09:25:04Z</time>
 </trkpt>
 <trkpt lat="47.590485" lon="12.988332">
 <ele>623.28</ele>
 <time>2011-10-23T09:25:09Z</time>
 </trkpt>
 <trkpt lat="47.590454" lon="12.988343">
 <ele>623.38</ele>
 <time>2011-10-23T09:25:10Z</time>
 </trkpt>
 <trkpt lat="47.590393" lon="12.988360">
 <ele>623.51</ele>
 <time>2011-10-23T09:25:12Z</time>
 </trkpt>
 <trkpt lat="47.590252" lon="12.988453">
 <ele>624.16</ele>
 <time>2011-10-23T09:25:17Z</time>
 </trkpt>
 <trkpt lat="47.590065" lon="12.988552">
 <ele>624.58</ele>
 <time>2011-10-23T09:25:23Z</time>
 </trkpt>
 <trkpt lat="47.589874" lon="12.988685">
 <ele>625.04</ele>
 <time>2011-10-23T09:25:29Z</time>
 </trkpt>
 <trkpt lat="47.589676" lon="12.988860">
 <ele>625.53</ele>
 <time>2011-10-23T09:25:36Z</time>
 </trkpt>
 <trkpt lat="47.589500" lon="12.989082">
 <ele>624.76</ele>
 <time>2011-10-23T09:25:42Z</time>
 </trkpt>
 <trkpt lat="47.589474" lon="12.989128">
 <ele>624.42</ele>
 <time>2011-10-23T09:25:43Z</time>
 </trkpt>
 <trkpt lat="47.589294" lon="12.989376">
 <ele>623.21</ele>
 <time>2011-10-23T09:25:50Z</time>
 </trkpt>
 <trkpt lat="47.589169" lon="12.989501">
 <ele>622.35</ele>
 <time>2011-10-23T09:25:55Z</time>
 </trkpt>
 <trkpt lat="47.589012" lon="12.989534">
 <ele>621.07</ele>
 <time>2011-10-23T09:26:01Z</time>
 </trkpt>
 <trkpt lat="47.588867" lon="12.989500">
 <ele>620.38</ele>
 <time>2011-10-23T09:26:06Z</time>
 </trkpt>
 <trkpt lat="47.588589" lon="12.989365">
 <ele>618.82</ele>
 <time>2011-10-23T09:26:14Z</time>
 </trkpt>
 <trkpt lat="47.588421" lon="12.989244">
 <ele>618.03</ele>
 <time>2011-10-23T09:26:21Z</time>
 </trkpt>
 <trkpt lat="47.588341" lon="12.989310">
 <ele>618.10</ele>
 <time>2011-10-23T09:26:25Z</time>
 </trkpt>
 <trkpt lat="47.588291" lon="12.989376">
 <ele>618.14</ele>
 <time>2011-10-23T09:26:29Z</time>
 </trkpt>
 <trkpt lat="47.588272" lon="12.989375">
 <ele>618.19</ele>
 <time>2011-10-23T09:26:32Z</time>
 </trkpt>
 <trkpt lat="47.588280" lon="12.989379">
 <ele>617.95</ele>
 <time>2011-10-23T09:31:35Z</time>
 </trkpt>
 <trkpt lat="47.588272" lon="12.989405">
 <ele>618.00</ele>
 <time>2011-10-23T09:33:05Z</time>
 </trkpt>
 <trkpt lat="47.588268" lon="12.989412">
 <ele>618.05</ele>
 <time>2011-10-23T09:33:07Z</time>
 </trkpt>
 <trkpt lat="47.588264" lon="12.989468">
 <ele>618.37</ele>
 <time>2011-10-23T09:33:14Z</time>
 </trkpt>
 <trkpt lat="47.588245" lon="12.989577">
 <ele>618.44</ele>
 <time>2011-10-23T09:33:19Z</time>
 </trkpt>
 <trkpt lat="47.588215" lon="12.989664">
 <ele>618.39</ele>
 <time>2011-10-23T09:33:22Z</time>
 </trkpt>
 <trkpt lat="47.588200" lon="12.989691">
 <ele>618.35</ele>
 <time>2011-10-23T09:33:23Z</time>
 </trkpt>
 <trkpt lat="47.588070" lon="12.989830">
 <ele>617.85</ele>
 <time>2011-10-23T09:33:30Z</time>
 </trkpt>
 <trkpt lat="47.587955" lon="12.989979">
 <ele>617.50</ele>
 <time>2011-10-23T09:33:37Z</time>
 </trkpt>
 <trkpt lat="47.587852" lon="12.990090">
 <ele>617.38</ele>
 <time>2011-10-23T09:33:45Z</time>
 </trkpt>
 <trkpt lat="47.587753" lon="12.990196">
 <ele>617.62</ele>
 <time>2011-10-23T09:33:52Z</time>
 </trkpt>
 <trkpt lat="47.587620" lon="12.990285">
 <ele>617.55</ele>
 <time>2011-10-23T09:34:00Z</time>
 </trkpt>
 <trkpt lat="47.587570" lon="12.990305">
 <ele>617.56</ele>
 <time>2011-10-23T09:34:03Z</time>
 </trkpt>
 <trkpt lat="47.587563" lon="12.990249">
 <ele>617.85</ele>
 <time>2011-10-23T09:34:08Z</time>
 </trkpt>
 <trkpt lat="47.587673" lon="12.990230">
 <ele>618.12</ele>
 <time>2011-10-23T09:34:14Z</time>
 </trkpt>
 <trkpt lat="47.587811" lon="12.990110">
 <ele>617.91</ele>
 <time>2011-10-23T09:34:22Z</time>
 </trkpt>
 <trkpt lat="47.587856" lon="12.990030">
 <ele>618.00</ele>
 <time>2011-10-23T09:34:26Z</time>
 </trkpt>
 <trkpt lat="47.587940" lon="12.989861">
 <ele>618.03</ele>
 <time>2011-10-23T09:34:34Z</time>
 </trkpt>
 <trkpt lat="47.588047" lon="12.989724">
 <ele>617.96</ele>
 <time>2011-10-23T09:34:41Z</time>
 </trkpt>
 <trkpt lat="47.588093" lon="12.989673">
 <ele>617.96</ele>
 <time>2011-10-23T09:34:44Z</time>
 </trkpt>
 <trkpt lat="47.588215" lon="12.989575">
 <ele>618.53</ele>
 <time>2011-10-23T09:34:50Z</time>
 </trkpt>
 <trkpt lat="47.588234" lon="12.989556">
 <ele>618.70</ele>
 <time>2011-10-23T09:34:52Z</time>
 </trkpt>
 <trkpt lat="47.588268" lon="12.989523">
 <ele>618.93</ele>
 <time>2011-10-23T09:34:58Z</time>
 </trkpt>
 <trkpt lat="47.588226" lon="12.989490">
 <ele>618.96</ele>
 <time>2011-10-23T09:35:08Z</time>
 </trkpt>
 <trkpt lat="47.588398" lon="12.989367">
 <ele>619.21</ele>
 <time>2011-10-23T09:38:26Z</time>
 </trkpt>
 <trkpt lat="47.588455" lon="12.989348">
 <ele>619.24</ele>
 <time>2011-10-23T09:38:29Z</time>
 </trkpt>
 <trkpt lat="47.588470" lon="12.989346">
 <ele>619.23</ele>
 <time>2011-10-23T09:38:30Z</time>
 </trkpt>
 <trkpt lat="47.588531" lon="12.989391">
 <ele>619.39</ele>
 <time>2011-10-23T09:38:35Z</time>
 </trkpt>
 <trkpt lat="47.588615" lon="12.989431">
 <ele>619.66</ele>
 <time>2011-10-23T09:38:40Z</time>
 </trkpt>
 <trkpt lat="47.588638" lon="12.989431">
 <ele>619.73</ele>
 <time>2011-10-23T09:38:41Z</time>
 </trkpt>
 <trkpt lat="47.588741" lon="12.989464">
 <ele>620.16</ele>
 <time>2011-10-23T09:38:45Z</time>
 </trkpt>
 <trkpt lat="47.588867" lon="12.989490">
 <ele>620.58</ele>
 <time>2011-10-23T09:38:50Z</time>
 </trkpt>
 <trkpt lat="47.588974" lon="12.989506">
 <ele>621.22</ele>
 <time>2011-10-23T09:38:55Z</time>
 </trkpt>
 <trkpt lat="47.589081" lon="12.989498">
 <ele>622.47</ele>
 <time>2011-10-23T09:39:01Z</time>
 </trkpt>
 <trkpt lat="47.589203" lon="12.989454">
 <ele>623.45</ele>
 <time>2011-10-23T09:39:07Z</time>
 </trkpt>
 <trkpt lat="47.589283" lon="12.989314">
 <ele>624.02</ele>
 <time>2011-10-23T09:39:12Z</time>
 </trkpt>
 <trkpt lat="47.589348" lon="12.989249">
 <ele>624.53</ele>
 <time>2011-10-23T09:39:15Z</time>
 </trkpt>
 <trkpt lat="47.589382" lon="12.989196">
 <ele>624.80</ele>
 <time>2011-10-23T09:39:17Z</time>
 </trkpt>
 <trkpt lat="47.589600" lon="12.988963">
 <ele>626.53</ele>
 <time>2011-10-23T09:39:28Z</time>
 </trkpt>
 <trkpt lat="47.589725" lon="12.988800">
 <ele>627.23</ele>
 <time>2011-10-23T09:39:35Z</time>
 </trkpt>
 <trkpt lat="47.589836" lon="12.988715">
 <ele>627.48</ele>
 <time>2011-10-23T09:39:41Z</time>
 </trkpt>
 <trkpt lat="47.589928" lon="12.988635">
 <ele>627.37</ele>
 <time>2011-10-23T09:39:47Z</time>
 </trkpt>
 <trkpt lat="47.590061" lon="12.988558">
 <ele>627.18</ele>
 <time>2011-10-23T09:39:52Z</time>
 </trkpt>
 <trkpt lat="47.590229" lon="12.988460">
 <ele>626.86</ele>
 <time>2011-10-23T09:39:57Z</time>
 </trkpt>
 <trkpt lat="47.590267" lon="12.988439">
 <ele>626.83</ele>
 <time>2011-10-23T09:39:58Z</time>
 </trkpt>
 <trkpt lat="47.590450" lon="12.988359">
 <ele>626.51</ele>
 <time>2011-10-23T09:40:04Z</time>
 </trkpt>
 <trkpt lat="47.590607" lon="12.988215">
 <ele>625.88</ele>
 <time>2011-10-23T09:40:10Z</time>
 </trkpt>
 <trkpt lat="47.590809" lon="12.988021">
 <ele>623.86</ele>
 <time>2011-10-23T09:40:17Z</time>
 </trkpt>
 <trkpt lat="47.590969" lon="12.987814">
 <ele>622.86</ele>
 <time>2011-10-23T09:40:23Z</time>
 </trkpt>
 <trkpt lat="47.591026" lon="12.987799">
 <ele>622.79</ele>
 <time>2011-10-23T09:40:27Z</time>
 </trkpt>
 <trkpt lat="47.591045" lon="12.987746">
 <ele>622.78</ele>
 <time>2011-10-23T09:40:44Z</time>
 </trkpt>
 <trkpt lat="47.591057" lon="12.987739">
 <ele>622.75</ele>
 <time>2011-10-23T09:40:47Z</time>
 </trkpt>
 <trkpt lat="47.591183" lon="12.987632">
 <ele>622.41</ele>
 <time>2011-10-23T09:40:55Z</time>
 </trkpt>
 <trkpt lat="47.591267" lon="12.987582">
 <ele>622.00</ele>
 <time>2011-10-23T09:40:58Z</time>
 </trkpt>
 <trkpt lat="47.591415" lon="12.987497">
 <ele>621.38</ele>
 <time>2011-10-23T09:41:02Z</time>
 </trkpt>
 <trkpt lat="47.591702" lon="12.987302">
 <ele>620.33</ele>
 <time>2011-10-23T09:41:09Z</time>
 </trkpt>
 <trkpt lat="47.591743" lon="12.987272">
 <ele>620.22</ele>
 <time>2011-10-23T09:41:10Z</time>
 </trkpt>
 <trkpt lat="47.592075" lon="12.987141">
 <ele>619.90</ele>
 <time>2011-10-23T09:41:17Z</time>
 </trkpt>
 <trkpt lat="47.592224" lon="12.987155">
 <ele>619.74</ele>
 <time>2011-10-23T09:41:21Z</time>
 </trkpt>
 <trkpt lat="47.592239" lon="12.987176">
 <ele>619.84</ele>
 <time>2011-10-23T09:41:22Z</time>
 </trkpt>
 <trkpt lat="47.592350" lon="12.987248">
 <ele>620.18</ele>
 <time>2011-10-23T09:41:27Z</time>
 </trkpt>
 <trkpt lat="47.592533" lon="12.987191">
 <ele>619.70</ele>
 <time>2011-10-23T09:41:32Z</time>
 </trkpt>
 <trkpt lat="47.592667" lon="12.987159">
 <ele>619.09</ele>
 <time>2011-10-23T09:41:35Z</time>
 </trkpt>
 <trkpt lat="47.592857" lon="12.987189">
 <ele>618.47</ele>
 <time>2011-10-23T09:41:39Z</time>
 </trkpt>
 <trkpt lat="47.592960" lon="12.987234">
 <ele>618.10</ele>
 <time>2011-10-23T09:41:41Z</time>
 </trkpt>
 <trkpt lat="47.593121" lon="12.987181">
 <ele>617.64</ele>
 <time>2011-10-23T09:41:45Z</time>
 </trkpt>
 <trkpt lat="47.593136" lon="12.987068">
 <ele>617.50</ele>
 <time>2011-10-23T09:41:47Z</time>
 </trkpt>
 <trkpt lat="47.593235" lon="12.986560">
 <ele>616.57</ele>
 <time>2011-10-23T09:41:55Z</time>
 </trkpt>
 <trkpt lat="47.593304" lon="12.986095">
 <ele>614.55</ele>
 <time>2011-10-23T09:42:00Z</time>
 </trkpt>
 <trkpt lat="47.593315" lon="12.985908">
 <ele>613.70</ele>
 <time>2011-10-23T09:42:02Z</time>
 </trkpt>
 <trkpt lat="47.593334" lon="12.985581">
 <ele>612.33</ele>
 <time>2011-10-23T09:42:07Z</time>
 </trkpt>
 <trkpt lat="47.593334" lon="12.985434">
 <ele>611.91</ele>
 <time>2011-10-23T09:42:09Z</time>
 </trkpt>
 <trkpt lat="47.593365" lon="12.985097">
 <ele>610.77</ele>
 <time>2011-10-23T09:42:13Z</time>
 </trkpt>
 <trkpt lat="47.593506" lon="12.984575">
 <ele>608.55</ele>
 <time>2011-10-23T09:42:19Z</time>
 </trkpt>
 <trkpt lat="47.593716" lon="12.984229">
 <ele>607.71</ele>
 <time>2011-10-23T09:42:24Z</time>
 </trkpt>
 <trkpt lat="47.593811" lon="12.984125">
 <ele>607.69</ele>
 <time>2011-10-23T09:42:26Z</time>
 </trkpt>
 <trkpt lat="47.594032" lon="12.983995">
 <ele>607.76</ele>
 <time>2011-10-23T09:42:30Z</time>
 </trkpt>
 <trkpt lat="47.594162" lon="12.983947">
 <ele>607.88</ele>
 <time>2011-10-23T09:42:32Z</time>
 </trkpt>
 <trkpt lat="47.594372" lon="12.983885">
 <ele>607.68</ele>
 <time>2011-10-23T09:42:35Z</time>
 </trkpt>
 <trkpt lat="47.594517" lon="12.983857">
 <ele>607.23</ele>
 <time>2011-10-23T09:42:37Z</time>
 </trkpt>
 <trkpt lat="47.594593" lon="12.983845">
 <ele>607.02</ele>
 <time>2011-10-23T09:42:38Z</time>
 </trkpt>
 <trkpt lat="47.594830" lon="12.983808">
 <ele>606.30</ele>
 <time>2011-10-23T09:42:41Z</time>
 </trkpt>
 <trkpt lat="47.595146" lon="12.983967">
 <ele>604.70</ele>
 <time>2011-10-23T09:42:45Z</time>
 </trkpt>
 <trkpt lat="47.595501" lon="12.984236">
 <ele>603.00</ele>
 <time>2011-10-23T09:42:50Z</time>
 </trkpt>
 <trkpt lat="47.595753" lon="12.984206">
 <ele>602.63</ele>
 <time>2011-10-23T09:42:53Z</time>
 </trkpt>
 <trkpt lat="47.596142" lon="12.984039">
 <ele>601.84</ele>
 <time>2011-10-23T09:42:58Z</time>
 </trkpt>
 <trkpt lat="47.596455" lon="12.984089">
 <ele>600.73</ele>
 <time>2011-10-23T09:43:02Z</time>
 </trkpt>
 <trkpt lat="47.597000" lon="12.984452">
 <ele>599.70</ele>
 <time>2011-10-23T09:43:10Z</time>
 </trkpt>
 <trkpt lat="47.597309" lon="12.984740">
 <ele>599.19</ele>
 <time>2011-10-23T09:43:15Z</time>
 </trkpt>
 <trkpt lat="47.597424" lon="12.984872">
 <ele>599.06</ele>
 <time>2011-10-23T09:43:17Z</time>
 </trkpt>
 <trkpt lat="47.597908" lon="12.985407">
 <ele>598.95</ele>
 <time>2011-10-23T09:43:25Z</time>
 </trkpt>
 <trkpt lat="47.598228" lon="12.985551">
 <ele>598.81</ele>
 <time>2011-10-23T09:43:30Z</time>
 </trkpt>
 <trkpt lat="47.598286" lon="12.985549">
 <ele>598.79</ele>
 <time>2011-10-23T09:43:31Z</time>
 </trkpt>
 <trkpt lat="47.598454" lon="12.985510">
 <ele>598.81</ele>
 <time>2011-10-23T09:43:35Z</time>
 </trkpt>
 <trkpt lat="47.598675" lon="12.985382">
 <ele>598.88</ele>
 <time>2011-10-23T09:43:43Z</time>
 </trkpt>
 <trkpt lat="47.598881" lon="12.985244">
 <ele>598.49</ele>
 <time>2011-10-23T09:43:50Z</time>
 </trkpt>
 <trkpt lat="47.599022" lon="12.985159">
 <ele>598.47</ele>
 <time>2011-10-23T09:43:55Z</time>
 </trkpt>
 <trkpt lat="47.599064" lon="12.985121">
 <ele>598.52</ele>
 <time>2011-10-23T09:43:59Z</time>
 </trkpt>
 <trkpt lat="47.599106" lon="12.985099">
 <ele>598.58</ele>
 <time>2011-10-23T09:44:02Z</time>
 </trkpt>
 <trkpt lat="47.599213" lon="12.985035">
 <ele>598.50</ele>
 <time>2011-10-23T09:44:07Z</time>
 </trkpt>
 <trkpt lat="47.599323" lon="12.984994">
 <ele>598.35</ele>
 <time>2011-10-23T09:44:12Z</time>
 </trkpt>
 <trkpt lat="47.599506" lon="12.984928">
 <ele>598.13</ele>
 <time>2011-10-23T09:44:17Z</time>
 </trkpt>
 <trkpt lat="47.599850" lon="12.984848">
 <ele>597.97</ele>
 <time>2011-10-23T09:44:25Z</time>
 </trkpt>
 <trkpt lat="47.600174" lon="12.984740">
 <ele>596.80</ele>
 <time>2011-10-23T09:44:32Z</time>
 </trkpt>
 <trkpt lat="47.600384" lon="12.984684">
 <ele>596.32</ele>
 <time>2011-10-23T09:44:37Z</time>
 </trkpt>
 <trkpt lat="47.600399" lon="12.984684">
 <ele>596.29</ele>
 <time>2011-10-23T09:44:38Z</time>
 </trkpt>
 <trkpt lat="47.600414" lon="12.984685">
 <ele>596.29</ele>
 <time>2011-10-23T09:44:40Z</time>
 </trkpt>
 <trkpt lat="47.600426" lon="12.984706">
 <ele>596.23</ele>
 <time>2011-10-23T09:44:49Z</time>
 </trkpt>
 <trkpt lat="47.600433" lon="12.984707">
 <ele>596.31</ele>
 <time>2011-10-23T09:44:51Z</time>
 </trkpt>
 <trkpt lat="47.600555" lon="12.984596">
 <ele>596.66</ele>
 <time>2011-10-23T09:46:43Z</time>
 </trkpt>
 <trkpt lat="47.600643" lon="12.984553">
 <ele>596.35</ele>
 <time>2011-10-23T09:46:49Z</time>
 </trkpt>
 <trkpt lat="47.600712" lon="12.984530">
 <ele>596.18</ele>
 <time>2011-10-23T09:46:52Z</time>
 </trkpt>
 <trkpt lat="47.600925" lon="12.984468">
 <ele>595.83</ele>
 <time>2011-10-23T09:46:59Z</time>
 </trkpt>
 <trkpt lat="47.601093" lon="12.984408">
 <ele>595.74</ele>
 <time>2011-10-23T09:47:03Z</time>
 </trkpt>
 <trkpt lat="47.601200" lon="12.984375">
 <ele>595.65</ele>
 <time>2011-10-23T09:47:05Z</time>
 </trkpt>
 <trkpt lat="47.601601" lon="12.984322">
 <ele>595.02</ele>
 <time>2011-10-23T09:47:12Z</time>
 </trkpt>
 <trkpt lat="47.601715" lon="12.984330">
 <ele>594.89</ele>
 <time>2011-10-23T09:47:14Z</time>
 </trkpt>
 <trkpt lat="47.602226" lon="12.984424">
 <ele>595.25</ele>
 <time>2011-10-23T09:47:23Z</time>
 </trkpt>
 <trkpt lat="47.602283" lon="12.984450">
 <ele>595.26</ele>
 <time>2011-10-23T09:47:24Z</time>
 </trkpt>
 <trkpt lat="47.602444" lon="12.984575">
 <ele>595.07</ele>
 <time>2011-10-23T09:47:27Z</time>
 </trkpt>
 <trkpt lat="47.602654" lon="12.984826">
 <ele>594.60</ele>
 <time>2011-10-23T09:47:31Z</time>
 </trkpt>
 <trkpt lat="47.603001" lon="12.985308">
 <ele>592.29</ele>
 <time>2011-10-23T09:47:37Z</time>
 </trkpt>
 <trkpt lat="47.603436" lon="12.985887">
 <ele>590.26</ele>
 <time>2011-10-23T09:47:44Z</time>
 </trkpt>
 <trkpt lat="47.603798" lon="12.986110">
 <ele>589.61</ele>
 <time>2011-10-23T09:47:49Z</time>
 </trkpt>
 <trkpt lat="47.604424" lon="12.986292">
 <ele>588.77</ele>
 <time>2011-10-23T09:47:57Z</time>
 </trkpt>
 <trkpt lat="47.604961" lon="12.986332">
 <ele>587.71</ele>
 <time>2011-10-23T09:48:04Z</time>
 </trkpt>
 <trkpt lat="47.605396" lon="12.986260">
 <ele>587.86</ele>
 <time>2011-10-23T09:48:10Z</time>
 </trkpt>
 <trkpt lat="47.605820" lon="12.986179">
 <ele>586.72</ele>
 <time>2011-10-23T09:48:16Z</time>
 </trkpt>
 <trkpt lat="47.606094" lon="12.986274">
 <ele>586.06</ele>
 <time>2011-10-23T09:48:20Z</time>
 </trkpt>
 <trkpt lat="47.606613" lon="12.986694">
 <ele>583.10</ele>
 <time>2011-10-23T09:48:26Z</time>
 </trkpt>
 <trkpt lat="47.607201" lon="12.987132">
 <ele>577.54</ele>
 <time>2011-10-23T09:48:32Z</time>
 </trkpt>
 <trkpt lat="47.607761" lon="12.987620">
 <ele>573.24</ele>
 <time>2011-10-23T09:48:38Z</time>
 </trkpt>
 <trkpt lat="47.608208" lon="12.988169">
 <ele>572.94</ele>
 <time>2011-10-23T09:48:44Z</time>
 </trkpt>
 <trkpt lat="47.608440" lon="12.988587">
 <ele>573.32</ele>
 <time>2011-10-23T09:48:48Z</time>
 </trkpt>
 <trkpt lat="47.608494" lon="12.988686">
 <ele>573.54</ele>
 <time>2011-10-23T09:48:49Z</time>
 </trkpt>
 <trkpt lat="47.608616" lon="12.988844">
 <ele>573.36</ele>
 <time>2011-10-23T09:48:51Z</time>
 </trkpt>
 <trkpt lat="47.608925" lon="12.989013">
 <ele>573.06</ele>
 <time>2011-10-23T09:48:55Z</time>
 </trkpt>
 <trkpt lat="47.609261" lon="12.989105">
 <ele>572.78</ele>
 <time>2011-10-23T09:48:59Z</time>
 </trkpt>
 <trkpt lat="47.609531" lon="12.989361">
 <ele>572.46</ele>
 <time>2011-10-23T09:49:03Z</time>
 </trkpt>
 <trkpt lat="47.609684" lon="12.989767">
 <ele>572.61</ele>
 <time>2011-10-23T09:49:07Z</time>
 </trkpt>
 <trkpt lat="47.609776" lon="12.990091">
 <ele>572.30</ele>
 <time>2011-10-23T09:49:10Z</time>
 </trkpt>
 <trkpt lat="47.610039" lon="12.990490">
 <ele>572.07</ele>
 <time>2011-10-23T09:49:15Z</time>
 </trkpt>
 <trkpt lat="47.610188" lon="12.990591">
 <ele>572.08</ele>
 <time>2011-10-23T09:49:17Z</time>
 </trkpt>
 <trkpt lat="47.610344" lon="12.990672">
 <ele>572.08</ele>
 <time>2011-10-23T09:49:19Z</time>
 </trkpt>
 <trkpt lat="47.610497" lon="12.990763">
 <ele>571.83</ele>
 <time>2011-10-23T09:49:21Z</time>
 </trkpt>
 <trkpt lat="47.610573" lon="12.990819">
 <ele>571.73</ele>
 <time>2011-10-23T09:49:22Z</time>
 </trkpt>
 <trkpt lat="47.610825" lon="12.991102">
 <ele>571.26</ele>
 <time>2011-10-23T09:49:26Z</time>
 </trkpt>
 <trkpt lat="47.610935" lon="12.991261">
 <ele>571.39</ele>
 <time>2011-10-23T09:49:28Z</time>
 </trkpt>
 <trkpt lat="47.611198" lon="12.991495">
 <ele>571.82</ele>
 <time>2011-10-23T09:49:32Z</time>
 </trkpt>
 <trkpt lat="47.611832" lon="12.991879">
 <ele>572.03</ele>
 <time>2011-10-23T09:49:41Z</time>
 </trkpt>
 <trkpt lat="47.611980" lon="12.991988">
 <ele>571.73</ele>
 <time>2011-10-23T09:49:43Z</time>
 </trkpt>
 <trkpt lat="47.612453" lon="12.992386">
 <ele>570.01</ele>
 <time>2011-10-23T09:49:49Z</time>
 </trkpt>
 <trkpt lat="47.612835" lon="12.992751">
 <ele>568.33</ele>
 <time>2011-10-23T09:49:54Z</time>
 </trkpt>
 <trkpt lat="47.612911" lon="12.992824">
 <ele>568.27</ele>
 <time>2011-10-23T09:49:55Z</time>
 </trkpt>
 <trkpt lat="47.613239" lon="12.993259">
 <ele>568.14</ele>
 <time>2011-10-23T09:50:00Z</time>
 </trkpt>
 <trkpt lat="47.613449" lon="12.993765">
 <ele>569.00</ele>
 <time>2011-10-23T09:50:05Z</time>
 </trkpt>
 <trkpt lat="47.613678" lon="12.994402">
 <ele>570.10</ele>
 <time>2011-10-23T09:50:12Z</time>
 </trkpt>
 <trkpt lat="47.613873" lon="12.994834">
 <ele>571.66</ele>
 <time>2011-10-23T09:50:18Z</time>
 </trkpt>
 <trkpt lat="47.614155" lon="12.995196">
 <ele>572.31</ele>
 <time>2011-10-23T09:50:24Z</time>
 </trkpt>
 <trkpt lat="47.614555" lon="12.995602">
 <ele>571.35</ele>
 <time>2011-10-23T09:50:31Z</time>
 </trkpt>
 <trkpt lat="47.614685" lon="12.995717">
 <ele>571.30</ele>
 <time>2011-10-23T09:50:33Z</time>
 </trkpt>
 <trkpt lat="47.614964" lon="12.995960">
 <ele>570.56</ele>
 <time>2011-10-23T09:50:37Z</time>
 </trkpt>
 <trkpt lat="47.615086" lon="12.996081">
 <ele>570.12</ele>
 <time>2011-10-23T09:50:39Z</time>
 </trkpt>
 <trkpt lat="47.615402" lon="12.996410">
 <ele>569.33</ele>
 <time>2011-10-23T09:50:44Z</time>
 </trkpt>
 <trkpt lat="47.615463" lon="12.996482">
 <ele>569.11</ele>
 <time>2011-10-23T09:50:45Z</time>
 </trkpt>
 <trkpt lat="47.615589" lon="12.996644">
 <ele>568.86</ele>
 <time>2011-10-23T09:50:47Z</time>
 </trkpt>
 <trkpt lat="47.615803" lon="12.997163">
 <ele>568.38</ele>
 <time>2011-10-23T09:50:52Z</time>
 </trkpt>
 <trkpt lat="47.615837" lon="12.997521">
 <ele>568.16</ele>
 <time>2011-10-23T09:50:55Z</time>
 </trkpt>
 <trkpt lat="47.615837" lon="12.997752">
 <ele>568.14</ele>
 <time>2011-10-23T09:50:57Z</time>
 </trkpt>
 <trkpt lat="47.615852" lon="12.998254">
 <ele>568.35</ele>
 <time>2011-10-23T09:51:02Z</time>
 </trkpt>
 <trkpt lat="47.615868" lon="12.998440">
 <ele>568.81</ele>
 <time>2011-10-23T09:51:04Z</time>
 </trkpt>
 <trkpt lat="47.615898" lon="12.998706">
 <ele>569.33</ele>
 <time>2011-10-23T09:51:07Z</time>
 </trkpt>
 <trkpt lat="47.616009" lon="12.999378">
 <ele>571.43</ele>
 <time>2011-10-23T09:51:15Z</time>
 </trkpt>
 <trkpt lat="47.616032" lon="12.999451">
 <ele>571.43</ele>
 <time>2011-10-23T09:51:16Z</time>
 </trkpt>
 <trkpt lat="47.616180" lon="12.999679">
 <ele>572.53</ele>
 <time>2011-10-23T09:51:21Z</time>
 </trkpt>
 <trkpt lat="47.616482" lon="12.999660">
 <ele>575.08</ele>
 <time>2011-10-23T09:51:29Z</time>
 </trkpt>
 <trkpt lat="47.616550" lon="12.999626">
 <ele>575.76</ele>
 <time>2011-10-23T09:51:31Z</time>
 </trkpt>
 <trkpt lat="47.616638" lon="12.999577">
 <ele>577.00</ele>
 <time>2011-10-23T09:51:34Z</time>
 </trkpt>
 <trkpt lat="47.616760" lon="12.999521">
 <ele>578.53</ele>
 <time>2011-10-23T09:51:38Z</time>
 </trkpt>
 <trkpt lat="47.616886" lon="12.999482">
 <ele>579.84</ele>
 <time>2011-10-23T09:51:42Z</time>
 </trkpt>
 <trkpt lat="47.616997" lon="12.999454">
 <ele>580.85</ele>
 <time>2011-10-23T09:51:46Z</time>
 </trkpt>
 <trkpt lat="47.617050" lon="12.999441">
 <ele>581.54</ele>
 <time>2011-10-23T09:51:48Z</time>
 </trkpt>
 <trkpt lat="47.617207" lon="12.999370">
 <ele>583.07</ele>
 <time>2011-10-23T09:51:54Z</time>
 </trkpt>
 <trkpt lat="47.617413" lon="12.999234">
 <ele>585.16</ele>
 <time>2011-10-23T09:52:01Z</time>
 </trkpt>
 <trkpt lat="47.617546" lon="12.999172">
 <ele>585.91</ele>
 <time>2011-10-23T09:52:05Z</time>
 </trkpt>
 <trkpt lat="47.617680" lon="12.999196">
 <ele>586.30</ele>
 <time>2011-10-23T09:52:09Z</time>
 </trkpt>
 <trkpt lat="47.617744" lon="12.999237">
 <ele>586.40</ele>
 <time>2011-10-23T09:52:11Z</time>
 </trkpt>
 <trkpt lat="47.617828" lon="12.999327">
 <ele>586.59</ele>
 <time>2011-10-23T09:52:14Z</time>
 </trkpt>
 <trkpt lat="47.617916" lon="12.999565">
 <ele>587.17</ele>
 <time>2011-10-23T09:52:20Z</time>
 </trkpt>
 <trkpt lat="47.617989" lon="12.999769">
 <ele>588.16</ele>
 <time>2011-10-23T09:52:26Z</time>
 </trkpt>
 <trkpt lat="47.618023" lon="12.999794">
 <ele>588.17</ele>
 <time>2011-10-23T09:52:27Z</time>
 </trkpt>
 <trkpt lat="47.618340" lon="12.999759">
 <ele>587.43</ele>
 <time>2011-10-23T09:52:33Z</time>
 </trkpt>
 <trkpt lat="47.618748" lon="12.999752">
 <ele>586.63</ele>
 <time>2011-10-23T09:52:40Z</time>
 </trkpt>
 <trkpt lat="47.619213" lon="12.999852">
 <ele>585.66</ele>
 <time>2011-10-23T09:52:47Z</time>
 </trkpt>
 <trkpt lat="47.619606" lon="13.000072">
 <ele>584.23</ele>
 <time>2011-10-23T09:52:53Z</time>
 </trkpt>
 <trkpt lat="47.619854" lon="13.000270">
 <ele>583.42</ele>
 <time>2011-10-23T09:52:57Z</time>
 </trkpt>
 <trkpt lat="47.620316" lon="13.000498">
 <ele>581.11</ele>
 <time>2011-10-23T09:53:03Z</time>
 </trkpt>
 <trkpt lat="47.620686" lon="13.000609">
 <ele>579.68</ele>
 <time>2011-10-23T09:53:07Z</time>
 </trkpt>
 <trkpt lat="47.620869" lon="13.000650">
 <ele>579.17</ele>
 <time>2011-10-23T09:53:09Z</time>
 </trkpt>
 <trkpt lat="47.621460" lon="13.000770">
 <ele>575.72</ele>
 <time>2011-10-23T09:53:15Z</time>
 </trkpt>
 <trkpt lat="47.622066" lon="13.000893">
 <ele>571.96</ele>
 <time>2011-10-23T09:53:21Z</time>
 </trkpt>
 <trkpt lat="47.623077" lon="13.001093">
 <ele>564.99</ele>
 <time>2011-10-23T09:53:31Z</time>
 </trkpt>
 <trkpt lat="47.623852" lon="13.001190">
 <ele>563.57</ele>
 <time>2011-10-23T09:53:39Z</time>
 </trkpt>
 <trkpt lat="47.624565" lon="13.001245">
 <ele>563.05</ele>
 <time>2011-10-23T09:53:47Z</time>
 </trkpt>
 <trkpt lat="47.624996" lon="13.001246">
 <ele>561.84</ele>
 <time>2011-10-23T09:53:52Z</time>
 </trkpt>
 <trkpt lat="47.625378" lon="13.001097">
 <ele>559.85</ele>
 <time>2011-10-23T09:53:57Z</time>
 </trkpt>
 <trkpt lat="47.625587" lon="13.000852">
 <ele>558.64</ele>
 <time>2011-10-23T09:54:01Z</time>
 </trkpt>
 <trkpt lat="47.625671" lon="13.000619">
 <ele>558.01</ele>
 <time>2011-10-23T09:54:04Z</time>
 </trkpt>
 <trkpt lat="47.625774" lon="13.000519">
 <ele>557.67</ele>
 <time>2011-10-23T09:54:06Z</time>
 </trkpt>
 <trkpt lat="47.626049" lon="13.000209">
 <ele>557.44</ele>
 <time>2011-10-23T09:54:12Z</time>
 </trkpt>
 <trkpt lat="47.626190" lon="13.000215">
 <ele>557.45</ele>
 <time>2011-10-23T09:54:15Z</time>
 </trkpt>
 <trkpt lat="47.626492" lon="13.000553">
 <ele>556.69</ele>
 <time>2011-10-23T09:54:21Z</time>
 </trkpt>
 <trkpt lat="47.626995" lon="13.001119">
 <ele>555.96</ele>
 <time>2011-10-23T09:54:30Z</time>
 </trkpt>
 <trkpt lat="47.627537" lon="13.001639">
 <ele>555.72</ele>
 <time>2011-10-23T09:54:39Z</time>
 </trkpt>
 <trkpt lat="47.628094" lon="13.002097">
 <ele>555.14</ele>
 <time>2011-10-23T09:54:48Z</time>
 </trkpt>
 <trkpt lat="47.628254" lon="13.002268">
 <ele>554.77</ele>
 <time>2011-10-23T09:54:51Z</time>
 </trkpt>
 <trkpt lat="47.628414" lon="13.002578">
 <ele>553.99</ele>
 <time>2011-10-23T09:54:55Z</time>
 </trkpt>
 <trkpt lat="47.628628" lon="13.003168">
 <ele>552.77</ele>
 <time>2011-10-23T09:55:01Z</time>
 </trkpt>
 <trkpt lat="47.628887" lon="13.003634">
 <ele>551.83</ele>
 <time>2011-10-23T09:55:06Z</time>
 </trkpt>
 <trkpt lat="47.629223" lon="13.004166">
 <ele>550.73</ele>
 <time>2011-10-23T09:55:12Z</time>
 </trkpt>
 <trkpt lat="47.629608" lon="13.004728">
 <ele>550.77</ele>
 <time>2011-10-23T09:55:19Z</time>
 </trkpt>
 <trkpt lat="47.629856" lon="13.005158">
 <ele>550.58</ele>
 <time>2011-10-23T09:55:24Z</time>
 </trkpt>
 <trkpt lat="47.629967" lon="13.005318">
 <ele>550.26</ele>
 <time>2011-10-23T09:55:26Z</time>
 </trkpt>
 <trkpt lat="47.630077" lon="13.005473">
 <ele>550.04</ele>
 <time>2011-10-23T09:55:28Z</time>
 </trkpt>
 <trkpt lat="47.630520" lon="13.006081">
 <ele>549.87</ele>
 <time>2011-10-23T09:55:36Z</time>
 </trkpt>
 <trkpt lat="47.630943" lon="13.006571">
 <ele>548.92</ele>
 <time>2011-10-23T09:55:43Z</time>
 </trkpt>
 <trkpt lat="47.631306" lon="13.006846">
 <ele>548.64</ele>
 <time>2011-10-23T09:55:48Z</time>
 </trkpt>
 <trkpt lat="47.631763" lon="13.007070">
 <ele>548.77</ele>
 <time>2011-10-23T09:55:54Z</time>
 </trkpt>
 <trkpt lat="47.631931" lon="13.007107">
 <ele>548.64</ele>
 <time>2011-10-23T09:55:56Z</time>
 </trkpt>
 <trkpt lat="47.632477" lon="13.007158">
 <ele>548.77</ele>
 <time>2011-10-23T09:56:03Z</time>
 </trkpt>
 <trkpt lat="47.633213" lon="13.007333">
 <ele>547.64</ele>
 <time>2011-10-23T09:56:12Z</time>
 </trkpt>
 <trkpt lat="47.633789" lon="13.007561">
 <ele>546.63</ele>
 <time>2011-10-23T09:56:19Z</time>
 </trkpt>
 <trkpt lat="47.634079" lon="13.007752">
 <ele>546.38</ele>
 <time>2011-10-23T09:56:23Z</time>
 </trkpt>
 <trkpt lat="47.634220" lon="13.007867">
 <ele>546.32</ele>
 <time>2011-10-23T09:56:25Z</time>
 </trkpt>
 <trkpt lat="47.634365" lon="13.007984">
 <ele>546.28</ele>
 <time>2011-10-23T09:56:27Z</time>
 </trkpt>
 <trkpt lat="47.634502" lon="13.008112">
 <ele>546.17</ele>
 <time>2011-10-23T09:56:29Z</time>
 </trkpt>
 <trkpt lat="47.634636" lon="13.008247">
 <ele>546.24</ele>
 <time>2011-10-23T09:56:31Z</time>
 </trkpt>
 <trkpt lat="47.634766" lon="13.008385">
 <ele>546.43</ele>
 <time>2011-10-23T09:56:33Z</time>
 </trkpt>
 <trkpt lat="47.635345" lon="13.008988">
 <ele>546.58</ele>
 <time>2011-10-23T09:56:42Z</time>
 </trkpt>
 <trkpt lat="47.635803" lon="13.009493">
 <ele>546.50</ele>
 <time>2011-10-23T09:56:49Z</time>
 </trkpt>
 <trkpt lat="47.636307" lon="13.010270">
 <ele>546.17</ele>
 <time>2011-10-23T09:56:58Z</time>
 </trkpt>
 <trkpt lat="47.636566" lon="13.010863">
 <ele>545.76</ele>
 <time>2011-10-23T09:57:04Z</time>
 </trkpt>
 <trkpt lat="47.636730" lon="13.011532">
 <ele>545.72</ele>
 <time>2011-10-23T09:57:10Z</time>
 </trkpt>
 <trkpt lat="47.636803" lon="13.012328">
 <ele>545.05</ele>
 <time>2011-10-23T09:57:17Z</time>
 </trkpt>
 <trkpt lat="47.636776" lon="13.013239">
 <ele>544.87</ele>
 <time>2011-10-23T09:57:25Z</time>
 </trkpt>
 <trkpt lat="47.636765" lon="13.014001">
 <ele>544.68</ele>
 <time>2011-10-23T09:57:32Z</time>
 </trkpt>
 <trkpt lat="47.636848" lon="13.014622">
 <ele>544.29</ele>
 <time>2011-10-23T09:57:38Z</time>
 </trkpt>
 <trkpt lat="47.636898" lon="13.014828">
 <ele>544.21</ele>
 <time>2011-10-23T09:57:40Z</time>
 </trkpt>
 <trkpt lat="47.637070" lon="13.015297">
 <ele>544.28</ele>
 <time>2011-10-23T09:57:45Z</time>
 </trkpt>
 <trkpt lat="47.637157" lon="13.015471">
 <ele>544.32</ele>
 <time>2011-10-23T09:57:47Z</time>
 </trkpt>
 <trkpt lat="47.637417" lon="13.015831">
 <ele>544.62</ele>
 <time>2011-10-23T09:57:52Z</time>
 </trkpt>
 <trkpt lat="47.637730" lon="13.016102">
 <ele>544.65</ele>
 <time>2011-10-23T09:57:57Z</time>
 </trkpt>
 <trkpt lat="47.638168" lon="13.016292">
 <ele>544.58</ele>
 <time>2011-10-23T09:58:03Z</time>
 </trkpt>
 <trkpt lat="47.638641" lon="13.016318">
 <ele>544.73</ele>
 <time>2011-10-23T09:58:09Z</time>
 </trkpt>
 <trkpt lat="47.638950" lon="13.016290">
 <ele>544.50</ele>
 <time>2011-10-23T09:58:13Z</time>
 </trkpt>
 <trkpt lat="47.639099" lon="13.016269">
 <ele>544.47</ele>
 <time>2011-10-23T09:58:15Z</time>
 </trkpt>
 <trkpt lat="47.639252" lon="13.016239">
 <ele>544.44</ele>
 <time>2011-10-23T09:58:17Z</time>
 </trkpt>
 <trkpt lat="47.639946" lon="13.016104">
 <ele>543.66</ele>
 <time>2011-10-23T09:58:26Z</time>
 </trkpt>
 <trkpt lat="47.640491" lon="13.016085">
 <ele>542.84</ele>
 <time>2011-10-23T09:58:33Z</time>
 </trkpt>
 <trkpt lat="47.640953" lon="13.016226">
 <ele>541.98</ele>
 <time>2011-10-23T09:58:39Z</time>
 </trkpt>
 <trkpt lat="47.641029" lon="13.016273">
 <ele>541.76</ele>
 <time>2011-10-23T09:58:40Z</time>
 </trkpt>
 <trkpt lat="47.641300" lon="13.016545">
 <ele>540.67</ele>
 <time>2011-10-23T09:58:44Z</time>
 </trkpt>
 <trkpt lat="47.641628" lon="13.017100">
 <ele>539.79</ele>
 <time>2011-10-23T09:58:50Z</time>
 </trkpt>
 <trkpt lat="47.641750" lon="13.017417">
 <ele>539.43</ele>
 <time>2011-10-23T09:58:53Z</time>
 </trkpt>
 <trkpt lat="47.642006" lon="13.018431">
 <ele>539.88</ele>
 <time>2011-10-23T09:59:02Z</time>
 </trkpt>
 <trkpt lat="47.642227" lon="13.019424">
 <ele>539.63</ele>
 <time>2011-10-23T09:59:11Z</time>
 </trkpt>
 <trkpt lat="47.642433" lon="13.020311">
 <ele>538.84</ele>
 <time>2011-10-23T09:59:19Z</time>
 </trkpt>
 <trkpt lat="47.642647" lon="13.021166">
 <ele>538.76</ele>
 <time>2011-10-23T09:59:27Z</time>
 </trkpt>
 <trkpt lat="47.642941" lon="13.022232">
 <ele>538.31</ele>
 <time>2011-10-23T09:59:37Z</time>
 </trkpt>
 <trkpt lat="47.643173" lon="13.022834">
 <ele>537.91</ele>
 <time>2011-10-23T09:59:43Z</time>
 </trkpt>
 <trkpt lat="47.643528" lon="13.023460">
 <ele>537.42</ele>
 <time>2011-10-23T09:59:50Z</time>
 </trkpt>
 <trkpt lat="47.643852" lon="13.023994">
 <ele>537.22</ele>
 <time>2011-10-23T09:59:56Z</time>
 </trkpt>
 <trkpt lat="47.644184" lon="13.024696">
 <ele>536.75</ele>
 <time>2011-10-23T10:00:03Z</time>
 </trkpt>
 <trkpt lat="47.644398" lon="13.025372">
 <ele>536.09</ele>
 <time>2011-10-23T10:00:09Z</time>
 </trkpt>
 <trkpt lat="47.644566" lon="13.026184">
 <ele>534.97</ele>
 <time>2011-10-23T10:00:16Z</time>
 </trkpt>
 <trkpt lat="47.644608" lon="13.026536">
 <ele>534.60</ele>
 <time>2011-10-23T10:00:19Z</time>
 </trkpt>
 <trkpt lat="47.644638" lon="13.026767">
 <ele>534.40</ele>
 <time>2011-10-23T10:00:21Z</time>
 </trkpt>
 <trkpt lat="47.644672" lon="13.026999">
 <ele>533.96</ele>
 <time>2011-10-23T10:00:23Z</time>
 </trkpt>
 <trkpt lat="47.644730" lon="13.027338">
 <ele>533.55</ele>
 <time>2011-10-23T10:00:26Z</time>
 </trkpt>
 <trkpt lat="47.644924" lon="13.028087">
 <ele>533.24</ele>
 <time>2011-10-23T10:00:33Z</time>
 </trkpt>
 <trkpt lat="47.645191" lon="13.028789">
 <ele>533.66</ele>
 <time>2011-10-23T10:00:40Z</time>
 </trkpt>
 <trkpt lat="47.645378" lon="13.029148">
 <ele>533.77</ele>
 <time>2011-10-23T10:00:44Z</time>
 </trkpt>
 <trkpt lat="47.645481" lon="13.029308">
 <ele>533.89</ele>
 <time>2011-10-23T10:00:46Z</time>
 </trkpt>
 <trkpt lat="47.645927" lon="13.029868">
 <ele>534.33</ele>
 <time>2011-10-23T10:00:54Z</time>
 </trkpt>
 <trkpt lat="47.646172" lon="13.030115">
 <ele>534.67</ele>
 <time>2011-10-23T10:00:58Z</time>
 </trkpt>
 <trkpt lat="47.646652" lon="13.030611">
 <ele>534.25</ele>
 <time>2011-10-23T10:01:06Z</time>
 </trkpt>
 <trkpt lat="47.647068" lon="13.031068">
 <ele>534.71</ele>
 <time>2011-10-23T10:01:13Z</time>
 </trkpt>
 <trkpt lat="47.647243" lon="13.031275">
 <ele>534.97</ele>
 <time>2011-10-23T10:01:16Z</time>
 </trkpt>
 <trkpt lat="47.647751" lon="13.031958">
 <ele>534.47</ele>
 <time>2011-10-23T10:01:25Z</time>
 </trkpt>
 <trkpt lat="47.647964" lon="13.032286">
 <ele>534.28</ele>
 <time>2011-10-23T10:01:29Z</time>
 </trkpt>
 <trkpt lat="47.648071" lon="13.032454">
 <ele>534.18</ele>
 <time>2011-10-23T10:01:31Z</time>
 </trkpt>
 <trkpt lat="47.648277" lon="13.032804">
 <ele>533.97</ele>
 <time>2011-10-23T10:01:35Z</time>
 </trkpt>
 <trkpt lat="47.648376" lon="13.032989">
 <ele>533.84</ele>
 <time>2011-10-23T10:01:37Z</time>
 </trkpt>
 <trkpt lat="47.648849" lon="13.033930">
 <ele>533.87</ele>
 <time>2011-10-23T10:01:47Z</time>
 </trkpt>
 <trkpt lat="47.649273" lon="13.034750">
 <ele>533.67</ele>
 <time>2011-10-23T10:01:56Z</time>
 </trkpt>
 <trkpt lat="47.649372" lon="13.034923">
 <ele>533.72</ele>
 <time>2011-10-23T10:01:58Z</time>
 </trkpt>
 <trkpt lat="47.649750" lon="13.035481">
 <ele>533.45</ele>
 <time>2011-10-23T10:02:05Z</time>
 </trkpt>
 <trkpt lat="47.650185" lon="13.035948">
 <ele>532.87</ele>
 <time>2011-10-23T10:02:12Z</time>
 </trkpt>
 <trkpt lat="47.650455" lon="13.036197">
 <ele>532.80</ele>
 <time>2011-10-23T10:02:16Z</time>
 </trkpt>
 <trkpt lat="47.650593" lon="13.036313">
 <ele>532.91</ele>
 <time>2011-10-23T10:02:18Z</time>
 </trkpt>
 <trkpt lat="47.650734" lon="13.036430">
 <ele>532.83</ele>
 <time>2011-10-23T10:02:20Z</time>
 </trkpt>
 <trkpt lat="47.651054" lon="13.036733">
 <ele>532.63</ele>
 <time>2011-10-23T10:02:25Z</time>
 </trkpt>
 <trkpt lat="47.651264" lon="13.036909">
 <ele>532.44</ele>
 <time>2011-10-23T10:02:28Z</time>
 </trkpt>
 <trkpt lat="47.651402" lon="13.037025">
 <ele>532.07</ele>
 <time>2011-10-23T10:02:30Z</time>
 </trkpt>
 <trkpt lat="47.651863" lon="13.037470">
 <ele>531.80</ele>
 <time>2011-10-23T10:02:37Z</time>
 </trkpt>
 <trkpt lat="47.652382" lon="13.038055">
 <ele>530.67</ele>
 <time>2011-10-23T10:02:45Z</time>
 </trkpt>
 <trkpt lat="47.652828" lon="13.038666">
 <ele>529.76</ele>
 <time>2011-10-23T10:02:52Z</time>
 </trkpt>
 <trkpt lat="47.653107" lon="13.039098">
 <ele>529.01</ele>
 <time>2011-10-23T10:02:57Z</time>
 </trkpt>
 <trkpt lat="47.653240" lon="13.039313">
 <ele>528.97</ele>
 <time>2011-10-23T10:03:00Z</time>
 </trkpt>
 <trkpt lat="47.653278" lon="13.039542">
 <ele>528.95</ele>
 <time>2011-10-23T10:03:04Z</time>
 </trkpt>
 <trkpt lat="47.653202" lon="13.039671">
 <ele>528.78</ele>
 <time>2011-10-23T10:03:07Z</time>
 </trkpt>
 <trkpt lat="47.653053" lon="13.039814">
 <ele>529.58</ele>
 <time>2011-10-23T10:03:13Z</time>
 </trkpt>
 <trkpt lat="47.652916" lon="13.039946">
 <ele>530.86</ele>
 <time>2011-10-23T10:03:19Z</time>
 </trkpt>
 <trkpt lat="47.652836" lon="13.040034">
 <ele>531.77</ele>
 <time>2011-10-23T10:03:23Z</time>
 </trkpt>
 <trkpt lat="47.652817" lon="13.040058">
 <ele>532.19</ele>
 <time>2011-10-23T10:03:24Z</time>
 </trkpt>
 <trkpt lat="47.652767" lon="13.040138">
 <ele>532.63</ele>
 <time>2011-10-23T10:03:27Z</time>
 </trkpt>
 <trkpt lat="47.652672" lon="13.040377">
 <ele>534.42</ele>
 <time>2011-10-23T10:03:35Z</time>
 </trkpt>
 <trkpt lat="47.652645" lon="13.040518">
 <ele>535.28</ele>
 <time>2011-10-23T10:03:39Z</time>
 </trkpt>
 <trkpt lat="47.652653" lon="13.040775">
 <ele>537.56</ele>
 <time>2011-10-23T10:03:47Z</time>
 </trkpt>
 <trkpt lat="47.652679" lon="13.040946">
 <ele>538.71</ele>
 <time>2011-10-23T10:03:53Z</time>
 </trkpt>
 <trkpt lat="47.652683" lon="13.040974">
 <ele>539.11</ele>
 <time>2011-10-23T10:03:54Z</time>
 </trkpt>
 <trkpt lat="47.652706" lon="13.041109">
 <ele>540.14</ele>
 <time>2011-10-23T10:03:59Z</time>
 </trkpt>
 <trkpt lat="47.652718" lon="13.041159">
 <ele>540.76</ele>
 <time>2011-10-23T10:04:01Z</time>
 </trkpt>
 <trkpt lat="47.652737" lon="13.041291">
 <ele>542.23</ele>
 <time>2011-10-23T10:04:06Z</time>
 </trkpt>
 <trkpt lat="47.652740" lon="13.041317">
 <ele>542.48</ele>
 <time>2011-10-23T10:04:07Z</time>
 </trkpt>
 <trkpt lat="47.652779" lon="13.041528">
 <ele>544.08</ele>
 <time>2011-10-23T10:04:15Z</time>
 </trkpt>
 <trkpt lat="47.652786" lon="13.041580">
 <ele>544.73</ele>
 <time>2011-10-23T10:04:17Z</time>
 </trkpt>
 <trkpt lat="47.652809" lon="13.041706">
 <ele>545.70</ele>
 <time>2011-10-23T10:04:22Z</time>
 </trkpt>
 <trkpt lat="47.652813" lon="13.041732">
 <ele>545.91</ele>
 <time>2011-10-23T10:04:23Z</time>
 </trkpt>
 <trkpt lat="47.652836" lon="13.041883">
 <ele>547.03</ele>
 <time>2011-10-23T10:04:29Z</time>
 </trkpt>
 <trkpt lat="47.652855" lon="13.041980">
 <ele>548.07</ele>
 <time>2011-10-23T10:04:33Z</time>
 </trkpt>
 <trkpt lat="47.652870" lon="13.042105">
 <ele>549.01</ele>
 <time>2011-10-23T10:04:38Z</time>
 </trkpt>
 <trkpt lat="47.652878" lon="13.042155">
 <ele>549.64</ele>
 <time>2011-10-23T10:04:40Z</time>
 </trkpt>
 <trkpt lat="47.652901" lon="13.042328">
 <ele>551.00</ele>
 <time>2011-10-23T10:04:47Z</time>
 </trkpt>
 <trkpt lat="47.652912" lon="13.042374">
 <ele>551.46</ele>
 <time>2011-10-23T10:04:49Z</time>
 </trkpt>
 <trkpt lat="47.652935" lon="13.042522">
 <ele>552.59</ele>
 <time>2011-10-23T10:04:55Z</time>
 </trkpt>
 <trkpt lat="47.652939" lon="13.042547">
 <ele>552.76</ele>
 <time>2011-10-23T10:04:56Z</time>
 </trkpt>
 <trkpt lat="47.652973" lon="13.042719">
 <ele>554.41</ele>
 <time>2011-10-23T10:05:03Z</time>
 </trkpt>
 <trkpt lat="47.652985" lon="13.042773">
 <ele>555.30</ele>
 <time>2011-10-23T10:05:05Z</time>
 </trkpt>
 <trkpt lat="47.653053" lon="13.043071">
 <ele>557.70</ele>
 <time>2011-10-23T10:05:17Z</time>
 </trkpt>
 <trkpt lat="47.653072" lon="13.043172">
 <ele>558.65</ele>
 <time>2011-10-23T10:05:21Z</time>
 </trkpt>
 <trkpt lat="47.653099" lon="13.043245">
 <ele>559.62</ele>
 <time>2011-10-23T10:05:24Z</time>
 </trkpt>
 <trkpt lat="47.653114" lon="13.043294">
 <ele>560.25</ele>
 <time>2011-10-23T10:05:26Z</time>
 </trkpt>
 <trkpt lat="47.653164" lon="13.043481">
 <ele>562.22</ele>
 <time>2011-10-23T10:05:34Z</time>
 </trkpt>
 <trkpt lat="47.653172" lon="13.043523">
 <ele>562.67</ele>
 <time>2011-10-23T10:05:36Z</time>
 </trkpt>
 <trkpt lat="47.653198" lon="13.043641">
 <ele>563.79</ele>
 <time>2011-10-23T10:05:41Z</time>
 </trkpt>
 <trkpt lat="47.653202" lon="13.043665">
 <ele>564.05</ele>
 <time>2011-10-23T10:05:42Z</time>
 </trkpt>
 <trkpt lat="47.653244" lon="13.043879">
 <ele>566.09</ele>
 <time>2011-10-23T10:05:51Z</time>
 </trkpt>
 <trkpt lat="47.653259" lon="13.043921">
 <ele>566.72</ele>
 <time>2011-10-23T10:05:53Z</time>
 </trkpt>
 <trkpt lat="47.653393" lon="13.044191">
 <ele>569.96</ele>
 <time>2011-10-23T10:06:07Z</time>
 </trkpt>
 <trkpt lat="47.653419" lon="13.044231">
 <ele>570.57</ele>
 <time>2011-10-23T10:06:09Z</time>
 </trkpt>
 <trkpt lat="47.653484" lon="13.044348">
 <ele>571.92</ele>
 <time>2011-10-23T10:06:15Z</time>
 </trkpt>
 <trkpt lat="47.653492" lon="13.044371">
 <ele>572.18</ele>
 <time>2011-10-23T10:06:16Z</time>
 </trkpt>
 <trkpt lat="47.653561" lon="13.044511">
 <ele>574.18</ele>
 <time>2011-10-23T10:06:24Z</time>
 </trkpt>
 <trkpt lat="47.653584" lon="13.044561">
 <ele>574.78</ele>
 <time>2011-10-23T10:06:27Z</time>
 </trkpt>
 <trkpt lat="47.653706" lon="13.044836">
 <ele>578.13</ele>
 <time>2011-10-23T10:06:41Z</time>
 </trkpt>
 <trkpt lat="47.653721" lon="13.044864">
 <ele>578.58</ele>
 <time>2011-10-23T10:06:43Z</time>
 </trkpt>
 <trkpt lat="47.653767" lon="13.044998">
 <ele>579.97</ele>
 <time>2011-10-23T10:06:49Z</time>
 </trkpt>
 <trkpt lat="47.653786" lon="13.045038">
 <ele>580.55</ele>
 <time>2011-10-23T10:06:51Z</time>
 </trkpt>
 <trkpt lat="47.653851" lon="13.045165">
 <ele>582.74</ele>
 <time>2011-10-23T10:06:58Z</time>
 </trkpt>
 <trkpt lat="47.653877" lon="13.045220">
 <ele>583.59</ele>
 <time>2011-10-23T10:07:01Z</time>
 </trkpt>
 <trkpt lat="47.653980" lon="13.045533">
 <ele>587.20</ele>
 <time>2011-10-23T10:07:16Z</time>
 </trkpt>
 <trkpt lat="47.653992" lon="13.045583">
 <ele>587.60</ele>
 <time>2011-10-23T10:07:18Z</time>
 </trkpt>
 <trkpt lat="47.653988" lon="13.045754">
 <ele>589.09</ele>
 <time>2011-10-23T10:07:24Z</time>
 </trkpt>
 <trkpt lat="47.653988" lon="13.045777">
 <ele>589.33</ele>
 <time>2011-10-23T10:07:25Z</time>
 </trkpt>
 <trkpt lat="47.653946" lon="13.045902">
 <ele>590.60</ele>
 <time>2011-10-23T10:07:31Z</time>
 </trkpt>
 <trkpt lat="47.653912" lon="13.045945">
 <ele>591.55</ele>
 <time>2011-10-23T10:07:35Z</time>
 </trkpt>
 <trkpt lat="47.653797" lon="13.045980">
 <ele>592.91</ele>
 <time>2011-10-23T10:07:43Z</time>
 </trkpt>
 <trkpt lat="47.653702" lon="13.045965">
 <ele>594.34</ele>
 <time>2011-10-23T10:07:49Z</time>
 </trkpt>
 <trkpt lat="47.653667" lon="13.045946">
 <ele>594.80</ele>
 <time>2011-10-23T10:07:51Z</time>
 </trkpt>
 <trkpt lat="47.653595" lon="13.045875">
 <ele>595.74</ele>
 <time>2011-10-23T10:07:56Z</time>
 </trkpt>
 <trkpt lat="47.653557" lon="13.045829">
 <ele>596.35</ele>
 <time>2011-10-23T10:07:59Z</time>
 </trkpt>
 <trkpt lat="47.653492" lon="13.045754">
 <ele>597.24</ele>
 <time>2011-10-23T10:08:04Z</time>
 </trkpt>
 <trkpt lat="47.653439" lon="13.045716">
 <ele>597.74</ele>
 <time>2011-10-23T10:08:07Z</time>
 </trkpt>
 <trkpt lat="47.653301" lon="13.045672">
 <ele>598.64</ele>
 <time>2011-10-23T10:08:12Z</time>
 </trkpt>
 <trkpt lat="47.653286" lon="13.045669">
 <ele>598.83</ele>
 <time>2011-10-23T10:08:13Z</time>
 </trkpt>
 <trkpt lat="47.653191" lon="13.045655">
 <ele>599.79</ele>
 <time>2011-10-23T10:08:19Z</time>
 </trkpt>
 <trkpt lat="47.653149" lon="13.045680">
 <ele>600.41</ele>
 <time>2011-10-23T10:08:22Z</time>
 </trkpt>
 <trkpt lat="47.653088" lon="13.045738">
 <ele>600.85</ele>
 <time>2011-10-23T10:08:26Z</time>
 </trkpt>
 <trkpt lat="47.653046" lon="13.045802">
 <ele>601.46</ele>
 <time>2011-10-23T10:08:29Z</time>
 </trkpt>
 <trkpt lat="47.653004" lon="13.045902">
 <ele>602.02</ele>
 <time>2011-10-23T10:08:33Z</time>
 </trkpt>
 <trkpt lat="47.652981" lon="13.045982">
 <ele>602.60</ele>
 <time>2011-10-23T10:08:36Z</time>
 </trkpt>
 <trkpt lat="47.652985" lon="13.046154">
 <ele>603.68</ele>
 <time>2011-10-23T10:08:42Z</time>
 </trkpt>
 <trkpt lat="47.652996" lon="13.046364">
 <ele>604.64</ele>
 <time>2011-10-23T10:08:48Z</time>
 </trkpt>
 <trkpt lat="47.653004" lon="13.046458">
 <ele>605.14</ele>
 <time>2011-10-23T10:08:51Z</time>
 </trkpt>
 <trkpt lat="47.653011" lon="13.046590">
 <ele>605.98</ele>
 <time>2011-10-23T10:08:56Z</time>
 </trkpt>
 <trkpt lat="47.653011" lon="13.046614">
 <ele>606.17</ele>
 <time>2011-10-23T10:08:57Z</time>
 </trkpt>
 <trkpt lat="47.653046" lon="13.046774">
 <ele>607.87</ele>
 <time>2011-10-23T10:09:04Z</time>
 </trkpt>
 <trkpt lat="47.653053" lon="13.046852">
 <ele>608.46</ele>
 <time>2011-10-23T10:09:07Z</time>
 </trkpt>
 <trkpt lat="47.653072" lon="13.046975">
 <ele>609.45</ele>
 <time>2011-10-23T10:09:12Z</time>
 </trkpt>
 <trkpt lat="47.653084" lon="13.047026">
 <ele>610.10</ele>
 <time>2011-10-23T10:09:14Z</time>
 </trkpt>
 <trkpt lat="47.653103" lon="13.047170">
 <ele>611.49</ele>
 <time>2011-10-23T10:09:20Z</time>
 </trkpt>
 <trkpt lat="47.653107" lon="13.047255">
 <ele>612.16</ele>
 <time>2011-10-23T10:09:23Z</time>
 </trkpt>
 <trkpt lat="47.653111" lon="13.047393">
 <ele>613.33</ele>
 <time>2011-10-23T10:09:28Z</time>
 </trkpt>
 <trkpt lat="47.653114" lon="13.047417">
 <ele>613.60</ele>
 <time>2011-10-23T10:09:29Z</time>
 </trkpt>
 <trkpt lat="47.653114" lon="13.047591">
 <ele>615.54</ele>
 <time>2011-10-23T10:09:37Z</time>
 </trkpt>
 <trkpt lat="47.653111" lon="13.047631">
 <ele>616.00</ele>
 <time>2011-10-23T10:09:39Z</time>
 </trkpt>
 <trkpt lat="47.653084" lon="13.047755">
 <ele>617.19</ele>
 <time>2011-10-23T10:09:45Z</time>
 </trkpt>
 <trkpt lat="47.653076" lon="13.047777">
 <ele>617.71</ele>
 <time>2011-10-23T10:09:46Z</time>
 </trkpt>
 <trkpt lat="47.653011" lon="13.047901">
 <ele>618.98</ele>
 <time>2011-10-23T10:09:52Z</time>
 </trkpt>
 <trkpt lat="47.652958" lon="13.047974">
 <ele>619.78</ele>
 <time>2011-10-23T10:09:56Z</time>
 </trkpt>
 <trkpt lat="47.652905" lon="13.048050">
 <ele>620.87</ele>
 <time>2011-10-23T10:10:01Z</time>
 </trkpt>
 <trkpt lat="47.652897" lon="13.048066">
 <ele>621.10</ele>
 <time>2011-10-23T10:10:02Z</time>
 </trkpt>
 <trkpt lat="47.652832" lon="13.048226">
 <ele>622.87</ele>
 <time>2011-10-23T10:10:09Z</time>
 </trkpt>
 <trkpt lat="47.652828" lon="13.048293">
 <ele>623.64</ele>
 <time>2011-10-23T10:10:12Z</time>
 </trkpt>
 <trkpt lat="47.652798" lon="13.048427">
 <ele>624.69</ele>
 <time>2011-10-23T10:10:17Z</time>
 </trkpt>
 <trkpt lat="47.652775" lon="13.048506">
 <ele>625.40</ele>
 <time>2011-10-23T10:10:20Z</time>
 </trkpt>
 <trkpt lat="47.652756" lon="13.048626">
 <ele>626.49</ele>
 <time>2011-10-23T10:10:25Z</time>
 </trkpt>
 <trkpt lat="47.652740" lon="13.048699">
 <ele>627.31</ele>
 <time>2011-10-23T10:10:28Z</time>
 </trkpt>
 <trkpt lat="47.652714" lon="13.048844">
 <ele>628.42</ele>
 <time>2011-10-23T10:10:34Z</time>
 </trkpt>
 <trkpt lat="47.652706" lon="13.048867">
 <ele>628.85</ele>
 <time>2011-10-23T10:10:35Z</time>
 </trkpt>
 <trkpt lat="47.652699" lon="13.049042">
 <ele>630.63</ele>
 <time>2011-10-23T10:10:43Z</time>
 </trkpt>
 <trkpt lat="47.652710" lon="13.049082">
 <ele>631.04</ele>
 <time>2011-10-23T10:10:45Z</time>
 </trkpt>
 <trkpt lat="47.652744" lon="13.049211">
 <ele>632.57</ele>
 <time>2011-10-23T10:10:51Z</time>
 </trkpt>
 <trkpt lat="47.652740" lon="13.049266">
 <ele>633.03</ele>
 <time>2011-10-23T10:10:53Z</time>
 </trkpt>
 <trkpt lat="47.652813" lon="13.049396">
 <ele>634.15</ele>
 <time>2011-10-23T10:11:00Z</time>
 </trkpt>
 <trkpt lat="47.652824" lon="13.049463">
 <ele>634.80</ele>
 <time>2011-10-23T10:11:03Z</time>
 </trkpt>
 <trkpt lat="47.652863" lon="13.049789">
 <ele>638.67</ele>
 <time>2011-10-23T10:11:17Z</time>
 </trkpt>
 <trkpt lat="47.652874" lon="13.049834">
 <ele>639.25</ele>
 <time>2011-10-23T10:11:19Z</time>
 </trkpt>
 <trkpt lat="47.652897" lon="13.049981">
 <ele>640.61</ele>
 <time>2011-10-23T10:11:25Z</time>
 </trkpt>
 <trkpt lat="47.652905" lon="13.050001">
 <ele>641.04</ele>
 <time>2011-10-23T10:11:26Z</time>
 </trkpt>
 <trkpt lat="47.652950" lon="13.050195">
 <ele>642.66</ele>
 <time>2011-10-23T10:11:34Z</time>
 </trkpt>
 <trkpt lat="47.652950" lon="13.050247">
 <ele>643.20</ele>
 <time>2011-10-23T10:11:36Z</time>
 </trkpt>
 <trkpt lat="47.652943" lon="13.050381">
 <ele>644.49</ele>
 <time>2011-10-23T10:11:42Z</time>
 </trkpt>
 <trkpt lat="47.652939" lon="13.050400">
 <ele>644.76</ele>
 <time>2011-10-23T10:11:43Z</time>
 </trkpt>
 <trkpt lat="47.652908" lon="13.050498">
 <ele>645.99</ele>
 <time>2011-10-23T10:11:49Z</time>
 </trkpt>
 <trkpt lat="47.652855" lon="13.050536">
 <ele>646.83</ele>
 <time>2011-10-23T10:11:53Z</time>
 </trkpt>
 <trkpt lat="47.652782" lon="13.050538">
 <ele>648.09</ele>
 <time>2011-10-23T10:11:58Z</time>
 </trkpt>
 <trkpt lat="47.652748" lon="13.050521">
 <ele>648.60</ele>
 <time>2011-10-23T10:12:00Z</time>
 </trkpt>
 <trkpt lat="47.652657" lon="13.050448">
 <ele>649.74</ele>
 <time>2011-10-23T10:12:06Z</time>
 </trkpt>
 <trkpt lat="47.652618" lon="13.050390">
 <ele>650.47</ele>
 <time>2011-10-23T10:12:09Z</time>
 </trkpt>
 <trkpt lat="47.652573" lon="13.050279">
 <ele>651.45</ele>
 <time>2011-10-23T10:12:14Z</time>
 </trkpt>
 <trkpt lat="47.652554" lon="13.050234">
 <ele>652.09</ele>
 <time>2011-10-23T10:12:16Z</time>
 </trkpt>
 <trkpt lat="47.652504" lon="13.050095">
 <ele>653.18</ele>
 <time>2011-10-23T10:12:22Z</time>
 </trkpt>
 <trkpt lat="47.652485" lon="13.050016">
 <ele>653.87</ele>
 <time>2011-10-23T10:12:25Z</time>
 </trkpt>
 <trkpt lat="47.652443" lon="13.049923">
 <ele>654.78</ele>
 <time>2011-10-23T10:12:29Z</time>
 </trkpt>
 <trkpt lat="47.652420" lon="13.049840">
 <ele>655.37</ele>
 <time>2011-10-23T10:12:32Z</time>
 </trkpt>
 <trkpt lat="47.652363" lon="13.049735">
 <ele>656.04</ele>
 <time>2011-10-23T10:12:37Z</time>
 </trkpt>
 <trkpt lat="47.652328" lon="13.049673">
 <ele>657.02</ele>
 <time>2011-10-23T10:12:40Z</time>
 </trkpt>
 <trkpt lat="47.652260" lon="13.049599">
 <ele>658.04</ele>
 <time>2011-10-23T10:12:45Z</time>
 </trkpt>
 <trkpt lat="47.652225" lon="13.049586">
 <ele>658.46</ele>
 <time>2011-10-23T10:12:47Z</time>
 </trkpt>
 <trkpt lat="47.652122" lon="13.049598">
 <ele>659.54</ele>
 <time>2011-10-23T10:12:53Z</time>
 </trkpt>
 <trkpt lat="47.652077" lon="13.049612">
 <ele>660.01</ele>
 <time>2011-10-23T10:12:56Z</time>
 </trkpt>
 <trkpt lat="47.652000" lon="13.049696">
 <ele>661.26</ele>
 <time>2011-10-23T10:13:02Z</time>
 </trkpt>
 <trkpt lat="47.651981" lon="13.049812">
 <ele>662.08</ele>
 <time>2011-10-23T10:13:07Z</time>
 </trkpt>
 <trkpt lat="47.651985" lon="13.049886">
 <ele>662.73</ele>
 <time>2011-10-23T10:13:10Z</time>
 </trkpt>
 <trkpt lat="47.651981" lon="13.050060">
 <ele>663.87</ele>
 <time>2011-10-23T10:13:16Z</time>
 </trkpt>
 <trkpt lat="47.651993" lon="13.050116">
 <ele>664.38</ele>
 <time>2011-10-23T10:13:18Z</time>
 </trkpt>
 <trkpt lat="47.652023" lon="13.050210">
 <ele>664.94</ele>
 <time>2011-10-23T10:13:22Z</time>
 </trkpt>
 <trkpt lat="47.652069" lon="13.050273">
 <ele>665.67</ele>
 <time>2011-10-23T10:13:25Z</time>
 </trkpt>
 <trkpt lat="47.652134" lon="13.050372">
 <ele>666.34</ele>
 <time>2011-10-23T10:13:30Z</time>
 </trkpt>
 <trkpt lat="47.652145" lon="13.050390">
 <ele>666.74</ele>
 <time>2011-10-23T10:13:31Z</time>
 </trkpt>
 <trkpt lat="47.652225" lon="13.050539">
 <ele>668.21</ele>
 <time>2011-10-23T10:13:38Z</time>
 </trkpt>
 <trkpt lat="47.652241" lon="13.050584">
 <ele>668.77</ele>
 <time>2011-10-23T10:13:40Z</time>
 </trkpt>
 <trkpt lat="47.652313" lon="13.050913">
 <ele>672.55</ele>
 <time>2011-10-23T10:13:55Z</time>
 </trkpt>
 <trkpt lat="47.652309" lon="13.050943">
 <ele>673.12</ele>
 <time>2011-10-23T10:13:56Z</time>
 </trkpt>
 <trkpt lat="47.652153" lon="13.051394">
 <ele>676.68</ele>
 <time>2011-10-23T10:14:11Z</time>
 </trkpt>
 <trkpt lat="47.652142" lon="13.051412">
 <ele>677.24</ele>
 <time>2011-10-23T10:14:12Z</time>
 </trkpt>
 <trkpt lat="47.652061" lon="13.051520">
 <ele>678.35</ele>
 <time>2011-10-23T10:14:18Z</time>
 </trkpt>
 <trkpt lat="47.652054" lon="13.051537">
 <ele>678.80</ele>
 <time>2011-10-23T10:14:19Z</time>
 </trkpt>
 <trkpt lat="47.651951" lon="13.051663">
 <ele>680.24</ele>
 <time>2011-10-23T10:14:26Z</time>
 </trkpt>
 <trkpt lat="47.651890" lon="13.051707">
 <ele>681.29</ele>
 <time>2011-10-23T10:14:30Z</time>
 </trkpt>
 <trkpt lat="47.651833" lon="13.051744">
 <ele>682.31</ele>
 <time>2011-10-23T10:14:35Z</time>
 </trkpt>
 <trkpt lat="47.651814" lon="13.051758">
 <ele>683.04</ele>
 <time>2011-10-23T10:14:37Z</time>
 </trkpt>
 <trkpt lat="47.651745" lon="13.051846">
 <ele>684.64</ele>
 <time>2011-10-23T10:14:45Z</time>
 </trkpt>
 <trkpt lat="47.651730" lon="13.051867">
 <ele>685.33</ele>
 <time>2011-10-23T10:14:47Z</time>
 </trkpt>
 <trkpt lat="47.651672" lon="13.052059">
 <ele>688.32</ele>
 <time>2011-10-23T10:15:00Z</time>
 </trkpt>
 <trkpt lat="47.651672" lon="13.052106">
 <ele>689.11</ele>
 <time>2011-10-23T10:15:04Z</time>
 </trkpt>
 <trkpt lat="47.651672" lon="13.052225">
 <ele>690.31</ele>
 <time>2011-10-23T10:15:10Z</time>
 </trkpt>
 <trkpt lat="47.651669" lon="13.052248">
 <ele>690.78</ele>
 <time>2011-10-23T10:15:11Z</time>
 </trkpt>
 <trkpt lat="47.651627" lon="13.052429">
 <ele>691.91</ele>
 <time>2011-10-23T10:15:18Z</time>
 </trkpt>
 <trkpt lat="47.651615" lon="13.052510">
 <ele>692.76</ele>
 <time>2011-10-23T10:15:22Z</time>
 </trkpt>
 <trkpt lat="47.651604" lon="13.052615">
 <ele>693.67</ele>
 <time>2011-10-23T10:15:27Z</time>
 </trkpt>
 <trkpt lat="47.651604" lon="13.052657">
 <ele>694.27</ele>
 <time>2011-10-23T10:15:29Z</time>
 </trkpt>
 <trkpt lat="47.651581" lon="13.052817">
 <ele>695.43</ele>
 <time>2011-10-23T10:15:35Z</time>
 </trkpt>
 <trkpt lat="47.651554" lon="13.052936">
 <ele>696.28</ele>
 <time>2011-10-23T10:15:39Z</time>
 </trkpt>
 <trkpt lat="47.651497" lon="13.053149">
 <ele>697.60</ele>
 <time>2011-10-23T10:15:45Z</time>
 </trkpt>
 <trkpt lat="47.651489" lon="13.053172">
 <ele>697.83</ele>
 <time>2011-10-23T10:15:46Z</time>
 </trkpt>
 <trkpt lat="47.651489" lon="13.053377">
 <ele>699.55</ele>
 <time>2011-10-23T10:15:54Z</time>
 </trkpt>
 <trkpt lat="47.651501" lon="13.053429">
 <ele>700.09</ele>
 <time>2011-10-23T10:15:56Z</time>
 </trkpt>
 <trkpt lat="47.651539" lon="13.053559">
 <ele>701.27</ele>
 <time>2011-10-23T10:16:02Z</time>
 </trkpt>
 <trkpt lat="47.651550" lon="13.053573">
 <ele>701.54</ele>
 <time>2011-10-23T10:16:03Z</time>
 </trkpt>
 <trkpt lat="47.651581" lon="13.053708">
 <ele>702.82</ele>
 <time>2011-10-23T10:16:09Z</time>
 </trkpt>
 <trkpt lat="47.651585" lon="13.053817">
 <ele>703.71</ele>
 <time>2011-10-23T10:16:13Z</time>
 </trkpt>
 <trkpt lat="47.651653" lon="13.053906">
 <ele>704.61</ele>
 <time>2011-10-23T10:16:19Z</time>
 </trkpt>
 <trkpt lat="47.651665" lon="13.053919">
 <ele>704.94</ele>
 <time>2011-10-23T10:16:20Z</time>
 </trkpt>
 <trkpt lat="47.651730" lon="13.054014">
 <ele>705.97</ele>
 <time>2011-10-23T10:16:26Z</time>
 </trkpt>
 <trkpt lat="47.651779" lon="13.054076">
 <ele>707.18</ele>
 <time>2011-10-23T10:16:30Z</time>
 </trkpt>
 <trkpt lat="47.651863" lon="13.054368">
 <ele>710.56</ele>
 <time>2011-10-23T10:16:45Z</time>
 </trkpt>
 <trkpt lat="47.651871" lon="13.054409">
 <ele>711.27</ele>
 <time>2011-10-23T10:16:47Z</time>
 </trkpt>
 <trkpt lat="47.651894" lon="13.054535">
 <ele>712.49</ele>
 <time>2011-10-23T10:16:53Z</time>
 </trkpt>
 <trkpt lat="47.651897" lon="13.054559">
 <ele>712.68</ele>
 <time>2011-10-23T10:16:54Z</time>
 </trkpt>
 <trkpt lat="47.651905" lon="13.054739">
 <ele>715.24</ele>
 <time>2011-10-23T10:17:03Z</time>
 </trkpt>
 <trkpt lat="47.651901" lon="13.054790">
 <ele>715.65</ele>
 <time>2011-10-23T10:17:05Z</time>
 </trkpt>
 <trkpt lat="47.651894" lon="13.055160">
 <ele>718.72</ele>
 <time>2011-10-23T10:17:20Z</time>
 </trkpt>
 <trkpt lat="47.651882" lon="13.055206">
 <ele>719.22</ele>
 <time>2011-10-23T10:17:22Z</time>
 </trkpt>
 <trkpt lat="47.651749" lon="13.055541">
 <ele>722.78</ele>
 <time>2011-10-23T10:17:37Z</time>
 </trkpt>
 <trkpt lat="47.651726" lon="13.055596">
 <ele>723.78</ele>
 <time>2011-10-23T10:17:40Z</time>
 </trkpt>
 <trkpt lat="47.651711" lon="13.055676">
 <ele>724.55</ele>
 <time>2011-10-23T10:17:44Z</time>
 </trkpt>
 <trkpt lat="47.651707" lon="13.055725">
 <ele>725.08</ele>
 <time>2011-10-23T10:17:46Z</time>
 </trkpt>
 <trkpt lat="47.651680" lon="13.055900">
 <ele>726.86</ele>
 <time>2011-10-23T10:17:54Z</time>
 </trkpt>
 <trkpt lat="47.651676" lon="13.055911">
 <ele>727.05</ele>
 <time>2011-10-23T10:17:55Z</time>
 </trkpt>
 <trkpt lat="47.651672" lon="13.055960">
 <ele>727.64</ele>
 <time>2011-10-23T10:18:04Z</time>
 </trkpt>
 <trkpt lat="47.651672" lon="13.055975">
 <ele>727.70</ele>
 <time>2011-10-23T10:18:05Z</time>
 </trkpt>
 <trkpt lat="47.651657" lon="13.056119">
 <ele>728.49</ele>
 <time>2011-10-23T10:18:14Z</time>
 </trkpt>
 <trkpt lat="47.651665" lon="13.056195">
 <ele>729.36</ele>
 <time>2011-10-23T10:18:20Z</time>
 </trkpt>
 <trkpt lat="47.651661" lon="13.056345">
 <ele>730.39</ele>
 <time>2011-10-23T10:18:30Z</time>
 </trkpt>
 <trkpt lat="47.651657" lon="13.056477">
 <ele>731.63</ele>
 <time>2011-10-23T10:18:39Z</time>
 </trkpt>
 <trkpt lat="47.651642" lon="13.056592">
 <ele>732.62</ele>
 <time>2011-10-23T10:18:46Z</time>
 </trkpt>
 <trkpt lat="47.651611" lon="13.056739">
 <ele>733.83</ele>
 <time>2011-10-23T10:18:54Z</time>
 </trkpt>
 <trkpt lat="47.651581" lon="13.056942">
 <ele>734.82</ele>
 <time>2011-10-23T10:19:04Z</time>
 </trkpt>
 <trkpt lat="47.651566" lon="13.057103">
 <ele>736.04</ele>
 <time>2011-10-23T10:19:13Z</time>
 </trkpt>
 <trkpt lat="47.651558" lon="13.057155">
 <ele>736.54</ele>
 <time>2011-10-23T10:19:16Z</time>
 </trkpt>
 <trkpt lat="47.651524" lon="13.057324">
 <ele>737.81</ele>
 <time>2011-10-23T10:19:27Z</time>
 </trkpt>
 <trkpt lat="47.651520" lon="13.057442">
 <ele>738.89</ele>
 <time>2011-10-23T10:19:37Z</time>
 </trkpt>
 <trkpt lat="47.651508" lon="13.057560">
 <ele>739.60</ele>
 <time>2011-10-23T10:19:46Z</time>
 </trkpt>
 <trkpt lat="47.651489" lon="13.057715">
 <ele>740.58</ele>
 <time>2011-10-23T10:19:57Z</time>
 </trkpt>
 <trkpt lat="47.651447" lon="13.057934">
 <ele>741.52</ele>
 <time>2011-10-23T10:20:12Z</time>
 </trkpt>
 <trkpt lat="47.651394" lon="13.058135">
 <ele>742.54</ele>
 <time>2011-10-23T10:20:27Z</time>
 </trkpt>
 <trkpt lat="47.651363" lon="13.058232">
 <ele>742.82</ele>
 <time>2011-10-23T10:20:36Z</time>
 </trkpt>
 <trkpt lat="47.651363" lon="13.058226">
 <ele>742.68</ele>
 <time>2011-10-23T10:20:38Z</time>
 </trkpt>
 <trkpt lat="47.651375" lon="13.058296">
 <ele>743.33</ele>
 <time>2011-10-23T10:22:54Z</time>
 </trkpt>
 <trkpt lat="47.651348" lon="13.058383">
 <ele>743.61</ele>
 <time>2011-10-23T10:22:58Z</time>
 </trkpt>
 <trkpt lat="47.651344" lon="13.058408">
 <ele>743.67</ele>
 <time>2011-10-23T10:22:59Z</time>
 </trkpt>
 <trkpt lat="47.651306" lon="13.058651">
 <ele>744.66</ele>
 <time>2011-10-23T10:23:08Z</time>
 </trkpt>
 <trkpt lat="47.651299" lon="13.058703">
 <ele>744.74</ele>
 <time>2011-10-23T10:23:10Z</time>
 </trkpt>
 <trkpt lat="47.651287" lon="13.058807">
 <ele>745.02</ele>
 <time>2011-10-23T10:23:14Z</time>
 </trkpt>
 <trkpt lat="47.651272" lon="13.058947">
 <ele>745.54</ele>
 <time>2011-10-23T10:23:19Z</time>
 </trkpt>
 <trkpt lat="47.651268" lon="13.059038">
 <ele>746.02</ele>
 <time>2011-10-23T10:23:22Z</time>
 </trkpt>
 <trkpt lat="47.651264" lon="13.059131">
 <ele>746.44</ele>
 <time>2011-10-23T10:23:25Z</time>
 </trkpt>
 <trkpt lat="47.651268" lon="13.059193">
 <ele>746.80</ele>
 <time>2011-10-23T10:23:27Z</time>
 </trkpt>
 <trkpt lat="47.651272" lon="13.059345">
 <ele>747.30</ele>
 <time>2011-10-23T10:23:32Z</time>
 </trkpt>
 <trkpt lat="47.651279" lon="13.059435">
 <ele>747.74</ele>
 <time>2011-10-23T10:23:35Z</time>
 </trkpt>
 <trkpt lat="47.651295" lon="13.059587">
 <ele>748.68</ele>
 <time>2011-10-23T10:23:40Z</time>
 </trkpt>
 <trkpt lat="47.651295" lon="13.059616">
 <ele>748.79</ele>
 <time>2011-10-23T10:23:41Z</time>
 </trkpt>
 <trkpt lat="47.651306" lon="13.059763">
 <ele>749.82</ele>
 <time>2011-10-23T10:23:46Z</time>
 </trkpt>
 <trkpt lat="47.651314" lon="13.059849">
 <ele>750.41</ele>
 <time>2011-10-23T10:23:49Z</time>
 </trkpt>
 <trkpt lat="47.651325" lon="13.059993">
 <ele>751.08</ele>
 <time>2011-10-23T10:23:54Z</time>
 </trkpt>
 <trkpt lat="47.651329" lon="13.060021">
 <ele>751.41</ele>
 <time>2011-10-23T10:23:55Z</time>
 </trkpt>
 <trkpt lat="47.651348" lon="13.060195">
 <ele>752.23</ele>
 <time>2011-10-23T10:24:01Z</time>
 </trkpt>
 <trkpt lat="47.651356" lon="13.060281">
 <ele>752.76</ele>
 <time>2011-10-23T10:24:04Z</time>
 </trkpt>
 <trkpt lat="47.651367" lon="13.060398">
 <ele>753.52</ele>
 <time>2011-10-23T10:24:08Z</time>
 </trkpt>
 <trkpt lat="47.651371" lon="13.060428">
 <ele>753.63</ele>
 <time>2011-10-23T10:24:09Z</time>
 </trkpt>
 <trkpt lat="47.651417" lon="13.060606">
 <ele>754.36</ele>
 <time>2011-10-23T10:24:15Z</time>
 </trkpt>
 <trkpt lat="47.651443" lon="13.060693">
 <ele>754.89</ele>
 <time>2011-10-23T10:24:18Z</time>
 </trkpt>
 <trkpt lat="47.651474" lon="13.060826">
 <ele>755.23</ele>
 <time>2011-10-23T10:24:22Z</time>
 </trkpt>
 <trkpt lat="47.651482" lon="13.060860">
 <ele>755.49</ele>
 <time>2011-10-23T10:24:23Z</time>
 </trkpt>
 <trkpt lat="47.651501" lon="13.060955">
 <ele>755.82</ele>
 <time>2011-10-23T10:24:26Z</time>
 </trkpt>
 <trkpt lat="47.651512" lon="13.060987">
 <ele>755.99</ele>
 <time>2011-10-23T10:24:27Z</time>
 </trkpt>
 <trkpt lat="47.651535" lon="13.061089">
 <ele>756.46</ele>
 <time>2011-10-23T10:24:30Z</time>
 </trkpt>
 <trkpt lat="47.651558" lon="13.061191">
 <ele>756.94</ele>
 <time>2011-10-23T10:24:33Z</time>
 </trkpt>
 <trkpt lat="47.651573" lon="13.061258">
 <ele>757.19</ele>
 <time>2011-10-23T10:24:35Z</time>
 </trkpt>
 <trkpt lat="47.651596" lon="13.061359">
 <ele>757.42</ele>
 <time>2011-10-23T10:24:38Z</time>
 </trkpt>
 <trkpt lat="47.651604" lon="13.061392">
 <ele>757.56</ele>
 <time>2011-10-23T10:24:39Z</time>
 </trkpt>
 <trkpt lat="47.651634" lon="13.061490">
 <ele>757.74</ele>
 <time>2011-10-23T10:24:42Z</time>
 </trkpt>
 <trkpt lat="47.651653" lon="13.061556">
 <ele>757.86</ele>
 <time>2011-10-23T10:24:44Z</time>
 </trkpt>
 <trkpt lat="47.651688" lon="13.061692">
 <ele>758.40</ele>
 <time>2011-10-23T10:24:48Z</time>
 </trkpt>
 <trkpt lat="47.651722" lon="13.061827">
 <ele>759.01</ele>
 <time>2011-10-23T10:24:52Z</time>
 </trkpt>
 <trkpt lat="47.651756" lon="13.061966">
 <ele>759.58</ele>
 <time>2011-10-23T10:24:56Z</time>
 </trkpt>
 <trkpt lat="47.651775" lon="13.062035">
 <ele>759.84</ele>
 <time>2011-10-23T10:24:58Z</time>
 </trkpt>
 <trkpt lat="47.651806" lon="13.062131">
 <ele>760.19</ele>
 <time>2011-10-23T10:25:01Z</time>
 </trkpt>
 <trkpt lat="47.651814" lon="13.062161">
 <ele>760.32</ele>
 <time>2011-10-23T10:25:02Z</time>
 </trkpt>
 <trkpt lat="47.651848" lon="13.062255">
 <ele>760.54</ele>
 <time>2011-10-23T10:25:05Z</time>
 </trkpt>
 <trkpt lat="47.651859" lon="13.062285">
 <ele>760.71</ele>
 <time>2011-10-23T10:25:06Z</time>
 </trkpt>
 <trkpt lat="47.651894" lon="13.062379">
 <ele>761.03</ele>
 <time>2011-10-23T10:25:09Z</time>
 </trkpt>
 <trkpt lat="47.651901" lon="13.062410">
 <ele>761.37</ele>
 <time>2011-10-23T10:25:10Z</time>
 </trkpt>
 <trkpt lat="47.651932" lon="13.062505">
 <ele>761.54</ele>
 <time>2011-10-23T10:25:13Z</time>
 </trkpt>
 <trkpt lat="47.651943" lon="13.062536">
 <ele>761.90</ele>
 <time>2011-10-23T10:25:14Z</time>
 </trkpt>
 <trkpt lat="47.651978" lon="13.062628">
 <ele>762.18</ele>
 <time>2011-10-23T10:25:17Z</time>
 </trkpt>
 <trkpt lat="47.651997" lon="13.062689">
 <ele>762.35</ele>
 <time>2011-10-23T10:25:19Z</time>
 </trkpt>
 <trkpt lat="47.652027" lon="13.062779">
 <ele>762.90</ele>
 <time>2011-10-23T10:25:22Z</time>
 </trkpt>
 <trkpt lat="47.652054" lon="13.062875">
 <ele>763.30</ele>
 <time>2011-10-23T10:25:25Z</time>
 </trkpt>
 <trkpt lat="47.652061" lon="13.062905">
 <ele>763.54</ele>
 <time>2011-10-23T10:25:26Z</time>
 </trkpt>
 <trkpt lat="47.652088" lon="13.062997">
 <ele>763.89</ele>
 <time>2011-10-23T10:25:29Z</time>
 </trkpt>
 <trkpt lat="47.652115" lon="13.063090">
 <ele>764.40</ele>
 <time>2011-10-23T10:25:32Z</time>
 </trkpt>
 <trkpt lat="47.652149" lon="13.063211">
 <ele>765.36</ele>
 <time>2011-10-23T10:25:36Z</time>
 </trkpt>
 <trkpt lat="47.652180" lon="13.063340">
 <ele>766.13</ele>
 <time>2011-10-23T10:25:40Z</time>
 </trkpt>
 <trkpt lat="47.652214" lon="13.063461">
 <ele>766.82</ele>
 <time>2011-10-23T10:25:44Z</time>
 </trkpt>
 <trkpt lat="47.652248" lon="13.063611">
 <ele>767.81</ele>
 <time>2011-10-23T10:25:49Z</time>
 </trkpt>
 <trkpt lat="47.652279" lon="13.063733">
 <ele>768.28</ele>
 <time>2011-10-23T10:25:53Z</time>
 </trkpt>
 <trkpt lat="47.652302" lon="13.063857">
 <ele>769.16</ele>
 <time>2011-10-23T10:25:57Z</time>
 </trkpt>
 <trkpt lat="47.652321" lon="13.063951">
 <ele>770.01</ele>
 <time>2011-10-23T10:26:00Z</time>
 </trkpt>
 <trkpt lat="47.652344" lon="13.064044">
 <ele>770.31</ele>
 <time>2011-10-23T10:26:03Z</time>
 </trkpt>
 <trkpt lat="47.652363" lon="13.064139">
 <ele>770.86</ele>
 <time>2011-10-23T10:26:06Z</time>
 </trkpt>
 <trkpt lat="47.652386" lon="13.064265">
 <ele>771.46</ele>
 <time>2011-10-23T10:26:10Z</time>
 </trkpt>
 <trkpt lat="47.652409" lon="13.064388">
 <ele>772.14</ele>
 <time>2011-10-23T10:26:14Z</time>
 </trkpt>
 <trkpt lat="47.652424" lon="13.064479">
 <ele>772.63</ele>
 <time>2011-10-23T10:26:17Z</time>
 </trkpt>
 <trkpt lat="47.652439" lon="13.064571">
 <ele>772.95</ele>
 <time>2011-10-23T10:26:20Z</time>
 </trkpt>
 <trkpt lat="47.652458" lon="13.064775">
 <ele>774.13</ele>
 <time>2011-10-23T10:26:27Z</time>
 </trkpt>
 <trkpt lat="47.652473" lon="13.064923">
 <ele>775.03</ele>
 <time>2011-10-23T10:26:32Z</time>
 </trkpt>
 <trkpt lat="47.652481" lon="13.065042">
 <ele>775.83</ele>
 <time>2011-10-23T10:26:36Z</time>
 </trkpt>
 <trkpt lat="47.652481" lon="13.065169">
 <ele>776.49</ele>
 <time>2011-10-23T10:26:40Z</time>
 </trkpt>
 <trkpt lat="47.652481" lon="13.065321">
 <ele>777.16</ele>
 <time>2011-10-23T10:26:45Z</time>
 </trkpt>
 <trkpt lat="47.652481" lon="13.065576">
 <ele>778.72</ele>
 <time>2011-10-23T10:26:53Z</time>
 </trkpt>
 <trkpt lat="47.652485" lon="13.065672">
 <ele>779.23</ele>
 <time>2011-10-23T10:26:56Z</time>
 </trkpt>
 <trkpt lat="47.652496" lon="13.065767">
 <ele>779.56</ele>
 <time>2011-10-23T10:26:59Z</time>
 </trkpt>
 <trkpt lat="47.652500" lon="13.065799">
 <ele>779.67</ele>
 <time>2011-10-23T10:27:00Z</time>
 </trkpt>
 <trkpt lat="47.652500" lon="13.065896">
 <ele>780.02</ele>
 <time>2011-10-23T10:27:03Z</time>
 </trkpt>
 <trkpt lat="47.652504" lon="13.066025">
 <ele>780.66</ele>
 <time>2011-10-23T10:27:07Z</time>
 </trkpt>
 <trkpt lat="47.652500" lon="13.066125">
 <ele>780.88</ele>
 <time>2011-10-23T10:27:10Z</time>
 </trkpt>
 <trkpt lat="47.652504" lon="13.066220">
 <ele>781.32</ele>
 <time>2011-10-23T10:27:13Z</time>
 </trkpt>
 <trkpt lat="47.652508" lon="13.066314">
 <ele>781.53</ele>
 <time>2011-10-23T10:27:16Z</time>
 </trkpt>
 <trkpt lat="47.652504" lon="13.066410">
 <ele>782.14</ele>
 <time>2011-10-23T10:27:19Z</time>
 </trkpt>
 <trkpt lat="47.652500" lon="13.066536">
 <ele>782.97</ele>
 <time>2011-10-23T10:27:23Z</time>
 </trkpt>
 <trkpt lat="47.652500" lon="13.066628">
 <ele>783.54</ele>
 <time>2011-10-23T10:27:26Z</time>
 </trkpt>
 <trkpt lat="47.652504" lon="13.066713">
 <ele>784.09</ele>
 <time>2011-10-23T10:27:29Z</time>
 </trkpt>
 <trkpt lat="47.652504" lon="13.066840">
 <ele>784.81</ele>
 <time>2011-10-23T10:27:33Z</time>
 </trkpt>
 <trkpt lat="47.652504" lon="13.066896">
 <ele>785.18</ele>
 <time>2011-10-23T10:27:35Z</time>
 </trkpt>
 <trkpt lat="47.652504" lon="13.067028">
 <ele>786.10</ele>
 <time>2011-10-23T10:27:40Z</time>
 </trkpt>
 <trkpt lat="47.652508" lon="13.067137">
 <ele>787.14</ele>
 <time>2011-10-23T10:27:44Z</time>
 </trkpt>
 <trkpt lat="47.652512" lon="13.067260">
 <ele>787.82</ele>
 <time>2011-10-23T10:27:49Z</time>
 </trkpt>
 <trkpt lat="47.652508" lon="13.067288">
 <ele>787.98</ele>
 <time>2011-10-23T10:27:50Z</time>
 </trkpt>
 <trkpt lat="47.652512" lon="13.067434">
 <ele>789.25</ele>
 <time>2011-10-23T10:27:56Z</time>
 </trkpt>
 <trkpt lat="47.652512" lon="13.067513">
 <ele>789.91</ele>
 <time>2011-10-23T10:27:59Z</time>
 </trkpt>
 <trkpt lat="47.652512" lon="13.067666">
 <ele>790.91</ele>
 <time>2011-10-23T10:28:05Z</time>
 </trkpt>
 <trkpt lat="47.652512" lon="13.067690">
 <ele>791.40</ele>
 <time>2011-10-23T10:28:06Z</time>
 </trkpt>
 <trkpt lat="47.652512" lon="13.067837">
 <ele>792.51</ele>
 <time>2011-10-23T10:28:12Z</time>
 </trkpt>
 <trkpt lat="47.652512" lon="13.067940">
 <ele>793.52</ele>
 <time>2011-10-23T10:28:16Z</time>
 </trkpt>
 <trkpt lat="47.652512" lon="13.068060">
 <ele>794.70</ele>
 <time>2011-10-23T10:28:21Z</time>
 </trkpt>
 <trkpt lat="47.652512" lon="13.068089">
 <ele>794.89</ele>
 <time>2011-10-23T10:28:22Z</time>
 </trkpt>
 <trkpt lat="47.652527" lon="13.068282">
 <ele>796.55</ele>
 <time>2011-10-23T10:28:30Z</time>
 </trkpt>
 <trkpt lat="47.652527" lon="13.068305">
 <ele>797.10</ele>
 <time>2011-10-23T10:28:31Z</time>
 </trkpt>
 <trkpt lat="47.652546" lon="13.068475">
 <ele>798.51</ele>
 <time>2011-10-23T10:28:38Z</time>
 </trkpt>
 <trkpt lat="47.652550" lon="13.068499">
 <ele>798.70</ele>
 <time>2011-10-23T10:28:39Z</time>
 </trkpt>
 <trkpt lat="47.652569" lon="13.068704">
 <ele>800.51</ele>
 <time>2011-10-23T10:28:47Z</time>
 </trkpt>
 <trkpt lat="47.652576" lon="13.068757">
 <ele>800.83</ele>
 <time>2011-10-23T10:28:49Z</time>
 </trkpt>
 <trkpt lat="47.652592" lon="13.068882">
 <ele>801.73</ele>
 <time>2011-10-23T10:28:54Z</time>
 </trkpt>
 <trkpt lat="47.652603" lon="13.068929">
 <ele>802.40</ele>
 <time>2011-10-23T10:28:56Z</time>
 </trkpt>
 <trkpt lat="47.652637" lon="13.069120">
 <ele>804.06</ele>
 <time>2011-10-23T10:29:04Z</time>
 </trkpt>
 <trkpt lat="47.652653" lon="13.069167">
 <ele>804.46</ele>
 <time>2011-10-23T10:29:06Z</time>
 </trkpt>
 <trkpt lat="47.652679" lon="13.069282">
 <ele>805.54</ele>
 <time>2011-10-23T10:29:11Z</time>
 </trkpt>
 <trkpt lat="47.652691" lon="13.069328">
 <ele>806.00</ele>
 <time>2011-10-23T10:29:13Z</time>
 </trkpt>
 <trkpt lat="47.652748" lon="13.069508">
 <ele>807.51</ele>
 <time>2011-10-23T10:29:21Z</time>
 </trkpt>
 <trkpt lat="47.652756" lon="13.069531">
 <ele>807.83</ele>
 <time>2011-10-23T10:29:22Z</time>
 </trkpt>
 <trkpt lat="47.652794" lon="13.069668">
 <ele>808.92</ele>
 <time>2011-10-23T10:29:28Z</time>
 </trkpt>
 <trkpt lat="47.652809" lon="13.069714">
 <ele>809.35</ele>
 <time>2011-10-23T10:29:30Z</time>
 </trkpt>
 <trkpt lat="47.652866" lon="13.069845">
 <ele>810.61</ele>
 <time>2011-10-23T10:29:36Z</time>
 </trkpt>
 <trkpt lat="47.652885" lon="13.069889">
 <ele>810.93</ele>
 <time>2011-10-23T10:29:38Z</time>
 </trkpt>
 <trkpt lat="47.652954" lon="13.070050">
 <ele>812.13</ele>
 <time>2011-10-23T10:29:45Z</time>
 </trkpt>
 <trkpt lat="47.652966" lon="13.070070">
 <ele>812.55</ele>
 <time>2011-10-23T10:29:46Z</time>
 </trkpt>
 <trkpt lat="47.653027" lon="13.070192">
 <ele>813.41</ele>
 <time>2011-10-23T10:29:52Z</time>
 </trkpt>
 <trkpt lat="47.653072" lon="13.070270">
 <ele>814.30</ele>
 <time>2011-10-23T10:29:56Z</time>
 </trkpt>
 <trkpt lat="47.653133" lon="13.070358">
 <ele>815.28</ele>
 <time>2011-10-23T10:30:01Z</time>
 </trkpt>
 <trkpt lat="47.653152" lon="13.070395">
 <ele>815.63</ele>
 <time>2011-10-23T10:30:03Z</time>
 </trkpt>
 <trkpt lat="47.653210" lon="13.070487">
 <ele>816.42</ele>
 <time>2011-10-23T10:30:08Z</time>
 </trkpt>
 <trkpt lat="47.653248" lon="13.070536">
 <ele>817.18</ele>
 <time>2011-10-23T10:30:11Z</time>
 </trkpt>
 <trkpt lat="47.653332" lon="13.070626">
 <ele>818.16</ele>
 <time>2011-10-23T10:30:17Z</time>
 </trkpt>
 <trkpt lat="47.653358" lon="13.070654">
 <ele>818.56</ele>
 <time>2011-10-23T10:30:19Z</time>
 </trkpt>
 <trkpt lat="47.653454" lon="13.070763">
 <ele>820.03</ele>
 <time>2011-10-23T10:30:26Z</time>
 </trkpt>
 <trkpt lat="47.653469" lon="13.070781">
 <ele>820.16</ele>
 <time>2011-10-23T10:30:27Z</time>
 </trkpt>
 <trkpt lat="47.653545" lon="13.070887">
 <ele>821.15</ele>
 <time>2011-10-23T10:30:33Z</time>
 </trkpt>
 <trkpt lat="47.653576" lon="13.070917">
 <ele>821.75</ele>
 <time>2011-10-23T10:30:35Z</time>
 </trkpt>
 <trkpt lat="47.653645" lon="13.071009">
 <ele>822.85</ele>
 <time>2011-10-23T10:30:41Z</time>
 </trkpt>
 <trkpt lat="47.653690" lon="13.071057">
 <ele>823.27</ele>
 <time>2011-10-23T10:30:44Z</time>
 </trkpt>
 <trkpt lat="47.653782" lon="13.071137">
 <ele>824.22</ele>
 <time>2011-10-23T10:30:50Z</time>
 </trkpt>
 <trkpt lat="47.653793" lon="13.071152">
 <ele>824.46</ele>
 <time>2011-10-23T10:30:51Z</time>
 </trkpt>
 <trkpt lat="47.653881" lon="13.071221">
 <ele>825.62</ele>
 <time>2011-10-23T10:30:57Z</time>
 </trkpt>
 <trkpt lat="47.653931" lon="13.071254">
 <ele>826.22</ele>
 <time>2011-10-23T10:31:00Z</time>
 </trkpt>
 <trkpt lat="47.654030" lon="13.071298">
 <ele>827.25</ele>
 <time>2011-10-23T10:31:06Z</time>
 </trkpt>
 <trkpt lat="47.654045" lon="13.071306">
 <ele>827.76</ele>
 <time>2011-10-23T10:31:07Z</time>
 </trkpt>
 <trkpt lat="47.654144" lon="13.071351">
 <ele>828.65</ele>
 <time>2011-10-23T10:31:13Z</time>
 </trkpt>
 <trkpt lat="47.654186" lon="13.071388">
 <ele>828.99</ele>
 <time>2011-10-23T10:31:16Z</time>
 </trkpt>
 <trkpt lat="47.654278" lon="13.071458">
 <ele>830.04</ele>
 <time>2011-10-23T10:31:22Z</time>
 </trkpt>
 <trkpt lat="47.654293" lon="13.071467">
 <ele>830.54</ele>
 <time>2011-10-23T10:31:23Z</time>
 </trkpt>
 <trkpt lat="47.654415" lon="13.071522">
 <ele>831.65</ele>
 <time>2011-10-23T10:31:30Z</time>
 </trkpt>
 <trkpt lat="47.654446" lon="13.071548">
 <ele>832.24</ele>
 <time>2011-10-23T10:31:32Z</time>
 </trkpt>
 <trkpt lat="47.654659" lon="13.071701">
 <ele>835.07</ele>
 <time>2011-10-23T10:31:46Z</time>
 </trkpt>
 <trkpt lat="47.654697" lon="13.071714">
 <ele>835.62</ele>
 <time>2011-10-23T10:31:48Z</time>
 </trkpt>
 <trkpt lat="47.654804" lon="13.071777">
 <ele>836.75</ele>
 <time>2011-10-23T10:31:55Z</time>
 </trkpt>
 <trkpt lat="47.654816" lon="13.071790">
 <ele>837.23</ele>
 <time>2011-10-23T10:31:56Z</time>
 </trkpt>
 <trkpt lat="47.654907" lon="13.071888">
 <ele>838.92</ele>
 <time>2011-10-23T10:32:04Z</time>
 </trkpt>
 <trkpt lat="47.654934" lon="13.071910">
 <ele>839.44</ele>
 <time>2011-10-23T10:32:06Z</time>
 </trkpt>
 <trkpt lat="47.655136" lon="13.072061">
 <ele>842.52</ele>
 <time>2011-10-23T10:32:20Z</time>
 </trkpt>
 <trkpt lat="47.655178" lon="13.072098">
 <ele>843.10</ele>
 <time>2011-10-23T10:32:23Z</time>
 </trkpt>
 <trkpt lat="47.655266" lon="13.072167">
 <ele>844.18</ele>
 <time>2011-10-23T10:32:29Z</time>
 </trkpt>
 <trkpt lat="47.655281" lon="13.072177">
 <ele>844.39</ele>
 <time>2011-10-23T10:32:30Z</time>
 </trkpt>
 <trkpt lat="47.655403" lon="13.072275">
 <ele>845.89</ele>
 <time>2011-10-23T10:32:38Z</time>
 </trkpt>
 <trkpt lat="47.655418" lon="13.072286">
 <ele>846.35</ele>
 <time>2011-10-23T10:32:39Z</time>
 </trkpt>
 <trkpt lat="47.655651" lon="13.072475">
 <ele>849.73</ele>
 <time>2011-10-23T10:32:55Z</time>
 </trkpt>
 <trkpt lat="47.655678" lon="13.072498">
 <ele>850.22</ele>
 <time>2011-10-23T10:32:57Z</time>
 </trkpt>
 <trkpt lat="47.655891" lon="13.072647">
 <ele>853.15</ele>
 <time>2011-10-23T10:33:11Z</time>
 </trkpt>
 <trkpt lat="47.655933" lon="13.072681">
 <ele>853.71</ele>
 <time>2011-10-23T10:33:14Z</time>
 </trkpt>
 <trkpt lat="47.656174" lon="13.072831">
 <ele>857.52</ele>
 <time>2011-10-23T10:33:30Z</time>
 </trkpt>
 <trkpt lat="47.656185" lon="13.072842">
 <ele>857.99</ele>
 <time>2011-10-23T10:33:31Z</time>
 </trkpt>
 <trkpt lat="47.656399" lon="13.072994">
 <ele>860.47</ele>
 <time>2011-10-23T10:33:45Z</time>
 </trkpt>
 <trkpt lat="47.656460" lon="13.073038">
 <ele>861.31</ele>
 <time>2011-10-23T10:33:49Z</time>
 </trkpt>
 <trkpt lat="47.656540" lon="13.073082">
 <ele>862.07</ele>
 <time>2011-10-23T10:33:54Z</time>
 </trkpt>
 <trkpt lat="47.656555" lon="13.073089">
 <ele>862.34</ele>
 <time>2011-10-23T10:33:55Z</time>
 </trkpt>
 <trkpt lat="47.656681" lon="13.073167">
 <ele>863.49</ele>
 <time>2011-10-23T10:34:03Z</time>
 </trkpt>
 <trkpt lat="47.656715" lon="13.073181">
 <ele>863.85</ele>
 <time>2011-10-23T10:34:05Z</time>
 </trkpt>
 <trkpt lat="47.656799" lon="13.073229">
 <ele>864.49</ele>
 <time>2011-10-23T10:34:10Z</time>
 </trkpt>
 <trkpt lat="47.656815" lon="13.073239">
 <ele>864.68</ele>
 <time>2011-10-23T10:34:11Z</time>
 </trkpt>
 <trkpt lat="47.656921" lon="13.073298">
 <ele>865.47</ele>
 <time>2011-10-23T10:34:17Z</time>
 </trkpt>
 <trkpt lat="47.656971" lon="13.073325">
 <ele>866.04</ele>
 <time>2011-10-23T10:34:20Z</time>
 </trkpt>
 <trkpt lat="47.657055" lon="13.073383">
 <ele>866.52</ele>
 <time>2011-10-23T10:34:25Z</time>
 </trkpt>
 <trkpt lat="47.657085" lon="13.073401">
 <ele>866.92</ele>
 <time>2011-10-23T10:34:27Z</time>
 </trkpt>
 <trkpt lat="47.657181" lon="13.073439">
 <ele>867.57</ele>
 <time>2011-10-23T10:34:32Z</time>
 </trkpt>
 <trkpt lat="47.657272" lon="13.073476">
 <ele>868.14</ele>
 <time>2011-10-23T10:34:37Z</time>
 </trkpt>
 <trkpt lat="47.657326" lon="13.073506">
 <ele>868.42</ele>
 <time>2011-10-23T10:34:40Z</time>
 </trkpt>
 <trkpt lat="47.657341" lon="13.073520">
 <ele>868.53</ele>
 <time>2011-10-23T10:34:41Z</time>
 </trkpt>
 <trkpt lat="47.657444" lon="13.073595">
 <ele>868.97</ele>
 <time>2011-10-23T10:34:47Z</time>
 </trkpt>
 <trkpt lat="47.657501" lon="13.073624">
 <ele>869.43</ele>
 <time>2011-10-23T10:34:50Z</time>
 </trkpt>
 <trkpt lat="47.657574" lon="13.073660">
 <ele>869.65</ele>
 <time>2011-10-23T10:34:54Z</time>
 </trkpt>
 <trkpt lat="47.657627" lon="13.073695">
 <ele>869.98</ele>
 <time>2011-10-23T10:34:57Z</time>
 </trkpt>
 <trkpt lat="47.657719" lon="13.073749">
 <ele>870.67</ele>
 <time>2011-10-23T10:35:02Z</time>
 </trkpt>
 <trkpt lat="47.657776" lon="13.073777">
 <ele>871.05</ele>
 <time>2011-10-23T10:35:05Z</time>
 </trkpt>
 <trkpt lat="47.657848" lon="13.073823">
 <ele>871.49</ele>
 <time>2011-10-23T10:35:09Z</time>
 </trkpt>
 <trkpt lat="47.657867" lon="13.073834">
 <ele>871.79</ele>
 <time>2011-10-23T10:35:10Z</time>
 </trkpt>
 <trkpt lat="47.657978" lon="13.073889">
 <ele>872.39</ele>
 <time>2011-10-23T10:35:16Z</time>
 </trkpt>
 <trkpt lat="47.658031" lon="13.073926">
 <ele>872.77</ele>
 <time>2011-10-23T10:35:19Z</time>
 </trkpt>
 <trkpt lat="47.658123" lon="13.073978">
 <ele>873.53</ele>
 <time>2011-10-23T10:35:24Z</time>
 </trkpt>
 <trkpt lat="47.658142" lon="13.073987">
 <ele>873.59</ele>
 <time>2011-10-23T10:35:25Z</time>
 </trkpt>
 <trkpt lat="47.658230" lon="13.074048">
 <ele>873.99</ele>
 <time>2011-10-23T10:35:30Z</time>
 </trkpt>
 <trkpt lat="47.658283" lon="13.074092">
 <ele>874.56</ele>
 <time>2011-10-23T10:35:33Z</time>
 </trkpt>
 <trkpt lat="47.658352" lon="13.074151">
 <ele>875.01</ele>
 <time>2011-10-23T10:35:37Z</time>
 </trkpt>
 <trkpt lat="47.658390" lon="13.074180">
 <ele>875.52</ele>
 <time>2011-10-23T10:35:39Z</time>
 </trkpt>
 <trkpt lat="47.658497" lon="13.074257">
 <ele>876.10</ele>
 <time>2011-10-23T10:35:45Z</time>
 </trkpt>
 <trkpt lat="47.658535" lon="13.074274">
 <ele>876.31</ele>
 <time>2011-10-23T10:35:47Z</time>
 </trkpt>
 <trkpt lat="47.658630" lon="13.074335">
 <ele>877.07</ele>
 <time>2011-10-23T10:35:52Z</time>
 </trkpt>
 <trkpt lat="47.658649" lon="13.074351">
 <ele>877.24</ele>
 <time>2011-10-23T10:35:53Z</time>
 </trkpt>
 <trkpt lat="47.658749" lon="13.074384">
 <ele>877.80</ele>
 <time>2011-10-23T10:35:58Z</time>
 </trkpt>
 <trkpt lat="47.658810" lon="13.074381">
 <ele>878.57</ele>
 <time>2011-10-23T10:36:01Z</time>
 </trkpt>
 <trkpt lat="47.658890" lon="13.074338">
 <ele>879.35</ele>
 <time>2011-10-23T10:36:06Z</time>
 </trkpt>
 <trkpt lat="47.658894" lon="13.074328">
 <ele>879.65</ele>
 <time>2011-10-23T10:36:08Z</time>
 </trkpt>
 <trkpt lat="47.658924" lon="13.074465">
 <ele>878.86</ele>
 <time>2011-10-23T10:40:49Z</time>
 </trkpt>
 <trkpt lat="47.658962" lon="13.074493">
 <ele>879.02</ele>
 <time>2011-10-23T10:40:53Z</time>
 </trkpt>
 <trkpt lat="47.659031" lon="13.074579">
 <ele>879.17</ele>
 <time>2011-10-23T10:41:01Z</time>
 </trkpt>
 <trkpt lat="47.659039" lon="13.074583">
 <ele>879.15</ele>
 <time>2011-10-23T10:41:02Z</time>
 </trkpt>
 <trkpt lat="47.659042" lon="13.074591">
 <ele>878.95</ele>
 <time>2011-10-23T10:41:04Z</time>
 </trkpt>
 <trkpt lat="47.659279" lon="13.074633">
 <ele>877.20</ele>
 <time>2011-10-23T10:41:15Z</time>
 </trkpt>
 <trkpt lat="47.659595" lon="13.074829">
 <ele>873.71</ele>
 <time>2011-10-23T10:41:20Z</time>
 </trkpt>
 <trkpt lat="47.659943" lon="13.075143">
 <ele>871.42</ele>
 <time>2011-10-23T10:41:25Z</time>
 </trkpt>
 <trkpt lat="47.660309" lon="13.075409">
 <ele>869.58</ele>
 <time>2011-10-23T10:41:30Z</time>
 </trkpt>
 <trkpt lat="47.660549" lon="13.075592">
 <ele>868.74</ele>
 <time>2011-10-23T10:41:33Z</time>
 </trkpt>
 <trkpt lat="47.660709" lon="13.075721">
 <ele>868.10</ele>
 <time>2011-10-23T10:41:35Z</time>
 </trkpt>
 <trkpt lat="47.661446" lon="13.076287">
 <ele>864.45</ele>
 <time>2011-10-23T10:41:44Z</time>
 </trkpt>
 <trkpt lat="47.662029" lon="13.076620">
 <ele>862.93</ele>
 <time>2011-10-23T10:41:51Z</time>
 </trkpt>
 <trkpt lat="47.662357" lon="13.076720">
 <ele>862.61</ele>
 <time>2011-10-23T10:41:55Z</time>
 </trkpt>
 <trkpt lat="47.662506" lon="13.076760">
 <ele>862.66</ele>
 <time>2011-10-23T10:41:57Z</time>
 </trkpt>
 <trkpt lat="47.662785" lon="13.076834">
 <ele>863.19</ele>
 <time>2011-10-23T10:42:01Z</time>
 </trkpt>
 <trkpt lat="47.663212" lon="13.076912">
 <ele>864.66</ele>
 <time>2011-10-23T10:42:08Z</time>
 </trkpt>
 <trkpt lat="47.663605" lon="13.076998">
 <ele>865.25</ele>
 <time>2011-10-23T10:42:15Z</time>
 </trkpt>
 <trkpt lat="47.663891" lon="13.077188">
 <ele>865.19</ele>
 <time>2011-10-23T10:42:20Z</time>
 </trkpt>
 <trkpt lat="47.664165" lon="13.077495">
 <ele>863.98</ele>
 <time>2011-10-23T10:42:25Z</time>
 </trkpt>
 <trkpt lat="47.664417" lon="13.078096">
 <ele>860.50</ele>
 <time>2011-10-23T10:42:31Z</time>
 </trkpt>
 <trkpt lat="47.664707" lon="13.078977">
 <ele>856.01</ele>
 <time>2011-10-23T10:42:38Z</time>
 </trkpt>
 <trkpt lat="47.664814" lon="13.079371">
 <ele>854.33</ele>
 <time>2011-10-23T10:42:41Z</time>
 </trkpt>
 <trkpt lat="47.664814" lon="13.079902">
 <ele>852.75</ele>
 <time>2011-10-23T10:42:45Z</time>
 </trkpt>
 <trkpt lat="47.664688" lon="13.080197">
 <ele>852.27</ele>
 <time>2011-10-23T10:42:48Z</time>
 </trkpt>
 <trkpt lat="47.664585" lon="13.080346">
 <ele>852.51</ele>
 <time>2011-10-23T10:42:50Z</time>
 </trkpt>
 <trkpt lat="47.664326" lon="13.080837">
 <ele>854.49</ele>
 <time>2011-10-23T10:42:57Z</time>
 </trkpt>
 <trkpt lat="47.664276" lon="13.080979">
 <ele>855.51</ele>
 <time>2011-10-23T10:42:59Z</time>
 </trkpt>
 <trkpt lat="47.664169" lon="13.081533">
 <ele>856.73</ele>
 <time>2011-10-23T10:43:06Z</time>
 </trkpt>
 <trkpt lat="47.664185" lon="13.082100">
 <ele>856.18</ele>
 <time>2011-10-23T10:43:12Z</time>
 </trkpt>
 <trkpt lat="47.664131" lon="13.082636">
 <ele>854.18</ele>
 <time>2011-10-23T10:43:17Z</time>
 </trkpt>
 <trkpt lat="47.663967" lon="13.083675">
 <ele>851.46</ele>
 <time>2011-10-23T10:43:26Z</time>
 </trkpt>
 <trkpt lat="47.663868" lon="13.084141">
 <ele>850.84</ele>
 <time>2011-10-23T10:43:30Z</time>
 </trkpt>
 <trkpt lat="47.663765" lon="13.084450">
 <ele>851.03</ele>
 <time>2011-10-23T10:43:33Z</time>
 </trkpt>
 <trkpt lat="47.663692" lon="13.084633">
 <ele>851.34</ele>
 <time>2011-10-23T10:43:35Z</time>
 </trkpt>
 <trkpt lat="47.663628" lon="13.084799">
 <ele>852.92</ele>
 <time>2011-10-23T10:43:37Z</time>
 </trkpt>
 <trkpt lat="47.663570" lon="13.084953">
 <ele>853.54</ele>
 <time>2011-10-23T10:43:39Z</time>
 </trkpt>
 <trkpt lat="47.663467" lon="13.085240">
 <ele>855.80</ele>
 <time>2011-10-23T10:43:43Z</time>
 </trkpt>
 <trkpt lat="47.663368" lon="13.085575">
 <ele>857.00</ele>
 <time>2011-10-23T10:43:48Z</time>
 </trkpt>
 <trkpt lat="47.663231" lon="13.086124">
 <ele>856.80</ele>
 <time>2011-10-23T10:43:56Z</time>
 </trkpt>
 <trkpt lat="47.663185" lon="13.086270">
 <ele>856.62</ele>
 <time>2011-10-23T10:44:00Z</time>
 </trkpt>
 <trkpt lat="47.663181" lon="13.086275">
 <ele>856.68</ele>
 <time>2011-10-23T10:44:02Z</time>
 </trkpt>
 <trkpt lat="47.663147" lon="13.086420">
 <ele>856.79</ele>
 <time>2011-10-23T10:45:05Z</time>
 </trkpt>
 <trkpt lat="47.663128" lon="13.086469">
 <ele>856.67</ele>
 <time>2011-10-23T10:45:06Z</time>
 </trkpt>
 <trkpt lat="47.663044" lon="13.086762">
 <ele>856.28</ele>
 <time>2011-10-23T10:45:11Z</time>
 </trkpt>
 <trkpt lat="47.663025" lon="13.086866">
 <ele>856.12</ele>
 <time>2011-10-23T10:45:13Z</time>
 </trkpt>
 <trkpt lat="47.662968" lon="13.087035">
 <ele>856.42</ele>
 <time>2011-10-23T10:45:16Z</time>
 </trkpt>
 <trkpt lat="47.662853" lon="13.087284">
 <ele>856.61</ele>
 <time>2011-10-23T10:45:21Z</time>
 </trkpt>
 <trkpt lat="47.662647" lon="13.087536">
 <ele>855.44</ele>
 <time>2011-10-23T10:45:26Z</time>
 </trkpt>
 <trkpt lat="47.662598" lon="13.087601">
 <ele>855.08</ele>
 <time>2011-10-23T10:45:27Z</time>
 </trkpt>
 <trkpt lat="47.662403" lon="13.087992">
 <ele>852.47</ele>
 <time>2011-10-23T10:45:31Z</time>
 </trkpt>
 <trkpt lat="47.662273" lon="13.088354">
 <ele>850.24</ele>
 <time>2011-10-23T10:45:34Z</time>
 </trkpt>
 <trkpt lat="47.661880" lon="13.089245">
 <ele>842.96</ele>
 <time>2011-10-23T10:45:41Z</time>
 </trkpt>
 <trkpt lat="47.661591" lon="13.089614">
 <ele>841.53</ele>
 <time>2011-10-23T10:45:45Z</time>
 </trkpt>
 <trkpt lat="47.661243" lon="13.089855">
 <ele>842.12</ele>
 <time>2011-10-23T10:45:50Z</time>
 </trkpt>
 <trkpt lat="47.661106" lon="13.089991">
 <ele>843.93</ele>
 <time>2011-10-23T10:45:53Z</time>
 </trkpt>
 <trkpt lat="47.661007" lon="13.090155">
 <ele>845.27</ele>
 <time>2011-10-23T10:45:56Z</time>
 </trkpt>
 <trkpt lat="47.660961" lon="13.090334">
 <ele>845.86</ele>
 <time>2011-10-23T10:45:59Z</time>
 </trkpt>
 <trkpt lat="47.660881" lon="13.090690">
 <ele>846.16</ele>
 <time>2011-10-23T10:46:04Z</time>
 </trkpt>
 <trkpt lat="47.660805" lon="13.090841">
 <ele>845.86</ele>
 <time>2011-10-23T10:46:06Z</time>
 </trkpt>
 <trkpt lat="47.660473" lon="13.091406">
 <ele>843.77</ele>
 <time>2011-10-23T10:46:13Z</time>
 </trkpt>
 <trkpt lat="47.660393" lon="13.091602">
 <ele>843.21</ele>
 <time>2011-10-23T10:46:15Z</time>
 </trkpt>
 <trkpt lat="47.660133" lon="13.092217">
 <ele>843.31</ele>
 <time>2011-10-23T10:46:22Z</time>
 </trkpt>
 <trkpt lat="47.660023" lon="13.092469">
 <ele>844.33</ele>
 <time>2011-10-23T10:46:26Z</time>
 </trkpt>
 <trkpt lat="47.659969" lon="13.092589">
 <ele>845.05</ele>
 <time>2011-10-23T10:46:28Z</time>
 </trkpt>
 <trkpt lat="47.659725" lon="13.093103">
 <ele>845.87</ele>
 <time>2011-10-23T10:46:36Z</time>
 </trkpt>
 <trkpt lat="47.659664" lon="13.093255">
 <ele>845.64</ele>
 <time>2011-10-23T10:46:38Z</time>
 </trkpt>
 <trkpt lat="47.659485" lon="13.093762">
 <ele>844.08</ele>
 <time>2011-10-23T10:46:44Z</time>
 </trkpt>
 <trkpt lat="47.659344" lon="13.094313">
 <ele>842.12</ele>
 <time>2011-10-23T10:46:49Z</time>
 </trkpt>
 <trkpt lat="47.659222" lon="13.095017">
 <ele>837.52</ele>
 <time>2011-10-23T10:46:54Z</time>
 </trkpt>
 <trkpt lat="47.659184" lon="13.095648">
 <ele>832.57</ele>
 <time>2011-10-23T10:46:58Z</time>
 </trkpt>
 <trkpt lat="47.659237" lon="13.096075">
 <ele>830.34</ele>
 <time>2011-10-23T10:47:01Z</time>
 </trkpt>
 <trkpt lat="47.659401" lon="13.096486">
 <ele>826.22</ele>
 <time>2011-10-23T10:47:04Z</time>
 </trkpt>
 <trkpt lat="47.659657" lon="13.096753">
 <ele>822.82</ele>
 <time>2011-10-23T10:47:07Z</time>
 </trkpt>
 <trkpt lat="47.659954" lon="13.096931">
 <ele>818.85</ele>
 <time>2011-10-23T10:47:10Z</time>
 </trkpt>
 <trkpt lat="47.660378" lon="13.096867">
 <ele>815.13</ele>
 <time>2011-10-23T10:47:14Z</time>
 </trkpt>
 <trkpt lat="47.660793" lon="13.096582">
 <ele>810.23</ele>
 <time>2011-10-23T10:47:18Z</time>
 </trkpt>
 <trkpt lat="47.661339" lon="13.095988">
 <ele>803.10</ele>
 <time>2011-10-23T10:47:24Z</time>
 </trkpt>
 <trkpt lat="47.661736" lon="13.095392">
 <ele>797.47</ele>
 <time>2011-10-23T10:47:29Z</time>
 </trkpt>
 <trkpt lat="47.662159" lon="13.094735">
 <ele>790.47</ele>
 <time>2011-10-23T10:47:34Z</time>
 </trkpt>
 <trkpt lat="47.662567" lon="13.094328">
 <ele>784.92</ele>
 <time>2011-10-23T10:47:38Z</time>
 </trkpt>
 <trkpt lat="47.662678" lon="13.094247">
 <ele>784.92</ele>
 <time>2011-10-23T10:47:39Z</time>
 </trkpt>
 <trkpt lat="47.662796" lon="13.094176">
 <ele>783.45</ele>
 <time>2011-10-23T10:47:40Z</time>
 </trkpt>
 <trkpt lat="47.663258" lon="13.094050">
 <ele>777.74</ele>
 <time>2011-10-23T10:47:44Z</time>
 </trkpt>
 <trkpt lat="47.663612" lon="13.094112">
 <ele>773.88</ele>
 <time>2011-10-23T10:47:47Z</time>
 </trkpt>
 <trkpt lat="47.664104" lon="13.094271">
 <ele>769.26</ele>
 <time>2011-10-23T10:47:51Z</time>
 </trkpt>
 <trkpt lat="47.664574" lon="13.094219">
 <ele>764.10</ele>
 <time>2011-10-23T10:47:55Z</time>
 </trkpt>
 <trkpt lat="47.664688" lon="13.094170">
 <ele>762.95</ele>
 <time>2011-10-23T10:47:56Z</time>
 </trkpt>
 <trkpt lat="47.665657" lon="13.093674">
 <ele>754.04</ele>
 <time>2011-10-23T10:48:04Z</time>
 </trkpt>
 <trkpt lat="47.666386" lon="13.093266">
 <ele>745.46</ele>
 <time>2011-10-23T10:48:10Z</time>
 </trkpt>
 <trkpt lat="47.666824" lon="13.092854">
 <ele>740.82</ele>
 <time>2011-10-23T10:48:14Z</time>
 </trkpt>
 <trkpt lat="47.667145" lon="13.092559">
 <ele>737.96</ele>
 <time>2011-10-23T10:48:17Z</time>
 </trkpt>
 <trkpt lat="47.667583" lon="13.092386">
 <ele>735.43</ele>
 <time>2011-10-23T10:48:21Z</time>
 </trkpt>
 <trkpt lat="47.667675" lon="13.092354">
 <ele>734.95</ele>
 <time>2011-10-23T10:48:22Z</time>
 </trkpt>
 <trkpt lat="47.667946" lon="13.092067">
 <ele>733.51</ele>
 <time>2011-10-23T10:48:26Z</time>
 </trkpt>
 <trkpt lat="47.668022" lon="13.091726">
 <ele>732.47</ele>
 <time>2011-10-23T10:48:29Z</time>
 </trkpt>
 <trkpt lat="47.667946" lon="13.091349">
 <ele>730.94</ele>
 <time>2011-10-23T10:48:32Z</time>
 </trkpt>
 <trkpt lat="47.667843" lon="13.091114">
 <ele>729.58</ele>
 <time>2011-10-23T10:48:34Z</time>
 </trkpt>
 <trkpt lat="47.667728" lon="13.090879">
 <ele>728.18</ele>
 <time>2011-10-23T10:48:36Z</time>
 </trkpt>
 <trkpt lat="47.667618" lon="13.090305">
 <ele>724.93</ele>
 <time>2011-10-23T10:48:41Z</time>
 </trkpt>
 <trkpt lat="47.667713" lon="13.089878">
 <ele>722.79</ele>
 <time>2011-10-23T10:48:45Z</time>
 </trkpt>
 <trkpt lat="47.667885" lon="13.089574">
 <ele>720.58</ele>
 <time>2011-10-23T10:48:48Z</time>
 </trkpt>
 <trkpt lat="47.668228" lon="13.089198">
 <ele>716.49</ele>
 <time>2011-10-23T10:48:53Z</time>
 </trkpt>
 <trkpt lat="47.668278" lon="13.089155">
 <ele>716.48</ele>
 <time>2011-10-23T10:48:54Z</time>
 </trkpt>
 <trkpt lat="47.668400" lon="13.089067">
 <ele>715.00</ele>
 <time>2011-10-23T10:48:58Z</time>
 </trkpt>
 <trkpt lat="47.668419" lon="13.089057">
 <ele>714.65</ele>
 <time>2011-10-23T10:49:01Z</time>
 </trkpt>
 <trkpt lat="47.668472" lon="13.088986">
 <ele>714.29</ele>
 <time>2011-10-23T10:49:10Z</time>
 </trkpt>
 <trkpt lat="47.668533" lon="13.088960">
 <ele>713.45</ele>
 <time>2011-10-23T10:49:14Z</time>
 </trkpt>
 <trkpt lat="47.668537" lon="13.088958">
 <ele>713.38</ele>
 <time>2011-10-23T10:49:15Z</time>
 </trkpt>
 <trkpt lat="47.668636" lon="13.088917">
 <ele>712.98</ele>
 <time>2011-10-23T10:50:24Z</time>
 </trkpt>
 <trkpt lat="47.668720" lon="13.088850">
 <ele>712.25</ele>
 <time>2011-10-23T10:50:26Z</time>
 </trkpt>
 <trkpt lat="47.668972" lon="13.088705">
 <ele>709.56</ele>
 <time>2011-10-23T10:50:30Z</time>
 </trkpt>
 <trkpt lat="47.669281" lon="13.088562">
 <ele>706.54</ele>
 <time>2011-10-23T10:50:34Z</time>
 </trkpt>
 <trkpt lat="47.669792" lon="13.088274">
 <ele>700.08</ele>
 <time>2011-10-23T10:50:39Z</time>
 </trkpt>
 <trkpt lat="47.670113" lon="13.088078">
 <ele>695.89</ele>
 <time>2011-10-23T10:50:42Z</time>
 </trkpt>
 <trkpt lat="47.670788" lon="13.087590">
 <ele>687.01</ele>
 <time>2011-10-23T10:50:48Z</time>
 </trkpt>
 <trkpt lat="47.671200" lon="13.087169">
 <ele>681.54</ele>
 <time>2011-10-23T10:50:52Z</time>
 </trkpt>
 <trkpt lat="47.671646" lon="13.086474">
 <ele>674.86</ele>
 <time>2011-10-23T10:50:57Z</time>
 </trkpt>
 <trkpt lat="47.671860" lon="13.085978">
 <ele>671.92</ele>
 <time>2011-10-23T10:51:00Z</time>
 </trkpt>
 <trkpt lat="47.672195" lon="13.084974">
 <ele>663.36</ele>
 <time>2011-10-23T10:51:06Z</time>
 </trkpt>
 <trkpt lat="47.672531" lon="13.084390">
 <ele>657.94</ele>
 <time>2011-10-23T10:51:10Z</time>
 </trkpt>
 <trkpt lat="47.672630" lon="13.084262">
 <ele>656.65</ele>
 <time>2011-10-23T10:51:11Z</time>
 </trkpt>
 <trkpt lat="47.673176" lon="13.083848">
 <ele>650.57</ele>
 <time>2011-10-23T10:51:15Z</time>
 </trkpt>
 <trkpt lat="47.673595" lon="13.083739">
 <ele>645.69</ele>
 <time>2011-10-23T10:51:18Z</time>
 </trkpt>
 <trkpt lat="47.674454" lon="13.083617">
 <ele>635.29</ele>
 <time>2011-10-23T10:51:24Z</time>
 </trkpt>
 <trkpt lat="47.674591" lon="13.083552">
 <ele>635.29</ele>
 <time>2011-10-23T10:51:25Z</time>
 </trkpt>
 <trkpt lat="47.675125" lon="13.083185">
 <ele>629.18</ele>
 <time>2011-10-23T10:51:29Z</time>
 </trkpt>
 <trkpt lat="47.675667" lon="13.082911">
 <ele>622.75</ele>
 <time>2011-10-23T10:51:33Z</time>
 </trkpt>
 <trkpt lat="47.676247" lon="13.082821">
 <ele>615.32</ele>
 <time>2011-10-23T10:51:37Z</time>
 </trkpt>
 <trkpt lat="47.676819" lon="13.082924">
 <ele>608.03</ele>
 <time>2011-10-23T10:51:41Z</time>
 </trkpt>
 <trkpt lat="47.677212" lon="13.083113">
 <ele>603.82</ele>
 <time>2011-10-23T10:51:44Z</time>
 </trkpt>
 <trkpt lat="47.677582" lon="13.083545">
 <ele>600.41</ele>
 <time>2011-10-23T10:51:48Z</time>
 </trkpt>
 <trkpt lat="47.677673" lon="13.084005">
 <ele>599.53</ele>
 <time>2011-10-23T10:51:51Z</time>
 </trkpt>
 <trkpt lat="47.677593" lon="13.084487">
 <ele>598.29</ele>
 <time>2011-10-23T10:51:54Z</time>
 </trkpt>
 <trkpt lat="47.677380" lon="13.084873">
 <ele>596.19</ele>
 <time>2011-10-23T10:51:57Z</time>
 </trkpt>
 <trkpt lat="47.677082" lon="13.085197">
 <ele>593.65</ele>
 <time>2011-10-23T10:52:00Z</time>
 </trkpt>
 <trkpt lat="47.676891" lon="13.085729">
 <ele>590.92</ele>
 <time>2011-10-23T10:52:04Z</time>
 </trkpt>
 <trkpt lat="47.676868" lon="13.086047">
 <ele>589.90</ele>
 <time>2011-10-23T10:52:06Z</time>
 </trkpt>
 <trkpt lat="47.677006" lon="13.086480">
 <ele>588.47</ele>
 <time>2011-10-23T10:52:09Z</time>
 </trkpt>
 <trkpt lat="47.677223" lon="13.086707">
 <ele>587.01</ele>
 <time>2011-10-23T10:52:11Z</time>
 </trkpt>
 <trkpt lat="47.677326" lon="13.086802">
 <ele>587.01</ele>
 <time>2011-10-23T10:52:12Z</time>
 </trkpt>
 <trkpt lat="47.677544" lon="13.086977">
 <ele>585.33</ele>
 <time>2011-10-23T10:52:14Z</time>
 </trkpt>
 <trkpt lat="47.678036" lon="13.087442">
 <ele>579.64</ele>
 <time>2011-10-23T10:52:19Z</time>
 </trkpt>
 <trkpt lat="47.678532" lon="13.087954">
 <ele>572.74</ele>
 <time>2011-10-23T10:52:24Z</time>
 </trkpt>
 <trkpt lat="47.679047" lon="13.088074">
 <ele>567.32</ele>
 <time>2011-10-23T10:52:28Z</time>
 </trkpt>
 <trkpt lat="47.679497" lon="13.088357">
 <ele>560.58</ele>
 <time>2011-10-23T10:52:33Z</time>
 </trkpt>
 <trkpt lat="47.680099" lon="13.088358">
 <ele>552.84</ele>
 <time>2011-10-23T10:52:38Z</time>
 </trkpt>
 <trkpt lat="47.680214" lon="13.088334">
 <ele>552.84</ele>
 <time>2011-10-23T10:52:39Z</time>
 </trkpt>
 <trkpt lat="47.680561" lon="13.087966">
 <ele>548.91</ele>
 <time>2011-10-23T10:52:43Z</time>
 </trkpt>
 <trkpt lat="47.680710" lon="13.087800">
 <ele>547.68</ele>
 <time>2011-10-23T10:52:45Z</time>
 </trkpt>
 <trkpt lat="47.680965" lon="13.087801">
 <ele>546.48</ele>
 <time>2011-10-23T10:52:48Z</time>
 </trkpt>
 <trkpt lat="47.681095" lon="13.088045">
 <ele>545.43</ele>
 <time>2011-10-23T10:52:51Z</time>
 </trkpt>
 <trkpt lat="47.681042" lon="13.088372">
 <ele>544.41</ele>
 <time>2011-10-23T10:52:53Z</time>
 </trkpt>
 <trkpt lat="47.681007" lon="13.088508">
 <ele>544.41</ele>
 <time>2011-10-23T10:52:54Z</time>
 </trkpt>
 <trkpt lat="47.680939" lon="13.089297">
 <ele>537.75</ele>
 <time>2011-10-23T10:52:59Z</time>
 </trkpt>
 <trkpt lat="47.680843" lon="13.089881">
 <ele>533.93</ele>
 <time>2011-10-23T10:53:03Z</time>
 </trkpt>
 <trkpt lat="47.680820" lon="13.090012">
 <ele>533.93</ele>
 <time>2011-10-23T10:53:04Z</time>
 </trkpt>
 <trkpt lat="47.680801" lon="13.090130">
 <ele>533.38</ele>
 <time>2011-10-23T10:53:05Z</time>
 </trkpt>
 <trkpt lat="47.680965" lon="13.090519">
 <ele>532.32</ele>
 <time>2011-10-23T10:53:09Z</time>
 </trkpt>
 <trkpt lat="47.681423" lon="13.090557">
 <ele>530.34</ele>
 <time>2011-10-23T10:53:14Z</time>
 </trkpt>
 <trkpt lat="47.681614" lon="13.090517">
 <ele>528.83</ele>
 <time>2011-10-23T10:53:16Z</time>
 </trkpt>
 <trkpt lat="47.682224" lon="13.090210">
 <ele>521.89</ele>
 <time>2011-10-23T10:53:22Z</time>
 </trkpt>
 <trkpt lat="47.682743" lon="13.089826">
 <ele>515.32</ele>
 <time>2011-10-23T10:53:27Z</time>
 </trkpt>
 <trkpt lat="47.682961" lon="13.089683">
 <ele>514.08</ele>
 <time>2011-10-23T10:53:29Z</time>
 </trkpt>
 <trkpt lat="47.683620" lon="13.089222">
 <ele>506.61</ele>
 <time>2011-10-23T10:53:35Z</time>
 </trkpt>
 <trkpt lat="47.684277" lon="13.088717">
 <ele>497.84</ele>
 <time>2011-10-23T10:53:41Z</time>
 </trkpt>
 <trkpt lat="47.684689" lon="13.088530">
 <ele>493.08</ele>
 <time>2011-10-23T10:53:45Z</time>
 </trkpt>
 <trkpt lat="47.685089" lon="13.088247">
 <ele>488.73</ele>
 <time>2011-10-23T10:53:49Z</time>
 </trkpt>
 <trkpt lat="47.685368" lon="13.087951">
 <ele>484.86</ele>
 <time>2011-10-23T10:53:52Z</time>
 </trkpt>
 <trkpt lat="47.685646" lon="13.087763">
 <ele>482.74</ele>
 <time>2011-10-23T10:53:55Z</time>
 </trkpt>
 <trkpt lat="47.686043" lon="13.087724">
 <ele>479.17</ele>
 <time>2011-10-23T10:53:59Z</time>
 </trkpt>
 <trkpt lat="47.686340" lon="13.087738">
 <ele>476.74</ele>
 <time>2011-10-23T10:54:02Z</time>
 </trkpt>
 <trkpt lat="47.686672" lon="13.087594">
 <ele>473.74</ele>
 <time>2011-10-23T10:54:06Z</time>
 </trkpt>
 <trkpt lat="47.686832" lon="13.087402">
 <ele>472.29</ele>
 <time>2011-10-23T10:54:09Z</time>
 </trkpt>
 <trkpt lat="47.686897" lon="13.087154">
 <ele>471.51</ele>
 <time>2011-10-23T10:54:13Z</time>
 </trkpt>
 <trkpt lat="47.686859" lon="13.086990">
 <ele>471.43</ele>
 <time>2011-10-23T10:54:17Z</time>
 </trkpt>
 <trkpt lat="47.686745" lon="13.086931">
 <ele>471.47</ele>
 <time>2011-10-23T10:54:21Z</time>
 </trkpt>
 <trkpt lat="47.686626" lon="13.087014">
 <ele>471.25</ele>
 <time>2011-10-23T10:54:24Z</time>
 </trkpt>
 <trkpt lat="47.686424" lon="13.087272">
 <ele>471.24</ele>
 <time>2011-10-23T10:54:31Z</time>
 </trkpt>
 <trkpt lat="47.686413" lon="13.087293">
 <ele>471.33</ele>
 <time>2011-10-23T10:54:32Z</time>
 </trkpt>
 <trkpt lat="47.686333" lon="13.087473">
 <ele>471.98</ele>
 <time>2011-10-23T10:55:38Z</time>
 </trkpt>
 <trkpt lat="47.686321" lon="13.087489">
 <ele>472.00</ele>
 <time>2011-10-23T10:55:39Z</time>
 </trkpt>
 <trkpt lat="47.686214" lon="13.087578">
 <ele>471.64</ele>
 <time>2011-10-23T10:55:44Z</time>
 </trkpt>
 <trkpt lat="47.686005" lon="13.087756">
 <ele>470.83</ele>
 <time>2011-10-23T10:55:50Z</time>
 </trkpt>
 <trkpt lat="47.685844" lon="13.087928">
 <ele>470.68</ele>
 <time>2011-10-23T10:55:53Z</time>
 </trkpt>
 <trkpt lat="47.685608" lon="13.088150">
 <ele>470.31</ele>
 <time>2011-10-23T10:55:58Z</time>
 </trkpt>
 <trkpt lat="47.685566" lon="13.088190">
 <ele>470.24</ele>
 <time>2011-10-23T10:55:59Z</time>
 </trkpt>
 <trkpt lat="47.685184" lon="13.088729">
 <ele>468.48</ele>
 <time>2011-10-23T10:56:08Z</time>
 </trkpt>
 <trkpt lat="47.684914" lon="13.089049">
 <ele>466.25</ele>
 <time>2011-10-23T10:56:13Z</time>
 </trkpt>
 <trkpt lat="47.684685" lon="13.089527">
 <ele>463.81</ele>
 <time>2011-10-23T10:56:18Z</time>
 </trkpt>
 <trkpt lat="47.684628" lon="13.090070">
 <ele>461.85</ele>
 <time>2011-10-23T10:56:23Z</time>
 </trkpt>
 <trkpt lat="47.684647" lon="13.090170">
 <ele>461.78</ele>
 <time>2011-10-23T10:56:24Z</time>
 </trkpt>
 <trkpt lat="47.684811" lon="13.090828">
 <ele>461.92</ele>
 <time>2011-10-23T10:56:31Z</time>
 </trkpt>
 <trkpt lat="47.684788" lon="13.091170">
 <ele>462.07</ele>
 <time>2011-10-23T10:56:35Z</time>
 </trkpt>
 <trkpt lat="47.684738" lon="13.091338">
 <ele>462.13</ele>
 <time>2011-10-23T10:56:37Z</time>
 </trkpt>
 <trkpt lat="47.684757" lon="13.091687">
 <ele>462.03</ele>
 <time>2011-10-23T10:56:41Z</time>
 </trkpt>
 <trkpt lat="47.684910" lon="13.091847">
 <ele>461.85</ele>
 <time>2011-10-23T10:56:44Z</time>
 </trkpt>
 <trkpt lat="47.685093" lon="13.091960">
 <ele>461.71</ele>
 <time>2011-10-23T10:56:47Z</time>
 </trkpt>
 <trkpt lat="47.685192" lon="13.092051">
 <ele>461.77</ele>
 <time>2011-10-23T10:56:49Z</time>
 </trkpt>
 <trkpt lat="47.685326" lon="13.092326">
 <ele>461.87</ele>
 <time>2011-10-23T10:56:53Z</time>
 </trkpt>
 <trkpt lat="47.685341" lon="13.092501">
 <ele>461.88</ele>
 <time>2011-10-23T10:56:55Z</time>
 </trkpt>
 <trkpt lat="47.685211" lon="13.093043">
 <ele>461.62</ele>
 <time>2011-10-23T10:57:01Z</time>
 </trkpt>
 <trkpt lat="47.685093" lon="13.093552">
 <ele>461.43</ele>
 <time>2011-10-23T10:57:07Z</time>
 </trkpt>
 <trkpt lat="47.684933" lon="13.093976">
 <ele>461.46</ele>
 <time>2011-10-23T10:57:12Z</time>
 </trkpt>
 <trkpt lat="47.684624" lon="13.094500">
 <ele>462.02</ele>
 <time>2011-10-23T10:57:19Z</time>
 </trkpt>
 <trkpt lat="47.684338" lon="13.094873">
 <ele>462.04</ele>
 <time>2011-10-23T10:57:25Z</time>
 </trkpt>
 <trkpt lat="47.684242" lon="13.094996">
 <ele>462.06</ele>
 <time>2011-10-23T10:57:27Z</time>
 </trkpt>
 <trkpt lat="47.684090" lon="13.095188">
 <ele>462.05</ele>
 <time>2011-10-23T10:57:30Z</time>
 </trkpt>
 <trkpt lat="47.683735" lon="13.095650">
 <ele>461.49</ele>
 <time>2011-10-23T10:57:37Z</time>
 </trkpt>
 <trkpt lat="47.683620" lon="13.095801">
 <ele>461.84</ele>
 <time>2011-10-23T10:57:40Z</time>
 </trkpt>
 <trkpt lat="47.683334" lon="13.096139">
 <ele>462.85</ele>
 <time>2011-10-23T10:57:47Z</time>
 </trkpt>
 <trkpt lat="47.683140" lon="13.096388">
 <ele>463.20</ele>
 <time>2011-10-23T10:57:53Z</time>
 </trkpt>
 <trkpt lat="47.683083" lon="13.096451">
 <ele>463.49</ele>
 <time>2011-10-23T10:57:56Z</time>
 </trkpt>
 <trkpt lat="47.683060" lon="13.096456">
 <ele>463.65</ele>
 <time>2011-10-23T10:57:59Z</time>
 </trkpt>
 <trkpt lat="47.683010" lon="13.096466">
 <ele>463.54</ele>
 <time>2011-10-23T10:58:03Z</time>
 </trkpt>
 <trkpt lat="47.682991" lon="13.096469">
 <ele>463.49</ele>
 <time>2011-10-23T10:58:05Z</time>
 </trkpt>
 <trkpt lat="47.682938" lon="13.096423">
 <ele>463.30</ele>
 <time>2011-10-23T10:58:09Z</time>
 </trkpt>
 <trkpt lat="47.682846" lon="13.096196">
 <ele>462.85</ele>
 <time>2011-10-23T10:58:15Z</time>
 </trkpt>
 <trkpt lat="47.682800" lon="13.096083">
 <ele>462.56</ele>
 <time>2011-10-23T10:58:20Z</time>
 </trkpt>
 <trkpt lat="47.682793" lon="13.096080">
 <ele>462.52</ele>
 <time>2011-10-23T10:58:21Z</time>
 </trkpt>
 <trkpt lat="47.682667" lon="13.096166">
 <ele>462.23</ele>
 <time>2011-10-23T10:58:28Z</time>
 </trkpt>
 <trkpt lat="47.682503" lon="13.096308">
 <ele>461.93</ele>
 <time>2011-10-23T10:58:33Z</time>
 </trkpt>
 <trkpt lat="47.682228" lon="13.096515">
 <ele>461.54</ele>
 <time>2011-10-23T10:58:40Z</time>
 </trkpt>
 <trkpt lat="47.681812" lon="13.096661">
 <ele>461.02</ele>
 <time>2011-10-23T10:58:49Z</time>
 </trkpt>
 <trkpt lat="47.681538" lon="13.096778">
 <ele>461.20</ele>
 <time>2011-10-23T10:58:55Z</time>
 </trkpt>
 <trkpt lat="47.681450" lon="13.096822">
 <ele>461.23</ele>
 <time>2011-10-23T10:58:57Z</time>
 </trkpt>
 <trkpt lat="47.681309" lon="13.096966">
 <ele>461.44</ele>
 <time>2011-10-23T10:59:01Z</time>
 </trkpt>
 <trkpt lat="47.681217" lon="13.097072">
 <ele>461.85</ele>
 <time>2011-10-23T10:59:04Z</time>
 </trkpt>
 <trkpt lat="47.681080" lon="13.097108">
 <ele>462.31</ele>
 <time>2011-10-23T10:59:08Z</time>
 </trkpt>
 <trkpt lat="47.680828" lon="13.097099">
 <ele>461.94</ele>
 <time>2011-10-23T10:59:14Z</time>
 </trkpt>
 <trkpt lat="47.680603" lon="13.097184">
 <ele>461.88</ele>
 <time>2011-10-23T10:59:20Z</time>
 </trkpt>
 <trkpt lat="47.680347" lon="13.097282">
 <ele>461.84</ele>
 <time>2011-10-23T10:59:27Z</time>
 </trkpt>
 <trkpt lat="47.680267" lon="13.097311">
 <ele>461.78</ele>
 <time>2011-10-23T10:59:29Z</time>
 </trkpt>
 <trkpt lat="47.679935" lon="13.097435">
 <ele>461.85</ele>
 <time>2011-10-23T10:59:37Z</time>
 </trkpt>
 <trkpt lat="47.679615" lon="13.097567">
 <ele>461.54</ele>
 <time>2011-10-23T10:59:44Z</time>
 </trkpt>
 <trkpt lat="47.679520" lon="13.097604">
 <ele>461.51</ele>
 <time>2011-10-23T10:59:46Z</time>
 </trkpt>
 <trkpt lat="47.679016" lon="13.097832">
 <ele>461.14</ele>
 <time>2011-10-23T10:59:56Z</time>
 </trkpt>
 <trkpt lat="47.678925" lon="13.097865">
 <ele>461.35</ele>
 <time>2011-10-23T10:59:58Z</time>
 </trkpt>
 <trkpt lat="47.678516" lon="13.098058">
 <ele>462.00</ele>
 <time>2011-10-23T11:00:07Z</time>
 </trkpt>
 <trkpt lat="47.678150" lon="13.098210">
 <ele>462.43</ele>
 <time>2011-10-23T11:00:15Z</time>
 </trkpt>
 <trkpt lat="47.677826" lon="13.098325">
 <ele>462.28</ele>
 <time>2011-10-23T11:00:21Z</time>
 </trkpt>
 <trkpt lat="47.677715" lon="13.098368">
 <ele>462.17</ele>
 <time>2011-10-23T11:00:23Z</time>
 </trkpt>
 <trkpt lat="47.677464" lon="13.098463">
 <ele>462.25</ele>
 <time>2011-10-23T11:00:28Z</time>
 </trkpt>
 <trkpt lat="47.677368" lon="13.098507">
 <ele>462.45</ele>
 <time>2011-10-23T11:00:30Z</time>
 </trkpt>
 <trkpt lat="47.677193" lon="13.098591">
 <ele>462.68</ele>
 <time>2011-10-23T11:00:35Z</time>
 </trkpt>
 <trkpt lat="47.677048" lon="13.098630">
 <ele>463.20</ele>
 <time>2011-10-23T11:00:41Z</time>
 </trkpt>
 <trkpt lat="47.677013" lon="13.098641">
 <ele>463.60</ele>
 <time>2011-10-23T11:00:44Z</time>
 </trkpt>
 <trkpt lat="47.676983" lon="13.098670">
 <ele>463.91</ele>
 <time>2011-10-23T11:00:47Z</time>
 </trkpt>
 <trkpt lat="47.676983" lon="13.098804">
 <ele>464.17</ele>
 <time>2011-10-23T11:00:51Z</time>
 </trkpt>
 <trkpt lat="47.677021" lon="13.099020">
 <ele>464.33</ele>
 <time>2011-10-23T11:00:55Z</time>
 </trkpt>
 <trkpt lat="47.677067" lon="13.099283">
 <ele>464.74</ele>
 <time>2011-10-23T11:01:00Z</time>
 </trkpt>
 <trkpt lat="47.677090" lon="13.099391">
 <ele>464.87</ele>
 <time>2011-10-23T11:01:02Z</time>
 </trkpt>
 <trkpt lat="47.677132" lon="13.099611">
 <ele>465.17</ele>
 <time>2011-10-23T11:01:06Z</time>
 </trkpt>
 <trkpt lat="47.677155" lon="13.099739">
 <ele>465.14</ele>
 <time>2011-10-23T11:01:08Z</time>
 </trkpt>
 <trkpt lat="47.677258" lon="13.100246">
 <ele>464.33</ele>
 <time>2011-10-23T11:01:15Z</time>
 </trkpt>
 <trkpt lat="47.677391" lon="13.100743">
 <ele>463.16</ele>
 <time>2011-10-23T11:01:21Z</time>
 </trkpt>
 <trkpt lat="47.677486" lon="13.101034">
 <ele>463.24</ele>
 <time>2011-10-23T11:01:25Z</time>
 </trkpt>
 <trkpt lat="47.677612" lon="13.101223">
 <ele>463.75</ele>
 <time>2011-10-23T11:01:29Z</time>
 </trkpt>
 <trkpt lat="47.677689" lon="13.101297">
 <ele>463.85</ele>
 <time>2011-10-23T11:01:31Z</time>
 </trkpt>
 <trkpt lat="47.677750" lon="13.101393">
 <ele>463.87</ele>
 <time>2011-10-23T11:01:33Z</time>
 </trkpt>
 <trkpt lat="47.677898" lon="13.101760">
 <ele>464.05</ele>
 <time>2011-10-23T11:01:39Z</time>
 </trkpt>
 <trkpt lat="47.678093" lon="13.102227">
 <ele>464.05</ele>
 <time>2011-10-23T11:01:46Z</time>
 </trkpt>
 <trkpt lat="47.678223" lon="13.102556">
 <ele>463.45</ele>
 <time>2011-10-23T11:01:50Z</time>
 </trkpt>
 <trkpt lat="47.678318" lon="13.102811">
 <ele>463.16</ele>
 <time>2011-10-23T11:01:53Z</time>
 </trkpt>
 <trkpt lat="47.678524" lon="13.103305">
 <ele>463.11</ele>
 <time>2011-10-23T11:01:59Z</time>
 </trkpt>
 <trkpt lat="47.678581" lon="13.103440">
 <ele>463.18</ele>
 <time>2011-10-23T11:02:01Z</time>
 </trkpt>
 <trkpt lat="47.678665" lon="13.103721">
 <ele>463.43</ele>
 <time>2011-10-23T11:02:05Z</time>
 </trkpt>
 <trkpt lat="47.678719" lon="13.103892">
 <ele>463.71</ele>
 <time>2011-10-23T11:02:08Z</time>
 </trkpt>
 <trkpt lat="47.678642" lon="13.104065">
 <ele>463.54</ele>
 <time>2011-10-23T11:02:12Z</time>
 </trkpt>
 <trkpt lat="47.678360" lon="13.104364">
 <ele>463.24</ele>
 <time>2011-10-23T11:02:19Z</time>
 </trkpt>
 <trkpt lat="47.678097" lon="13.104648">
 <ele>463.77</ele>
 <time>2011-10-23T11:02:25Z</time>
 </trkpt>
 <trkpt lat="47.677776" lon="13.104984">
 <ele>464.01</ele>
 <time>2011-10-23T11:02:32Z</time>
 </trkpt>
 <trkpt lat="47.677471" lon="13.105295">
 <ele>463.79</ele>
 <time>2011-10-23T11:02:39Z</time>
 </trkpt>
 <trkpt lat="47.677204" lon="13.105563">
 <ele>464.53</ele>
 <time>2011-10-23T11:02:45Z</time>
 </trkpt>
 <trkpt lat="47.677120" lon="13.105650">
 <ele>464.74</ele>
 <time>2011-10-23T11:02:47Z</time>
 </trkpt>
 <trkpt lat="47.676865" lon="13.105907">
 <ele>465.31</ele>
 <time>2011-10-23T11:02:53Z</time>
 </trkpt>
 <trkpt lat="47.676743" lon="13.106162">
 <ele>465.63</ele>
 <time>2011-10-23T11:02:58Z</time>
 </trkpt>
 <trkpt lat="47.676758" lon="13.106287">
 <ele>465.71</ele>
 <time>2011-10-23T11:03:00Z</time>
 </trkpt>
 <trkpt lat="47.676861" lon="13.106531">
 <ele>465.72</ele>
 <time>2011-10-23T11:03:04Z</time>
 </trkpt>
 <trkpt lat="47.677048" lon="13.106896">
 <ele>465.57</ele>
 <time>2011-10-23T11:03:10Z</time>
 </trkpt>
 <trkpt lat="47.677151" lon="13.107051">
 <ele>465.53</ele>
 <time>2011-10-23T11:03:14Z</time>
 </trkpt>
 <trkpt lat="47.677109" lon="13.107191">
 <ele>465.55</ele>
 <time>2011-10-23T11:03:17Z</time>
 </trkpt>
 <trkpt lat="47.676758" lon="13.107592">
 <ele>465.15</ele>
 <time>2011-10-23T11:03:25Z</time>
 </trkpt>
 <trkpt lat="47.676655" lon="13.107704">
 <ele>465.26</ele>
 <time>2011-10-23T11:03:27Z</time>
 </trkpt>
 <trkpt lat="47.676247" lon="13.108186">
 <ele>465.71</ele>
 <time>2011-10-23T11:03:35Z</time>
 </trkpt>
 <trkpt lat="47.676075" lon="13.108462">
 <ele>465.62</ele>
 <time>2011-10-23T11:03:39Z</time>
 </trkpt>
 <trkpt lat="47.675976" lon="13.108701">
 <ele>465.39</ele>
 <time>2011-10-23T11:03:42Z</time>
 </trkpt>
 <trkpt lat="47.675667" lon="13.109471">
 <ele>465.90</ele>
 <time>2011-10-23T11:03:51Z</time>
 </trkpt>
 <trkpt lat="47.675419" lon="13.110099">
 <ele>466.38</ele>
 <time>2011-10-23T11:03:58Z</time>
 </trkpt>
 <trkpt lat="47.675201" lon="13.110706">
 <ele>466.63</ele>
 <time>2011-10-23T11:04:05Z</time>
 </trkpt>
 <trkpt lat="47.675007" lon="13.111158">
 <ele>466.69</ele>
 <time>2011-10-23T11:04:10Z</time>
 </trkpt>
 <trkpt lat="47.674900" lon="13.111500">
 <ele>466.74</ele>
 <time>2011-10-23T11:04:15Z</time>
 </trkpt>
 <trkpt lat="47.674809" lon="13.111733">
 <ele>466.73</ele>
 <time>2011-10-23T11:04:18Z</time>
 </trkpt>
 <trkpt lat="47.674599" lon="13.112365">
 <ele>467.04</ele>
 <time>2011-10-23T11:04:23Z</time>
 </trkpt>
 <trkpt lat="47.674534" lon="13.112540">
 <ele>467.25</ele>
 <time>2011-10-23T11:04:25Z</time>
 </trkpt>
 <trkpt lat="47.674450" lon="13.112962">
 <ele>467.80</ele>
 <time>2011-10-23T11:04:30Z</time>
 </trkpt>
 <trkpt lat="47.674519" lon="13.113574">
 <ele>467.23</ele>
 <time>2011-10-23T11:04:37Z</time>
 </trkpt>
 <trkpt lat="47.674419" lon="13.114050">
 <ele>467.58</ele>
 <time>2011-10-23T11:04:42Z</time>
 </trkpt>
 <trkpt lat="47.674366" lon="13.114227">
 <ele>467.96</ele>
 <time>2011-10-23T11:04:44Z</time>
 </trkpt>
 <trkpt lat="47.674053" lon="13.114738">
 <ele>468.48</ele>
 <time>2011-10-23T11:04:50Z</time>
 </trkpt>
 <trkpt lat="47.673695" lon="13.115292">
 <ele>468.95</ele>
 <time>2011-10-23T11:04:56Z</time>
 </trkpt>
 <trkpt lat="47.673458" lon="13.115667">
 <ele>469.03</ele>
 <time>2011-10-23T11:05:01Z</time>
 </trkpt>
 <trkpt lat="47.673096" lon="13.116226">
 <ele>469.79</ele>
 <time>2011-10-23T11:05:09Z</time>
 </trkpt>
 <trkpt lat="47.672962" lon="13.116429">
 <ele>469.86</ele>
 <time>2011-10-23T11:05:12Z</time>
 </trkpt>
 <trkpt lat="47.672791" lon="13.116707">
 <ele>470.24</ele>
 <time>2011-10-23T11:05:16Z</time>
 </trkpt>
 <trkpt lat="47.672546" lon="13.117131">
 <ele>470.45</ele>
 <time>2011-10-23T11:05:22Z</time>
 </trkpt>
 <trkpt lat="47.672462" lon="13.117277">
 <ele>470.54</ele>
 <time>2011-10-23T11:05:24Z</time>
 </trkpt>
 <trkpt lat="47.672115" lon="13.117854">
 <ele>471.14</ele>
 <time>2011-10-23T11:05:32Z</time>
 </trkpt>
 <trkpt lat="47.671810" lon="13.118398">
 <ele>471.26</ele>
 <time>2011-10-23T11:05:39Z</time>
 </trkpt>
 <trkpt lat="47.671719" lon="13.118552">
 <ele>471.34</ele>
 <time>2011-10-23T11:05:41Z</time>
 </trkpt>
 <trkpt lat="47.671543" lon="13.118878">
 <ele>471.30</ele>
 <time>2011-10-23T11:05:45Z</time>
 </trkpt>
 <trkpt lat="47.671104" lon="13.119666">
 <ele>471.49</ele>
 <time>2011-10-23T11:05:55Z</time>
 </trkpt>
 <trkpt lat="47.671017" lon="13.119817">
 <ele>471.49</ele>
 <time>2011-10-23T11:05:57Z</time>
 </trkpt>
 <trkpt lat="47.670933" lon="13.119972">
 <ele>471.55</ele>
 <time>2011-10-23T11:05:59Z</time>
 </trkpt>
 <trkpt lat="47.670563" lon="13.120580">
 <ele>471.57</ele>
 <time>2011-10-23T11:06:07Z</time>
 </trkpt>
 <trkpt lat="47.670139" lon="13.121106">
 <ele>471.89</ele>
 <time>2011-10-23T11:06:15Z</time>
 </trkpt>
 <trkpt lat="47.669678" lon="13.121501">
 <ele>471.99</ele>
 <time>2011-10-23T11:06:23Z</time>
 </trkpt>
 <trkpt lat="47.669075" lon="13.121864">
 <ele>472.01</ele>
 <time>2011-10-23T11:06:32Z</time>
 </trkpt>
 <trkpt lat="47.668438" lon="13.122069">
 <ele>472.23</ele>
 <time>2011-10-23T11:06:41Z</time>
 </trkpt>
 <trkpt lat="47.668293" lon="13.122085">
 <ele>472.29</ele>
 <time>2011-10-23T11:06:43Z</time>
 </trkpt>
 <trkpt lat="47.667778" lon="13.122103">
 <ele>472.37</ele>
 <time>2011-10-23T11:06:50Z</time>
 </trkpt>
 <trkpt lat="47.667061" lon="13.122020">
 <ele>472.64</ele>
 <time>2011-10-23T11:07:00Z</time>
 </trkpt>
 <trkpt lat="47.666710" lon="13.122001">
 <ele>472.77</ele>
 <time>2011-10-23T11:07:05Z</time>
 </trkpt>
 <trkpt lat="47.666584" lon="13.122000">
 <ele>472.74</ele>
 <time>2011-10-23T11:07:07Z</time>
 </trkpt>
 <trkpt lat="47.666149" lon="13.122064">
 <ele>472.43</ele>
 <time>2011-10-23T11:07:14Z</time>
 </trkpt>
 <trkpt lat="47.665771" lon="13.122223">
 <ele>472.70</ele>
 <time>2011-10-23T11:07:20Z</time>
 </trkpt>
 <trkpt lat="47.665337" lon="13.122536">
 <ele>473.21</ele>
 <time>2011-10-23T11:07:27Z</time>
 </trkpt>
 <trkpt lat="47.665005" lon="13.122872">
 <ele>474.26</ele>
 <time>2011-10-23T11:07:33Z</time>
 </trkpt>
 <trkpt lat="47.664909" lon="13.122992">
 <ele>474.52</ele>
 <time>2011-10-23T11:07:35Z</time>
 </trkpt>
 <trkpt lat="47.664597" lon="13.123406">
 <ele>475.21</ele>
 <time>2011-10-23T11:07:42Z</time>
 </trkpt>
 <trkpt lat="47.664272" lon="13.123852">
 <ele>476.84</ele>
 <time>2011-10-23T11:07:50Z</time>
 </trkpt>
 <trkpt lat="47.664040" lon="13.124166">
 <ele>477.43</ele>
 <time>2011-10-23T11:07:56Z</time>
 </trkpt>
 <trkpt lat="47.664009" lon="13.124203">
 <ele>477.47</ele>
 <time>2011-10-23T11:07:57Z</time>
 </trkpt>
 <trkpt lat="47.663712" lon="13.124416">
 <ele>478.03</ele>
 <time>2011-10-23T11:08:04Z</time>
 </trkpt>
 <trkpt lat="47.663429" lon="13.124510">
 <ele>478.67</ele>
 <time>2011-10-23T11:08:09Z</time>
 </trkpt>
 <trkpt lat="47.663315" lon="13.124520">
 <ele>478.97</ele>
 <time>2011-10-23T11:08:11Z</time>
 </trkpt>
 <trkpt lat="47.663208" lon="13.124521">
 <ele>479.24</ele>
 <time>2011-10-23T11:08:13Z</time>
 </trkpt>
 <trkpt lat="47.663158" lon="13.124519">
 <ele>479.41</ele>
 <time>2011-10-23T11:08:14Z</time>
 </trkpt>
 <trkpt lat="47.662880" lon="13.124485">
 <ele>479.95</ele>
 <time>2011-10-23T11:08:19Z</time>
 </trkpt>
 <trkpt lat="47.662758" lon="13.124476">
 <ele>480.12</ele>
 <time>2011-10-23T11:08:21Z</time>
 </trkpt>
 <trkpt lat="47.662445" lon="13.124428">
 <ele>480.39</ele>
 <time>2011-10-23T11:08:26Z</time>
 </trkpt>
 <trkpt lat="47.662083" lon="13.124401">
 <ele>480.44</ele>
 <time>2011-10-23T11:08:31Z</time>
 </trkpt>
 <trkpt lat="47.661812" lon="13.124352">
 <ele>480.83</ele>
 <time>2011-10-23T11:08:35Z</time>
 </trkpt>
 <trkpt lat="47.661457" lon="13.124297">
 <ele>481.04</ele>
 <time>2011-10-23T11:08:40Z</time>
 </trkpt>
 <trkpt lat="47.661186" lon="13.124274">
 <ele>481.10</ele>
 <time>2011-10-23T11:08:44Z</time>
 </trkpt>
 <trkpt lat="47.660759" lon="13.124311">
 <ele>481.19</ele>
 <time>2011-10-23T11:08:50Z</time>
 </trkpt>
 <trkpt lat="47.660374" lon="13.124450">
 <ele>481.78</ele>
 <time>2011-10-23T11:08:56Z</time>
 </trkpt>
 <trkpt lat="47.660027" lon="13.124588">
 <ele>482.56</ele>
 <time>2011-10-23T11:09:02Z</time>
 </trkpt>
 <trkpt lat="47.659786" lon="13.124690">
 <ele>483.16</ele>
 <time>2011-10-23T11:09:06Z</time>
 </trkpt>
 <trkpt lat="47.659504" lon="13.124802">
 <ele>484.15</ele>
 <time>2011-10-23T11:09:11Z</time>
 </trkpt>
 <trkpt lat="47.659393" lon="13.124848">
 <ele>484.38</ele>
 <time>2011-10-23T11:09:13Z</time>
 </trkpt>
 <trkpt lat="47.659073" lon="13.124982">
 <ele>485.22</ele>
 <time>2011-10-23T11:09:19Z</time>
 </trkpt>
 <trkpt lat="47.658966" lon="13.125018">
 <ele>485.43</ele>
 <time>2011-10-23T11:09:21Z</time>
 </trkpt>
 <trkpt lat="47.658573" lon="13.125187">
 <ele>486.10</ele>
 <time>2011-10-23T11:09:28Z</time>
 </trkpt>
 <trkpt lat="47.658222" lon="13.125325">
 <ele>486.01</ele>
 <time>2011-10-23T11:09:34Z</time>
 </trkpt>
 <trkpt lat="47.658096" lon="13.125380">
 <ele>485.90</ele>
 <time>2011-10-23T11:09:36Z</time>
 </trkpt>
 <trkpt lat="47.657635" lon="13.125595">
 <ele>485.30</ele>
 <time>2011-10-23T11:09:43Z</time>
 </trkpt>
 <trkpt lat="47.657364" lon="13.125753">
 <ele>484.92</ele>
 <time>2011-10-23T11:09:47Z</time>
 </trkpt>
 <trkpt lat="47.657227" lon="13.125849">
 <ele>484.54</ele>
 <time>2011-10-23T11:09:49Z</time>
 </trkpt>
 <trkpt lat="47.656780" lon="13.126264">
 <ele>483.42</ele>
 <time>2011-10-23T11:09:55Z</time>
 </trkpt>
 <trkpt lat="47.656410" lon="13.126707">
 <ele>482.22</ele>
 <time>2011-10-23T11:10:01Z</time>
 </trkpt>
 <trkpt lat="47.656067" lon="13.127143">
 <ele>480.96</ele>
 <time>2011-10-23T11:10:07Z</time>
 </trkpt>
 <trkpt lat="47.655674" lon="13.127641">
 <ele>480.84</ele>
 <time>2011-10-23T11:10:14Z</time>
 </trkpt>
 <trkpt lat="47.655560" lon="13.127767">
 <ele>480.89</ele>
 <time>2011-10-23T11:10:16Z</time>
 </trkpt>
 <trkpt lat="47.655228" lon="13.128032">
 <ele>479.75</ele>
 <time>2011-10-23T11:10:21Z</time>
 </trkpt>
 <trkpt lat="47.654785" lon="13.128193">
 <ele>479.14</ele>
 <time>2011-10-23T11:10:27Z</time>
 </trkpt>
 <trkpt lat="47.654396" lon="13.128195">
 <ele>478.54</ele>
 <time>2011-10-23T11:10:32Z</time>
 </trkpt>
 <trkpt lat="47.653698" lon="13.128077">
 <ele>477.89</ele>
 <time>2011-10-23T11:10:41Z</time>
 </trkpt>
 <trkpt lat="47.653091" lon="13.127986">
 <ele>477.77</ele>
 <time>2011-10-23T11:10:49Z</time>
 </trkpt>
 <trkpt lat="47.652943" lon="13.127988">
 <ele>477.56</ele>
 <time>2011-10-23T11:10:51Z</time>
 </trkpt>
 <trkpt lat="47.652428" lon="13.128107">
 <ele>477.55</ele>
 <time>2011-10-23T11:10:58Z</time>
 </trkpt>
 <trkpt lat="47.651871" lon="13.128398">
 <ele>477.76</ele>
 <time>2011-10-23T11:11:06Z</time>
 </trkpt>
 <trkpt lat="47.651535" lon="13.128573">
 <ele>477.44</ele>
 <time>2011-10-23T11:11:11Z</time>
 </trkpt>
 <trkpt lat="47.651398" lon="13.128644">
 <ele>477.48</ele>
 <time>2011-10-23T11:11:13Z</time>
 </trkpt>
 <trkpt lat="47.651054" lon="13.128822">
 <ele>477.53</ele>
 <time>2011-10-23T11:11:18Z</time>
 </trkpt>
 <trkpt lat="47.650921" lon="13.128887">
 <ele>477.71</ele>
 <time>2011-10-23T11:11:20Z</time>
 </trkpt>
 <trkpt lat="47.650383" lon="13.129187">
 <ele>478.10</ele>
 <time>2011-10-23T11:11:28Z</time>
 </trkpt>
 <trkpt lat="47.650269" lon="13.129300">
 <ele>478.42</ele>
 <time>2011-10-23T11:11:30Z</time>
 </trkpt>
 <trkpt lat="47.650032" lon="13.129671">
 <ele>478.99</ele>
 <time>2011-10-23T11:11:35Z</time>
 </trkpt>
 <trkpt lat="47.649956" lon="13.129848">
 <ele>478.72</ele>
 <time>2011-10-23T11:11:37Z</time>
 </trkpt>
 <trkpt lat="47.649597" lon="13.130600">
 <ele>478.67</ele>
 <time>2011-10-23T11:11:46Z</time>
 </trkpt>
 <trkpt lat="47.649151" lon="13.131247">
 <ele>478.48</ele>
 <time>2011-10-23T11:11:55Z</time>
 </trkpt>
 <trkpt lat="47.648834" lon="13.131588">
 <ele>480.30</ele>
 <time>2011-10-23T11:12:02Z</time>
 </trkpt>
 <trkpt lat="47.648746" lon="13.131668">
 <ele>480.94</ele>
 <time>2011-10-23T11:12:04Z</time>
 </trkpt>
 <trkpt lat="47.648518" lon="13.131836">
 <ele>482.40</ele>
 <time>2011-10-23T11:12:09Z</time>
 </trkpt>
 <trkpt lat="47.648140" lon="13.132042">
 <ele>483.86</ele>
 <time>2011-10-23T11:12:17Z</time>
 </trkpt>
 <trkpt lat="47.647751" lon="13.132164">
 <ele>485.09</ele>
 <time>2011-10-23T11:12:25Z</time>
 </trkpt>
 <trkpt lat="47.647400" lon="13.132211">
 <ele>486.24</ele>
 <time>2011-10-23T11:12:32Z</time>
 </trkpt>
 <trkpt lat="47.647301" lon="13.132220">
 <ele>486.70</ele>
 <time>2011-10-23T11:12:34Z</time>
 </trkpt>
 <trkpt lat="47.646870" lon="13.132307">
 <ele>487.50</ele>
 <time>2011-10-23T11:12:42Z</time>
 </trkpt>
 <trkpt lat="47.646538" lon="13.132430">
 <ele>488.14</ele>
 <time>2011-10-23T11:12:48Z</time>
 </trkpt>
 <trkpt lat="47.646423" lon="13.132488">
 <ele>488.36</ele>
 <time>2011-10-23T11:12:50Z</time>
 </trkpt>
 <trkpt lat="47.646252" lon="13.132586">
 <ele>488.34</ele>
 <time>2011-10-23T11:12:53Z</time>
 </trkpt>
 <trkpt lat="47.645760" lon="13.132994">
 <ele>487.99</ele>
 <time>2011-10-23T11:13:02Z</time>
 </trkpt>
 <trkpt lat="47.645294" lon="13.133408">
 <ele>487.39</ele>
 <time>2011-10-23T11:13:10Z</time>
 </trkpt>
 <trkpt lat="47.644978" lon="13.133653">
 <ele>486.73</ele>
 <time>2011-10-23T11:13:15Z</time>
 </trkpt>
 <trkpt lat="47.644848" lon="13.133740">
 <ele>486.52</ele>
 <time>2011-10-23T11:13:17Z</time>
 </trkpt>
 <trkpt lat="47.644234" lon="13.134116">
 <ele>486.03</ele>
 <time>2011-10-23T11:13:26Z</time>
 </trkpt>
 <trkpt lat="47.643684" lon="13.134411">
 <ele>485.73</ele>
 <time>2011-10-23T11:13:34Z</time>
 </trkpt>
 <trkpt lat="47.643173" lon="13.134592">
 <ele>484.99</ele>
 <time>2011-10-23T11:13:41Z</time>
 </trkpt>
 <trkpt lat="47.642551" lon="13.134714">
 <ele>484.01</ele>
 <time>2011-10-23T11:13:49Z</time>
 </trkpt>
 <trkpt lat="47.642052" lon="13.134871">
 <ele>483.31</ele>
 <time>2011-10-23T11:13:55Z</time>
 </trkpt>
 <trkpt lat="47.641537" lon="13.135161">
 <ele>481.93</ele>
 <time>2011-10-23T11:14:01Z</time>
 </trkpt>
 <trkpt lat="47.641144" lon="13.135515">
 <ele>480.62</ele>
 <time>2011-10-23T11:14:06Z</time>
 </trkpt>
 <trkpt lat="47.640854" lon="13.135871">
 <ele>479.72</ele>
 <time>2011-10-23T11:14:10Z</time>
 </trkpt>
 <trkpt lat="47.640793" lon="13.135989">
 <ele>479.52</ele>
 <time>2011-10-23T11:14:11Z</time>
 </trkpt>
 <trkpt lat="47.640625" lon="13.136260">
 <ele>478.65</ele>
 <time>2011-10-23T11:14:14Z</time>
 </trkpt>
 <trkpt lat="47.640148" lon="13.136922">
 <ele>478.36</ele>
 <time>2011-10-23T11:14:22Z</time>
 </trkpt>
 <trkpt lat="47.639683" lon="13.137410">
 <ele>478.21</ele>
 <time>2011-10-23T11:14:29Z</time>
 </trkpt>
 <trkpt lat="47.639160" lon="13.137734">
 <ele>478.05</ele>
 <time>2011-10-23T11:14:36Z</time>
 </trkpt>
 <trkpt lat="47.638542" lon="13.137903">
 <ele>478.02</ele>
 <time>2011-10-23T11:14:44Z</time>
 </trkpt>
 <trkpt lat="47.637772" lon="13.138116">
 <ele>477.14</ele>
 <time>2011-10-23T11:14:54Z</time>
 </trkpt>
 <trkpt lat="47.637119" lon="13.138320">
 <ele>477.20</ele>
 <time>2011-10-23T11:15:03Z</time>
 </trkpt>
 <trkpt lat="47.636261" lon="13.138568">
 <ele>477.20</ele>
 <time>2011-10-23T11:15:15Z</time>
 </trkpt>
 <trkpt lat="47.635414" lon="13.138805">
 <ele>477.71</ele>
 <time>2011-10-23T11:15:27Z</time>
 </trkpt>
 <trkpt lat="47.635063" lon="13.138893">
 <ele>477.84</ele>
 <time>2011-10-23T11:15:32Z</time>
 </trkpt>
 <trkpt lat="47.634720" lon="13.138981">
 <ele>477.87</ele>
 <time>2011-10-23T11:15:37Z</time>
 </trkpt>
 <trkpt lat="47.634586" lon="13.139019">
 <ele>477.85</ele>
 <time>2011-10-23T11:15:39Z</time>
 </trkpt>
 <trkpt lat="47.633911" lon="13.139239">
 <ele>478.55</ele>
 <time>2011-10-23T11:15:49Z</time>
 </trkpt>
 <trkpt lat="47.633701" lon="13.139326">
 <ele>478.81</ele>
 <time>2011-10-23T11:15:52Z</time>
 </trkpt>
 <trkpt lat="47.633060" lon="13.139629">
 <ele>479.04</ele>
 <time>2011-10-23T11:16:01Z</time>
 </trkpt>
 <trkpt lat="47.632923" lon="13.139707">
 <ele>478.97</ele>
 <time>2011-10-23T11:16:03Z</time>
 </trkpt>
 <trkpt lat="47.632378" lon="13.140043">
 <ele>478.83</ele>
 <time>2011-10-23T11:16:11Z</time>
 </trkpt>
 <trkpt lat="47.632248" lon="13.140133">
 <ele>478.67</ele>
 <time>2011-10-23T11:16:13Z</time>
 </trkpt>
 <trkpt lat="47.631905" lon="13.140337">
 <ele>478.48</ele>
 <time>2011-10-23T11:16:18Z</time>
 </trkpt>
 <trkpt lat="47.631767" lon="13.140414">
 <ele>478.63</ele>
 <time>2011-10-23T11:16:20Z</time>
 </trkpt>
 <trkpt lat="47.631145" lon="13.140692">
 <ele>478.55</ele>
 <time>2011-10-23T11:16:29Z</time>
 </trkpt>
 <trkpt lat="47.631004" lon="13.140751">
 <ele>478.40</ele>
 <time>2011-10-23T11:16:31Z</time>
 </trkpt>
 <trkpt lat="47.630234" lon="13.141089">
 <ele>478.50</ele>
 <time>2011-10-23T11:16:42Z</time>
 </trkpt>
 <trkpt lat="47.629780" lon="13.141376">
 <ele>478.09</ele>
 <time>2011-10-23T11:16:49Z</time>
 </trkpt>
 <trkpt lat="47.629654" lon="13.141473">
 <ele>477.92</ele>
 <time>2011-10-23T11:16:51Z</time>
 </trkpt>
 <trkpt lat="47.629536" lon="13.141581">
 <ele>477.83</ele>
 <time>2011-10-23T11:16:53Z</time>
 </trkpt>
 <trkpt lat="47.629303" lon="13.141805">
 <ele>477.84</ele>
 <time>2011-10-23T11:16:57Z</time>
 </trkpt>
 <trkpt lat="47.628979" lon="13.142216">
 <ele>477.86</ele>
 <time>2011-10-23T11:17:03Z</time>
 </trkpt>
 <trkpt lat="47.628544" lon="13.142922">
 <ele>478.09</ele>
 <time>2011-10-23T11:17:12Z</time>
 </trkpt>
 <trkpt lat="47.628208" lon="13.143544">
 <ele>478.78</ele>
 <time>2011-10-23T11:17:20Z</time>
 </trkpt>
 <trkpt lat="47.627956" lon="13.143930">
 <ele>479.90</ele>
 <time>2011-10-23T11:17:26Z</time>
 </trkpt>
 <trkpt lat="47.627712" lon="13.144247">
 <ele>481.56</ele>
 <time>2011-10-23T11:17:32Z</time>
 </trkpt>
 <trkpt lat="47.627468" lon="13.144494">
 <ele>483.05</ele>
 <time>2011-10-23T11:17:39Z</time>
 </trkpt>
 <trkpt lat="47.627369" lon="13.144576">
 <ele>483.42</ele>
 <time>2011-10-23T11:17:42Z</time>
 </trkpt>
 <trkpt lat="47.627266" lon="13.144666">
 <ele>484.11</ele>
 <time>2011-10-23T11:17:45Z</time>
 </trkpt>
 <trkpt lat="47.627190" lon="13.144734">
 <ele>484.20</ele>
 <time>2011-10-23T11:17:47Z</time>
 </trkpt>
 <trkpt lat="47.627110" lon="13.144817">
 <ele>484.48</ele>
 <time>2011-10-23T11:17:49Z</time>
 </trkpt>
 <trkpt lat="47.626984" lon="13.144965">
 <ele>484.71</ele>
 <time>2011-10-23T11:17:52Z</time>
 </trkpt>
 <trkpt lat="47.626751" lon="13.145324">
 <ele>484.65</ele>
 <time>2011-10-23T11:17:57Z</time>
 </trkpt>
 <trkpt lat="47.626606" lon="13.145667">
 <ele>484.23</ele>
 <time>2011-10-23T11:18:02Z</time>
 </trkpt>
 <trkpt lat="47.626419" lon="13.146183">
 <ele>484.07</ele>
 <time>2011-10-23T11:18:09Z</time>
 </trkpt>
 <trkpt lat="47.626202" lon="13.146705">
 <ele>484.95</ele>
 <time>2011-10-23T11:18:16Z</time>
 </trkpt>
 <trkpt lat="47.625858" lon="13.147309">
 <ele>485.73</ele>
 <time>2011-10-23T11:18:24Z</time>
 </trkpt>
 <trkpt lat="47.625526" lon="13.147847">
 <ele>485.73</ele>
 <time>2011-10-23T11:18:32Z</time>
 </trkpt>
 <trkpt lat="47.625385" lon="13.148026">
 <ele>485.74</ele>
 <time>2011-10-23T11:18:35Z</time>
 </trkpt>
 <trkpt lat="47.625336" lon="13.148084">
 <ele>485.75</ele>
 <time>2011-10-23T11:18:36Z</time>
 </trkpt>
 <trkpt lat="47.625237" lon="13.148198">
 <ele>485.78</ele>
 <time>2011-10-23T11:18:38Z</time>
 </trkpt>
 <trkpt lat="47.625187" lon="13.148257">
 <ele>485.78</ele>
 <time>2011-10-23T11:18:39Z</time>
 </trkpt>
 <trkpt lat="47.625034" lon="13.148437">
 <ele>485.86</ele>
 <time>2011-10-23T11:18:42Z</time>
 </trkpt>
 <trkpt lat="47.624775" lon="13.148754">
 <ele>485.75</ele>
 <time>2011-10-23T11:18:47Z</time>
 </trkpt>
 <trkpt lat="47.624676" lon="13.148885">
 <ele>485.69</ele>
 <time>2011-10-23T11:18:49Z</time>
 </trkpt>
 <trkpt lat="47.624531" lon="13.149071">
 <ele>486.10</ele>
 <time>2011-10-23T11:18:52Z</time>
 </trkpt>
 <trkpt lat="47.624180" lon="13.149488">
 <ele>486.89</ele>
 <time>2011-10-23T11:18:59Z</time>
 </trkpt>
 <trkpt lat="47.624001" lon="13.149683">
 <ele>486.78</ele>
 <time>2011-10-23T11:19:03Z</time>
 </trkpt>
 <trkpt lat="47.623535" lon="13.150237">
 <ele>487.32</ele>
 <time>2011-10-23T11:19:11Z</time>
 </trkpt>
 <trkpt lat="47.622955" lon="13.150928">
 <ele>487.13</ele>
 <time>2011-10-23T11:19:22Z</time>
 </trkpt>
 <trkpt lat="47.622532" lon="13.151440">
 <ele>486.85</ele>
 <time>2011-10-23T11:19:30Z</time>
 </trkpt>
 <trkpt lat="47.622433" lon="13.151575">
 <ele>486.71</ele>
 <time>2011-10-23T11:19:32Z</time>
 </trkpt>
 <trkpt lat="47.621990" lon="13.152210">
 <ele>487.33</ele>
 <time>2011-10-23T11:19:41Z</time>
 </trkpt>
 <trkpt lat="47.621761" lon="13.152586">
 <ele>487.31</ele>
 <time>2011-10-23T11:19:46Z</time>
 </trkpt>
 <trkpt lat="47.621368" lon="13.153332">
 <ele>488.06</ele>
 <time>2011-10-23T11:19:55Z</time>
 </trkpt>
 <trkpt lat="47.621166" lon="13.153772">
 <ele>488.24</ele>
 <time>2011-10-23T11:20:00Z</time>
 </trkpt>
 <trkpt lat="47.621086" lon="13.153957">
 <ele>488.37</ele>
 <time>2011-10-23T11:20:02Z</time>
 </trkpt>
 <trkpt lat="47.620705" lon="13.154898">
 <ele>487.98</ele>
 <time>2011-10-23T11:20:12Z</time>
 </trkpt>
 <trkpt lat="47.620373" lon="13.155703">
 <ele>487.46</ele>
 <time>2011-10-23T11:20:21Z</time>
 </trkpt>
 <trkpt lat="47.620193" lon="13.156133">
 <ele>487.94</ele>
 <time>2011-10-23T11:20:26Z</time>
 </trkpt>
 <trkpt lat="47.620121" lon="13.156303">
 <ele>488.11</ele>
 <time>2011-10-23T11:20:28Z</time>
 </trkpt>
 <trkpt lat="47.619759" lon="13.157041">
 <ele>488.64</ele>
 <time>2011-10-23T11:20:37Z</time>
 </trkpt>
 <trkpt lat="47.619629" lon="13.157276">
 <ele>488.52</ele>
 <time>2011-10-23T11:20:40Z</time>
 </trkpt>
 <trkpt lat="47.619217" lon="13.157930">
 <ele>489.17</ele>
 <time>2011-10-23T11:20:49Z</time>
 </trkpt>
 <trkpt lat="47.619118" lon="13.158072">
 <ele>489.14</ele>
 <time>2011-10-23T11:20:51Z</time>
 </trkpt>
 <trkpt lat="47.618732" lon="13.158636">
 <ele>489.39</ele>
 <time>2011-10-23T11:20:59Z</time>
 </trkpt>
 <trkpt lat="47.618290" lon="13.159273">
 <ele>489.79</ele>
 <time>2011-10-23T11:21:08Z</time>
 </trkpt>
 <trkpt lat="47.618191" lon="13.159418">
 <ele>489.76</ele>
 <time>2011-10-23T11:21:10Z</time>
 </trkpt>
 <trkpt lat="47.618092" lon="13.159558">
 <ele>489.74</ele>
 <time>2011-10-23T11:21:12Z</time>
 </trkpt>
 <trkpt lat="47.617649" lon="13.160211">
 <ele>489.62</ele>
 <time>2011-10-23T11:21:21Z</time>
 </trkpt>
 <trkpt lat="47.617458" lon="13.160489">
 <ele>489.75</ele>
 <time>2011-10-23T11:21:25Z</time>
 </trkpt>
 <trkpt lat="47.616940" lon="13.161255">
 <ele>490.08</ele>
 <time>2011-10-23T11:21:36Z</time>
 </trkpt>
 <trkpt lat="47.616844" lon="13.161391">
 <ele>490.36</ele>
 <time>2011-10-23T11:21:38Z</time>
 </trkpt>
 <trkpt lat="47.616352" lon="13.162116">
 <ele>491.36</ele>
 <time>2011-10-23T11:21:49Z</time>
 </trkpt>
 <trkpt lat="47.616123" lon="13.162454">
 <ele>491.80</ele>
 <time>2011-10-23T11:21:54Z</time>
 </trkpt>
 <trkpt lat="47.615616" lon="13.163192">
 <ele>492.69</ele>
 <time>2011-10-23T11:22:05Z</time>
 </trkpt>
 <trkpt lat="47.615524" lon="13.163320">
 <ele>492.95</ele>
 <time>2011-10-23T11:22:07Z</time>
 </trkpt>
 <trkpt lat="47.615349" lon="13.163583">
 <ele>493.74</ele>
 <time>2011-10-23T11:22:11Z</time>
 </trkpt>
 <trkpt lat="47.615101" lon="13.163944">
 <ele>494.49</ele>
 <time>2011-10-23T11:22:17Z</time>
 </trkpt>
 <trkpt lat="47.615021" lon="13.164062">
 <ele>494.69</ele>
 <time>2011-10-23T11:22:19Z</time>
 </trkpt>
 <trkpt lat="47.614902" lon="13.164241">
 <ele>495.01</ele>
 <time>2011-10-23T11:22:22Z</time>
 </trkpt>
 <trkpt lat="47.614643" lon="13.164615">
 <ele>495.97</ele>
 <time>2011-10-23T11:22:29Z</time>
 </trkpt>
 <trkpt lat="47.614613" lon="13.164663">
 <ele>496.03</ele>
 <time>2011-10-23T11:22:30Z</time>
 </trkpt>
 <trkpt lat="47.614479" lon="13.164736">
 <ele>496.31</ele>
 <time>2011-10-23T11:22:33Z</time>
 </trkpt>
 <trkpt lat="47.614388" lon="13.164778">
 <ele>496.40</ele>
 <time>2011-10-23T11:22:35Z</time>
 </trkpt>
 <trkpt lat="47.614315" lon="13.164867">
 <ele>496.38</ele>
 <time>2011-10-23T11:22:37Z</time>
 </trkpt>
 <trkpt lat="47.614250" lon="13.164985">
 <ele>496.28</ele>
 <time>2011-10-23T11:22:39Z</time>
 </trkpt>
 <trkpt lat="47.614170" lon="13.165205">
 <ele>496.00</ele>
 <time>2011-10-23T11:22:42Z</time>
 </trkpt>
 <trkpt lat="47.613815" lon="13.165796">
 <ele>495.89</ele>
 <time>2011-10-23T11:22:51Z</time>
 </trkpt>
 <trkpt lat="47.613407" lon="13.166260">
 <ele>495.88</ele>
 <time>2011-10-23T11:22:59Z</time>
 </trkpt>
 <trkpt lat="47.612900" lon="13.166694">
 <ele>496.07</ele>
 <time>2011-10-23T11:23:08Z</time>
 </trkpt>
 <trkpt lat="47.612389" lon="13.166997">
 <ele>495.90</ele>
 <time>2011-10-23T11:23:16Z</time>
 </trkpt>
 <trkpt lat="47.611778" lon="13.167238">
 <ele>496.22</ele>
 <time>2011-10-23T11:23:25Z</time>
 </trkpt>
 <trkpt lat="47.611572" lon="13.167293">
 <ele>496.32</ele>
 <time>2011-10-23T11:23:28Z</time>
 </trkpt>
 <trkpt lat="47.610996" lon="13.167376">
 <ele>496.13</ele>
 <time>2011-10-23T11:23:36Z</time>
 </trkpt>
 <trkpt lat="47.610420" lon="13.167426">
 <ele>495.15</ele>
 <time>2011-10-23T11:23:44Z</time>
 </trkpt>
 <trkpt lat="47.610275" lon="13.167439">
 <ele>494.98</ele>
 <time>2011-10-23T11:23:46Z</time>
 </trkpt>
 <trkpt lat="47.609612" lon="13.167521">
 <ele>494.70</ele>
 <time>2011-10-23T11:23:55Z</time>
 </trkpt>
 <trkpt lat="47.609077" lon="13.167526">
 <ele>493.45</ele>
 <time>2011-10-23T11:24:02Z</time>
 </trkpt>
 <trkpt lat="47.608513" lon="13.167577">
 <ele>492.29</ele>
 <time>2011-10-23T11:24:09Z</time>
 </trkpt>
 <trkpt lat="47.607922" lon="13.167690">
 <ele>490.53</ele>
 <time>2011-10-23T11:24:16Z</time>
 </trkpt>
 <trkpt lat="47.607265" lon="13.167755">
 <ele>490.19</ele>
 <time>2011-10-23T11:24:24Z</time>
 </trkpt>
 <trkpt lat="47.606590" lon="13.167801">
 <ele>490.67</ele>
 <time>2011-10-23T11:24:33Z</time>
 </trkpt>
 <trkpt lat="47.606319" lon="13.167833">
 <ele>490.71</ele>
 <time>2011-10-23T11:24:37Z</time>
 </trkpt>
 <trkpt lat="47.606182" lon="13.167845">
 <ele>490.94</ele>
 <time>2011-10-23T11:24:39Z</time>
 </trkpt>
 <trkpt lat="47.605984" lon="13.167865">
 <ele>491.20</ele>
 <time>2011-10-23T11:24:42Z</time>
 </trkpt>
 <trkpt lat="47.605507" lon="13.167914">
 <ele>492.90</ele>
 <time>2011-10-23T11:24:50Z</time>
 </trkpt>
 <trkpt lat="47.605320" lon="13.167927">
 <ele>492.98</ele>
 <time>2011-10-23T11:24:53Z</time>
 </trkpt>
 <trkpt lat="47.604733" lon="13.167991">
 <ele>492.73</ele>
 <time>2011-10-23T11:25:02Z</time>
 </trkpt>
 <trkpt lat="47.604134" lon="13.168043">
 <ele>491.87</ele>
 <time>2011-10-23T11:25:11Z</time>
 </trkpt>
 <trkpt lat="47.603470" lon="13.168074">
 <ele>492.10</ele>
 <time>2011-10-23T11:25:21Z</time>
 </trkpt>
 <trkpt lat="47.602951" lon="13.168065">
 <ele>492.07</ele>
 <time>2011-10-23T11:25:29Z</time>
 </trkpt>
 <trkpt lat="47.602695" lon="13.168036">
 <ele>492.14</ele>
 <time>2011-10-23T11:25:33Z</time>
 </trkpt>
 <trkpt lat="47.602295" lon="13.167988">
 <ele>492.16</ele>
 <time>2011-10-23T11:25:39Z</time>
 </trkpt>
 <trkpt lat="47.602154" lon="13.167990">
 <ele>492.15</ele>
 <time>2011-10-23T11:25:41Z</time>
 </trkpt>
 <trkpt lat="47.601685" lon="13.168086">
 <ele>492.19</ele>
 <time>2011-10-23T11:25:48Z</time>
 </trkpt>
 <trkpt lat="47.601563" lon="13.168133">
 <ele>492.43</ele>
 <time>2011-10-23T11:25:50Z</time>
 </trkpt>
 <trkpt lat="47.601089" lon="13.168285">
 <ele>493.38</ele>
 <time>2011-10-23T11:25:58Z</time>
 </trkpt>
 <trkpt lat="47.600719" lon="13.168327">
 <ele>493.96</ele>
 <time>2011-10-23T11:26:04Z</time>
 </trkpt>
 <trkpt lat="47.600342" lon="13.168348">
 <ele>493.46</ele>
 <time>2011-10-23T11:26:10Z</time>
 </trkpt>
 <trkpt lat="47.599998" lon="13.168430">
 <ele>493.87</ele>
 <time>2011-10-23T11:26:16Z</time>
 </trkpt>
 <trkpt lat="47.599693" lon="13.168456">
 <ele>493.80</ele>
 <time>2011-10-23T11:26:21Z</time>
 </trkpt>
 <trkpt lat="47.599297" lon="13.168353">
 <ele>494.11</ele>
 <time>2011-10-23T11:26:28Z</time>
 </trkpt>
 <trkpt lat="47.599190" lon="13.168318">
 <ele>494.20</ele>
 <time>2011-10-23T11:26:30Z</time>
 </trkpt>
 <trkpt lat="47.598866" lon="13.168180">
 <ele>495.02</ele>
 <time>2011-10-23T11:26:37Z</time>
 </trkpt>
 <trkpt lat="47.598751" lon="13.168153">
 <ele>495.35</ele>
 <time>2011-10-23T11:26:40Z</time>
 </trkpt>
 <trkpt lat="47.598507" lon="13.168014">
 <ele>495.61</ele>
 <time>2011-10-23T11:26:46Z</time>
 </trkpt>
 <trkpt lat="47.598324" lon="13.167912">
 <ele>495.74</ele>
 <time>2011-10-23T11:26:51Z</time>
 </trkpt>
 <trkpt lat="47.598278" lon="13.167892">
 <ele>495.78</ele>
 <time>2011-10-23T11:26:52Z</time>
 </trkpt>
 <trkpt lat="47.597893" lon="13.167769">
 <ele>496.51</ele>
 <time>2011-10-23T11:27:00Z</time>
 </trkpt>
 <trkpt lat="47.597576" lon="13.167660">
 <ele>497.36</ele>
 <time>2011-10-23T11:27:06Z</time>
 </trkpt>
 <trkpt lat="47.597538" lon="13.167652">
 <ele>497.52</ele>
 <time>2011-10-23T11:27:07Z</time>
 </trkpt>
 <trkpt lat="47.597507" lon="13.167504">
 <ele>498.05</ele>
 <time>2011-10-23T11:27:11Z</time>
 </trkpt>
 <trkpt lat="47.597507" lon="13.167452">
 <ele>498.08</ele>
 <time>2011-10-23T11:27:12Z</time>
 </trkpt>
 <trkpt lat="47.597519" lon="13.167031">
 <ele>496.56</ele>
 <time>2011-10-23T11:27:18Z</time>
 </trkpt>
 <trkpt lat="47.597538" lon="13.166740">
 <ele>495.49</ele>
 <time>2011-10-23T11:27:21Z</time>
 </trkpt>
 <trkpt lat="47.597610" lon="13.166444">
 <ele>493.09</ele>
 <time>2011-10-23T11:27:25Z</time>
 </trkpt>
 <trkpt lat="47.597538" lon="13.166199">
 <ele>490.90</ele>
 <time>2011-10-23T11:27:29Z</time>
 </trkpt>
 <trkpt lat="47.597317" lon="13.166001">
 <ele>488.57</ele>
 <time>2011-10-23T11:27:33Z</time>
 </trkpt>
 <trkpt lat="47.597191" lon="13.165987">
 <ele>487.47</ele>
 <time>2011-10-23T11:27:35Z</time>
 </trkpt>
 <trkpt lat="47.597095" lon="13.166006">
 <ele>486.71</ele>
 <time>2011-10-23T11:27:37Z</time>
 </trkpt>
 <trkpt lat="47.596901" lon="13.166077">
 <ele>486.36</ele>
 <time>2011-10-23T11:27:42Z</time>
 </trkpt>
 <trkpt lat="47.596748" lon="13.166163">
 <ele>486.08</ele>
 <time>2011-10-23T11:27:45Z</time>
 </trkpt>
 <trkpt lat="47.596630" lon="13.166265">
 <ele>485.78</ele>
 <time>2011-10-23T11:27:47Z</time>
 </trkpt>
 <trkpt lat="47.596462" lon="13.166455">
 <ele>485.20</ele>
 <time>2011-10-23T11:27:50Z</time>
 </trkpt>
 <trkpt lat="47.596344" lon="13.166590">
 <ele>484.95</ele>
 <time>2011-10-23T11:27:52Z</time>
 </trkpt>
 <trkpt lat="47.596085" lon="13.166915">
 <ele>485.21</ele>
 <time>2011-10-23T11:27:56Z</time>
 </trkpt>
 <trkpt lat="47.595692" lon="13.167335">
 <ele>485.54</ele>
 <time>2011-10-23T11:28:03Z</time>
 </trkpt>
 <trkpt lat="47.595589" lon="13.167482">
 <ele>485.60</ele>
 <time>2011-10-23T11:28:05Z</time>
 </trkpt>
 <trkpt lat="47.595509" lon="13.168004">
 <ele>485.83</ele>
 <time>2011-10-23T11:28:10Z</time>
 </trkpt>
 <trkpt lat="47.595497" lon="13.168102">
 <ele>485.83</ele>
 <time>2011-10-23T11:28:11Z</time>
 </trkpt>
 <trkpt lat="47.595398" lon="13.168520">
 <ele>486.32</ele>
 <time>2011-10-23T11:28:16Z</time>
 </trkpt>
 <trkpt lat="47.595299" lon="13.169046">
 <ele>487.27</ele>
 <time>2011-10-23T11:28:22Z</time>
 </trkpt>
 <trkpt lat="47.595139" lon="13.169765">
 <ele>487.70</ele>
 <time>2011-10-23T11:28:30Z</time>
 </trkpt>
 <trkpt lat="47.594975" lon="13.169995">
 <ele>488.70</ele>
 <time>2011-10-23T11:28:34Z</time>
 </trkpt>
 <trkpt lat="47.594791" lon="13.170154">
 <ele>489.71</ele>
 <time>2011-10-23T11:28:38Z</time>
 </trkpt>
 <trkpt lat="47.594707" lon="13.170239">
 <ele>490.46</ele>
 <time>2011-10-23T11:28:40Z</time>
 </trkpt>
 <trkpt lat="47.594429" lon="13.170623">
 <ele>492.84</ele>
 <time>2011-10-23T11:28:48Z</time>
 </trkpt>
 <trkpt lat="47.594360" lon="13.170738">
 <ele>492.94</ele>
 <time>2011-10-23T11:28:50Z</time>
 </trkpt>
 <trkpt lat="47.594204" lon="13.170972">
 <ele>493.18</ele>
 <time>2011-10-23T11:28:54Z</time>
 </trkpt>
 <trkpt lat="47.594131" lon="13.171089">
 <ele>493.04</ele>
 <time>2011-10-23T11:28:56Z</time>
 </trkpt>
 <trkpt lat="47.593781" lon="13.171650">
 <ele>493.08</ele>
 <time>2011-10-23T11:29:05Z</time>
 </trkpt>
 <trkpt lat="47.593456" lon="13.172162">
 <ele>493.05</ele>
 <time>2011-10-23T11:29:13Z</time>
 </trkpt>
 <trkpt lat="47.593212" lon="13.172458">
 <ele>493.55</ele>
 <time>2011-10-23T11:29:19Z</time>
 </trkpt>
 <trkpt lat="47.592911" lon="13.172607">
 <ele>494.31</ele>
 <time>2011-10-23T11:29:27Z</time>
 </trkpt>
 <trkpt lat="47.592789" lon="13.172822">
 <ele>493.99</ele>
 <time>2011-10-23T11:29:31Z</time>
 </trkpt>
 <trkpt lat="47.592663" lon="13.173382">
 <ele>493.31</ele>
 <time>2011-10-23T11:29:38Z</time>
 </trkpt>
 <trkpt lat="47.592541" lon="13.173661">
 <ele>493.42</ele>
 <time>2011-10-23T11:29:42Z</time>
 </trkpt>
 <trkpt lat="47.592323" lon="13.174057">
 <ele>493.51</ele>
 <time>2011-10-23T11:29:48Z</time>
 </trkpt>
 <trkpt lat="47.592068" lon="13.174527">
 <ele>493.11</ele>
 <time>2011-10-23T11:29:54Z</time>
 </trkpt>
 <trkpt lat="47.591862" lon="13.174919">
 <ele>492.73</ele>
 <time>2011-10-23T11:29:59Z</time>
 </trkpt>
 <trkpt lat="47.591778" lon="13.175077">
 <ele>492.78</ele>
 <time>2011-10-23T11:30:01Z</time>
 </trkpt>
 <trkpt lat="47.591526" lon="13.175549">
 <ele>492.55</ele>
 <time>2011-10-23T11:30:07Z</time>
 </trkpt>
 <trkpt lat="47.591167" lon="13.176117">
 <ele>492.56</ele>
 <time>2011-10-23T11:30:15Z</time>
 </trkpt>
 <trkpt lat="47.591019" lon="13.176267">
 <ele>492.74</ele>
 <time>2011-10-23T11:30:18Z</time>
 </trkpt>
 <trkpt lat="47.590691" lon="13.176414">
 <ele>493.56</ele>
 <time>2011-10-23T11:30:24Z</time>
 </trkpt>
 <trkpt lat="47.590183" lon="13.176458">
 <ele>495.21</ele>
 <time>2011-10-23T11:30:33Z</time>
 </trkpt>
 <trkpt lat="47.589672" lon="13.176501">
 <ele>495.40</ele>
 <time>2011-10-23T11:30:42Z</time>
 </trkpt>
 <trkpt lat="47.589558" lon="13.176533">
 <ele>495.37</ele>
 <time>2011-10-23T11:30:44Z</time>
 </trkpt>
 <trkpt lat="47.589218" lon="13.176720">
 <ele>495.22</ele>
 <time>2011-10-23T11:30:50Z</time>
 </trkpt>
 <trkpt lat="47.588913" lon="13.177032">
 <ele>494.89</ele>
 <time>2011-10-23T11:30:56Z</time>
 </trkpt>
 <trkpt lat="47.588387" lon="13.177701">
 <ele>494.28</ele>
 <time>2011-10-23T11:31:07Z</time>
 </trkpt>
 <trkpt lat="47.588291" lon="13.177820">
 <ele>494.31</ele>
 <time>2011-10-23T11:31:09Z</time>
 </trkpt>
 <trkpt lat="47.588047" lon="13.178110">
 <ele>494.55</ele>
 <time>2011-10-23T11:31:14Z</time>
 </trkpt>
 <trkpt lat="47.587551" lon="13.178649">
 <ele>494.08</ele>
 <time>2011-10-23T11:31:24Z</time>
 </trkpt>
 <trkpt lat="47.587154" lon="13.179047">
 <ele>494.18</ele>
 <time>2011-10-23T11:31:32Z</time>
 </trkpt>
 <trkpt lat="47.586849" lon="13.179329">
 <ele>494.26</ele>
 <time>2011-10-23T11:31:38Z</time>
 </trkpt>
 <trkpt lat="47.586609" lon="13.179552">
 <ele>494.38</ele>
 <time>2011-10-23T11:31:43Z</time>
 </trkpt>
 <trkpt lat="47.586048" lon="13.180079">
 <ele>494.93</ele>
 <time>2011-10-23T11:31:55Z</time>
 </trkpt>
 <trkpt lat="47.585732" lon="13.180496">
 <ele>494.80</ele>
 <time>2011-10-23T11:32:03Z</time>
 </trkpt>
 <trkpt lat="47.585308" lon="13.181153">
 <ele>494.79</ele>
 <time>2011-10-23T11:32:14Z</time>
 </trkpt>
 <trkpt lat="47.585026" lon="13.181519">
 <ele>495.30</ele>
 <time>2011-10-23T11:32:21Z</time>
 </trkpt>
 <trkpt lat="47.584587" lon="13.181929">
 <ele>495.71</ele>
 <time>2011-10-23T11:32:31Z</time>
 </trkpt>
 <trkpt lat="47.584076" lon="13.182250">
 <ele>496.28</ele>
 <time>2011-10-23T11:32:42Z</time>
 </trkpt>
 <trkpt lat="47.583900" lon="13.182306">
 <ele>496.50</ele>
 <time>2011-10-23T11:32:46Z</time>
 </trkpt>
 <trkpt lat="47.583576" lon="13.182383">
 <ele>497.03</ele>
 <time>2011-10-23T11:32:54Z</time>
 </trkpt>
 <trkpt lat="47.583492" lon="13.182399">
 <ele>497.12</ele>
 <time>2011-10-23T11:32:56Z</time>
 </trkpt>
 <trkpt lat="47.583027" lon="13.182447">
 <ele>498.59</ele>
 <time>2011-10-23T11:33:07Z</time>
 </trkpt>
 <trkpt lat="47.582985" lon="13.182454">
 <ele>498.74</ele>
 <time>2011-10-23T11:33:08Z</time>
 </trkpt>
 <trkpt lat="47.582748" lon="13.182469">
 <ele>499.05</ele>
 <time>2011-10-23T11:33:14Z</time>
 </trkpt>
 <trkpt lat="47.582436" lon="13.182521">
 <ele>500.68</ele>
 <time>2011-10-23T11:33:23Z</time>
 </trkpt>
 <trkpt lat="47.582336" lon="13.182545">
 <ele>501.03</ele>
 <time>2011-10-23T11:33:26Z</time>
 </trkpt>
 <trkpt lat="47.582211" lon="13.182589">
 <ele>501.62</ele>
 <time>2011-10-23T11:33:30Z</time>
 </trkpt>
 <trkpt lat="47.581997" lon="13.182681">
 <ele>503.07</ele>
 <time>2011-10-23T11:33:37Z</time>
 </trkpt>
 <trkpt lat="47.581940" lon="13.182715">
 <ele>503.27</ele>
 <time>2011-10-23T11:33:39Z</time>
 </trkpt>
 <trkpt lat="47.581886" lon="13.182760">
 <ele>503.69</ele>
 <time>2011-10-23T11:33:41Z</time>
 </trkpt>
 <trkpt lat="47.581802" lon="13.182828">
 <ele>504.10</ele>
 <time>2011-10-23T11:33:44Z</time>
 </trkpt>
 <trkpt lat="47.581776" lon="13.182852">
 <ele>504.45</ele>
 <time>2011-10-23T11:33:45Z</time>
 </trkpt>
 <trkpt lat="47.581696" lon="13.182926">
 <ele>504.73</ele>
 <time>2011-10-23T11:33:48Z</time>
 </trkpt>
 <trkpt lat="47.581673" lon="13.182953">
 <ele>505.03</ele>
 <time>2011-10-23T11:33:49Z</time>
 </trkpt>
 <trkpt lat="47.581600" lon="13.183028">
 <ele>505.35</ele>
 <time>2011-10-23T11:33:52Z</time>
 </trkpt>
 <trkpt lat="47.581413" lon="13.183280">
 <ele>507.71</ele>
 <time>2011-10-23T11:34:01Z</time>
 </trkpt>
 <trkpt lat="47.581234" lon="13.183586">
 <ele>509.68</ele>
 <time>2011-10-23T11:34:11Z</time>
 </trkpt>
 <trkpt lat="47.581184" lon="13.183683">
 <ele>510.14</ele>
 <time>2011-10-23T11:34:14Z</time>
 </trkpt>
 <trkpt lat="47.581169" lon="13.183715">
 <ele>510.53</ele>
 <time>2011-10-23T11:34:15Z</time>
 </trkpt>
 <trkpt lat="47.581131" lon="13.183818">
 <ele>510.90</ele>
 <time>2011-10-23T11:34:18Z</time>
 </trkpt>
 <trkpt lat="47.581036" lon="13.184118">
 <ele>512.65</ele>
 <time>2011-10-23T11:34:26Z</time>
 </trkpt>
 <trkpt lat="47.581001" lon="13.184216">
 <ele>513.31</ele>
 <time>2011-10-23T11:34:29Z</time>
 </trkpt>
 <trkpt lat="47.580952" lon="13.184400">
 <ele>514.06</ele>
 <time>2011-10-23T11:34:34Z</time>
 </trkpt>
 <trkpt lat="47.580925" lon="13.184547">
 <ele>514.74</ele>
 <time>2011-10-23T11:34:38Z</time>
 </trkpt>
 <trkpt lat="47.580906" lon="13.184660">
 <ele>515.16</ele>
 <time>2011-10-23T11:34:41Z</time>
 </trkpt>
 <trkpt lat="47.580894" lon="13.184737">
 <ele>515.52</ele>
 <time>2011-10-23T11:34:43Z</time>
 </trkpt>
 <trkpt lat="47.580879" lon="13.184809">
 <ele>515.97</ele>
 <time>2011-10-23T11:34:45Z</time>
 </trkpt>
 <trkpt lat="47.580864" lon="13.184918">
 <ele>516.38</ele>
 <time>2011-10-23T11:34:48Z</time>
 </trkpt>
 <trkpt lat="47.580849" lon="13.185024">
 <ele>516.91</ele>
 <time>2011-10-23T11:34:51Z</time>
 </trkpt>
 <trkpt lat="47.580826" lon="13.185134">
 <ele>517.16</ele>
 <time>2011-10-23T11:34:54Z</time>
 </trkpt>
 <trkpt lat="47.580811" lon="13.185269">
 <ele>517.94</ele>
 <time>2011-10-23T11:34:58Z</time>
 </trkpt>
 <trkpt lat="47.580807" lon="13.185341">
 <ele>518.39</ele>
 <time>2011-10-23T11:35:00Z</time>
 </trkpt>
 <trkpt lat="47.580784" lon="13.185448">
 <ele>518.77</ele>
 <time>2011-10-23T11:35:03Z</time>
 </trkpt>
 <trkpt lat="47.580769" lon="13.185519">
 <ele>519.20</ele>
 <time>2011-10-23T11:35:05Z</time>
 </trkpt>
 <trkpt lat="47.580742" lon="13.185660">
 <ele>520.21</ele>
 <time>2011-10-23T11:35:09Z</time>
 </trkpt>
 <trkpt lat="47.580685" lon="13.185934">
 <ele>521.79</ele>
 <time>2011-10-23T11:35:17Z</time>
 </trkpt>
 <trkpt lat="47.580669" lon="13.185997">
 <ele>522.58</ele>
 <time>2011-10-23T11:35:19Z</time>
 </trkpt>
 <trkpt lat="47.580639" lon="13.186090">
 <ele>523.07</ele>
 <time>2011-10-23T11:35:22Z</time>
 </trkpt>
 <trkpt lat="47.580631" lon="13.186120">
 <ele>523.51</ele>
 <time>2011-10-23T11:35:23Z</time>
 </trkpt>
 <trkpt lat="47.580605" lon="13.186212">
 <ele>523.84</ele>
 <time>2011-10-23T11:35:26Z</time>
 </trkpt>
 <trkpt lat="47.580570" lon="13.186300">
 <ele>524.31</ele>
 <time>2011-10-23T11:35:29Z</time>
 </trkpt>
 <trkpt lat="47.580547" lon="13.186374">
 <ele>525.00</ele>
 <time>2011-10-23T11:35:31Z</time>
 </trkpt>
 <trkpt lat="47.580505" lon="13.186479">
 <ele>525.42</ele>
 <time>2011-10-23T11:35:34Z</time>
 </trkpt>
 <trkpt lat="47.580463" lon="13.186563">
 <ele>526.06</ele>
 <time>2011-10-23T11:35:37Z</time>
 </trkpt>
 <trkpt lat="47.580421" lon="13.186636">
 <ele>526.44</ele>
 <time>2011-10-23T11:35:40Z</time>
 </trkpt>
 <trkpt lat="47.580368" lon="13.186758">
 <ele>527.27</ele>
 <time>2011-10-23T11:35:44Z</time>
 </trkpt>
 <trkpt lat="47.580280" lon="13.186929">
 <ele>528.52</ele>
 <time>2011-10-23T11:35:50Z</time>
 </trkpt>
 <trkpt lat="47.580196" lon="13.187104">
 <ele>529.87</ele>
 <time>2011-10-23T11:35:56Z</time>
 </trkpt>
 <trkpt lat="47.580143" lon="13.187223">
 <ele>530.80</ele>
 <time>2011-10-23T11:36:00Z</time>
 </trkpt>
 <trkpt lat="47.580078" lon="13.187331">
 <ele>531.53</ele>
 <time>2011-10-23T11:36:04Z</time>
 </trkpt>
 <trkpt lat="47.580048" lon="13.187386">
 <ele>531.87</ele>
 <time>2011-10-23T11:36:06Z</time>
 </trkpt>
 <trkpt lat="47.579998" lon="13.187467">
 <ele>532.17</ele>
 <time>2011-10-23T11:36:09Z</time>
 </trkpt>
 <trkpt lat="47.579926" lon="13.187593">
 <ele>532.94</ele>
 <time>2011-10-23T11:36:14Z</time>
 </trkpt>
 <trkpt lat="47.579838" lon="13.187739">
 <ele>533.87</ele>
 <time>2011-10-23T11:36:20Z</time>
 </trkpt>
 <trkpt lat="47.579777" lon="13.187832">
 <ele>534.48</ele>
 <time>2011-10-23T11:36:24Z</time>
 </trkpt>
 <trkpt lat="47.579723" lon="13.187935">
 <ele>535.55</ele>
 <time>2011-10-23T11:36:28Z</time>
 </trkpt>
 <trkpt lat="47.579670" lon="13.188037">
 <ele>536.70</ele>
 <time>2011-10-23T11:36:32Z</time>
 </trkpt>
 <trkpt lat="47.579632" lon="13.188112">
 <ele>537.12</ele>
 <time>2011-10-23T11:36:35Z</time>
 </trkpt>
 <trkpt lat="47.579617" lon="13.188134">
 <ele>537.44</ele>
 <time>2011-10-23T11:36:36Z</time>
 </trkpt>
 <trkpt lat="47.579548" lon="13.188245">
 <ele>538.17</ele>
 <time>2011-10-23T11:36:41Z</time>
 </trkpt>
 <trkpt lat="47.579506" lon="13.188315">
 <ele>538.90</ele>
 <time>2011-10-23T11:36:44Z</time>
 </trkpt>
 <trkpt lat="47.579445" lon="13.188414">
 <ele>539.31</ele>
 <time>2011-10-23T11:36:48Z</time>
 </trkpt>
 <trkpt lat="47.579430" lon="13.188440">
 <ele>539.59</ele>
 <time>2011-10-23T11:36:49Z</time>
 </trkpt>
 <trkpt lat="47.579330" lon="13.188499">
 <ele>540.56</ele>
 <time>2011-10-23T11:36:54Z</time>
 </trkpt>
 <trkpt lat="47.579273" lon="13.188531">
 <ele>541.17</ele>
 <time>2011-10-23T11:36:57Z</time>
 </trkpt>
 <trkpt lat="47.579212" lon="13.188618">
 <ele>541.76</ele>
 <time>2011-10-23T11:37:01Z</time>
 </trkpt>
 <trkpt lat="47.579205" lon="13.188649">
 <ele>542.23</ele>
 <time>2011-10-23T11:37:02Z</time>
 </trkpt>
 <trkpt lat="47.579151" lon="13.188797">
 <ele>542.93</ele>
 <time>2011-10-23T11:37:07Z</time>
 </trkpt>
 <trkpt lat="47.579132" lon="13.188855">
 <ele>543.54</ele>
 <time>2011-10-23T11:37:09Z</time>
 </trkpt>
 <trkpt lat="47.579109" lon="13.188995">
 <ele>544.05</ele>
 <time>2011-10-23T11:37:13Z</time>
 </trkpt>
 <trkpt lat="47.579105" lon="13.189033">
 <ele>544.45</ele>
 <time>2011-10-23T11:37:14Z</time>
 </trkpt>
 <trkpt lat="47.579056" lon="13.189137">
 <ele>544.94</ele>
 <time>2011-10-23T11:37:18Z</time>
 </trkpt>
 <trkpt lat="47.579006" lon="13.189236">
 <ele>545.90</ele>
 <time>2011-10-23T11:37:22Z</time>
 </trkpt>
 <trkpt lat="47.578957" lon="13.189287">
 <ele>546.26</ele>
 <time>2011-10-23T11:37:25Z</time>
 </trkpt>
 <trkpt lat="47.578938" lon="13.189344">
 <ele>546.76</ele>
 <time>2011-10-23T11:37:27Z</time>
 </trkpt>
 <trkpt lat="47.578884" lon="13.189483">
 <ele>547.22</ele>
 <time>2011-10-23T11:37:32Z</time>
 </trkpt>
 <trkpt lat="47.578873" lon="13.189583">
 <ele>547.95</ele>
 <time>2011-10-23T11:37:35Z</time>
 </trkpt>
 <trkpt lat="47.578865" lon="13.189683">
 <ele>548.34</ele>
 <time>2011-10-23T11:37:38Z</time>
 </trkpt>
 <trkpt lat="47.578850" lon="13.189734">
 <ele>548.78</ele>
 <time>2011-10-23T11:37:40Z</time>
 </trkpt>
 <trkpt lat="47.578808" lon="13.189853">
 <ele>549.59</ele>
 <time>2011-10-23T11:37:45Z</time>
 </trkpt>
 <trkpt lat="47.578808" lon="13.189921">
 <ele>549.81</ele>
 <time>2011-10-23T11:37:47Z</time>
 </trkpt>
 <trkpt lat="47.578732" lon="13.189991">
 <ele>550.22</ele>
 <time>2011-10-23T11:37:51Z</time>
 </trkpt>
 <trkpt lat="47.578701" lon="13.190044">
 <ele>550.87</ele>
 <time>2011-10-23T11:37:53Z</time>
 </trkpt>
 <trkpt lat="47.578674" lon="13.190219">
 <ele>551.74</ele>
 <time>2011-10-23T11:37:58Z</time>
 </trkpt>
 <trkpt lat="47.578629" lon="13.190335">
 <ele>552.47</ele>
 <time>2011-10-23T11:38:02Z</time>
 </trkpt>
 <trkpt lat="47.578606" lon="13.190434">
 <ele>553.07</ele>
 <time>2011-10-23T11:38:05Z</time>
 </trkpt>
 <trkpt lat="47.578541" lon="13.190571">
 <ele>553.97</ele>
 <time>2011-10-23T11:38:10Z</time>
 </trkpt>
 <trkpt lat="47.578480" lon="13.190610">
 <ele>554.48</ele>
 <time>2011-10-23T11:38:13Z</time>
 </trkpt>
 <trkpt lat="47.578461" lon="13.190766">
 <ele>555.54</ele>
 <time>2011-10-23T11:38:18Z</time>
 </trkpt>
 <trkpt lat="47.578423" lon="13.190940">
 <ele>556.24</ele>
 <time>2011-10-23T11:38:23Z</time>
 </trkpt>
 <trkpt lat="47.578403" lon="13.191065">
 <ele>557.21</ele>
 <time>2011-10-23T11:38:26Z</time>
 </trkpt>
 <trkpt lat="47.578358" lon="13.191225">
 <ele>558.01</ele>
 <time>2011-10-23T11:38:31Z</time>
 </trkpt>
 <trkpt lat="47.578316" lon="13.191408">
 <ele>558.55</ele>
 <time>2011-10-23T11:38:36Z</time>
 </trkpt>
 <trkpt lat="47.578289" lon="13.191549">
 <ele>558.78</ele>
 <time>2011-10-23T11:38:40Z</time>
 </trkpt>
 <trkpt lat="47.578262" lon="13.191641">
 <ele>559.00</ele>
 <time>2011-10-23T11:38:43Z</time>
 </trkpt>
 <trkpt lat="47.578209" lon="13.191799">
 <ele>560.02</ele>
 <time>2011-10-23T11:38:48Z</time>
 </trkpt>
 <trkpt lat="47.578182" lon="13.191899">
 <ele>561.13</ele>
 <time>2011-10-23T11:38:51Z</time>
 </trkpt>
 <trkpt lat="47.578159" lon="13.191992">
 <ele>561.48</ele>
 <time>2011-10-23T11:38:54Z</time>
 </trkpt>
 <trkpt lat="47.578152" lon="13.192021">
 <ele>561.77</ele>
 <time>2011-10-23T11:38:55Z</time>
 </trkpt>
 <trkpt lat="47.578098" lon="13.192135">
 <ele>562.84</ele>
 <time>2011-10-23T11:38:59Z</time>
 </trkpt>
 <trkpt lat="47.578049" lon="13.192249">
 <ele>563.46</ele>
 <time>2011-10-23T11:39:03Z</time>
 </trkpt>
 <trkpt lat="47.578003" lon="13.192361">
 <ele>563.98</ele>
 <time>2011-10-23T11:39:07Z</time>
 </trkpt>
 <trkpt lat="47.577995" lon="13.192391">
 <ele>564.31</ele>
 <time>2011-10-23T11:39:08Z</time>
 </trkpt>
 <trkpt lat="47.577950" lon="13.192536">
 <ele>564.89</ele>
 <time>2011-10-23T11:39:13Z</time>
 </trkpt>
 <trkpt lat="47.577892" lon="13.192679">
 <ele>565.81</ele>
 <time>2011-10-23T11:39:18Z</time>
 </trkpt>
 <trkpt lat="47.577862" lon="13.192764">
 <ele>566.48</ele>
 <time>2011-10-23T11:39:21Z</time>
 </trkpt>
 <trkpt lat="47.577805" lon="13.192914">
 <ele>567.27</ele>
 <time>2011-10-23T11:39:26Z</time>
 </trkpt>
 <trkpt lat="47.577766" lon="13.193005">
 <ele>567.48</ele>
 <time>2011-10-23T11:39:29Z</time>
 </trkpt>
 <trkpt lat="47.577709" lon="13.193119">
 <ele>567.82</ele>
 <time>2011-10-23T11:39:33Z</time>
 </trkpt>
 <trkpt lat="47.577633" lon="13.193261">
 <ele>568.19</ele>
 <time>2011-10-23T11:39:38Z</time>
 </trkpt>
 <trkpt lat="47.577572" lon="13.193364">
 <ele>568.70</ele>
 <time>2011-10-23T11:39:42Z</time>
 </trkpt>
 <trkpt lat="47.577522" lon="13.193439">
 <ele>569.36</ele>
 <time>2011-10-23T11:39:45Z</time>
 </trkpt>
 <trkpt lat="47.577457" lon="13.193532">
 <ele>570.10</ele>
 <time>2011-10-23T11:39:49Z</time>
 </trkpt>
 <trkpt lat="47.577320" lon="13.193729">
 <ele>570.71</ele>
 <time>2011-10-23T11:39:57Z</time>
 </trkpt>
 <trkpt lat="47.577251" lon="13.193826">
 <ele>570.92</ele>
 <time>2011-10-23T11:40:01Z</time>
 </trkpt>
 <trkpt lat="47.577175" lon="13.193952">
 <ele>571.12</ele>
 <time>2011-10-23T11:40:05Z</time>
 </trkpt>
 <trkpt lat="47.577099" lon="13.194054">
 <ele>571.43</ele>
 <time>2011-10-23T11:40:08Z</time>
 </trkpt>
 <trkpt lat="47.576916" lon="13.194258">
 <ele>572.09</ele>
 <time>2011-10-23T11:40:14Z</time>
 </trkpt>
 <trkpt lat="47.576824" lon="13.194347">
 <ele>572.28</ele>
 <time>2011-10-23T11:40:17Z</time>
 </trkpt>
 <trkpt lat="47.576725" lon="13.194448">
 <ele>572.27</ele>
 <time>2011-10-23T11:40:21Z</time>
 </trkpt>
 <trkpt lat="47.575642" lon="13.194575">
 <ele>571.94</ele>
 <time>2011-10-23T11:40:46Z</time>
 </trkpt>
 <trkpt lat="47.575665" lon="13.194567">
 <ele>572.35</ele>
 <time>2011-10-23T11:40:49Z</time>
 </trkpt>
 <trkpt lat="47.575668" lon="13.194573">
 <ele>571.84</ele>
 <time>2011-10-23T11:40:58Z</time>
 </trkpt>
 <trkpt lat="47.575562" lon="13.194613">
 <ele>573.90</ele>
 <time>2011-10-23T11:45:01Z</time>
 </trkpt>
 <trkpt lat="47.575478" lon="13.194660">
 <ele>573.24</ele>
 <time>2011-10-23T11:45:05Z</time>
 </trkpt>
 <trkpt lat="47.575371" lon="13.194673">
 <ele>572.56</ele>
 <time>2011-10-23T11:45:08Z</time>
 </trkpt>
 <trkpt lat="47.575024" lon="13.194766">
 <ele>570.72</ele>
 <time>2011-10-23T11:45:16Z</time>
 </trkpt>
 <trkpt lat="47.574585" lon="13.194909">
 <ele>568.01</ele>
 <time>2011-10-23T11:45:23Z</time>
 </trkpt>
 <trkpt lat="47.574253" lon="13.194909">
 <ele>565.83</ele>
 <time>2011-10-23T11:45:27Z</time>
 </trkpt>
 <trkpt lat="47.573875" lon="13.194805">
 <ele>562.85</ele>
 <time>2011-10-23T11:45:31Z</time>
 </trkpt>
 <trkpt lat="47.573475" lon="13.194533">
 <ele>559.30</ele>
 <time>2011-10-23T11:45:35Z</time>
 </trkpt>
 <trkpt lat="47.573101" lon="13.194066">
 <ele>554.65</ele>
 <time>2011-10-23T11:45:39Z</time>
 </trkpt>
 <trkpt lat="47.572876" lon="13.193590">
 <ele>550.76</ele>
 <time>2011-10-23T11:45:42Z</time>
 </trkpt>
 <trkpt lat="47.572723" lon="13.193032">
 <ele>548.28</ele>
 <time>2011-10-23T11:45:45Z</time>
 </trkpt>
 <trkpt lat="47.572598" lon="13.192097">
 <ele>541.26</ele>
 <time>2011-10-23T11:45:50Z</time>
 </trkpt>
 <trkpt lat="47.572422" lon="13.191227">
 <ele>534.40</ele>
 <time>2011-10-23T11:45:55Z</time>
 </trkpt>
 <trkpt lat="47.572372" lon="13.190697">
 <ele>530.62</ele>
 <time>2011-10-23T11:45:58Z</time>
 </trkpt>
 <trkpt lat="47.572079" lon="13.190245">
 <ele>526.82</ele>
 <time>2011-10-23T11:46:01Z</time>
 </trkpt>
 <trkpt lat="47.571587" lon="13.189768">
 <ele>520.99</ele>
 <time>2011-10-23T11:46:06Z</time>
 </trkpt>
 <trkpt lat="47.571503" lon="13.189645">
 <ele>517.95</ele>
 <time>2011-10-23T11:46:09Z</time>
 </trkpt>
 <trkpt lat="47.571480" lon="13.189626">
 <ele>517.96</ele>
 <time>2011-10-23T11:46:10Z</time>
 </trkpt>
 <trkpt lat="47.571461" lon="13.189603">
 <ele>516.21</ele>
 <time>2011-10-23T11:46:12Z</time>
 </trkpt>
 <trkpt lat="47.571526" lon="13.189534">
 <ele>513.58</ele>
 <time>2011-10-23T11:46:15Z</time>
 </trkpt>
 <trkpt lat="47.571526" lon="13.189417">
 <ele>511.04</ele>
 <time>2011-10-23T11:46:20Z</time>
 </trkpt>
 <trkpt lat="47.571503" lon="13.189366">
 <ele>510.78</ele>
 <time>2011-10-23T11:46:21Z</time>
 </trkpt>
 <trkpt lat="47.571289" lon="13.189048">
 <ele>511.58</ele>
 <time>2011-10-23T11:46:24Z</time>
 </trkpt>
 <trkpt lat="47.571335" lon="13.188918">
 <ele>511.91</ele>
 <time>2011-10-23T11:46:26Z</time>
 </trkpt>
 <trkpt lat="47.571239" lon="13.188683">
 <ele>512.49</ele>
 <time>2011-10-23T11:46:28Z</time>
 </trkpt>
 <trkpt lat="47.571198" lon="13.188583">
 <ele>512.74</ele>
 <time>2011-10-23T11:46:29Z</time>
 </trkpt>
 <trkpt lat="47.571178" lon="13.188493">
 <ele>512.91</ele>
 <time>2011-10-23T11:46:30Z</time>
 </trkpt>
 <trkpt lat="47.570621" lon="13.187650">
 <ele>513.46</ele>
 <time>2011-10-23T11:46:36Z</time>
 </trkpt>
 <trkpt lat="47.570213" lon="13.186786">
 <ele>513.73</ele>
 <time>2011-10-23T11:46:42Z</time>
 </trkpt>
 <trkpt lat="47.570133" lon="13.186569">
 <ele>513.96</ele>
 <time>2011-10-23T11:46:44Z</time>
 </trkpt>
 <trkpt lat="47.568085" lon="13.181724">
 <ele>515.10</ele>
 <time>2011-10-23T11:47:27Z</time>
 </trkpt>
 <trkpt lat="47.567879" lon="13.181283">
 <ele>514.73</ele>
 <time>2011-10-23T11:47:32Z</time>
 </trkpt>
 <trkpt lat="47.567772" lon="13.181105">
 <ele>515.02</ele>
 <time>2011-10-23T11:47:34Z</time>
 </trkpt>
 <trkpt lat="47.567257" lon="13.180206">
 <ele>516.32</ele>
 <time>2011-10-23T11:47:45Z</time>
 </trkpt>
 <trkpt lat="47.567074" lon="13.179935">
 <ele>516.36</ele>
 <time>2011-10-23T11:47:48Z</time>
 </trkpt>
 <trkpt lat="47.566864" lon="13.179544">
 <ele>516.40</ele>
 <time>2011-10-23T11:47:52Z</time>
 </trkpt>
 <trkpt lat="47.566601" lon="13.178887">
 <ele>517.60</ele>
 <time>2011-10-23T11:47:59Z</time>
 </trkpt>
 <trkpt lat="47.566299" lon="13.177949">
 <ele>518.09</ele>
 <time>2011-10-23T11:48:08Z</time>
 </trkpt>
 <trkpt lat="47.566193" lon="13.177525">
 <ele>517.97</ele>
 <time>2011-10-23T11:48:12Z</time>
 </trkpt>
 <trkpt lat="47.566116" lon="13.177234">
 <ele>517.85</ele>
 <time>2011-10-23T11:48:15Z</time>
 </trkpt>
 <trkpt lat="47.565594" lon="13.174880">
 <ele>518.99</ele>
 <time>2011-10-23T11:48:39Z</time>
 </trkpt>
 <trkpt lat="47.565525" lon="13.174356">
 <ele>519.33</ele>
 <time>2011-10-23T11:48:47Z</time>
 </trkpt>
 <trkpt lat="47.565472" lon="13.173911">
 <ele>519.65</ele>
 <time>2011-10-23T11:48:54Z</time>
 </trkpt>
 <trkpt lat="47.565334" lon="13.173376">
 <ele>519.83</ele>
 <time>2011-10-23T11:49:00Z</time>
 </trkpt>
 <trkpt lat="47.565300" lon="13.173199">
 <ele>519.87</ele>
 <time>2011-10-23T11:49:02Z</time>
 </trkpt>
 <trkpt lat="47.565193" lon="13.172633">
 <ele>519.75</ele>
 <time>2011-10-23T11:49:08Z</time>
 </trkpt>
 <trkpt lat="47.565170" lon="13.172364">
 <ele>519.46</ele>
 <time>2011-10-23T11:49:11Z</time>
 </trkpt>
 <trkpt lat="47.565151" lon="13.172158">
 <ele>519.58</ele>
 <time>2011-10-23T11:49:13Z</time>
 </trkpt>
 <trkpt lat="47.565105" lon="13.171507">
 <ele>519.44</ele>
 <time>2011-10-23T11:49:20Z</time>
 </trkpt>
 <trkpt lat="47.565086" lon="13.171324">
 <ele>519.10</ele>
 <time>2011-10-23T11:49:22Z</time>
 </trkpt>
 <trkpt lat="47.565075" lon="13.171235">
 <ele>519.15</ele>
 <time>2011-10-23T11:49:23Z</time>
 </trkpt>
 <trkpt lat="47.564987" lon="13.170776">
 <ele>519.99</ele>
 <time>2011-10-23T11:49:28Z</time>
 </trkpt>
 <trkpt lat="47.564907" lon="13.170372">
 <ele>520.67</ele>
 <time>2011-10-23T11:49:33Z</time>
 </trkpt>
 <trkpt lat="47.564899" lon="13.169997">
 <ele>521.13</ele>
 <time>2011-10-23T11:49:38Z</time>
 </trkpt>
 <trkpt lat="47.564762" lon="13.169633">
 <ele>521.72</ele>
 <time>2011-10-23T11:49:42Z</time>
 </trkpt>
 <trkpt lat="47.564365" lon="13.168854">
 <ele>522.88</ele>
 <time>2011-10-23T11:49:50Z</time>
 </trkpt>
 <trkpt lat="47.564320" lon="13.168740">
 <ele>523.41</ele>
 <time>2011-10-23T11:49:52Z</time>
 </trkpt>
 <trkpt lat="47.564117" lon="13.168359">
 <ele>524.28</ele>
 <time>2011-10-23T11:49:58Z</time>
 </trkpt>
 <trkpt lat="47.563854" lon="13.167992">
 <ele>523.66</ele>
 <time>2011-10-23T11:50:04Z</time>
 </trkpt>
 <trkpt lat="47.563587" lon="13.167703">
 <ele>522.90</ele>
 <time>2011-10-23T11:50:09Z</time>
 </trkpt>
 <trkpt lat="47.563202" lon="13.167454">
 <ele>522.33</ele>
 <time>2011-10-23T11:50:15Z</time>
 </trkpt>
 <trkpt lat="47.562820" lon="13.167206">
 <ele>522.27</ele>
 <time>2011-10-23T11:50:21Z</time>
 </trkpt>
 <trkpt lat="47.562317" lon="13.166787">
 <ele>519.64</ele>
 <time>2011-10-23T11:50:29Z</time>
 </trkpt>
 <trkpt lat="47.561771" lon="13.166524">
 <ele>520.16</ele>
 <time>2011-10-23T11:50:37Z</time>
 </trkpt>
 <trkpt lat="47.561306" lon="13.166396">
 <ele>520.28</ele>
 <time>2011-10-23T11:50:44Z</time>
 </trkpt>
 <trkpt lat="47.561043" lon="13.166332">
 <ele>520.02</ele>
 <time>2011-10-23T11:50:48Z</time>
 </trkpt>
 <trkpt lat="47.560909" lon="13.166305">
 <ele>520.12</ele>
 <time>2011-10-23T11:50:50Z</time>
 </trkpt>
 <trkpt lat="47.560417" lon="13.166262">
 <ele>521.42</ele>
 <time>2011-10-23T11:50:58Z</time>
 </trkpt>
 <trkpt lat="47.559963" lon="13.166325">
 <ele>521.63</ele>
 <time>2011-10-23T11:51:06Z</time>
 </trkpt>
 <trkpt lat="47.559521" lon="13.166459">
 <ele>521.67</ele>
 <time>2011-10-23T11:51:14Z</time>
 </trkpt>
 <trkpt lat="47.559238" lon="13.166516">
 <ele>522.23</ele>
 <time>2011-10-23T11:51:19Z</time>
 </trkpt>
 <trkpt lat="47.558777" lon="13.166588">
 <ele>522.59</ele>
 <time>2011-10-23T11:51:27Z</time>
 </trkpt>
 <trkpt lat="47.558659" lon="13.166605">
 <ele>522.82</ele>
 <time>2011-10-23T11:51:29Z</time>
 </trkpt>
 <trkpt lat="47.558109" lon="13.166695">
 <ele>524.13</ele>
 <time>2011-10-23T11:51:39Z</time>
 </trkpt>
 <trkpt lat="47.557526" lon="13.166618">
 <ele>526.37</ele>
 <time>2011-10-23T11:51:49Z</time>
 </trkpt>
 <trkpt lat="47.557167" lon="13.166637">
 <ele>527.27</ele>
 <time>2011-10-23T11:51:56Z</time>
 </trkpt>
 <trkpt lat="47.556854" lon="13.166708">
 <ele>527.46</ele>
 <time>2011-10-23T11:52:02Z</time>
 </trkpt>
 <trkpt lat="47.556301" lon="13.166873">
 <ele>528.03</ele>
 <time>2011-10-23T11:52:12Z</time>
 </trkpt>
 <trkpt lat="47.555794" lon="13.167051">
 <ele>527.22</ele>
 <time>2011-10-23T11:52:20Z</time>
 </trkpt>
 <trkpt lat="47.555248" lon="13.167301">
 <ele>525.12</ele>
 <time>2011-10-23T11:52:28Z</time>
 </trkpt>
 <trkpt lat="47.554688" lon="13.167639">
 <ele>522.72</ele>
 <time>2011-10-23T11:52:36Z</time>
 </trkpt>
 <trkpt lat="47.554234" lon="13.168090">
 <ele>522.25</ele>
 <time>2011-10-23T11:52:43Z</time>
 </trkpt>
 <trkpt lat="47.553833" lon="13.168593">
 <ele>522.13</ele>
 <time>2011-10-23T11:52:50Z</time>
 </trkpt>
 <trkpt lat="47.553310" lon="13.169131">
 <ele>522.66</ele>
 <time>2011-10-23T11:52:59Z</time>
 </trkpt>
 <trkpt lat="47.553196" lon="13.169231">
 <ele>522.95</ele>
 <time>2011-10-23T11:53:01Z</time>
 </trkpt>
 <trkpt lat="47.552975" lon="13.169420">
 <ele>523.64</ele>
 <time>2011-10-23T11:53:05Z</time>
 </trkpt>
 <trkpt lat="47.552471" lon="13.169792">
 <ele>524.91</ele>
 <time>2011-10-23T11:53:14Z</time>
 </trkpt>
 <trkpt lat="47.551975" lon="13.170084">
 <ele>524.76</ele>
 <time>2011-10-23T11:53:22Z</time>
 </trkpt>
 <trkpt lat="47.551540" lon="13.170242">
 <ele>523.61</ele>
 <time>2011-10-23T11:53:28Z</time>
 </trkpt>
 <trkpt lat="47.551296" lon="13.170281">
 <ele>522.82</ele>
 <time>2011-10-23T11:53:31Z</time>
 </trkpt>
 <trkpt lat="47.551128" lon="13.170294">
 <ele>522.40</ele>
 <time>2011-10-23T11:53:33Z</time>
 </trkpt>
 <trkpt lat="47.550735" lon="13.170260">
 <ele>521.11</ele>
 <time>2011-10-23T11:53:38Z</time>
 </trkpt>
 <trkpt lat="47.550171" lon="13.170180">
 <ele>521.39</ele>
 <time>2011-10-23T11:53:46Z</time>
 </trkpt>
 <trkpt lat="47.549755" lon="13.170120">
 <ele>523.08</ele>
 <time>2011-10-23T11:53:53Z</time>
 </trkpt>
 <trkpt lat="47.549644" lon="13.170104">
 <ele>523.21</ele>
 <time>2011-10-23T11:53:55Z</time>
 </trkpt>
 <trkpt lat="47.549202" lon="13.170054">
 <ele>524.15</ele>
 <time>2011-10-23T11:54:03Z</time>
 </trkpt>
 <trkpt lat="47.549091" lon="13.170042">
 <ele>524.28</ele>
 <time>2011-10-23T11:54:05Z</time>
 </trkpt>
 <trkpt lat="47.548649" lon="13.170004">
 <ele>524.93</ele>
 <time>2011-10-23T11:54:13Z</time>
 </trkpt>
 <trkpt lat="47.548534" lon="13.169995">
 <ele>525.09</ele>
 <time>2011-10-23T11:54:15Z</time>
 </trkpt>
 <trkpt lat="47.548420" lon="13.169989">
 <ele>525.17</ele>
 <time>2011-10-23T11:54:17Z</time>
 </trkpt>
 <trkpt lat="47.548306" lon="13.169991">
 <ele>525.31</ele>
 <time>2011-10-23T11:54:19Z</time>
 </trkpt>
 <trkpt lat="47.547958" lon="13.170010">
 <ele>525.95</ele>
 <time>2011-10-23T11:54:25Z</time>
 </trkpt>
 <trkpt lat="47.547413" lon="13.170128">
 <ele>527.32</ele>
 <time>2011-10-23T11:54:35Z</time>
 </trkpt>
 <trkpt lat="47.547161" lon="13.170207">
 <ele>528.13</ele>
 <time>2011-10-23T11:54:40Z</time>
 </trkpt>
 <trkpt lat="47.546818" lon="13.170296">
 <ele>529.35</ele>
 <time>2011-10-23T11:54:47Z</time>
 </trkpt>
 <trkpt lat="47.546715" lon="13.170316">
 <ele>529.70</ele>
 <time>2011-10-23T11:54:49Z</time>
 </trkpt>
 <trkpt lat="47.546570" lon="13.170313">
 <ele>530.39</ele>
 <time>2011-10-23T11:54:52Z</time>
 </trkpt>
 <trkpt lat="47.546471" lon="13.170316">
 <ele>530.72</ele>
 <time>2011-10-23T11:54:54Z</time>
 </trkpt>
 <trkpt lat="47.545948" lon="13.170347">
 <ele>531.49</ele>
 <time>2011-10-23T11:55:04Z</time>
 </trkpt>
 <trkpt lat="47.545662" lon="13.170387">
 <ele>531.49</ele>
 <time>2011-10-23T11:55:09Z</time>
 </trkpt>
 <trkpt lat="47.545116" lon="13.170594">
 <ele>530.48</ele>
 <time>2011-10-23T11:55:18Z</time>
 </trkpt>
 <trkpt lat="47.544590" lon="13.170788">
 <ele>529.28</ele>
 <time>2011-10-23T11:55:26Z</time>
 </trkpt>
 <trkpt lat="47.544453" lon="13.170817">
 <ele>529.29</ele>
 <time>2011-10-23T11:55:28Z</time>
 </trkpt>
 <trkpt lat="47.543747" lon="13.170933">
 <ele>528.95</ele>
 <time>2011-10-23T11:55:38Z</time>
 </trkpt>
 <trkpt lat="47.543312" lon="13.171060">
 <ele>528.46</ele>
 <time>2011-10-23T11:55:44Z</time>
 </trkpt>
 <trkpt lat="47.543167" lon="13.171110">
 <ele>528.29</ele>
 <time>2011-10-23T11:55:46Z</time>
 </trkpt>
 <trkpt lat="47.542362" lon="13.171369">
 <ele>527.34</ele>
 <time>2011-10-23T11:55:57Z</time>
 </trkpt>
 <trkpt lat="47.541767" lon="13.171441">
 <ele>526.50</ele>
 <time>2011-10-23T11:56:05Z</time>
 </trkpt>
 <trkpt lat="47.541195" lon="13.171389">
 <ele>526.80</ele>
 <time>2011-10-23T11:56:13Z</time>
 </trkpt>
 <trkpt lat="47.540878" lon="13.171303">
 <ele>527.24</ele>
 <time>2011-10-23T11:56:18Z</time>
 </trkpt>
 <trkpt lat="47.540554" lon="13.171181">
 <ele>528.44</ele>
 <time>2011-10-23T11:56:24Z</time>
 </trkpt>
 <trkpt lat="47.540459" lon="13.171137">
 <ele>529.19</ele>
 <time>2011-10-23T11:56:26Z</time>
 </trkpt>
 <trkpt lat="47.540367" lon="13.171098">
 <ele>530.02</ele>
 <time>2011-10-23T11:56:28Z</time>
 </trkpt>
 <trkpt lat="47.539970" lon="13.170900">
 <ele>532.19</ele>
 <time>2011-10-23T11:56:37Z</time>
 </trkpt>
 <trkpt lat="47.539890" lon="13.170854">
 <ele>532.64</ele>
 <time>2011-10-23T11:56:39Z</time>
 </trkpt>
 <trkpt lat="47.539806" lon="13.170809">
 <ele>532.97</ele>
 <time>2011-10-23T11:56:41Z</time>
 </trkpt>
 <trkpt lat="47.539764" lon="13.170787">
 <ele>532.97</ele>
 <time>2011-10-23T11:56:42Z</time>
 </trkpt>
 <trkpt lat="47.539589" lon="13.170658">
 <ele>533.52</ele>
 <time>2011-10-23T11:56:46Z</time>
 </trkpt>
 <trkpt lat="47.539452" lon="13.170563">
 <ele>533.64</ele>
 <time>2011-10-23T11:56:49Z</time>
 </trkpt>
 <trkpt lat="47.539036" lon="13.170282">
 <ele>534.79</ele>
 <time>2011-10-23T11:56:58Z</time>
 </trkpt>
 <trkpt lat="47.538662" lon="13.170017">
 <ele>535.39</ele>
 <time>2011-10-23T11:57:06Z</time>
 </trkpt>
 <trkpt lat="47.538471" lon="13.169883">
 <ele>535.67</ele>
 <time>2011-10-23T11:57:10Z</time>
 </trkpt>
 <trkpt lat="47.538132" lon="13.169628">
 <ele>536.48</ele>
 <time>2011-10-23T11:57:17Z</time>
 </trkpt>
 <trkpt lat="47.538033" lon="13.169555">
 <ele>536.71</ele>
 <time>2011-10-23T11:57:19Z</time>
 </trkpt>
 <trkpt lat="47.537594" lon="13.169213">
 <ele>537.56</ele>
 <time>2011-10-23T11:57:28Z</time>
 </trkpt>
 <trkpt lat="47.537495" lon="13.169132">
 <ele>537.77</ele>
 <time>2011-10-23T11:57:30Z</time>
 </trkpt>
 <trkpt lat="47.537247" lon="13.168925">
 <ele>538.13</ele>
 <time>2011-10-23T11:57:35Z</time>
 </trkpt>
 <trkpt lat="47.537037" lon="13.168755">
 <ele>538.27</ele>
 <time>2011-10-23T11:57:39Z</time>
 </trkpt>
 <trkpt lat="47.536663" lon="13.168478">
 <ele>538.47</ele>
 <time>2011-10-23T11:57:46Z</time>
 </trkpt>
 <trkpt lat="47.536549" lon="13.168405">
 <ele>538.59</ele>
 <time>2011-10-23T11:57:48Z</time>
 </trkpt>
 <trkpt lat="47.535950" lon="13.168068">
 <ele>538.89</ele>
 <time>2011-10-23T11:57:58Z</time>
 </trkpt>
 <trkpt lat="47.535351" lon="13.167842">
 <ele>538.37</ele>
 <time>2011-10-23T11:58:07Z</time>
 </trkpt>
 <trkpt lat="47.534565" lon="13.167591">
 <ele>537.76</ele>
 <time>2011-10-23T11:58:18Z</time>
 </trkpt>
 <trkpt lat="47.533840" lon="13.167339">
 <ele>536.99</ele>
 <time>2011-10-23T11:58:28Z</time>
 </trkpt>
 <trkpt lat="47.533363" lon="13.167119">
 <ele>536.47</ele>
 <time>2011-10-23T11:58:35Z</time>
 </trkpt>
 <trkpt lat="47.532719" lon="13.166728">
 <ele>536.03</ele>
 <time>2011-10-23T11:58:45Z</time>
 </trkpt>
 <trkpt lat="47.532265" lon="13.166464">
 <ele>535.68</ele>
 <time>2011-10-23T11:58:52Z</time>
 </trkpt>
 <trkpt lat="47.531715" lon="13.166235">
 <ele>534.84</ele>
 <time>2011-10-23T11:59:00Z</time>
 </trkpt>
 <trkpt lat="47.531364" lon="13.166167">
 <ele>535.10</ele>
 <time>2011-10-23T11:59:05Z</time>
 </trkpt>
 <trkpt lat="47.531227" lon="13.166153">
 <ele>535.03</ele>
 <time>2011-10-23T11:59:07Z</time>
 </trkpt>
 <trkpt lat="47.530640" lon="13.166179">
 <ele>534.87</ele>
 <time>2011-10-23T11:59:15Z</time>
 </trkpt>
 <trkpt lat="47.530071" lon="13.166338">
 <ele>534.76</ele>
 <time>2011-10-23T11:59:23Z</time>
 </trkpt>
 <trkpt lat="47.529537" lon="13.166585">
 <ele>535.11</ele>
 <time>2011-10-23T11:59:31Z</time>
 </trkpt>
 <trkpt lat="47.528931" lon="13.166901">
 <ele>536.36</ele>
 <time>2011-10-23T11:59:41Z</time>
 </trkpt>
 <trkpt lat="47.528473" lon="13.167085">
 <ele>537.69</ele>
 <time>2011-10-23T11:59:49Z</time>
 </trkpt>
 <trkpt lat="47.527966" lon="13.167215">
 <ele>539.53</ele>
 <time>2011-10-23T11:59:58Z</time>
 </trkpt>
 <trkpt lat="47.527405" lon="13.167273">
 <ele>540.98</ele>
 <time>2011-10-23T12:00:08Z</time>
 </trkpt>
 <trkpt lat="47.526985" lon="13.167290">
 <ele>542.46</ele>
 <time>2011-10-23T12:00:16Z</time>
 </trkpt>
 <trkpt lat="47.526878" lon="13.167290">
 <ele>542.80</ele>
 <time>2011-10-23T12:00:18Z</time>
 </trkpt>
 <trkpt lat="47.526558" lon="13.167319">
 <ele>543.66</ele>
 <time>2011-10-23T12:00:24Z</time>
 </trkpt>
 <trkpt lat="47.526447" lon="13.167339">
 <ele>543.96</ele>
 <time>2011-10-23T12:00:26Z</time>
 </trkpt>
 <trkpt lat="47.525845" lon="13.167486">
 <ele>544.93</ele>
 <time>2011-10-23T12:00:37Z</time>
 </trkpt>
 <trkpt lat="47.525452" lon="13.167627">
 <ele>545.27</ele>
 <time>2011-10-23T12:00:44Z</time>
 </trkpt>
 <trkpt lat="47.525337" lon="13.167670">
 <ele>545.35</ele>
 <time>2011-10-23T12:00:46Z</time>
 </trkpt>
 <trkpt lat="47.524742" lon="13.167823">
 <ele>545.68</ele>
 <time>2011-10-23T12:00:56Z</time>
 </trkpt>
 <trkpt lat="47.524212" lon="13.167825">
 <ele>545.74</ele>
 <time>2011-10-23T12:01:04Z</time>
 </trkpt>
 <trkpt lat="47.523655" lon="13.167707">
 <ele>545.10</ele>
 <time>2011-10-23T12:01:12Z</time>
 </trkpt>
 <trkpt lat="47.522972" lon="13.167384">
 <ele>543.83</ele>
 <time>2011-10-23T12:01:22Z</time>
 </trkpt>
 <trkpt lat="47.522408" lon="13.167012">
 <ele>543.09</ele>
 <time>2011-10-23T12:01:30Z</time>
 </trkpt>
 <trkpt lat="47.521637" lon="13.166513">
 <ele>542.71</ele>
 <time>2011-10-23T12:01:40Z</time>
 </trkpt>
 <trkpt lat="47.520866" lon="13.166018">
 <ele>541.61</ele>
 <time>2011-10-23T12:01:50Z</time>
 </trkpt>
 <trkpt lat="47.520111" lon="13.165532">
 <ele>540.82</ele>
 <time>2011-10-23T12:02:00Z</time>
 </trkpt>
 <trkpt lat="47.519753" lon="13.165303">
 <ele>540.59</ele>
 <time>2011-10-23T12:02:05Z</time>
 </trkpt>
 <trkpt lat="47.519611" lon="13.165213">
 <ele>540.66</ele>
 <time>2011-10-23T12:02:07Z</time>
 </trkpt>
 <trkpt lat="47.519016" lon="13.164828">
 <ele>541.33</ele>
 <time>2011-10-23T12:02:16Z</time>
 </trkpt>
 <trkpt lat="47.518620" lon="13.164565">
 <ele>542.43</ele>
 <time>2011-10-23T12:02:23Z</time>
 </trkpt>
 <trkpt lat="47.518520" lon="13.164503">
 <ele>542.90</ele>
 <time>2011-10-23T12:02:25Z</time>
 </trkpt>
 <trkpt lat="47.518112" lon="13.164263">
 <ele>544.62</ele>
 <time>2011-10-23T12:02:34Z</time>
 </trkpt>
 <trkpt lat="47.517765" lon="13.164112">
 <ele>546.65</ele>
 <time>2011-10-23T12:02:42Z</time>
 </trkpt>
 <trkpt lat="47.517677" lon="13.164084">
 <ele>547.17</ele>
 <time>2011-10-23T12:02:44Z</time>
 </trkpt>
 <trkpt lat="47.517590" lon="13.164058">
 <ele>547.69</ele>
 <time>2011-10-23T12:02:46Z</time>
 </trkpt>
 <trkpt lat="47.517456" lon="13.164015">
 <ele>548.59</ele>
 <time>2011-10-23T12:02:49Z</time>
 </trkpt>
 <trkpt lat="47.517368" lon="13.163991">
 <ele>549.17</ele>
 <time>2011-10-23T12:02:51Z</time>
 </trkpt>
 <trkpt lat="47.517277" lon="13.163970">
 <ele>549.60</ele>
 <time>2011-10-23T12:02:53Z</time>
 </trkpt>
 <trkpt lat="47.517143" lon="13.163947">
 <ele>550.18</ele>
 <time>2011-10-23T12:02:56Z</time>
 </trkpt>
 <trkpt lat="47.517010" lon="13.163935">
 <ele>550.66</ele>
 <time>2011-10-23T12:02:59Z</time>
 </trkpt>
 <trkpt lat="47.516869" lon="13.163927">
 <ele>551.62</ele>
 <time>2011-10-23T12:03:02Z</time>
 </trkpt>
 <trkpt lat="47.516735" lon="13.163929">
 <ele>552.44</ele>
 <time>2011-10-23T12:03:05Z</time>
 </trkpt>
 <trkpt lat="47.516605" lon="13.163936">
 <ele>553.16</ele>
 <time>2011-10-23T12:03:08Z</time>
 </trkpt>
 <trkpt lat="47.516430" lon="13.163956">
 <ele>554.26</ele>
 <time>2011-10-23T12:03:12Z</time>
 </trkpt>
 <trkpt lat="47.516258" lon="13.163985">
 <ele>555.37</ele>
 <time>2011-10-23T12:03:16Z</time>
 </trkpt>
 <trkpt lat="47.516171" lon="13.163997">
 <ele>555.79</ele>
 <time>2011-10-23T12:03:18Z</time>
 </trkpt>
 <trkpt lat="47.515961" lon="13.164047">
 <ele>557.20</ele>
 <time>2011-10-23T12:03:24Z</time>
 </trkpt>
 <trkpt lat="47.515701" lon="13.164155">
 <ele>559.20</ele>
 <time>2011-10-23T12:03:32Z</time>
 </trkpt>
 <trkpt lat="47.515572" lon="13.164206">
 <ele>559.75</ele>
 <time>2011-10-23T12:03:36Z</time>
 </trkpt>
 <trkpt lat="47.515503" lon="13.164235">
 <ele>560.02</ele>
 <time>2011-10-23T12:03:38Z</time>
 </trkpt>
 <trkpt lat="47.515240" lon="13.164371">
 <ele>561.23</ele>
 <time>2011-10-23T12:03:46Z</time>
 </trkpt>
 <trkpt lat="47.515175" lon="13.164406">
 <ele>561.35</ele>
 <time>2011-10-23T12:03:48Z</time>
 </trkpt>
 <trkpt lat="47.515007" lon="13.164519">
 <ele>562.14</ele>
 <time>2011-10-23T12:03:54Z</time>
 </trkpt>
 <trkpt lat="47.514751" lon="13.164716">
 <ele>563.10</ele>
 <time>2011-10-23T12:04:02Z</time>
 </trkpt>
 <trkpt lat="47.514534" lon="13.164897">
 <ele>564.11</ele>
 <time>2011-10-23T12:04:09Z</time>
 </trkpt>
 <trkpt lat="47.514469" lon="13.164961">
 <ele>564.26</ele>
 <time>2011-10-23T12:04:11Z</time>
 </trkpt>
 <trkpt lat="47.514198" lon="13.165254">
 <ele>564.53</ele>
 <time>2011-10-23T12:04:20Z</time>
 </trkpt>
 <trkpt lat="47.513893" lon="13.165534">
 <ele>564.82</ele>
 <time>2011-10-23T12:04:28Z</time>
 </trkpt>
 <trkpt lat="47.513531" lon="13.165803">
 <ele>564.87</ele>
 <time>2011-10-23T12:04:36Z</time>
 </trkpt>
 <trkpt lat="47.513103" lon="13.166063">
 <ele>564.47</ele>
 <time>2011-10-23T12:04:44Z</time>
 </trkpt>
 <trkpt lat="47.512600" lon="13.166301">
 <ele>563.21</ele>
 <time>2011-10-23T12:04:52Z</time>
 </trkpt>
 <trkpt lat="47.512081" lon="13.166520">
 <ele>561.37</ele>
 <time>2011-10-23T12:04:59Z</time>
 </trkpt>
 <trkpt lat="47.511475" lon="13.166754">
 <ele>558.27</ele>
 <time>2011-10-23T12:05:06Z</time>
 </trkpt>
 <trkpt lat="47.510792" lon="13.166945">
 <ele>553.53</ele>
 <time>2011-10-23T12:05:13Z</time>
 </trkpt>
 <trkpt lat="47.510052" lon="13.167024">
 <ele>549.54</ele>
 <time>2011-10-23T12:05:20Z</time>
 </trkpt>
 <trkpt lat="47.509312" lon="13.166962">
 <ele>547.19</ele>
 <time>2011-10-23T12:05:27Z</time>
 </trkpt>
 <trkpt lat="47.508595" lon="13.166762">
 <ele>545.45</ele>
 <time>2011-10-23T12:05:34Z</time>
 </trkpt>
 <trkpt lat="47.507965" lon="13.166490">
 <ele>541.83</ele>
 <time>2011-10-23T12:05:40Z</time>
 </trkpt>
 <trkpt lat="47.507214" lon="13.166275">
 <ele>538.00</ele>
 <time>2011-10-23T12:05:47Z</time>
 </trkpt>
 <trkpt lat="47.506687" lon="13.166337">
 <ele>536.54</ele>
 <time>2011-10-23T12:05:52Z</time>
 </trkpt>
 <trkpt lat="47.506218" lon="13.166551">
 <ele>536.46</ele>
 <time>2011-10-23T12:05:57Z</time>
 </trkpt>
 <trkpt lat="47.505672" lon="13.166964">
 <ele>537.82</ele>
 <time>2011-10-23T12:06:04Z</time>
 </trkpt>
 <trkpt lat="47.505154" lon="13.167376">
 <ele>537.68</ele>
 <time>2011-10-23T12:06:11Z</time>
 </trkpt>
 <trkpt lat="47.504944" lon="13.167552">
 <ele>537.51</ele>
 <time>2011-10-23T12:06:14Z</time>
 </trkpt>
 <trkpt lat="47.504379" lon="13.168015">
 <ele>538.07</ele>
 <time>2011-10-23T12:06:22Z</time>
 </trkpt>
 <trkpt lat="47.504173" lon="13.168190">
 <ele>538.16</ele>
 <time>2011-10-23T12:06:25Z</time>
 </trkpt>
 <trkpt lat="47.503735" lon="13.168564">
 <ele>538.72</ele>
 <time>2011-10-23T12:06:32Z</time>
 </trkpt>
 <trkpt lat="47.503628" lon="13.168663">
 <ele>539.00</ele>
 <time>2011-10-23T12:06:34Z</time>
 </trkpt>
 <trkpt lat="47.503521" lon="13.168758">
 <ele>539.39</ele>
 <time>2011-10-23T12:06:36Z</time>
 </trkpt>
 <trkpt lat="47.503120" lon="13.169091">
 <ele>541.11</ele>
 <time>2011-10-23T12:06:44Z</time>
 </trkpt>
 <trkpt lat="47.502975" lon="13.169215">
 <ele>541.91</ele>
 <time>2011-10-23T12:06:47Z</time>
 </trkpt>
 <trkpt lat="47.502785" lon="13.169373">
 <ele>543.02</ele>
 <time>2011-10-23T12:06:51Z</time>
 </trkpt>
 <trkpt lat="47.502556" lon="13.169559">
 <ele>543.92</ele>
 <time>2011-10-23T12:06:56Z</time>
 </trkpt>
 <trkpt lat="47.502323" lon="13.169743">
 <ele>544.70</ele>
 <time>2011-10-23T12:07:01Z</time>
 </trkpt>
 <trkpt lat="47.501820" lon="13.170109">
 <ele>545.64</ele>
 <time>2011-10-23T12:07:11Z</time>
 </trkpt>
 <trkpt lat="47.501713" lon="13.170181">
 <ele>545.77</ele>
 <time>2011-10-23T12:07:13Z</time>
 </trkpt>
 <trkpt lat="47.501217" lon="13.170510">
 <ele>546.52</ele>
 <time>2011-10-23T12:07:22Z</time>
 </trkpt>
 <trkpt lat="47.501102" lon="13.170584">
 <ele>546.45</ele>
 <time>2011-10-23T12:07:24Z</time>
 </trkpt>
 <trkpt lat="47.500534" lon="13.170964">
 <ele>546.78</ele>
 <time>2011-10-23T12:07:34Z</time>
 </trkpt>
 <trkpt lat="47.499962" lon="13.171346">
 <ele>546.78</ele>
 <time>2011-10-23T12:07:44Z</time>
 </trkpt>
 <trkpt lat="47.499847" lon="13.171423">
 <ele>546.90</ele>
 <time>2011-10-23T12:07:46Z</time>
 </trkpt>
 <trkpt lat="47.499287" lon="13.171820">
 <ele>547.60</ele>
 <time>2011-10-23T12:07:56Z</time>
 </trkpt>
 <trkpt lat="47.499016" lon="13.172051">
 <ele>547.74</ele>
 <time>2011-10-23T12:08:01Z</time>
 </trkpt>
 <trkpt lat="47.498905" lon="13.172153">
 <ele>547.79</ele>
 <time>2011-10-23T12:08:03Z</time>
 </trkpt>
 <trkpt lat="47.498375" lon="13.172796">
 <ele>548.38</ele>
 <time>2011-10-23T12:08:14Z</time>
 </trkpt>
 <trkpt lat="47.498032" lon="13.173339">
 <ele>548.39</ele>
 <time>2011-10-23T12:08:22Z</time>
 </trkpt>
 <trkpt lat="47.497684" lon="13.174012">
 <ele>549.11</ele>
 <time>2011-10-23T12:08:31Z</time>
 </trkpt>
 <trkpt lat="47.497311" lon="13.174808">
 <ele>549.02</ele>
 <time>2011-10-23T12:08:41Z</time>
 </trkpt>
 <trkpt lat="47.497025" lon="13.175267">
 <ele>549.10</ele>
 <time>2011-10-23T12:08:47Z</time>
 </trkpt>
 <trkpt lat="47.496582" lon="13.175689">
 <ele>547.78</ele>
 <time>2011-10-23T12:08:54Z</time>
 </trkpt>
 <trkpt lat="47.496220" lon="13.175862">
 <ele>546.17</ele>
 <time>2011-10-23T12:08:59Z</time>
 </trkpt>
 <trkpt lat="47.495697" lon="13.175908">
 <ele>545.53</ele>
 <time>2011-10-23T12:09:06Z</time>
 </trkpt>
 <trkpt lat="47.495190" lon="13.175834">
 <ele>545.57</ele>
 <time>2011-10-23T12:09:13Z</time>
 </trkpt>
 <trkpt lat="47.494480" lon="13.175694">
 <ele>545.36</ele>
 <time>2011-10-23T12:09:23Z</time>
 </trkpt>
 <trkpt lat="47.493896" lon="13.175585">
 <ele>545.42</ele>
 <time>2011-10-23T12:09:32Z</time>
 </trkpt>
 <trkpt lat="47.493416" lon="13.175489">
 <ele>545.49</ele>
 <time>2011-10-23T12:09:39Z</time>
 </trkpt>
 <trkpt lat="47.492771" lon="13.175387">
 <ele>543.98</ele>
 <time>2011-10-23T12:09:48Z</time>
 </trkpt>
 <trkpt lat="47.492413" lon="13.175466">
 <ele>543.92</ele>
 <time>2011-10-23T12:09:53Z</time>
 </trkpt>
 <trkpt lat="47.491989" lon="13.175711">
 <ele>542.92</ele>
 <time>2011-10-23T12:09:59Z</time>
 </trkpt>
 <trkpt lat="47.491653" lon="13.176081">
 <ele>542.96</ele>
 <time>2011-10-23T12:10:05Z</time>
 </trkpt>
 <trkpt lat="47.491299" lon="13.176641">
 <ele>544.36</ele>
 <time>2011-10-23T12:10:13Z</time>
 </trkpt>
 <trkpt lat="47.491173" lon="13.176831">
 <ele>544.70</ele>
 <time>2011-10-23T12:10:16Z</time>
 </trkpt>
 <trkpt lat="47.490955" lon="13.177097">
 <ele>546.21</ele>
 <time>2011-10-23T12:10:22Z</time>
 </trkpt>
 <trkpt lat="47.490780" lon="13.177211">
 <ele>548.13</ele>
 <time>2011-10-23T12:10:28Z</time>
 </trkpt>
 <trkpt lat="47.490643" lon="13.177290">
 <ele>549.07</ele>
 <time>2011-10-23T12:10:33Z</time>
 </trkpt>
 <trkpt lat="47.490589" lon="13.177327">
 <ele>549.43</ele>
 <time>2011-10-23T12:10:35Z</time>
 </trkpt>
 <trkpt lat="47.490383" lon="13.177487">
 <ele>550.98</ele>
 <time>2011-10-23T12:10:43Z</time>
 </trkpt>
 <trkpt lat="47.490311" lon="13.177557">
 <ele>551.52</ele>
 <time>2011-10-23T12:10:46Z</time>
 </trkpt>
 <trkpt lat="47.490242" lon="13.177646">
 <ele>551.90</ele>
 <time>2011-10-23T12:10:49Z</time>
 </trkpt>
 <trkpt lat="47.490215" lon="13.177680">
 <ele>552.07</ele>
 <time>2011-10-23T12:10:50Z</time>
 </trkpt>
 <trkpt lat="47.490147" lon="13.177781">
 <ele>552.57</ele>
 <time>2011-10-23T12:10:53Z</time>
 </trkpt>
 <trkpt lat="47.490078" lon="13.177887">
 <ele>552.81</ele>
 <time>2011-10-23T12:10:56Z</time>
 </trkpt>
 <trkpt lat="47.489922" lon="13.178180">
 <ele>554.15</ele>
 <time>2011-10-23T12:11:04Z</time>
 </trkpt>
 <trkpt lat="47.489876" lon="13.178387">
 <ele>555.11</ele>
 <time>2011-10-23T12:11:09Z</time>
 </trkpt>
 <trkpt lat="47.489864" lon="13.178625">
 <ele>555.85</ele>
 <time>2011-10-23T12:11:14Z</time>
 </trkpt>
 <trkpt lat="47.489864" lon="13.178718">
 <ele>556.16</ele>
 <time>2011-10-23T12:11:16Z</time>
 </trkpt>
 <trkpt lat="47.489849" lon="13.178944">
 <ele>556.90</ele>
 <time>2011-10-23T12:11:21Z</time>
 </trkpt>
 <trkpt lat="47.489777" lon="13.179184">
 <ele>558.16</ele>
 <time>2011-10-23T12:11:27Z</time>
 </trkpt>
 <trkpt lat="47.489658" lon="13.179376">
 <ele>558.98</ele>
 <time>2011-10-23T12:11:32Z</time>
 </trkpt>
 <trkpt lat="47.489513" lon="13.179640">
 <ele>560.03</ele>
 <time>2011-10-23T12:11:39Z</time>
 </trkpt>
 <trkpt lat="47.489464" lon="13.179762">
 <ele>560.47</ele>
 <time>2011-10-23T12:11:42Z</time>
 </trkpt>
 <trkpt lat="47.489403" lon="13.179922">
 <ele>560.81</ele>
 <time>2011-10-23T12:11:46Z</time>
 </trkpt>
 <trkpt lat="47.489365" lon="13.180002">
 <ele>561.00</ele>
 <time>2011-10-23T12:11:48Z</time>
 </trkpt>
 <trkpt lat="47.489201" lon="13.180375">
 <ele>562.22</ele>
 <time>2011-10-23T12:11:57Z</time>
 </trkpt>
 <trkpt lat="47.489044" lon="13.180779">
 <ele>564.27</ele>
 <time>2011-10-23T12:12:06Z</time>
 </trkpt>
 <trkpt lat="47.489006" lon="13.180872">
 <ele>564.56</ele>
 <time>2011-10-23T12:12:08Z</time>
 </trkpt>
 <trkpt lat="47.488865" lon="13.181269">
 <ele>565.93</ele>
 <time>2011-10-23T12:12:17Z</time>
 </trkpt>
 <trkpt lat="47.488728" lon="13.181640">
 <ele>567.44</ele>
 <time>2011-10-23T12:12:25Z</time>
 </trkpt>
 <trkpt lat="47.488598" lon="13.181960">
 <ele>568.35</ele>
 <time>2011-10-23T12:12:32Z</time>
 </trkpt>
 <trkpt lat="47.488449" lon="13.182325">
 <ele>569.08</ele>
 <time>2011-10-23T12:12:40Z</time>
 </trkpt>
 <trkpt lat="47.488293" lon="13.182667">
 <ele>570.68</ele>
 <time>2011-10-23T12:12:48Z</time>
 </trkpt>
 <trkpt lat="47.488102" lon="13.183024">
 <ele>572.11</ele>
 <time>2011-10-23T12:12:57Z</time>
 </trkpt>
 <trkpt lat="47.488026" lon="13.183192">
 <ele>572.58</ele>
 <time>2011-10-23T12:13:01Z</time>
 </trkpt>
 <trkpt lat="47.487839" lon="13.183560">
 <ele>574.00</ele>
 <time>2011-10-23T12:13:10Z</time>
 </trkpt>
 <trkpt lat="47.487652" lon="13.183908">
 <ele>575.36</ele>
 <time>2011-10-23T12:13:19Z</time>
 </trkpt>
 <trkpt lat="47.487602" lon="13.183975">
 <ele>575.72</ele>
 <time>2011-10-23T12:13:21Z</time>
 </trkpt>
 <trkpt lat="47.487457" lon="13.184181">
 <ele>576.40</ele>
 <time>2011-10-23T12:13:27Z</time>
 </trkpt>
 <trkpt lat="47.487400" lon="13.184253">
 <ele>576.62</ele>
 <time>2011-10-23T12:13:29Z</time>
 </trkpt>
 <trkpt lat="47.487267" lon="13.184425">
 <ele>577.47</ele>
 <time>2011-10-23T12:13:34Z</time>
 </trkpt>
 <trkpt lat="47.487209" lon="13.184488">
 <ele>577.92</ele>
 <time>2011-10-23T12:13:36Z</time>
 </trkpt>
 <trkpt lat="47.487076" lon="13.184662">
 <ele>578.87</ele>
 <time>2011-10-23T12:13:41Z</time>
 </trkpt>
 <trkpt lat="47.486881" lon="13.184853">
 <ele>580.14</ele>
 <time>2011-10-23T12:13:48Z</time>
 </trkpt>
 <trkpt lat="47.486828" lon="13.184902">
 <ele>580.32</ele>
 <time>2011-10-23T12:13:50Z</time>
 </trkpt>
 <trkpt lat="47.486767" lon="13.184951">
 <ele>580.64</ele>
 <time>2011-10-23T12:13:52Z</time>
 </trkpt>
 <trkpt lat="47.486664" lon="13.185066">
 <ele>581.43</ele>
 <time>2011-10-23T12:13:56Z</time>
 </trkpt>
 <trkpt lat="47.486607" lon="13.185122">
 <ele>581.89</ele>
 <time>2011-10-23T12:13:58Z</time>
 </trkpt>
 <trkpt lat="47.486439" lon="13.185263">
 <ele>583.42</ele>
 <time>2011-10-23T12:14:04Z</time>
 </trkpt>
 <trkpt lat="47.486389" lon="13.185302">
 <ele>583.87</ele>
 <time>2011-10-23T12:14:06Z</time>
 </trkpt>
 <trkpt lat="47.486263" lon="13.185361">
 <ele>584.95</ele>
 <time>2011-10-23T12:14:11Z</time>
 </trkpt>
 <trkpt lat="47.486137" lon="13.185439">
 <ele>585.67</ele>
 <time>2011-10-23T12:14:15Z</time>
 </trkpt>
 <trkpt lat="47.486080" lon="13.185473">
 <ele>586.23</ele>
 <time>2011-10-23T12:14:17Z</time>
 </trkpt>
 <trkpt lat="47.485992" lon="13.185517">
 <ele>586.51</ele>
 <time>2011-10-23T12:14:20Z</time>
 </trkpt>
 <trkpt lat="47.485855" lon="13.185565">
 <ele>587.37</ele>
 <time>2011-10-23T12:14:25Z</time>
 </trkpt>
 <trkpt lat="47.485767" lon="13.185589">
 <ele>587.87</ele>
 <time>2011-10-23T12:14:28Z</time>
 </trkpt>
 <trkpt lat="47.485573" lon="13.185569">
 <ele>589.21</ele>
 <time>2011-10-23T12:14:36Z</time>
 </trkpt>
 <trkpt lat="47.485504" lon="13.185540">
 <ele>589.83</ele>
 <time>2011-10-23T12:14:39Z</time>
 </trkpt>
 <trkpt lat="47.485439" lon="13.185514">
 <ele>590.36</ele>
 <time>2011-10-23T12:14:42Z</time>
 </trkpt>
 <trkpt lat="47.485416" lon="13.185505">
 <ele>590.84</ele>
 <time>2011-10-23T12:14:43Z</time>
 </trkpt>
 <trkpt lat="47.485271" lon="13.185475">
 <ele>591.83</ele>
 <time>2011-10-23T12:14:49Z</time>
 </trkpt>
 <trkpt lat="47.485027" lon="13.185431">
 <ele>593.64</ele>
 <time>2011-10-23T12:14:59Z</time>
 </trkpt>
 <trkpt lat="47.484806" lon="13.185408">
 <ele>595.31</ele>
 <time>2011-10-23T12:15:08Z</time>
 </trkpt>
 <trkpt lat="47.484711" lon="13.185401">
 <ele>595.85</ele>
 <time>2011-10-23T12:15:12Z</time>
 </trkpt>
 <trkpt lat="47.484634" lon="13.185404">
 <ele>596.35</ele>
 <time>2011-10-23T12:15:15Z</time>
 </trkpt>
 <trkpt lat="47.484509" lon="13.185399">
 <ele>597.35</ele>
 <time>2011-10-23T12:15:20Z</time>
 </trkpt>
 <trkpt lat="47.484398" lon="13.185404">
 <ele>598.25</ele>
 <time>2011-10-23T12:15:24Z</time>
 </trkpt>
 <trkpt lat="47.484318" lon="13.185405">
 <ele>598.94</ele>
 <time>2011-10-23T12:15:27Z</time>
 </trkpt>
 <trkpt lat="47.484215" lon="13.185396">
 <ele>599.45</ele>
 <time>2011-10-23T12:15:31Z</time>
 </trkpt>
 <trkpt lat="47.484135" lon="13.185397">
 <ele>599.99</ele>
 <time>2011-10-23T12:15:34Z</time>
 </trkpt>
 <trkpt lat="47.484028" lon="13.185397">
 <ele>600.65</ele>
 <time>2011-10-23T12:15:38Z</time>
 </trkpt>
 <trkpt lat="47.483799" lon="13.185391">
 <ele>601.97</ele>
 <time>2011-10-23T12:15:46Z</time>
 </trkpt>
 <trkpt lat="47.483738" lon="13.185385">
 <ele>602.18</ele>
 <time>2011-10-23T12:15:48Z</time>
 </trkpt>
 <trkpt lat="47.483494" lon="13.185322">
 <ele>602.96</ele>
 <time>2011-10-23T12:15:56Z</time>
 </trkpt>
 <trkpt lat="47.483166" lon="13.185215">
 <ele>603.93</ele>
 <time>2011-10-23T12:16:06Z</time>
 </trkpt>
 <trkpt lat="47.482971" lon="13.185160">
 <ele>604.05</ele>
 <time>2011-10-23T12:16:11Z</time>
 </trkpt>
 <trkpt lat="47.482624" lon="13.185092">
 <ele>603.88</ele>
 <time>2011-10-23T12:16:19Z</time>
 </trkpt>
 <trkpt lat="47.482281" lon="13.185050">
 <ele>604.05</ele>
 <time>2011-10-23T12:16:26Z</time>
 </trkpt>
 <trkpt lat="47.481831" lon="13.185009">
 <ele>603.42</ele>
 <time>2011-10-23T12:16:34Z</time>
 </trkpt>
 <trkpt lat="47.481655" lon="13.184992">
 <ele>602.86</ele>
 <time>2011-10-23T12:16:37Z</time>
 </trkpt>
 <trkpt lat="47.481201" lon="13.185031">
 <ele>600.50</ele>
 <time>2011-10-23T12:16:44Z</time>
 </trkpt>
 <trkpt lat="47.480835" lon="13.185173">
 <ele>598.91</ele>
 <time>2011-10-23T12:16:49Z</time>
 </trkpt>
 <trkpt lat="47.480438" lon="13.185489">
 <ele>597.00</ele>
 <time>2011-10-23T12:16:54Z</time>
 </trkpt>
 <trkpt lat="47.480057" lon="13.185996">
 <ele>592.83</ele>
 <time>2011-10-23T12:16:59Z</time>
 </trkpt>
 <trkpt lat="47.479614" lon="13.186790">
 <ele>585.77</ele>
 <time>2011-10-23T12:17:05Z</time>
 </trkpt>
 <trkpt lat="47.479107" lon="13.187654">
 <ele>580.81</ele>
 <time>2011-10-23T12:17:11Z</time>
 </trkpt>
 <trkpt lat="47.478603" lon="13.188317">
 <ele>574.91</ele>
 <time>2011-10-23T12:17:16Z</time>
 </trkpt>
 <trkpt lat="47.478031" lon="13.188855">
 <ele>568.95</ele>
 <time>2011-10-23T12:17:21Z</time>
 </trkpt>
 <trkpt lat="47.477364" lon="13.189457">
 <ele>562.28</ele>
 <time>2011-10-23T12:17:27Z</time>
 </trkpt>
 <trkpt lat="47.477161" lon="13.189687">
 <ele>561.61</ele>
 <time>2011-10-23T12:17:29Z</time>
 </trkpt>
 <trkpt lat="47.476807" lon="13.190181">
 <ele>559.78</ele>
 <time>2011-10-23T12:17:33Z</time>
 </trkpt>
 <trkpt lat="47.476349" lon="13.190882">
 <ele>558.23</ele>
 <time>2011-10-23T12:17:39Z</time>
 </trkpt>
 <trkpt lat="47.475822" lon="13.191552">
 <ele>557.78</ele>
 <time>2011-10-23T12:17:46Z</time>
 </trkpt>
 <trkpt lat="47.475403" lon="13.191975">
 <ele>557.14</ele>
 <time>2011-10-23T12:17:52Z</time>
 </trkpt>
 <trkpt lat="47.474884" lon="13.192316">
 <ele>557.86</ele>
 <time>2011-10-23T12:17:59Z</time>
 </trkpt>
 <trkpt lat="47.474648" lon="13.192400">
 <ele>557.81</ele>
 <time>2011-10-23T12:18:02Z</time>
 </trkpt>
 <trkpt lat="47.474491" lon="13.192442">
 <ele>557.62</ele>
 <time>2011-10-23T12:18:04Z</time>
 </trkpt>
 <trkpt lat="47.474037" lon="13.192476">
 <ele>557.15</ele>
 <time>2011-10-23T12:18:10Z</time>
 </trkpt>
 <trkpt lat="47.473549" lon="13.192397">
 <ele>557.91</ele>
 <time>2011-10-23T12:18:17Z</time>
 </trkpt>
 <trkpt lat="47.472973" lon="13.192264">
 <ele>560.08</ele>
 <time>2011-10-23T12:18:26Z</time>
 </trkpt>
 <trkpt lat="47.472401" lon="13.192143">
 <ele>561.39</ele>
 <time>2011-10-23T12:18:36Z</time>
 </trkpt>
 <trkpt lat="47.471935" lon="13.192086">
 <ele>562.02</ele>
 <time>2011-10-23T12:18:44Z</time>
 </trkpt>
 <trkpt lat="47.471497" lon="13.192175">
 <ele>562.23</ele>
 <time>2011-10-23T12:18:51Z</time>
 </trkpt>
 <trkpt lat="47.470989" lon="13.192488">
 <ele>560.84</ele>
 <time>2011-10-23T12:18:59Z</time>
 </trkpt>
 <trkpt lat="47.470867" lon="13.192598">
 <ele>560.72</ele>
 <time>2011-10-23T12:19:01Z</time>
 </trkpt>
 <trkpt lat="47.470329" lon="13.193146">
 <ele>560.42</ele>
 <time>2011-10-23T12:19:10Z</time>
 </trkpt>
 <trkpt lat="47.469833" lon="13.193643">
 <ele>559.59</ele>
 <time>2011-10-23T12:19:18Z</time>
 </trkpt>
 <trkpt lat="47.469227" lon="13.194296">
 <ele>558.26</ele>
 <time>2011-10-23T12:19:28Z</time>
 </trkpt>
 <trkpt lat="47.468990" lon="13.194578">
 <ele>558.17</ele>
 <time>2011-10-23T12:19:32Z</time>
 </trkpt>
 <trkpt lat="47.468880" lon="13.194726">
 <ele>558.01</ele>
 <time>2011-10-23T12:19:34Z</time>
 </trkpt>
 <trkpt lat="47.468472" lon="13.195261">
 <ele>557.48</ele>
 <time>2011-10-23T12:19:41Z</time>
 </trkpt>
 <trkpt lat="47.468082" lon="13.195847">
 <ele>556.62</ele>
 <time>2011-10-23T12:19:48Z</time>
 </trkpt>
 <trkpt lat="47.467739" lon="13.196385">
 <ele>555.70</ele>
 <time>2011-10-23T12:19:54Z</time>
 </trkpt>
 <trkpt lat="47.467365" lon="13.196838">
 <ele>555.22</ele>
 <time>2011-10-23T12:20:00Z</time>
 </trkpt>
 <trkpt lat="47.466862" lon="13.197272">
 <ele>555.42</ele>
 <time>2011-10-23T12:20:08Z</time>
 </trkpt>
 <trkpt lat="47.466473" lon="13.197459">
 <ele>555.73</ele>
 <time>2011-10-23T12:20:14Z</time>
 </trkpt>
 <trkpt lat="47.465870" lon="13.197576">
 <ele>555.92</ele>
 <time>2011-10-23T12:20:23Z</time>
 </trkpt>
 <trkpt lat="47.465363" lon="13.197586">
 <ele>555.08</ele>
 <time>2011-10-23T12:20:30Z</time>
 </trkpt>
 <trkpt lat="47.465012" lon="13.197577">
 <ele>554.48</ele>
 <time>2011-10-23T12:20:35Z</time>
 </trkpt>
 <trkpt lat="47.464504" lon="13.197551">
 <ele>554.06</ele>
 <time>2011-10-23T12:20:42Z</time>
 </trkpt>
 <trkpt lat="47.464092" lon="13.197634">
 <ele>554.53</ele>
 <time>2011-10-23T12:20:48Z</time>
 </trkpt>
 <trkpt lat="47.463509" lon="13.197844">
 <ele>555.25</ele>
 <time>2011-10-23T12:20:57Z</time>
 </trkpt>
 <trkpt lat="47.463009" lon="13.198005">
 <ele>555.64</ele>
 <time>2011-10-23T12:21:05Z</time>
 </trkpt>
 <trkpt lat="47.462521" lon="13.198073">
 <ele>557.25</ele>
 <time>2011-10-23T12:21:13Z</time>
 </trkpt>
 <trkpt lat="47.462162" lon="13.198065">
 <ele>557.69</ele>
 <time>2011-10-23T12:21:19Z</time>
 </trkpt>
 <trkpt lat="47.462036" lon="13.198076">
 <ele>557.71</ele>
 <time>2011-10-23T12:21:21Z</time>
 </trkpt>
 <trkpt lat="47.461655" lon="13.198204">
 <ele>557.14</ele>
 <time>2011-10-23T12:21:27Z</time>
 </trkpt>
 <trkpt lat="47.461094" lon="13.198544">
 <ele>556.06</ele>
 <time>2011-10-23T12:21:36Z</time>
 </trkpt>
 <trkpt lat="47.460579" lon="13.198838">
 <ele>555.36</ele>
 <time>2011-10-23T12:21:44Z</time>
 </trkpt>
 <trkpt lat="47.460114" lon="13.198971">
 <ele>555.66</ele>
 <time>2011-10-23T12:21:51Z</time>
 </trkpt>
 <trkpt lat="47.459465" lon="13.199024">
 <ele>555.56</ele>
 <time>2011-10-23T12:22:01Z</time>
 </trkpt>
 <trkpt lat="47.458714" lon="13.199136">
 <ele>556.07</ele>
 <time>2011-10-23T12:22:13Z</time>
 </trkpt>
 <trkpt lat="47.458023" lon="13.199316">
 <ele>556.95</ele>
 <time>2011-10-23T12:22:24Z</time>
 </trkpt>
 <trkpt lat="47.457905" lon="13.199356">
 <ele>556.95</ele>
 <time>2011-10-23T12:22:26Z</time>
 </trkpt>
 <trkpt lat="47.457264" lon="13.199633">
 <ele>558.22</ele>
 <time>2011-10-23T12:22:37Z</time>
 </trkpt>
 <trkpt lat="47.456982" lon="13.199784">
 <ele>558.66</ele>
 <time>2011-10-23T12:22:42Z</time>
 </trkpt>
 <trkpt lat="47.456497" lon="13.200082">
 <ele>560.37</ele>
 <time>2011-10-23T12:22:51Z</time>
 </trkpt>
 <trkpt lat="47.456066" lon="13.200391">
 <ele>562.74</ele>
 <time>2011-10-23T12:23:00Z</time>
 </trkpt>
 <trkpt lat="47.455681" lon="13.200717">
 <ele>564.72</ele>
 <time>2011-10-23T12:23:09Z</time>
 </trkpt>
 <trkpt lat="47.455475" lon="13.200903">
 <ele>566.01</ele>
 <time>2011-10-23T12:23:14Z</time>
 </trkpt>
 <trkpt lat="47.455395" lon="13.200982">
 <ele>566.14</ele>
 <time>2011-10-23T12:23:16Z</time>
 </trkpt>
 <trkpt lat="47.455276" lon="13.201098">
 <ele>566.45</ele>
 <time>2011-10-23T12:23:19Z</time>
 </trkpt>
 <trkpt lat="47.455200" lon="13.201176">
 <ele>566.57</ele>
 <time>2011-10-23T12:23:21Z</time>
 </trkpt>
 <trkpt lat="47.455013" lon="13.201383">
 <ele>567.03</ele>
 <time>2011-10-23T12:23:26Z</time>
 </trkpt>
 <trkpt lat="47.454826" lon="13.201587">
 <ele>567.45</ele>
 <time>2011-10-23T12:23:31Z</time>
 </trkpt>
 <trkpt lat="47.454678" lon="13.201768">
 <ele>567.85</ele>
 <time>2011-10-23T12:23:35Z</time>
 </trkpt>
 <trkpt lat="47.454338" lon="13.202219">
 <ele>568.24</ele>
 <time>2011-10-23T12:23:44Z</time>
 </trkpt>
 <trkpt lat="47.453987" lon="13.202777">
 <ele>568.62</ele>
 <time>2011-10-23T12:23:53Z</time>
 </trkpt>
 <trkpt lat="47.453701" lon="13.203382">
 <ele>567.91</ele>
 <time>2011-10-23T12:24:01Z</time>
 </trkpt>
 <trkpt lat="47.453598" lon="13.203626">
 <ele>567.73</ele>
 <time>2011-10-23T12:24:04Z</time>
 </trkpt>
 <trkpt lat="47.453381" lon="13.204211">
 <ele>566.94</ele>
 <time>2011-10-23T12:24:11Z</time>
 </trkpt>
 <trkpt lat="47.453243" lon="13.204653">
 <ele>566.53</ele>
 <time>2011-10-23T12:24:16Z</time>
 </trkpt>
 <trkpt lat="47.453159" lon="13.204926">
 <ele>566.57</ele>
 <time>2011-10-23T12:24:19Z</time>
 </trkpt>
 <trkpt lat="47.453075" lon="13.205201">
 <ele>566.62</ele>
 <time>2011-10-23T12:24:22Z</time>
 </trkpt>
 <trkpt lat="47.452702" lon="13.206301">
 <ele>565.55</ele>
 <time>2011-10-23T12:24:34Z</time>
 </trkpt>
 <trkpt lat="47.452557" lon="13.206661">
 <ele>565.30</ele>
 <time>2011-10-23T12:24:38Z</time>
 </trkpt>
 <trkpt lat="47.452477" lon="13.206838">
 <ele>565.23</ele>
 <time>2011-10-23T12:24:40Z</time>
 </trkpt>
 <trkpt lat="47.452080" lon="13.207587">
 <ele>564.32</ele>
 <time>2011-10-23T12:24:49Z</time>
 </trkpt>
 <trkpt lat="47.451668" lon="13.208192">
 <ele>564.28</ele>
 <time>2011-10-23T12:24:57Z</time>
 </trkpt>
 <trkpt lat="47.451138" lon="13.208769">
 <ele>563.41</ele>
 <time>2011-10-23T12:25:06Z</time>
 </trkpt>
 <trkpt lat="47.450634" lon="13.209197">
 <ele>562.82</ele>
 <time>2011-10-23T12:25:14Z</time>
 </trkpt>
 <trkpt lat="47.450020" lon="13.209569">
 <ele>562.08</ele>
 <time>2011-10-23T12:25:23Z</time>
 </trkpt>
 <trkpt lat="47.449390" lon="13.209815">
 <ele>561.75</ele>
 <time>2011-10-23T12:25:32Z</time>
 </trkpt>
 <trkpt lat="47.449184" lon="13.209869">
 <ele>561.88</ele>
 <time>2011-10-23T12:25:35Z</time>
 </trkpt>
 <trkpt lat="47.448582" lon="13.209958">
 <ele>562.37</ele>
 <time>2011-10-23T12:25:44Z</time>
 </trkpt>
 <trkpt lat="47.448025" lon="13.210031">
 <ele>563.46</ele>
 <time>2011-10-23T12:25:53Z</time>
 </trkpt>
 <trkpt lat="47.447735" lon="13.210086">
 <ele>563.90</ele>
 <time>2011-10-23T12:25:58Z</time>
 </trkpt>
 <trkpt lat="47.447620" lon="13.210117">
 <ele>564.16</ele>
 <time>2011-10-23T12:26:00Z</time>
 </trkpt>
 <trkpt lat="47.447044" lon="13.210352">
 <ele>565.96</ele>
 <time>2011-10-23T12:26:11Z</time>
 </trkpt>
 <trkpt lat="47.446598" lon="13.210568">
 <ele>567.40</ele>
 <time>2011-10-23T12:26:20Z</time>
 </trkpt>
 <trkpt lat="47.446243" lon="13.210678">
 <ele>568.64</ele>
 <time>2011-10-23T12:26:27Z</time>
 </trkpt>
 <trkpt lat="47.445763" lon="13.210735">
 <ele>570.42</ele>
 <time>2011-10-23T12:26:36Z</time>
 </trkpt>
 <trkpt lat="47.445599" lon="13.210721">
 <ele>571.27</ele>
 <time>2011-10-23T12:26:39Z</time>
 </trkpt>
 <trkpt lat="47.445122" lon="13.210661">
 <ele>572.85</ele>
 <time>2011-10-23T12:26:48Z</time>
 </trkpt>
 <trkpt lat="47.444775" lon="13.210550">
 <ele>574.86</ele>
 <time>2011-10-23T12:26:56Z</time>
 </trkpt>
 <trkpt lat="47.444698" lon="13.210518">
 <ele>575.40</ele>
 <time>2011-10-23T12:26:58Z</time>
 </trkpt>
 <trkpt lat="47.444473" lon="13.210427">
 <ele>576.41</ele>
 <time>2011-10-23T12:27:04Z</time>
 </trkpt>
 <trkpt lat="47.444294" lon="13.210327">
 <ele>577.11</ele>
 <time>2011-10-23T12:27:09Z</time>
 </trkpt>
 <trkpt lat="47.444187" lon="13.210261">
 <ele>577.33</ele>
 <time>2011-10-23T12:27:12Z</time>
 </trkpt>
 <trkpt lat="47.444080" lon="13.210194">
 <ele>577.72</ele>
 <time>2011-10-23T12:27:15Z</time>
 </trkpt>
 <trkpt lat="47.443974" lon="13.210123">
 <ele>578.03</ele>
 <time>2011-10-23T12:27:18Z</time>
 </trkpt>
 <trkpt lat="47.443829" lon="13.210027">
 <ele>578.55</ele>
 <time>2011-10-23T12:27:22Z</time>
 </trkpt>
 <trkpt lat="47.443619" lon="13.209890">
 <ele>578.87</ele>
 <time>2011-10-23T12:27:28Z</time>
 </trkpt>
 <trkpt lat="47.443394" lon="13.209774">
 <ele>579.44</ele>
 <time>2011-10-23T12:27:34Z</time>
 </trkpt>
 <trkpt lat="47.443153" lon="13.209683">
 <ele>579.95</ele>
 <time>2011-10-23T12:27:40Z</time>
 </trkpt>
 <trkpt lat="47.442787" lon="13.209591">
 <ele>581.22</ele>
 <time>2011-10-23T12:27:49Z</time>
 </trkpt>
 <trkpt lat="47.442432" lon="13.209536">
 <ele>581.83</ele>
 <time>2011-10-23T12:27:57Z</time>
 </trkpt>
 <trkpt lat="47.442249" lon="13.209511">
 <ele>582.05</ele>
 <time>2011-10-23T12:28:01Z</time>
 </trkpt>
 <trkpt lat="47.441868" lon="13.209457">
 <ele>582.54</ele>
 <time>2011-10-23T12:28:09Z</time>
 </trkpt>
 <trkpt lat="47.441536" lon="13.209371">
 <ele>583.32</ele>
 <time>2011-10-23T12:28:16Z</time>
 </trkpt>
 <trkpt lat="47.441444" lon="13.209341">
 <ele>583.49</ele>
 <time>2011-10-23T12:28:18Z</time>
 </trkpt>
 <trkpt lat="47.441269" lon="13.209276">
 <ele>583.78</ele>
 <time>2011-10-23T12:28:22Z</time>
 </trkpt>
 <trkpt lat="47.441044" lon="13.209192">
 <ele>584.20</ele>
 <time>2011-10-23T12:28:27Z</time>
 </trkpt>
 <trkpt lat="47.440811" lon="13.209096">
 <ele>584.45</ele>
 <time>2011-10-23T12:28:32Z</time>
 </trkpt>
 <trkpt lat="47.440624" lon="13.209012">
 <ele>584.81</ele>
 <time>2011-10-23T12:28:36Z</time>
 </trkpt>
 <trkpt lat="47.440533" lon="13.208968">
 <ele>584.94</ele>
 <time>2011-10-23T12:28:38Z</time>
 </trkpt>
 <trkpt lat="47.440166" lon="13.208759">
 <ele>585.31</ele>
 <time>2011-10-23T12:28:46Z</time>
 </trkpt>
 <trkpt lat="47.440079" lon="13.208703">
 <ele>585.37</ele>
 <time>2011-10-23T12:28:48Z</time>
 </trkpt>
 <trkpt lat="47.439945" lon="13.208616">
 <ele>585.38</ele>
 <time>2011-10-23T12:28:51Z</time>
 </trkpt>
 <trkpt lat="47.439854" lon="13.208550">
 <ele>585.41</ele>
 <time>2011-10-23T12:28:53Z</time>
 </trkpt>
 <trkpt lat="47.439667" lon="13.208420">
 <ele>585.60</ele>
 <time>2011-10-23T12:28:57Z</time>
 </trkpt>
 <trkpt lat="47.439297" lon="13.208162">
 <ele>585.89</ele>
 <time>2011-10-23T12:29:05Z</time>
 </trkpt>
 <trkpt lat="47.439011" lon="13.207974">
 <ele>586.29</ele>
 <time>2011-10-23T12:29:11Z</time>
 </trkpt>
 <trkpt lat="47.438908" lon="13.207917">
 <ele>586.39</ele>
 <time>2011-10-23T12:29:13Z</time>
 </trkpt>
 <trkpt lat="47.438389" lon="13.207677">
 <ele>585.92</ele>
 <time>2011-10-23T12:29:22Z</time>
 </trkpt>
 <trkpt lat="47.437923" lon="13.207606">
 <ele>585.48</ele>
 <time>2011-10-23T12:29:29Z</time>
 </trkpt>
 <trkpt lat="47.437443" lon="13.207667">
 <ele>584.60</ele>
 <time>2011-10-23T12:29:36Z</time>
 </trkpt>
 <trkpt lat="47.436951" lon="13.207906">
 <ele>583.01</ele>
 <time>2011-10-23T12:29:43Z</time>
 </trkpt>
 <trkpt lat="47.436878" lon="13.207950">
 <ele>582.83</ele>
 <time>2011-10-23T12:29:44Z</time>
 </trkpt>
 <trkpt lat="47.436394" lon="13.208411">
 <ele>581.56</ele>
 <time>2011-10-23T12:29:51Z</time>
 </trkpt>
 <trkpt lat="47.436054" lon="13.208879">
 <ele>579.95</ele>
 <time>2011-10-23T12:29:56Z</time>
 </trkpt>
 <trkpt lat="47.435589" lon="13.209387">
 <ele>577.59</ele>
 <time>2011-10-23T12:30:02Z</time>
 </trkpt>
 <trkpt lat="47.435135" lon="13.209684">
 <ele>575.74</ele>
 <time>2011-10-23T12:30:07Z</time>
 </trkpt>
 <trkpt lat="47.434650" lon="13.209859">
 <ele>573.79</ele>
 <time>2011-10-23T12:30:12Z</time>
 </trkpt>
 <trkpt lat="47.434063" lon="13.210011">
 <ele>571.08</ele>
 <time>2011-10-23T12:30:18Z</time>
 </trkpt>
 <trkpt lat="47.433403" lon="13.210279">
 <ele>568.40</ele>
 <time>2011-10-23T12:30:25Z</time>
 </trkpt>
 <trkpt lat="47.433228" lon="13.210383">
 <ele>567.65</ele>
 <time>2011-10-23T12:30:27Z</time>
 </trkpt>
 <trkpt lat="47.432720" lon="13.210751">
 <ele>566.39</ele>
 <time>2011-10-23T12:30:33Z</time>
 </trkpt>
 <trkpt lat="47.432240" lon="13.211114">
 <ele>566.35</ele>
 <time>2011-10-23T12:30:39Z</time>
 </trkpt>
 <trkpt lat="47.431740" lon="13.211484">
 <ele>566.29</ele>
 <time>2011-10-23T12:30:46Z</time>
 </trkpt>
 <trkpt lat="47.431396" lon="13.211743">
 <ele>566.61</ele>
 <time>2011-10-23T12:30:51Z</time>
 </trkpt>
 <trkpt lat="47.431263" lon="13.211846">
 <ele>566.57</ele>
 <time>2011-10-23T12:30:53Z</time>
 </trkpt>
 <trkpt lat="47.430489" lon="13.212444">
 <ele>565.95</ele>
 <time>2011-10-23T12:31:05Z</time>
 </trkpt>
 <trkpt lat="47.429886" lon="13.212905">
 <ele>565.77</ele>
 <time>2011-10-23T12:31:15Z</time>
 </trkpt>
 <trkpt lat="47.429718" lon="13.213040">
 <ele>566.09</ele>
 <time>2011-10-23T12:31:18Z</time>
 </trkpt>
 <trkpt lat="47.429314" lon="13.213381">
 <ele>566.44</ele>
 <time>2011-10-23T12:31:25Z</time>
 </trkpt>
 <trkpt lat="47.428833" lon="13.213702">
 <ele>566.43</ele>
 <time>2011-10-23T12:31:33Z</time>
 </trkpt>
 <trkpt lat="47.428715" lon="13.213765">
 <ele>566.48</ele>
 <time>2011-10-23T12:31:35Z</time>
 </trkpt>
 <trkpt lat="47.428570" lon="13.213959">
 <ele>566.78</ele>
 <time>2011-10-23T12:31:39Z</time>
 </trkpt>
 <trkpt lat="47.428570" lon="13.214036">
 <ele>566.78</ele>
 <time>2011-10-23T12:31:40Z</time>
 </trkpt>
 <trkpt lat="47.428730" lon="13.214609">
 <ele>565.36</ele>
 <time>2011-10-23T12:31:46Z</time>
 </trkpt>
 <trkpt lat="47.428833" lon="13.214882">
 <ele>564.61</ele>
 <time>2011-10-23T12:31:49Z</time>
 </trkpt>
 <trkpt lat="47.428822" lon="13.215220">
 <ele>564.51</ele>
 <time>2011-10-23T12:31:53Z</time>
 </trkpt>
 <trkpt lat="47.428726" lon="13.215330">
 <ele>564.54</ele>
 <time>2011-10-23T12:31:55Z</time>
 </trkpt>
 <trkpt lat="47.428307" lon="13.215749">
 <ele>564.58</ele>
 <time>2011-10-23T12:32:04Z</time>
 </trkpt>
 <trkpt lat="47.428005" lon="13.216126">
 <ele>565.12</ele>
 <time>2011-10-23T12:32:12Z</time>
 </trkpt>
 <trkpt lat="47.427933" lon="13.216218">
 <ele>565.17</ele>
 <time>2011-10-23T12:32:14Z</time>
 </trkpt>
 <trkpt lat="47.427689" lon="13.216648">
 <ele>565.49</ele>
 <time>2011-10-23T12:32:22Z</time>
 </trkpt>
 <trkpt lat="47.427563" lon="13.216871">
 <ele>565.91</ele>
 <time>2011-10-23T12:32:28Z</time>
 </trkpt>
 <trkpt lat="47.427410" lon="13.217077">
 <ele>566.06</ele>
 <time>2011-10-23T12:32:35Z</time>
 </trkpt>
 <trkpt lat="47.427387" lon="13.217097">
 <ele>566.09</ele>
 <time>2011-10-23T12:32:36Z</time>
 </trkpt>
 <trkpt lat="47.427246" lon="13.217113">
 <ele>566.32</ele>
 <time>2011-10-23T12:32:41Z</time>
 </trkpt>
 <trkpt lat="47.427204" lon="13.217120">
 <ele>566.33</ele>
 <time>2011-10-23T12:32:42Z</time>
 </trkpt>
 <trkpt lat="47.427040" lon="13.217108">
 <ele>566.13</ele>
 <time>2011-10-23T12:32:45Z</time>
 </trkpt>
 <trkpt lat="47.426914" lon="13.217090">
 <ele>565.69</ele>
 <time>2011-10-23T12:32:47Z</time>
 </trkpt>
 <trkpt lat="47.426620" lon="13.217062">
 <ele>565.18</ele>
 <time>2011-10-23T12:32:52Z</time>
 </trkpt>
 <trkpt lat="47.426376" lon="13.217058">
 <ele>565.84</ele>
 <time>2011-10-23T12:32:57Z</time>
 </trkpt>
 <trkpt lat="47.426277" lon="13.217065">
 <ele>565.96</ele>
 <time>2011-10-23T12:32:59Z</time>
 </trkpt>
 <trkpt lat="47.425930" lon="13.217137">
 <ele>565.76</ele>
 <time>2011-10-23T12:33:06Z</time>
 </trkpt>
 <trkpt lat="47.425735" lon="13.217210">
 <ele>566.02</ele>
 <time>2011-10-23T12:33:10Z</time>
 </trkpt>
 <trkpt lat="47.425404" lon="13.217354">
 <ele>566.31</ele>
 <time>2011-10-23T12:33:17Z</time>
 </trkpt>
 <trkpt lat="47.425316" lon="13.217399">
 <ele>566.41</ele>
 <time>2011-10-23T12:33:19Z</time>
 </trkpt>
 <trkpt lat="47.425140" lon="13.217579">
 <ele>566.74</ele>
 <time>2011-10-23T12:33:24Z</time>
 </trkpt>
 <trkpt lat="47.425026" lon="13.217779">
 <ele>566.91</ele>
 <time>2011-10-23T12:33:28Z</time>
 </trkpt>
 <trkpt lat="47.424950" lon="13.217993">
 <ele>567.07</ele>
 <time>2011-10-23T12:33:32Z</time>
 </trkpt>
 <trkpt lat="47.424767" lon="13.218291">
 <ele>567.30</ele>
 <time>2011-10-23T12:33:39Z</time>
 </trkpt>
 <trkpt lat="47.424572" lon="13.218620">
 <ele>567.47</ele>
 <time>2011-10-23T12:33:46Z</time>
 </trkpt>
 <trkpt lat="47.424358" lon="13.218959">
 <ele>567.21</ele>
 <time>2011-10-23T12:33:54Z</time>
 </trkpt>
 <trkpt lat="47.424217" lon="13.219268">
 <ele>567.26</ele>
 <time>2011-10-23T12:34:00Z</time>
 </trkpt>
 <trkpt lat="47.424168" lon="13.219361">
 <ele>567.31</ele>
 <time>2011-10-23T12:34:02Z</time>
 </trkpt>
 <trkpt lat="47.424011" lon="13.219389">
 <ele>567.22</ele>
 <time>2011-10-23T12:34:06Z</time>
 </trkpt>
 <trkpt lat="47.423920" lon="13.219374">
 <ele>567.19</ele>
 <time>2011-10-23T12:34:08Z</time>
 </trkpt>
 <trkpt lat="47.423515" lon="13.219346">
 <ele>567.49</ele>
 <time>2011-10-23T12:34:17Z</time>
 </trkpt>
 <trkpt lat="47.423435" lon="13.219346">
 <ele>567.78</ele>
 <time>2011-10-23T12:34:19Z</time>
 </trkpt>
 <trkpt lat="47.423199" lon="13.219343">
 <ele>568.25</ele>
 <time>2011-10-23T12:34:26Z</time>
 </trkpt>
 <trkpt lat="47.423092" lon="13.219339">
 <ele>568.54</ele>
 <time>2011-10-23T12:34:31Z</time>
 </trkpt>
 <trkpt lat="47.423084" lon="13.219336">
 <ele>568.68</ele>
 <time>2011-10-23T12:34:33Z</time>
 </trkpt>
 <trkpt lat="47.422909" lon="13.219341">
 <ele>568.95</ele>
 <time>2011-10-23T12:35:15Z</time>
 </trkpt>
 <trkpt lat="47.422829" lon="13.219334">
 <ele>568.59</ele>
 <time>2011-10-23T12:35:17Z</time>
 </trkpt>
 <trkpt lat="47.422733" lon="13.219331">
 <ele>568.14</ele>
 <time>2011-10-23T12:35:19Z</time>
 </trkpt>
 <trkpt lat="47.422382" lon="13.219361">
 <ele>567.87</ele>
 <time>2011-10-23T12:35:27Z</time>
 </trkpt>
 <trkpt lat="47.422161" lon="13.219373">
 <ele>568.66</ele>
 <time>2011-10-23T12:35:33Z</time>
 </trkpt>
 <trkpt lat="47.421940" lon="13.219392">
 <ele>568.80</ele>
 <time>2011-10-23T12:35:39Z</time>
 </trkpt>
 <trkpt lat="47.421879" lon="13.219378">
 <ele>568.96</ele>
 <time>2011-10-23T12:35:42Z</time>
 </trkpt>
 <trkpt lat="47.421867" lon="13.219271">
 <ele>569.98</ele>
 <time>2011-10-23T12:35:48Z</time>
 </trkpt>
 <trkpt lat="47.421879" lon="13.219257">
 <ele>570.18</ele>
 <time>2011-10-23T12:35:51Z</time>
 </trkpt>
 </trkseg>
 </trk>
</gpx>
